<?xml version="1.0" encoding="UTF-8" standalone="no" ?>
<gpx xmlns="http://www.topografix.com/GPX/1/1" xmlns:xsi="http://www.w3.org/2001/XMLSchema-instance" xsi:schemaLocation="http://www.topografix.com/GPX/1/1 http://www.topografix.com/GPX/1/1/gpx.xsd" version="1.1" creator="VisuGPX - https://www.visugpx.com">
  <metadata>
    <name>Forêt de Flines.</name>
  </metadata>
  <wpt lat="50.51286" lon="3.4768">
    <ele>27</ele>
    <name><![CDATA[Cul de sac]]></name>
    <desc><![CDATA[Ce chemin n'existe plus, c'est un champ.]]></desc>
    <type><![CDATA[danger]]></type>
  </wpt>
  <trk>
    <name><![CDATA[Parcours du 2022-04-18 15:38:02]]></name>
    <extensions>
      <line xmlns="http://www.topografix.com/GPX/gpx_style/0/2">
        <color>0000FF</color>
        <width>4</width>
      </line>
    </extensions>
    <trkseg>
      <trkpt lat="50.44992" lon="3.52656">
        <ele>29.6</ele>
        <time>2022-04-18T13:38:16.000Z</time>
      </trkpt>
      <trkpt lat="50.44997" lon="3.5266">
        <ele>29.8</ele>
        <time>2022-04-18T13:38:17.000Z</time>
      </trkpt>
      <trkpt lat="50.45" lon="3.52666">
        <ele>30</ele>
        <time>2022-04-18T13:38:18.000Z</time>
      </trkpt>
      <trkpt lat="50.45006" lon="3.52675">
        <ele>30.3</ele>
        <time>2022-04-18T13:38:20.000Z</time>
      </trkpt>
      <trkpt lat="50.45012" lon="3.5268">
        <ele>30.5</ele>
        <time>2022-04-18T13:38:22.000Z</time>
      </trkpt>
      <trkpt lat="50.45015" lon="3.52688">
        <ele>30.8</ele>
        <time>2022-04-18T13:38:23.901Z</time>
      </trkpt>
      <trkpt lat="50.45019" lon="3.52694">
        <ele>31</ele>
        <time>2022-04-18T13:38:24.819Z</time>
      </trkpt>
      <trkpt lat="50.45025" lon="3.52701">
        <ele>31</ele>
        <time>2022-04-18T13:38:27.000Z</time>
      </trkpt>
      <trkpt lat="50.45032" lon="3.52708">
        <ele>30.8</ele>
        <time>2022-04-18T13:38:29.000Z</time>
      </trkpt>
      <trkpt lat="50.45035" lon="3.52713">
        <ele>30.7</ele>
        <time>2022-04-18T13:38:30.000Z</time>
      </trkpt>
      <trkpt lat="50.45043" lon="3.52726">
        <ele>30.5</ele>
        <time>2022-04-18T13:38:32.598Z</time>
      </trkpt>
      <trkpt lat="50.45048" lon="3.52731">
        <ele>30.3</ele>
        <time>2022-04-18T13:38:33.697Z</time>
      </trkpt>
      <trkpt lat="50.45052" lon="3.52737">
        <ele>30.1</ele>
        <time>2022-04-18T13:38:34.960Z</time>
      </trkpt>
      <trkpt lat="50.45057" lon="3.52743">
        <ele>30</ele>
        <time>2022-04-18T13:38:35.967Z</time>
      </trkpt>
      <trkpt lat="50.45063" lon="3.52749">
        <ele>30</ele>
        <time>2022-04-18T13:38:37.000Z</time>
      </trkpt>
      <trkpt lat="50.45067" lon="3.52754">
        <ele>30</ele>
        <time>2022-04-18T13:38:38.000Z</time>
      </trkpt>
      <trkpt lat="50.45071" lon="3.5276">
        <ele>30</ele>
        <time>2022-04-18T13:38:39.000Z</time>
      </trkpt>
      <trkpt lat="50.45074" lon="3.52765">
        <ele>30</ele>
        <time>2022-04-18T13:38:40.000Z</time>
      </trkpt>
      <trkpt lat="50.45081" lon="3.52776">
        <ele>30</ele>
        <time>2022-04-18T13:38:42.000Z</time>
      </trkpt>
      <trkpt lat="50.45085" lon="3.52781">
        <ele>29.8</ele>
        <time>2022-04-18T13:38:43.000Z</time>
      </trkpt>
      <trkpt lat="50.45088" lon="3.52786">
        <ele>29.6</ele>
        <time>2022-04-18T13:38:44.000Z</time>
      </trkpt>
      <trkpt lat="50.45092" lon="3.52791">
        <ele>29.4</ele>
        <time>2022-04-18T13:38:45.000Z</time>
      </trkpt>
      <trkpt lat="50.45095" lon="3.52796">
        <ele>29.2</ele>
        <time>2022-04-18T13:38:46.000Z</time>
      </trkpt>
      <trkpt lat="50.45104" lon="3.52806">
        <ele>29</ele>
        <time>2022-04-18T13:38:48.000Z</time>
      </trkpt>
      <trkpt lat="50.45108" lon="3.52811">
        <ele>29</ele>
        <time>2022-04-18T13:38:49.000Z</time>
      </trkpt>
      <trkpt lat="50.45112" lon="3.52817">
        <ele>29</ele>
        <time>2022-04-18T13:38:50.000Z</time>
      </trkpt>
      <trkpt lat="50.45116" lon="3.52822">
        <ele>28.8</ele>
        <time>2022-04-18T13:38:51.000Z</time>
      </trkpt>
      <trkpt lat="50.4512" lon="3.52827">
        <ele>28.7</ele>
        <time>2022-04-18T13:38:52.000Z</time>
      </trkpt>
      <trkpt lat="50.45124" lon="3.52832">
        <ele>28.5</ele>
        <time>2022-04-18T13:38:53.000Z</time>
      </trkpt>
      <trkpt lat="50.45127" lon="3.52837">
        <ele>28.5</ele>
        <time>2022-04-18T13:38:54.000Z</time>
      </trkpt>
      <trkpt lat="50.45135" lon="3.52848">
        <ele>28.6</ele>
        <time>2022-04-18T13:38:56.000Z</time>
      </trkpt>
      <trkpt lat="50.45139" lon="3.52853">
        <ele>28.7</ele>
        <time>2022-04-18T13:38:57.000Z</time>
      </trkpt>
      <trkpt lat="50.45143" lon="3.52859">
        <ele>28.8</ele>
        <time>2022-04-18T13:38:58.000Z</time>
      </trkpt>
      <trkpt lat="50.45146" lon="3.52865">
        <ele>28.8</ele>
        <time>2022-04-18T13:38:59.000Z</time>
      </trkpt>
      <trkpt lat="50.4515" lon="3.5287">
        <ele>28.7</ele>
        <time>2022-04-18T13:39:00.000Z</time>
      </trkpt>
      <trkpt lat="50.45154" lon="3.52875">
        <ele>28.7</ele>
        <time>2022-04-18T13:39:01.000Z</time>
      </trkpt>
      <trkpt lat="50.45157" lon="3.5288">
        <ele>28.8</ele>
        <time>2022-04-18T13:39:02.000Z</time>
      </trkpt>
      <trkpt lat="50.45161" lon="3.52884">
        <ele>28.9</ele>
        <time>2022-04-18T13:39:03.000Z</time>
      </trkpt>
      <trkpt lat="50.45165" lon="3.52889">
        <ele>29</ele>
        <time>2022-04-18T13:39:04.000Z</time>
      </trkpt>
      <trkpt lat="50.45168" lon="3.52894">
        <ele>29</ele>
        <time>2022-04-18T13:39:05.000Z</time>
      </trkpt>
      <trkpt lat="50.45172" lon="3.52899">
        <ele>28.9</ele>
        <time>2022-04-18T13:39:06.000Z</time>
      </trkpt>
      <trkpt lat="50.45179" lon="3.52907">
        <ele>28.8</ele>
        <time>2022-04-18T13:39:08.000Z</time>
      </trkpt>
      <trkpt lat="50.45184" lon="3.52914">
        <ele>28.9</ele>
        <time>2022-04-18T13:39:10.000Z</time>
      </trkpt>
      <trkpt lat="50.45189" lon="3.52923">
        <ele>29.2</ele>
        <time>2022-04-18T13:39:12.000Z</time>
      </trkpt>
      <trkpt lat="50.45195" lon="3.52932">
        <ele>29.5</ele>
        <time>2022-04-18T13:39:14.000Z</time>
      </trkpt>
      <trkpt lat="50.45202" lon="3.5294">
        <ele>29.6</ele>
        <time>2022-04-18T13:39:16.000Z</time>
      </trkpt>
      <trkpt lat="50.45205" lon="3.52945">
        <ele>29.6</ele>
        <time>2022-04-18T13:39:17.000Z</time>
      </trkpt>
      <trkpt lat="50.45212" lon="3.52957">
        <ele>29.7</ele>
        <time>2022-04-18T13:39:19.807Z</time>
      </trkpt>
      <trkpt lat="50.45219" lon="3.52964">
        <ele>29.7</ele>
        <time>2022-04-18T13:39:21.000Z</time>
      </trkpt>
      <trkpt lat="50.45223" lon="3.52972">
        <ele>30</ele>
        <time>2022-04-18T13:39:23.000Z</time>
      </trkpt>
      <trkpt lat="50.45227" lon="3.52977">
        <ele>30</ele>
        <time>2022-04-18T13:39:24.139Z</time>
      </trkpt>
      <trkpt lat="50.45235" lon="3.5299">
        <ele>30</ele>
        <time>2022-04-18T13:39:27.000Z</time>
      </trkpt>
      <trkpt lat="50.45239" lon="3.52996">
        <ele>30</ele>
        <time>2022-04-18T13:39:28.000Z</time>
      </trkpt>
      <trkpt lat="50.45245" lon="3.53004">
        <ele>30</ele>
        <time>2022-04-18T13:39:30.000Z</time>
      </trkpt>
      <trkpt lat="50.45253" lon="3.5302">
        <ele>30</ele>
        <time>2022-04-18T13:39:32.975Z</time>
      </trkpt>
      <trkpt lat="50.4526" lon="3.53029">
        <ele>30</ele>
        <time>2022-04-18T13:39:34.923Z</time>
      </trkpt>
      <trkpt lat="50.45263" lon="3.53034">
        <ele>30.1</ele>
        <time>2022-04-18T13:39:36.000Z</time>
      </trkpt>
      <trkpt lat="50.45268" lon="3.53041">
        <ele>30.2</ele>
        <time>2022-04-18T13:39:36.906Z</time>
      </trkpt>
      <trkpt lat="50.45274" lon="3.5305">
        <ele>30.1</ele>
        <time>2022-04-18T13:39:39.000Z</time>
      </trkpt>
      <trkpt lat="50.4528" lon="3.53061">
        <ele>30</ele>
        <time>2022-04-18T13:39:41.000Z</time>
      </trkpt>
      <trkpt lat="50.45284" lon="3.53066">
        <ele>30</ele>
        <time>2022-04-18T13:39:42.000Z</time>
      </trkpt>
      <trkpt lat="50.45287" lon="3.53071">
        <ele>30</ele>
        <time>2022-04-18T13:39:43.000Z</time>
      </trkpt>
      <trkpt lat="50.45293" lon="3.5308">
        <ele>30</ele>
        <time>2022-04-18T13:39:45.000Z</time>
      </trkpt>
      <trkpt lat="50.45297" lon="3.53086">
        <ele>30</ele>
        <time>2022-04-18T13:39:46.000Z</time>
      </trkpt>
      <trkpt lat="50.45301" lon="3.53091">
        <ele>30</ele>
        <time>2022-04-18T13:39:47.000Z</time>
      </trkpt>
      <trkpt lat="50.45305" lon="3.53095">
        <ele>30</ele>
        <time>2022-04-18T13:39:48.000Z</time>
      </trkpt>
      <trkpt lat="50.45309" lon="3.531">
        <ele>29.9</ele>
        <time>2022-04-18T13:39:49.000Z</time>
      </trkpt>
      <trkpt lat="50.45313" lon="3.53106">
        <ele>29.7</ele>
        <time>2022-04-18T13:39:50.000Z</time>
      </trkpt>
      <trkpt lat="50.45316" lon="3.53111">
        <ele>29.6</ele>
        <time>2022-04-18T13:39:51.000Z</time>
      </trkpt>
      <trkpt lat="50.4532" lon="3.53116">
        <ele>29.5</ele>
        <time>2022-04-18T13:39:52.000Z</time>
      </trkpt>
      <trkpt lat="50.45324" lon="3.53122">
        <ele>29.3</ele>
        <time>2022-04-18T13:39:53.000Z</time>
      </trkpt>
      <trkpt lat="50.45327" lon="3.53127">
        <ele>29.2</ele>
        <time>2022-04-18T13:39:54.000Z</time>
      </trkpt>
      <trkpt lat="50.45331" lon="3.53132">
        <ele>29.1</ele>
        <time>2022-04-18T13:39:55.000Z</time>
      </trkpt>
      <trkpt lat="50.45336" lon="3.53139">
        <ele>29</ele>
        <time>2022-04-18T13:39:56.000Z</time>
      </trkpt>
      <trkpt lat="50.4534" lon="3.53143">
        <ele>29</ele>
        <time>2022-04-18T13:39:57.000Z</time>
      </trkpt>
      <trkpt lat="50.45344" lon="3.53148">
        <ele>29</ele>
        <time>2022-04-18T13:39:58.000Z</time>
      </trkpt>
      <trkpt lat="50.45347" lon="3.53154">
        <ele>29</ele>
        <time>2022-04-18T13:39:59.000Z</time>
      </trkpt>
      <trkpt lat="50.45351" lon="3.53159">
        <ele>29</ele>
        <time>2022-04-18T13:40:00.000Z</time>
      </trkpt>
      <trkpt lat="50.45355" lon="3.53165">
        <ele>29</ele>
        <time>2022-04-18T13:40:01.000Z</time>
      </trkpt>
      <trkpt lat="50.45361" lon="3.53172">
        <ele>29</ele>
        <time>2022-04-18T13:40:02.000Z</time>
      </trkpt>
      <trkpt lat="50.45365" lon="3.53179">
        <ele>28.9</ele>
        <time>2022-04-18T13:40:03.000Z</time>
      </trkpt>
      <trkpt lat="50.45369" lon="3.53185">
        <ele>28.7</ele>
        <time>2022-04-18T13:40:04.000Z</time>
      </trkpt>
      <trkpt lat="50.45374" lon="3.53192">
        <ele>28.5</ele>
        <time>2022-04-18T13:40:05.000Z</time>
      </trkpt>
      <trkpt lat="50.45377" lon="3.53198">
        <ele>28.4</ele>
        <time>2022-04-18T13:40:06.000Z</time>
      </trkpt>
      <trkpt lat="50.45382" lon="3.53206">
        <ele>28.1</ele>
        <time>2022-04-18T13:40:07.000Z</time>
      </trkpt>
      <trkpt lat="50.45386" lon="3.53211">
        <ele>28</ele>
        <time>2022-04-18T13:40:08.000Z</time>
      </trkpt>
      <trkpt lat="50.4539" lon="3.53216">
        <ele>28</ele>
        <time>2022-04-18T13:40:09.000Z</time>
      </trkpt>
      <trkpt lat="50.45396" lon="3.53223">
        <ele>27.7</ele>
        <time>2022-04-18T13:40:10.000Z</time>
      </trkpt>
      <trkpt lat="50.45401" lon="3.5323">
        <ele>27.4</ele>
        <time>2022-04-18T13:40:11.000Z</time>
      </trkpt>
      <trkpt lat="50.45406" lon="3.53237">
        <ele>27.2</ele>
        <time>2022-04-18T13:40:12.000Z</time>
      </trkpt>
      <trkpt lat="50.45411" lon="3.53243">
        <ele>27.1</ele>
        <time>2022-04-18T13:40:13.000Z</time>
      </trkpt>
      <trkpt lat="50.45416" lon="3.53249">
        <ele>27</ele>
        <time>2022-04-18T13:40:14.000Z</time>
      </trkpt>
      <trkpt lat="50.45421" lon="3.53256">
        <ele>26.7</ele>
        <time>2022-04-18T13:40:15.000Z</time>
      </trkpt>
      <trkpt lat="50.45427" lon="3.53263">
        <ele>26.3</ele>
        <time>2022-04-18T13:40:16.000Z</time>
      </trkpt>
      <trkpt lat="50.45433" lon="3.53271">
        <ele>26.1</ele>
        <time>2022-04-18T13:40:17.000Z</time>
      </trkpt>
      <trkpt lat="50.45438" lon="3.53277">
        <ele>26</ele>
        <time>2022-04-18T13:40:18.000Z</time>
      </trkpt>
      <trkpt lat="50.45443" lon="3.53283">
        <ele>25.8</ele>
        <time>2022-04-18T13:40:19.000Z</time>
      </trkpt>
      <trkpt lat="50.45449" lon="3.5329">
        <ele>25.5</ele>
        <time>2022-04-18T13:40:20.000Z</time>
      </trkpt>
      <trkpt lat="50.45454" lon="3.53296">
        <ele>25.2</ele>
        <time>2022-04-18T13:40:21.000Z</time>
      </trkpt>
      <trkpt lat="50.45458" lon="3.53303">
        <ele>25</ele>
        <time>2022-04-18T13:40:22.000Z</time>
      </trkpt>
      <trkpt lat="50.45463" lon="3.53309">
        <ele>25</ele>
        <time>2022-04-18T13:40:23.000Z</time>
      </trkpt>
      <trkpt lat="50.45467" lon="3.53315">
        <ele>25</ele>
        <time>2022-04-18T13:40:24.000Z</time>
      </trkpt>
      <trkpt lat="50.45472" lon="3.53322">
        <ele>25</ele>
        <time>2022-04-18T13:40:25.000Z</time>
      </trkpt>
      <trkpt lat="50.45475" lon="3.53327">
        <ele>24.9</ele>
        <time>2022-04-18T13:40:26.036Z</time>
      </trkpt>
      <trkpt lat="50.45482" lon="3.53337">
        <ele>24.6</ele>
        <time>2022-04-18T13:40:27.000Z</time>
      </trkpt>
      <trkpt lat="50.45487" lon="3.53344">
        <ele>24.5</ele>
        <time>2022-04-18T13:40:28.000Z</time>
      </trkpt>
      <trkpt lat="50.45492" lon="3.53353">
        <ele>24.3</ele>
        <time>2022-04-18T13:40:29.000Z</time>
      </trkpt>
      <trkpt lat="50.45497" lon="3.5336">
        <ele>24.1</ele>
        <time>2022-04-18T13:40:30.000Z</time>
      </trkpt>
      <trkpt lat="50.45501" lon="3.53369">
        <ele>24</ele>
        <time>2022-04-18T13:40:31.000Z</time>
      </trkpt>
      <trkpt lat="50.45504" lon="3.5338">
        <ele>24</ele>
        <time>2022-04-18T13:40:32.000Z</time>
      </trkpt>
      <trkpt lat="50.45506" lon="3.53393">
        <ele>24</ele>
        <time>2022-04-18T13:40:33.000Z</time>
      </trkpt>
      <trkpt lat="50.45507" lon="3.53401">
        <ele>24</ele>
        <time>2022-04-18T13:40:34.000Z</time>
      </trkpt>
      <trkpt lat="50.45507" lon="3.53411">
        <ele>24</ele>
        <time>2022-04-18T13:40:35.000Z</time>
      </trkpt>
      <trkpt lat="50.45507" lon="3.53424">
        <ele>24</ele>
        <time>2022-04-18T13:40:36.000Z</time>
      </trkpt>
      <trkpt lat="50.45506" lon="3.53432">
        <ele>24</ele>
        <time>2022-04-18T13:40:37.000Z</time>
      </trkpt>
      <trkpt lat="50.45504" lon="3.53443">
        <ele>24</ele>
        <time>2022-04-18T13:40:38.000Z</time>
      </trkpt>
      <trkpt lat="50.45502" lon="3.53451">
        <ele>24</ele>
        <time>2022-04-18T13:40:39.000Z</time>
      </trkpt>
      <trkpt lat="50.45499" lon="3.53461">
        <ele>24</ele>
        <time>2022-04-18T13:40:40.000Z</time>
      </trkpt>
      <trkpt lat="50.45495" lon="3.53469">
        <ele>24</ele>
        <time>2022-04-18T13:40:41.000Z</time>
      </trkpt>
      <trkpt lat="50.45492" lon="3.53478">
        <ele>23.8</ele>
        <time>2022-04-18T13:40:42.000Z</time>
      </trkpt>
      <trkpt lat="50.4549" lon="3.5349">
        <ele>23.4</ele>
        <time>2022-04-18T13:40:43.000Z</time>
      </trkpt>
      <trkpt lat="50.4549" lon="3.53497">
        <ele>23.1</ele>
        <time>2022-04-18T13:40:44.000Z</time>
      </trkpt>
      <trkpt lat="50.45492" lon="3.53505">
        <ele>23</ele>
        <time>2022-04-18T13:40:45.000Z</time>
      </trkpt>
      <trkpt lat="50.45494" lon="3.53514">
        <ele>23</ele>
        <time>2022-04-18T13:40:46.000Z</time>
      </trkpt>
      <trkpt lat="50.45497" lon="3.53523">
        <ele>23</ele>
        <time>2022-04-18T13:40:47.000Z</time>
      </trkpt>
      <trkpt lat="50.45501" lon="3.53531">
        <ele>23</ele>
        <time>2022-04-18T13:40:48.000Z</time>
      </trkpt>
      <trkpt lat="50.45505" lon="3.53536">
        <ele>23</ele>
        <time>2022-04-18T13:40:49.000Z</time>
      </trkpt>
      <trkpt lat="50.4551" lon="3.53541">
        <ele>23</ele>
        <time>2022-04-18T13:40:50.000Z</time>
      </trkpt>
      <trkpt lat="50.45514" lon="3.53546">
        <ele>23</ele>
        <time>2022-04-18T13:40:51.000Z</time>
      </trkpt>
      <trkpt lat="50.45519" lon="3.53552">
        <ele>23</ele>
        <time>2022-04-18T13:40:52.000Z</time>
      </trkpt>
      <trkpt lat="50.45523" lon="3.53557">
        <ele>23</ele>
        <time>2022-04-18T13:40:53.000Z</time>
      </trkpt>
      <trkpt lat="50.45527" lon="3.53562">
        <ele>23</ele>
        <time>2022-04-18T13:40:54.000Z</time>
      </trkpt>
      <trkpt lat="50.45531" lon="3.53567">
        <ele>23</ele>
        <time>2022-04-18T13:40:55.000Z</time>
      </trkpt>
      <trkpt lat="50.45535" lon="3.53571">
        <ele>23</ele>
        <time>2022-04-18T13:40:56.000Z</time>
      </trkpt>
      <trkpt lat="50.45539" lon="3.53575">
        <ele>23</ele>
        <time>2022-04-18T13:40:57.000Z</time>
      </trkpt>
      <trkpt lat="50.45543" lon="3.5358">
        <ele>23</ele>
        <time>2022-04-18T13:40:58.000Z</time>
      </trkpt>
      <trkpt lat="50.45547" lon="3.53584">
        <ele>23</ele>
        <time>2022-04-18T13:40:59.000Z</time>
      </trkpt>
      <trkpt lat="50.4555" lon="3.53589">
        <ele>23</ele>
        <time>2022-04-18T13:41:00.000Z</time>
      </trkpt>
      <trkpt lat="50.45554" lon="3.53593">
        <ele>23</ele>
        <time>2022-04-18T13:41:01.000Z</time>
      </trkpt>
      <trkpt lat="50.4556" lon="3.53599">
        <ele>22.8</ele>
        <time>2022-04-18T13:41:03.000Z</time>
      </trkpt>
      <trkpt lat="50.45564" lon="3.53603">
        <ele>22.7</ele>
        <time>2022-04-18T13:41:04.000Z</time>
      </trkpt>
      <trkpt lat="50.45571" lon="3.53612">
        <ele>22.4</ele>
        <time>2022-04-18T13:41:06.000Z</time>
      </trkpt>
      <trkpt lat="50.45577" lon="3.5362">
        <ele>22.2</ele>
        <time>2022-04-18T13:41:07.961Z</time>
      </trkpt>
      <trkpt lat="50.45585" lon="3.53626">
        <ele>22</ele>
        <time>2022-04-18T13:41:09.943Z</time>
      </trkpt>
      <trkpt lat="50.45589" lon="3.53629">
        <ele>22</ele>
        <time>2022-04-18T13:41:11.959Z</time>
      </trkpt>
      <trkpt lat="50.45587" lon="3.5364">
        <ele>22</ele>
        <time>2022-04-18T13:41:14.043Z</time>
      </trkpt>
      <trkpt lat="50.45586" lon="3.53649">
        <ele>22.3</ele>
        <time>2022-04-18T13:41:15.000Z</time>
      </trkpt>
      <trkpt lat="50.45584" lon="3.53663">
        <ele>22.8</ele>
        <time>2022-04-18T13:41:17.703Z</time>
      </trkpt>
      <trkpt lat="50.45582" lon="3.53671">
        <ele>23</ele>
        <time>2022-04-18T13:41:19.042Z</time>
      </trkpt>
      <trkpt lat="50.45581" lon="3.53678">
        <ele>23</ele>
        <time>2022-04-18T13:41:20.000Z</time>
      </trkpt>
      <trkpt lat="50.45578" lon="3.53691">
        <ele>23</ele>
        <time>2022-04-18T13:41:22.020Z</time>
      </trkpt>
      <trkpt lat="50.45577" lon="3.53698">
        <ele>23</ele>
        <time>2022-04-18T13:41:23.000Z</time>
      </trkpt>
      <trkpt lat="50.45573" lon="3.53712">
        <ele>23</ele>
        <time>2022-04-18T13:41:25.300Z</time>
      </trkpt>
      <trkpt lat="50.45569" lon="3.53721">
        <ele>23</ele>
        <time>2022-04-18T13:41:27.000Z</time>
      </trkpt>
      <trkpt lat="50.45567" lon="3.53738">
        <ele>22.8</ele>
        <time>2022-04-18T13:41:29.763Z</time>
      </trkpt>
      <trkpt lat="50.45566" lon="3.53745">
        <ele>22.7</ele>
        <time>2022-04-18T13:41:31.000Z</time>
      </trkpt>
      <trkpt lat="50.45563" lon="3.53758">
        <ele>22.7</ele>
        <time>2022-04-18T13:41:33.000Z</time>
      </trkpt>
      <trkpt lat="50.45561" lon="3.53769">
        <ele>22.8</ele>
        <time>2022-04-18T13:41:35.000Z</time>
      </trkpt>
      <trkpt lat="50.45558" lon="3.53781">
        <ele>22.9</ele>
        <time>2022-04-18T13:41:37.000Z</time>
      </trkpt>
      <trkpt lat="50.45554" lon="3.53799">
        <ele>23</ele>
        <time>2022-04-18T13:41:39.882Z</time>
      </trkpt>
      <trkpt lat="50.45552" lon="3.53806">
        <ele>23</ele>
        <time>2022-04-18T13:41:40.962Z</time>
      </trkpt>
      <trkpt lat="50.45551" lon="3.53814">
        <ele>23</ele>
        <time>2022-04-18T13:41:42.000Z</time>
      </trkpt>
      <trkpt lat="50.45548" lon="3.53826">
        <ele>23</ele>
        <time>2022-04-18T13:41:43.920Z</time>
      </trkpt>
      <trkpt lat="50.45545" lon="3.53838">
        <ele>23</ele>
        <time>2022-04-18T13:41:46.140Z</time>
      </trkpt>
      <trkpt lat="50.45543" lon="3.53848">
        <ele>23</ele>
        <time>2022-04-18T13:41:47.800Z</time>
      </trkpt>
      <trkpt lat="50.45541" lon="3.53855">
        <ele>23</ele>
        <time>2022-04-18T13:41:49.000Z</time>
      </trkpt>
      <trkpt lat="50.45538" lon="3.53866">
        <ele>22.9</ele>
        <time>2022-04-18T13:41:51.000Z</time>
      </trkpt>
      <trkpt lat="50.45536" lon="3.53873">
        <ele>22.9</ele>
        <time>2022-04-18T13:41:52.000Z</time>
      </trkpt>
      <trkpt lat="50.45532" lon="3.5389">
        <ele>22.8</ele>
        <time>2022-04-18T13:41:54.921Z</time>
      </trkpt>
      <trkpt lat="50.45531" lon="3.53898">
        <ele>22.9</ele>
        <time>2022-04-18T13:41:56.000Z</time>
      </trkpt>
      <trkpt lat="50.45529" lon="3.53913">
        <ele>23</ele>
        <time>2022-04-18T13:41:58.000Z</time>
      </trkpt>
      <trkpt lat="50.45526" lon="3.53927">
        <ele>22.7</ele>
        <time>2022-04-18T13:42:00.000Z</time>
      </trkpt>
      <trkpt lat="50.45522" lon="3.5394">
        <ele>22.3</ele>
        <time>2022-04-18T13:42:02.000Z</time>
      </trkpt>
      <trkpt lat="50.45521" lon="3.53947">
        <ele>22.2</ele>
        <time>2022-04-18T13:42:03.000Z</time>
      </trkpt>
      <trkpt lat="50.45519" lon="3.53955">
        <ele>22.2</ele>
        <time>2022-04-18T13:42:04.000Z</time>
      </trkpt>
      <trkpt lat="50.45522" lon="3.53962">
        <ele>22.1</ele>
        <time>2022-04-18T13:42:05.000Z</time>
      </trkpt>
      <trkpt lat="50.45531" lon="3.53968">
        <ele>21.9</ele>
        <time>2022-04-18T13:42:07.047Z</time>
      </trkpt>
      <trkpt lat="50.45542" lon="3.53969">
        <ele>21.5</ele>
        <time>2022-04-18T13:42:09.000Z</time>
      </trkpt>
      <trkpt lat="50.45548" lon="3.53972">
        <ele>21.3</ele>
        <time>2022-04-18T13:42:10.000Z</time>
      </trkpt>
      <trkpt lat="50.45556" lon="3.53974">
        <ele>20.9</ele>
        <time>2022-04-18T13:42:11.000Z</time>
      </trkpt>
      <trkpt lat="50.45562" lon="3.53975">
        <ele>20.7</ele>
        <time>2022-04-18T13:42:12.000Z</time>
      </trkpt>
      <trkpt lat="50.45568" lon="3.53977">
        <ele>20.4</ele>
        <time>2022-04-18T13:42:13.000Z</time>
      </trkpt>
      <trkpt lat="50.45575" lon="3.53979">
        <ele>20.1</ele>
        <time>2022-04-18T13:42:14.000Z</time>
      </trkpt>
      <trkpt lat="50.45581" lon="3.53981">
        <ele>19.8</ele>
        <time>2022-04-18T13:42:15.000Z</time>
      </trkpt>
      <trkpt lat="50.45587" lon="3.53984">
        <ele>19.4</ele>
        <time>2022-04-18T13:42:16.000Z</time>
      </trkpt>
      <trkpt lat="50.45594" lon="3.53985">
        <ele>19.2</ele>
        <time>2022-04-18T13:42:17.000Z</time>
      </trkpt>
      <trkpt lat="50.45601" lon="3.53986">
        <ele>18.9</ele>
        <time>2022-04-18T13:42:18.000Z</time>
      </trkpt>
      <trkpt lat="50.45607" lon="3.53986">
        <ele>18.7</ele>
        <time>2022-04-18T13:42:19.000Z</time>
      </trkpt>
      <trkpt lat="50.45615" lon="3.53988">
        <ele>18.3</ele>
        <time>2022-04-18T13:42:20.000Z</time>
      </trkpt>
      <trkpt lat="50.45623" lon="3.53992">
        <ele>17.9</ele>
        <time>2022-04-18T13:42:21.000Z</time>
      </trkpt>
      <trkpt lat="50.4563" lon="3.53999">
        <ele>17.4</ele>
        <time>2022-04-18T13:42:22.000Z</time>
      </trkpt>
      <trkpt lat="50.45635" lon="3.54007">
        <ele>17.1</ele>
        <time>2022-04-18T13:42:23.000Z</time>
      </trkpt>
      <trkpt lat="50.45639" lon="3.54012">
        <ele>17</ele>
        <time>2022-04-18T13:42:23.944Z</time>
      </trkpt>
      <trkpt lat="50.45646" lon="3.54025">
        <ele>17</ele>
        <time>2022-04-18T13:42:25.000Z</time>
      </trkpt>
      <trkpt lat="50.45651" lon="3.54033">
        <ele>17</ele>
        <time>2022-04-18T13:42:26.000Z</time>
      </trkpt>
      <trkpt lat="50.45656" lon="3.54041">
        <ele>17</ele>
        <time>2022-04-18T13:42:27.000Z</time>
      </trkpt>
      <trkpt lat="50.4566" lon="3.54048">
        <ele>17</ele>
        <time>2022-04-18T13:42:28.000Z</time>
      </trkpt>
      <trkpt lat="50.45665" lon="3.54054">
        <ele>17</ele>
        <time>2022-04-18T13:42:29.000Z</time>
      </trkpt>
      <trkpt lat="50.4567" lon="3.5406">
        <ele>16.9</ele>
        <time>2022-04-18T13:42:30.000Z</time>
      </trkpt>
      <trkpt lat="50.4568" lon="3.54072">
        <ele>16.8</ele>
        <time>2022-04-18T13:42:32.000Z</time>
      </trkpt>
      <trkpt lat="50.45686" lon="3.54078">
        <ele>16.9</ele>
        <time>2022-04-18T13:42:33.000Z</time>
      </trkpt>
      <trkpt lat="50.45691" lon="3.54085">
        <ele>17</ele>
        <time>2022-04-18T13:42:34.000Z</time>
      </trkpt>
      <trkpt lat="50.45696" lon="3.54091">
        <ele>17</ele>
        <time>2022-04-18T13:42:35.000Z</time>
      </trkpt>
      <trkpt lat="50.45702" lon="3.54097">
        <ele>17</ele>
        <time>2022-04-18T13:42:36.000Z</time>
      </trkpt>
      <trkpt lat="50.45707" lon="3.54101">
        <ele>17</ele>
        <time>2022-04-18T13:42:37.000Z</time>
      </trkpt>
      <trkpt lat="50.45712" lon="3.54105">
        <ele>17</ele>
        <time>2022-04-18T13:42:38.000Z</time>
      </trkpt>
      <trkpt lat="50.45717" lon="3.54108">
        <ele>17</ele>
        <time>2022-04-18T13:42:39.000Z</time>
      </trkpt>
      <trkpt lat="50.45722" lon="3.54111">
        <ele>17</ele>
        <time>2022-04-18T13:42:40.000Z</time>
      </trkpt>
      <trkpt lat="50.45727" lon="3.54114">
        <ele>17.3</ele>
        <time>2022-04-18T13:42:41.000Z</time>
      </trkpt>
      <trkpt lat="50.45731" lon="3.54118">
        <ele>17.5</ele>
        <time>2022-04-18T13:42:42.000Z</time>
      </trkpt>
      <trkpt lat="50.45737" lon="3.54119">
        <ele>17.7</ele>
        <time>2022-04-18T13:42:44.000Z</time>
      </trkpt>
      <trkpt lat="50.45743" lon="3.54115">
        <ele>17.8</ele>
        <time>2022-04-18T13:42:46.000Z</time>
      </trkpt>
      <trkpt lat="50.45746" lon="3.54108">
        <ele>17.8</ele>
        <time>2022-04-18T13:42:47.943Z</time>
      </trkpt>
      <trkpt lat="50.45753" lon="3.54095">
        <ele>17.5</ele>
        <time>2022-04-18T13:42:51.214Z</time>
      </trkpt>
      <trkpt lat="50.45756" lon="3.54088">
        <ele>17.3</ele>
        <time>2022-04-18T13:42:52.338Z</time>
      </trkpt>
      <trkpt lat="50.45759" lon="3.54081">
        <ele>17.3</ele>
        <time>2022-04-18T13:42:53.697Z</time>
      </trkpt>
      <trkpt lat="50.45762" lon="3.54073">
        <ele>17.4</ele>
        <time>2022-04-18T13:42:55.000Z</time>
      </trkpt>
      <trkpt lat="50.45767" lon="3.54064">
        <ele>17.6</ele>
        <time>2022-04-18T13:42:57.000Z</time>
      </trkpt>
      <trkpt lat="50.45772" lon="3.54052">
        <ele>17.7</ele>
        <time>2022-04-18T13:42:59.000Z</time>
      </trkpt>
      <trkpt lat="50.45777" lon="3.54043">
        <ele>17.5</ele>
        <time>2022-04-18T13:43:00.636Z</time>
      </trkpt>
      <trkpt lat="50.4578" lon="3.54038">
        <ele>17.4</ele>
        <time>2022-04-18T13:43:01.892Z</time>
      </trkpt>
      <trkpt lat="50.45786" lon="3.54028">
        <ele>17.3</ele>
        <time>2022-04-18T13:43:04.000Z</time>
      </trkpt>
      <trkpt lat="50.4579" lon="3.54022">
        <ele>17.3</ele>
        <time>2022-04-18T13:43:05.000Z</time>
      </trkpt>
      <trkpt lat="50.45794" lon="3.54012">
        <ele>17.3</ele>
        <time>2022-04-18T13:43:06.000Z</time>
      </trkpt>
      <trkpt lat="50.45798" lon="3.54017">
        <ele>17.4</ele>
        <time>2022-04-18T13:43:07.000Z</time>
      </trkpt>
      <trkpt lat="50.45799" lon="3.54006">
        <ele>17.2</ele>
        <time>2022-04-18T13:43:08.000Z</time>
      </trkpt>
      <trkpt lat="50.45802" lon="3.53999">
        <ele>17</ele>
        <time>2022-04-18T13:43:09.000Z</time>
      </trkpt>
      <trkpt lat="50.45809" lon="3.53988">
        <ele>17.1</ele>
        <time>2022-04-18T13:43:11.000Z</time>
      </trkpt>
      <trkpt lat="50.45813" lon="3.53983">
        <ele>17.3</ele>
        <time>2022-04-18T13:43:12.000Z</time>
      </trkpt>
      <trkpt lat="50.45819" lon="3.53974">
        <ele>17.5</ele>
        <time>2022-04-18T13:43:14.000Z</time>
      </trkpt>
      <trkpt lat="50.45823" lon="3.53968">
        <ele>17.5</ele>
        <time>2022-04-18T13:43:15.000Z</time>
      </trkpt>
      <trkpt lat="50.45827" lon="3.53961">
        <ele>17.5</ele>
        <time>2022-04-18T13:43:16.000Z</time>
      </trkpt>
      <trkpt lat="50.4583" lon="3.53956">
        <ele>17.4</ele>
        <time>2022-04-18T13:43:17.000Z</time>
      </trkpt>
      <trkpt lat="50.45833" lon="3.5395">
        <ele>17.2</ele>
        <time>2022-04-18T13:43:18.000Z</time>
      </trkpt>
      <trkpt lat="50.45837" lon="3.53943">
        <ele>17.1</ele>
        <time>2022-04-18T13:43:19.000Z</time>
      </trkpt>
      <trkpt lat="50.4584" lon="3.53938">
        <ele>17.2</ele>
        <time>2022-04-18T13:43:20.000Z</time>
      </trkpt>
      <trkpt lat="50.45844" lon="3.53932">
        <ele>17.2</ele>
        <time>2022-04-18T13:43:21.000Z</time>
      </trkpt>
      <trkpt lat="50.45847" lon="3.53927">
        <ele>17.2</ele>
        <time>2022-04-18T13:43:22.000Z</time>
      </trkpt>
      <trkpt lat="50.45851" lon="3.53922">
        <ele>17.1</ele>
        <time>2022-04-18T13:43:23.000Z</time>
      </trkpt>
      <trkpt lat="50.45858" lon="3.53912">
        <ele>17</ele>
        <time>2022-04-18T13:43:25.000Z</time>
      </trkpt>
      <trkpt lat="50.45862" lon="3.53906">
        <ele>17</ele>
        <time>2022-04-18T13:43:26.000Z</time>
      </trkpt>
      <trkpt lat="50.45865" lon="3.53901">
        <ele>17.1</ele>
        <time>2022-04-18T13:43:27.000Z</time>
      </trkpt>
      <trkpt lat="50.45869" lon="3.53894">
        <ele>17.3</ele>
        <time>2022-04-18T13:43:28.000Z</time>
      </trkpt>
      <trkpt lat="50.45874" lon="3.53886">
        <ele>17.4</ele>
        <time>2022-04-18T13:43:30.000Z</time>
      </trkpt>
      <trkpt lat="50.45879" lon="3.53879">
        <ele>17.3</ele>
        <time>2022-04-18T13:43:31.000Z</time>
      </trkpt>
      <trkpt lat="50.45885" lon="3.53873">
        <ele>17.3</ele>
        <time>2022-04-18T13:43:33.000Z</time>
      </trkpt>
      <trkpt lat="50.4589" lon="3.53867">
        <ele>17.2</ele>
        <time>2022-04-18T13:43:34.000Z</time>
      </trkpt>
      <trkpt lat="50.45894" lon="3.53863">
        <ele>17.2</ele>
        <time>2022-04-18T13:43:35.000Z</time>
      </trkpt>
      <trkpt lat="50.45898" lon="3.53858">
        <ele>17.3</ele>
        <time>2022-04-18T13:43:36.000Z</time>
      </trkpt>
      <trkpt lat="50.45904" lon="3.53848">
        <ele>17.5</ele>
        <time>2022-04-18T13:43:38.000Z</time>
      </trkpt>
      <trkpt lat="50.4591" lon="3.53839">
        <ele>17.8</ele>
        <time>2022-04-18T13:43:39.000Z</time>
      </trkpt>
      <trkpt lat="50.45914" lon="3.53834">
        <ele>17.9</ele>
        <time>2022-04-18T13:43:41.000Z</time>
      </trkpt>
      <trkpt lat="50.4592" lon="3.53827">
        <ele>17.8</ele>
        <time>2022-04-18T13:43:42.000Z</time>
      </trkpt>
      <trkpt lat="50.4593" lon="3.53816">
        <ele>17.4</ele>
        <time>2022-04-18T13:43:45.000Z</time>
      </trkpt>
      <trkpt lat="50.45936" lon="3.53811">
        <ele>17.2</ele>
        <time>2022-04-18T13:43:47.000Z</time>
      </trkpt>
      <trkpt lat="50.45939" lon="3.53805">
        <ele>17</ele>
        <time>2022-04-18T13:43:48.000Z</time>
      </trkpt>
      <trkpt lat="50.45943" lon="3.538">
        <ele>17</ele>
        <time>2022-04-18T13:43:49.000Z</time>
      </trkpt>
      <trkpt lat="50.45947" lon="3.53795">
        <ele>17</ele>
        <time>2022-04-18T13:43:50.000Z</time>
      </trkpt>
      <trkpt lat="50.45953" lon="3.53786">
        <ele>17</ele>
        <time>2022-04-18T13:43:52.000Z</time>
      </trkpt>
      <trkpt lat="50.4596" lon="3.53776">
        <ele>17</ele>
        <time>2022-04-18T13:43:53.937Z</time>
      </trkpt>
      <trkpt lat="50.45969" lon="3.53768">
        <ele>17</ele>
        <time>2022-04-18T13:43:56.000Z</time>
      </trkpt>
      <trkpt lat="50.45977" lon="3.53762">
        <ele>17</ele>
        <time>2022-04-18T13:43:58.018Z</time>
      </trkpt>
      <trkpt lat="50.45981" lon="3.53756">
        <ele>17</ele>
        <time>2022-04-18T13:43:59.916Z</time>
      </trkpt>
      <trkpt lat="50.45985" lon="3.5375">
        <ele>17</ele>
        <time>2022-04-18T13:44:01.000Z</time>
      </trkpt>
      <trkpt lat="50.45994" lon="3.5374">
        <ele>17</ele>
        <time>2022-04-18T13:44:03.000Z</time>
      </trkpt>
      <trkpt lat="50.45998" lon="3.53735">
        <ele>17</ele>
        <time>2022-04-18T13:44:04.135Z</time>
      </trkpt>
      <trkpt lat="50.46006" lon="3.53726">
        <ele>17</ele>
        <time>2022-04-18T13:44:06.637Z</time>
      </trkpt>
      <trkpt lat="50.4601" lon="3.53721">
        <ele>17</ele>
        <time>2022-04-18T13:44:08.015Z</time>
      </trkpt>
      <trkpt lat="50.46014" lon="3.53714">
        <ele>16.7</ele>
        <time>2022-04-18T13:44:09.116Z</time>
      </trkpt>
      <trkpt lat="50.4602" lon="3.53708">
        <ele>16.5</ele>
        <time>2022-04-18T13:44:10.959Z</time>
      </trkpt>
      <trkpt lat="50.46025" lon="3.53704">
        <ele>16.3</ele>
        <time>2022-04-18T13:44:12.000Z</time>
      </trkpt>
      <trkpt lat="50.46029" lon="3.53699">
        <ele>16.2</ele>
        <time>2022-04-18T13:44:13.000Z</time>
      </trkpt>
      <trkpt lat="50.46033" lon="3.53694">
        <ele>16</ele>
        <time>2022-04-18T13:44:14.000Z</time>
      </trkpt>
      <trkpt lat="50.46037" lon="3.53689">
        <ele>16</ele>
        <time>2022-04-18T13:44:15.000Z</time>
      </trkpt>
      <trkpt lat="50.46044" lon="3.53682">
        <ele>16</ele>
        <time>2022-04-18T13:44:17.000Z</time>
      </trkpt>
      <trkpt lat="50.46048" lon="3.53678">
        <ele>16</ele>
        <time>2022-04-18T13:44:18.000Z</time>
      </trkpt>
      <trkpt lat="50.46053" lon="3.53673">
        <ele>16</ele>
        <time>2022-04-18T13:44:19.000Z</time>
      </trkpt>
      <trkpt lat="50.46061" lon="3.53666">
        <ele>16</ele>
        <time>2022-04-18T13:44:21.000Z</time>
      </trkpt>
      <trkpt lat="50.46066" lon="3.53659">
        <ele>16</ele>
        <time>2022-04-18T13:44:22.000Z</time>
      </trkpt>
      <trkpt lat="50.4607" lon="3.53653">
        <ele>16</ele>
        <time>2022-04-18T13:44:23.000Z</time>
      </trkpt>
      <trkpt lat="50.46075" lon="3.53649">
        <ele>16</ele>
        <time>2022-04-18T13:44:24.000Z</time>
      </trkpt>
      <trkpt lat="50.4608" lon="3.53644">
        <ele>16</ele>
        <time>2022-04-18T13:44:25.000Z</time>
      </trkpt>
      <trkpt lat="50.46084" lon="3.53638">
        <ele>16</ele>
        <time>2022-04-18T13:44:26.000Z</time>
      </trkpt>
      <trkpt lat="50.46088" lon="3.53632">
        <ele>16</ele>
        <time>2022-04-18T13:44:27.000Z</time>
      </trkpt>
      <trkpt lat="50.46093" lon="3.53626">
        <ele>16</ele>
        <time>2022-04-18T13:44:28.000Z</time>
      </trkpt>
      <trkpt lat="50.46097" lon="3.53621">
        <ele>16</ele>
        <time>2022-04-18T13:44:29.000Z</time>
      </trkpt>
      <trkpt lat="50.46101" lon="3.53616">
        <ele>16</ele>
        <time>2022-04-18T13:44:30.000Z</time>
      </trkpt>
      <trkpt lat="50.46106" lon="3.5361">
        <ele>16</ele>
        <time>2022-04-18T13:44:31.000Z</time>
      </trkpt>
      <trkpt lat="50.4611" lon="3.53604">
        <ele>16</ele>
        <time>2022-04-18T13:44:32.000Z</time>
      </trkpt>
      <trkpt lat="50.46114" lon="3.53599">
        <ele>16</ele>
        <time>2022-04-18T13:44:33.000Z</time>
      </trkpt>
      <trkpt lat="50.4612" lon="3.5359">
        <ele>16</ele>
        <time>2022-04-18T13:44:35.000Z</time>
      </trkpt>
      <trkpt lat="50.46125" lon="3.53584">
        <ele>16</ele>
        <time>2022-04-18T13:44:37.000Z</time>
      </trkpt>
      <trkpt lat="50.4613" lon="3.53576">
        <ele>16</ele>
        <time>2022-04-18T13:44:38.000Z</time>
      </trkpt>
      <trkpt lat="50.46136" lon="3.53566">
        <ele>16</ele>
        <time>2022-04-18T13:44:40.000Z</time>
      </trkpt>
      <trkpt lat="50.46141" lon="3.53557">
        <ele>16.1</ele>
        <time>2022-04-18T13:44:42.000Z</time>
      </trkpt>
      <trkpt lat="50.46147" lon="3.53546">
        <ele>16.5</ele>
        <time>2022-04-18T13:44:43.768Z</time>
      </trkpt>
      <trkpt lat="50.46156" lon="3.53529">
        <ele>17</ele>
        <time>2022-04-18T13:44:47.000Z</time>
      </trkpt>
      <trkpt lat="50.4616" lon="3.53521">
        <ele>17</ele>
        <time>2022-04-18T13:44:48.066Z</time>
      </trkpt>
      <trkpt lat="50.46163" lon="3.53513">
        <ele>17</ele>
        <time>2022-04-18T13:44:49.000Z</time>
      </trkpt>
      <trkpt lat="50.46166" lon="3.53504">
        <ele>17</ele>
        <time>2022-04-18T13:44:51.067Z</time>
      </trkpt>
      <trkpt lat="50.46172" lon="3.53491">
        <ele>17.1</ele>
        <time>2022-04-18T13:44:52.888Z</time>
      </trkpt>
      <trkpt lat="50.46178" lon="3.53479">
        <ele>17.3</ele>
        <time>2022-04-18T13:44:55.029Z</time>
      </trkpt>
      <trkpt lat="50.46183" lon="3.53466">
        <ele>17.5</ele>
        <time>2022-04-18T13:44:57.000Z</time>
      </trkpt>
      <trkpt lat="50.46187" lon="3.53457">
        <ele>17.4</ele>
        <time>2022-04-18T13:44:59.000Z</time>
      </trkpt>
      <trkpt lat="50.46185" lon="3.5345">
        <ele>17.6</ele>
        <time>2022-04-18T13:45:00.906Z</time>
      </trkpt>
      <trkpt lat="50.46197" lon="3.5344">
        <ele>16.8</ele>
        <time>2022-04-18T13:45:02.000Z</time>
      </trkpt>
      <trkpt lat="50.46201" lon="3.53434">
        <ele>16.6</ele>
        <time>2022-04-18T13:45:03.000Z</time>
      </trkpt>
      <trkpt lat="50.46206" lon="3.53423">
        <ele>16.5</ele>
        <time>2022-04-18T13:45:05.000Z</time>
      </trkpt>
      <trkpt lat="50.46209" lon="3.53415">
        <ele>16.5</ele>
        <time>2022-04-18T13:45:06.000Z</time>
      </trkpt>
      <trkpt lat="50.46213" lon="3.53408">
        <ele>16.6</ele>
        <time>2022-04-18T13:45:07.000Z</time>
      </trkpt>
      <trkpt lat="50.46218" lon="3.534">
        <ele>16.8</ele>
        <time>2022-04-18T13:45:09.000Z</time>
      </trkpt>
      <trkpt lat="50.46222" lon="3.53393">
        <ele>16.9</ele>
        <time>2022-04-18T13:45:10.000Z</time>
      </trkpt>
      <trkpt lat="50.46228" lon="3.53382">
        <ele>16.5</ele>
        <time>2022-04-18T13:45:12.000Z</time>
      </trkpt>
      <trkpt lat="50.46234" lon="3.53372">
        <ele>16.2</ele>
        <time>2022-04-18T13:45:14.000Z</time>
      </trkpt>
      <trkpt lat="50.46238" lon="3.53367">
        <ele>16.2</ele>
        <time>2022-04-18T13:45:15.000Z</time>
      </trkpt>
      <trkpt lat="50.46243" lon="3.53356">
        <ele>16.4</ele>
        <time>2022-04-18T13:45:17.000Z</time>
      </trkpt>
      <trkpt lat="50.46247" lon="3.53349">
        <ele>16.5</ele>
        <time>2022-04-18T13:45:18.000Z</time>
      </trkpt>
      <trkpt lat="50.46251" lon="3.53342">
        <ele>16.6</ele>
        <time>2022-04-18T13:45:19.000Z</time>
      </trkpt>
      <trkpt lat="50.46257" lon="3.53333">
        <ele>16.5</ele>
        <time>2022-04-18T13:45:21.000Z</time>
      </trkpt>
      <trkpt lat="50.4626" lon="3.53326">
        <ele>16.6</ele>
        <time>2022-04-18T13:45:22.000Z</time>
      </trkpt>
      <trkpt lat="50.46266" lon="3.53315">
        <ele>16.9</ele>
        <time>2022-04-18T13:45:24.000Z</time>
      </trkpt>
      <trkpt lat="50.4627" lon="3.53309">
        <ele>17.1</ele>
        <time>2022-04-18T13:45:25.000Z</time>
      </trkpt>
      <trkpt lat="50.46276" lon="3.533">
        <ele>17.1</ele>
        <time>2022-04-18T13:45:27.000Z</time>
      </trkpt>
      <trkpt lat="50.46279" lon="3.53292">
        <ele>16.9</ele>
        <time>2022-04-18T13:45:28.000Z</time>
      </trkpt>
      <trkpt lat="50.46285" lon="3.53282">
        <ele>16.7</ele>
        <time>2022-04-18T13:45:30.000Z</time>
      </trkpt>
      <trkpt lat="50.46289" lon="3.53276">
        <ele>16.7</ele>
        <time>2022-04-18T13:45:31.000Z</time>
      </trkpt>
      <trkpt lat="50.46294" lon="3.53269">
        <ele>16.7</ele>
        <time>2022-04-18T13:45:33.113Z</time>
      </trkpt>
      <trkpt lat="50.463" lon="3.53263">
        <ele>16.7</ele>
        <time>2022-04-18T13:45:34.428Z</time>
      </trkpt>
      <trkpt lat="50.46302" lon="3.53255">
        <ele>16.9</ele>
        <time>2022-04-18T13:45:35.388Z</time>
      </trkpt>
      <trkpt lat="50.46305" lon="3.53248">
        <ele>17</ele>
        <time>2022-04-18T13:45:36.753Z</time>
      </trkpt>
      <trkpt lat="50.4631" lon="3.53239">
        <ele>16.7</ele>
        <time>2022-04-18T13:45:38.093Z</time>
      </trkpt>
      <trkpt lat="50.46313" lon="3.53234">
        <ele>16.6</ele>
        <time>2022-04-18T13:45:39.000Z</time>
      </trkpt>
      <trkpt lat="50.46318" lon="3.53226">
        <ele>16.5</ele>
        <time>2022-04-18T13:45:41.000Z</time>
      </trkpt>
      <trkpt lat="50.46321" lon="3.53219">
        <ele>16.6</ele>
        <time>2022-04-18T13:45:42.000Z</time>
      </trkpt>
      <trkpt lat="50.46325" lon="3.53211">
        <ele>16.7</ele>
        <time>2022-04-18T13:45:43.554Z</time>
      </trkpt>
      <trkpt lat="50.46329" lon="3.53204">
        <ele>16.8</ele>
        <time>2022-04-18T13:45:44.773Z</time>
      </trkpt>
      <trkpt lat="50.46334" lon="3.53194">
        <ele>17</ele>
        <time>2022-04-18T13:45:46.790Z</time>
      </trkpt>
      <trkpt lat="50.46337" lon="3.53186">
        <ele>16.8</ele>
        <time>2022-04-18T13:45:48.130Z</time>
      </trkpt>
      <trkpt lat="50.46342" lon="3.53176">
        <ele>16.6</ele>
        <time>2022-04-18T13:45:50.000Z</time>
      </trkpt>
      <trkpt lat="50.46345" lon="3.53169">
        <ele>16.5</ele>
        <time>2022-04-18T13:45:51.000Z</time>
      </trkpt>
      <trkpt lat="50.4635" lon="3.53158">
        <ele>16.7</ele>
        <time>2022-04-18T13:45:53.000Z</time>
      </trkpt>
      <trkpt lat="50.46356" lon="3.53146">
        <ele>16.9</ele>
        <time>2022-04-18T13:45:55.000Z</time>
      </trkpt>
      <trkpt lat="50.46361" lon="3.53135">
        <ele>17</ele>
        <time>2022-04-18T13:45:57.000Z</time>
      </trkpt>
      <trkpt lat="50.46365" lon="3.53128">
        <ele>16.8</ele>
        <time>2022-04-18T13:45:58.000Z</time>
      </trkpt>
      <trkpt lat="50.46371" lon="3.53117">
        <ele>16.6</ele>
        <time>2022-04-18T13:46:00.000Z</time>
      </trkpt>
      <trkpt lat="50.46375" lon="3.53109">
        <ele>16.5</ele>
        <time>2022-04-18T13:46:01.000Z</time>
      </trkpt>
      <trkpt lat="50.46378" lon="3.53103">
        <ele>16.6</ele>
        <time>2022-04-18T13:46:02.000Z</time>
      </trkpt>
      <trkpt lat="50.46381" lon="3.53098">
        <ele>16.6</ele>
        <time>2022-04-18T13:46:03.000Z</time>
      </trkpt>
      <trkpt lat="50.46386" lon="3.53088">
        <ele>16.8</ele>
        <time>2022-04-18T13:46:05.000Z</time>
      </trkpt>
      <trkpt lat="50.46389" lon="3.53081">
        <ele>17</ele>
        <time>2022-04-18T13:46:06.000Z</time>
      </trkpt>
      <trkpt lat="50.46393" lon="3.53073">
        <ele>16.8</ele>
        <time>2022-04-18T13:46:08.000Z</time>
      </trkpt>
      <trkpt lat="50.46397" lon="3.53064">
        <ele>16.6</ele>
        <time>2022-04-18T13:46:10.000Z</time>
      </trkpt>
      <trkpt lat="50.46401" lon="3.53056">
        <ele>16.6</ele>
        <time>2022-04-18T13:46:11.000Z</time>
      </trkpt>
      <trkpt lat="50.46404" lon="3.53049">
        <ele>16.6</ele>
        <time>2022-04-18T13:46:12.566Z</time>
      </trkpt>
      <trkpt lat="50.46408" lon="3.53041">
        <ele>16.7</ele>
        <time>2022-04-18T13:46:14.000Z</time>
      </trkpt>
      <trkpt lat="50.46413" lon="3.53029">
        <ele>17</ele>
        <time>2022-04-18T13:46:16.637Z</time>
      </trkpt>
      <trkpt lat="50.46417" lon="3.53022">
        <ele>17</ele>
        <time>2022-04-18T13:46:18.000Z</time>
      </trkpt>
      <trkpt lat="50.46423" lon="3.53011">
        <ele>16.7</ele>
        <time>2022-04-18T13:46:20.108Z</time>
      </trkpt>
      <trkpt lat="50.46426" lon="3.53004">
        <ele>16.6</ele>
        <time>2022-04-18T13:46:22.189Z</time>
      </trkpt>
      <trkpt lat="50.4643" lon="3.52999">
        <ele>16.5</ele>
        <time>2022-04-18T13:46:23.668Z</time>
      </trkpt>
      <trkpt lat="50.46435" lon="3.52987">
        <ele>16.6</ele>
        <time>2022-04-18T13:46:25.886Z</time>
      </trkpt>
      <trkpt lat="50.46442" lon="3.52974">
        <ele>16.9</ele>
        <time>2022-04-18T13:46:28.888Z</time>
      </trkpt>
      <trkpt lat="50.46446" lon="3.52967">
        <ele>17</ele>
        <time>2022-04-18T13:46:30.109Z</time>
      </trkpt>
      <trkpt lat="50.46451" lon="3.52957">
        <ele>16.9</ele>
        <time>2022-04-18T13:46:33.045Z</time>
      </trkpt>
      <trkpt lat="50.46457" lon="3.52948">
        <ele>16.9</ele>
        <time>2022-04-18T13:46:35.091Z</time>
      </trkpt>
      <trkpt lat="50.46459" lon="3.52942">
        <ele>17</ele>
        <time>2022-04-18T13:46:36.046Z</time>
      </trkpt>
      <trkpt lat="50.46464" lon="3.52932">
        <ele>17.3</ele>
        <time>2022-04-18T13:46:38.000Z</time>
      </trkpt>
      <trkpt lat="50.46468" lon="3.52924">
        <ele>17.6</ele>
        <time>2022-04-18T13:46:40.130Z</time>
      </trkpt>
      <trkpt lat="50.46473" lon="3.52914">
        <ele>17.9</ele>
        <time>2022-04-18T13:46:42.467Z</time>
      </trkpt>
      <trkpt lat="50.46479" lon="3.52903">
        <ele>17.4</ele>
        <time>2022-04-18T13:46:45.000Z</time>
      </trkpt>
      <trkpt lat="50.46484" lon="3.52893">
        <ele>17.1</ele>
        <time>2022-04-18T13:46:47.000Z</time>
      </trkpt>
      <trkpt lat="50.46486" lon="3.52886">
        <ele>17.1</ele>
        <time>2022-04-18T13:46:48.835Z</time>
      </trkpt>
      <trkpt lat="50.4649" lon="3.5288">
        <ele>17.2</ele>
        <time>2022-04-18T13:46:49.789Z</time>
      </trkpt>
      <trkpt lat="50.46494" lon="3.52872">
        <ele>17.5</ele>
        <time>2022-04-18T13:46:52.026Z</time>
      </trkpt>
      <trkpt lat="50.46497" lon="3.52865">
        <ele>17.8</ele>
        <time>2022-04-18T13:46:53.074Z</time>
      </trkpt>
      <trkpt lat="50.465" lon="3.52859">
        <ele>17.9</ele>
        <time>2022-04-18T13:46:54.000Z</time>
      </trkpt>
      <trkpt lat="50.46507" lon="3.52848">
        <ele>17.3</ele>
        <time>2022-04-18T13:46:56.000Z</time>
      </trkpt>
      <trkpt lat="50.46511" lon="3.5284">
        <ele>17</ele>
        <time>2022-04-18T13:46:58.000Z</time>
      </trkpt>
      <trkpt lat="50.46516" lon="3.5283">
        <ele>17.1</ele>
        <time>2022-04-18T13:47:00.127Z</time>
      </trkpt>
      <trkpt lat="50.4652" lon="3.52821">
        <ele>17.3</ele>
        <time>2022-04-18T13:47:02.000Z</time>
      </trkpt>
      <trkpt lat="50.46525" lon="3.52811">
        <ele>17.7</ele>
        <time>2022-04-18T13:47:04.046Z</time>
      </trkpt>
      <trkpt lat="50.46531" lon="3.528">
        <ele>17.6</ele>
        <time>2022-04-18T13:47:06.986Z</time>
      </trkpt>
      <trkpt lat="50.46535" lon="3.52794">
        <ele>17.3</ele>
        <time>2022-04-18T13:47:08.685Z</time>
      </trkpt>
      <trkpt lat="50.46539" lon="3.52788">
        <ele>17.1</ele>
        <time>2022-04-18T13:47:10.000Z</time>
      </trkpt>
      <trkpt lat="50.46544" lon="3.52778">
        <ele>17</ele>
        <time>2022-04-18T13:47:12.000Z</time>
      </trkpt>
      <trkpt lat="50.4655" lon="3.52767">
        <ele>17.1</ele>
        <time>2022-04-18T13:47:14.000Z</time>
      </trkpt>
      <trkpt lat="50.46554" lon="3.52761">
        <ele>17</ele>
        <time>2022-04-18T13:47:15.000Z</time>
      </trkpt>
      <trkpt lat="50.46558" lon="3.52752">
        <ele>16.9</ele>
        <time>2022-04-18T13:47:17.000Z</time>
      </trkpt>
      <trkpt lat="50.46563" lon="3.52742">
        <ele>16.8</ele>
        <time>2022-04-18T13:47:19.047Z</time>
      </trkpt>
      <trkpt lat="50.46567" lon="3.52733">
        <ele>16.8</ele>
        <time>2022-04-18T13:47:20.584Z</time>
      </trkpt>
      <trkpt lat="50.4657" lon="3.52726">
        <ele>16.9</ele>
        <time>2022-04-18T13:47:21.986Z</time>
      </trkpt>
      <trkpt lat="50.46574" lon="3.5272">
        <ele>17.1</ele>
        <time>2022-04-18T13:47:23.087Z</time>
      </trkpt>
      <trkpt lat="50.46577" lon="3.52714">
        <ele>17.3</ele>
        <time>2022-04-18T13:47:24.000Z</time>
      </trkpt>
      <trkpt lat="50.46583" lon="3.52706">
        <ele>17.6</ele>
        <time>2022-04-18T13:47:26.087Z</time>
      </trkpt>
      <trkpt lat="50.46587" lon="3.52699">
        <ele>17.7</ele>
        <time>2022-04-18T13:47:27.144Z</time>
      </trkpt>
      <trkpt lat="50.46594" lon="3.52688">
        <ele>17.7</ele>
        <time>2022-04-18T13:47:29.804Z</time>
      </trkpt>
      <trkpt lat="50.46599" lon="3.5268">
        <ele>17.7</ele>
        <time>2022-04-18T13:47:31.000Z</time>
      </trkpt>
      <trkpt lat="50.46602" lon="3.52672">
        <ele>17.9</ele>
        <time>2022-04-18T13:47:33.000Z</time>
      </trkpt>
      <trkpt lat="50.46607" lon="3.52664">
        <ele>17.9</ele>
        <time>2022-04-18T13:47:34.086Z</time>
      </trkpt>
      <trkpt lat="50.46612" lon="3.52655">
        <ele>17.6</ele>
        <time>2022-04-18T13:47:36.167Z</time>
      </trkpt>
      <trkpt lat="50.46619" lon="3.52643">
        <ele>17.1</ele>
        <time>2022-04-18T13:47:39.000Z</time>
      </trkpt>
      <trkpt lat="50.46628" lon="3.52626">
        <ele>17.5</ele>
        <time>2022-04-18T13:47:42.000Z</time>
      </trkpt>
      <trkpt lat="50.46632" lon="3.52618">
        <ele>17.8</ele>
        <time>2022-04-18T13:47:43.126Z</time>
      </trkpt>
      <trkpt lat="50.46635" lon="3.52612">
        <ele>18</ele>
        <time>2022-04-18T13:47:44.945Z</time>
      </trkpt>
      <trkpt lat="50.46642" lon="3.52601">
        <ele>17.6</ele>
        <time>2022-04-18T13:47:47.000Z</time>
      </trkpt>
      <trkpt lat="50.46646" lon="3.52596">
        <ele>17.3</ele>
        <time>2022-04-18T13:47:48.000Z</time>
      </trkpt>
      <trkpt lat="50.46643" lon="3.52589">
        <ele>17.2</ele>
        <time>2022-04-18T13:47:50.072Z</time>
      </trkpt>
      <trkpt lat="50.46648" lon="3.52583">
        <ele>17</ele>
        <time>2022-04-18T13:47:51.133Z</time>
      </trkpt>
      <trkpt lat="50.46657" lon="3.52575">
        <ele>17.3</ele>
        <time>2022-04-18T13:47:52.290Z</time>
      </trkpt>
      <trkpt lat="50.46662" lon="3.52569">
        <ele>17.5</ele>
        <time>2022-04-18T13:47:53.441Z</time>
      </trkpt>
      <trkpt lat="50.46666" lon="3.52562">
        <ele>17.8</ele>
        <time>2022-04-18T13:47:55.019Z</time>
      </trkpt>
      <trkpt lat="50.4667" lon="3.52556">
        <ele>17.7</ele>
        <time>2022-04-18T13:47:56.000Z</time>
      </trkpt>
      <trkpt lat="50.46675" lon="3.52547">
        <ele>17.3</ele>
        <time>2022-04-18T13:47:57.000Z</time>
      </trkpt>
      <trkpt lat="50.46681" lon="3.5254">
        <ele>17</ele>
        <time>2022-04-18T13:47:59.000Z</time>
      </trkpt>
      <trkpt lat="50.46687" lon="3.52529">
        <ele>17</ele>
        <time>2022-04-18T13:48:01.000Z</time>
      </trkpt>
      <trkpt lat="50.4669" lon="3.52523">
        <ele>17</ele>
        <time>2022-04-18T13:48:02.000Z</time>
      </trkpt>
      <trkpt lat="50.46696" lon="3.52511">
        <ele>17</ele>
        <time>2022-04-18T13:48:04.000Z</time>
      </trkpt>
      <trkpt lat="50.46702" lon="3.52501">
        <ele>17</ele>
        <time>2022-04-18T13:48:06.000Z</time>
      </trkpt>
      <trkpt lat="50.46709" lon="3.52491">
        <ele>17</ele>
        <time>2022-04-18T13:48:08.000Z</time>
      </trkpt>
      <trkpt lat="50.46713" lon="3.52485">
        <ele>17</ele>
        <time>2022-04-18T13:48:09.000Z</time>
      </trkpt>
      <trkpt lat="50.46716" lon="3.52478">
        <ele>17</ele>
        <time>2022-04-18T13:48:10.000Z</time>
      </trkpt>
      <trkpt lat="50.46722" lon="3.52468">
        <ele>17</ele>
        <time>2022-04-18T13:48:12.000Z</time>
      </trkpt>
      <trkpt lat="50.46726" lon="3.52462">
        <ele>17</ele>
        <time>2022-04-18T13:48:13.000Z</time>
      </trkpt>
      <trkpt lat="50.46733" lon="3.52451">
        <ele>17</ele>
        <time>2022-04-18T13:48:15.000Z</time>
      </trkpt>
      <trkpt lat="50.46737" lon="3.52444">
        <ele>17</ele>
        <time>2022-04-18T13:48:16.000Z</time>
      </trkpt>
      <trkpt lat="50.4674" lon="3.52439">
        <ele>17.1</ele>
        <time>2022-04-18T13:48:17.000Z</time>
      </trkpt>
      <trkpt lat="50.46744" lon="3.52433">
        <ele>17.3</ele>
        <time>2022-04-18T13:48:18.000Z</time>
      </trkpt>
      <trkpt lat="50.46749" lon="3.52423">
        <ele>17.7</ele>
        <time>2022-04-18T13:48:20.000Z</time>
      </trkpt>
      <trkpt lat="50.46753" lon="3.52417">
        <ele>17.9</ele>
        <time>2022-04-18T13:48:21.000Z</time>
      </trkpt>
      <trkpt lat="50.46759" lon="3.52407">
        <ele>17.4</ele>
        <time>2022-04-18T13:48:23.000Z</time>
      </trkpt>
      <trkpt lat="50.46763" lon="3.524">
        <ele>17.2</ele>
        <time>2022-04-18T13:48:24.000Z</time>
      </trkpt>
      <trkpt lat="50.46766" lon="3.52395">
        <ele>17.1</ele>
        <time>2022-04-18T13:48:25.000Z</time>
      </trkpt>
      <trkpt lat="50.46772" lon="3.52385">
        <ele>17.1</ele>
        <time>2022-04-18T13:48:27.000Z</time>
      </trkpt>
      <trkpt lat="50.46776" lon="3.52379">
        <ele>17.4</ele>
        <time>2022-04-18T13:48:28.000Z</time>
      </trkpt>
      <trkpt lat="50.46782" lon="3.5237">
        <ele>17.6</ele>
        <time>2022-04-18T13:48:30.000Z</time>
      </trkpt>
      <trkpt lat="50.46786" lon="3.52363">
        <ele>17.7</ele>
        <time>2022-04-18T13:48:31.000Z</time>
      </trkpt>
      <trkpt lat="50.4679" lon="3.52357">
        <ele>17.6</ele>
        <time>2022-04-18T13:48:32.000Z</time>
      </trkpt>
      <trkpt lat="50.46793" lon="3.52351">
        <ele>17.7</ele>
        <time>2022-04-18T13:48:33.000Z</time>
      </trkpt>
      <trkpt lat="50.46799" lon="3.5234">
        <ele>17.8</ele>
        <time>2022-04-18T13:48:35.000Z</time>
      </trkpt>
      <trkpt lat="50.46804" lon="3.52333">
        <ele>18</ele>
        <time>2022-04-18T13:48:37.000Z</time>
      </trkpt>
      <trkpt lat="50.46811" lon="3.5232">
        <ele>17.8</ele>
        <time>2022-04-18T13:48:39.000Z</time>
      </trkpt>
      <trkpt lat="50.46816" lon="3.52312">
        <ele>17.6</ele>
        <time>2022-04-18T13:48:41.000Z</time>
      </trkpt>
      <trkpt lat="50.46822" lon="3.52304">
        <ele>17.4</ele>
        <time>2022-04-18T13:48:43.154Z</time>
      </trkpt>
      <trkpt lat="50.46827" lon="3.52293">
        <ele>17.6</ele>
        <time>2022-04-18T13:48:45.000Z</time>
      </trkpt>
      <trkpt lat="50.46832" lon="3.52285">
        <ele>17.8</ele>
        <time>2022-04-18T13:48:46.811Z</time>
      </trkpt>
      <trkpt lat="50.46837" lon="3.52277">
        <ele>18</ele>
        <time>2022-04-18T13:48:47.893Z</time>
      </trkpt>
      <trkpt lat="50.46843" lon="3.52266">
        <ele>18</ele>
        <time>2022-04-18T13:48:50.000Z</time>
      </trkpt>
      <trkpt lat="50.46851" lon="3.52253">
        <ele>18</ele>
        <time>2022-04-18T13:48:52.833Z</time>
      </trkpt>
      <trkpt lat="50.46856" lon="3.52247">
        <ele>18.1</ele>
        <time>2022-04-18T13:48:55.000Z</time>
      </trkpt>
      <trkpt lat="50.46864" lon="3.52235">
        <ele>18.5</ele>
        <time>2022-04-18T13:48:57.010Z</time>
      </trkpt>
      <trkpt lat="50.46868" lon="3.5223">
        <ele>18.7</ele>
        <time>2022-04-18T13:48:59.000Z</time>
      </trkpt>
      <trkpt lat="50.46873" lon="3.52223">
        <ele>19</ele>
        <time>2022-04-18T13:49:00.113Z</time>
      </trkpt>
      <trkpt lat="50.46879" lon="3.52216">
        <ele>19.1</ele>
        <time>2022-04-18T13:49:01.853Z</time>
      </trkpt>
      <trkpt lat="50.46884" lon="3.5221">
        <ele>19.1</ele>
        <time>2022-04-18T13:49:03.855Z</time>
      </trkpt>
      <trkpt lat="50.46892" lon="3.52206">
        <ele>18.8</ele>
        <time>2022-04-18T13:49:05.000Z</time>
      </trkpt>
      <trkpt lat="50.46896" lon="3.52203">
        <ele>18.5</ele>
        <time>2022-04-18T13:49:06.000Z</time>
      </trkpt>
      <trkpt lat="50.46901" lon="3.522">
        <ele>18.1</ele>
        <time>2022-04-18T13:49:07.000Z</time>
      </trkpt>
      <trkpt lat="50.46909" lon="3.52191">
        <ele>17.6</ele>
        <time>2022-04-18T13:49:09.000Z</time>
      </trkpt>
      <trkpt lat="50.46912" lon="3.52185">
        <ele>17.4</ele>
        <time>2022-04-18T13:49:10.000Z</time>
      </trkpt>
      <trkpt lat="50.46913" lon="3.52177">
        <ele>17.3</ele>
        <time>2022-04-18T13:49:11.000Z</time>
      </trkpt>
      <trkpt lat="50.46913" lon="3.52169">
        <ele>17.4</ele>
        <time>2022-04-18T13:49:12.000Z</time>
      </trkpt>
      <trkpt lat="50.46912" lon="3.52162">
        <ele>17.5</ele>
        <time>2022-04-18T13:49:13.000Z</time>
      </trkpt>
      <trkpt lat="50.46906" lon="3.52152">
        <ele>17.9</ele>
        <time>2022-04-18T13:49:15.027Z</time>
      </trkpt>
      <trkpt lat="50.46899" lon="3.52149">
        <ele>18.5</ele>
        <time>2022-04-18T13:49:16.000Z</time>
      </trkpt>
      <trkpt lat="50.4689" lon="3.52145">
        <ele>19.1</ele>
        <time>2022-04-18T13:49:18.000Z</time>
      </trkpt>
      <trkpt lat="50.46885" lon="3.52143">
        <ele>19.3</ele>
        <time>2022-04-18T13:49:19.000Z</time>
      </trkpt>
      <trkpt lat="50.46877" lon="3.5214">
        <ele>19.5</ele>
        <time>2022-04-18T13:49:21.000Z</time>
      </trkpt>
      <trkpt lat="50.46871" lon="3.52134">
        <ele>19.3</ele>
        <time>2022-04-18T13:49:23.000Z</time>
      </trkpt>
      <trkpt lat="50.46866" lon="3.52136">
        <ele>19.6</ele>
        <time>2022-04-18T13:49:24.910Z</time>
      </trkpt>
      <trkpt lat="50.46863" lon="3.52145">
        <ele>20.2</ele>
        <time>2022-04-18T13:49:27.000Z</time>
      </trkpt>
      <trkpt lat="50.46866" lon="3.52152">
        <ele>20.3</ele>
        <time>2022-04-18T13:49:29.000Z</time>
      </trkpt>
      <trkpt lat="50.46869" lon="3.52158">
        <ele>20.4</ele>
        <time>2022-04-18T13:49:30.000Z</time>
      </trkpt>
      <trkpt lat="50.46875" lon="3.5216">
        <ele>20.3</ele>
        <time>2022-04-18T13:49:32.000Z</time>
      </trkpt>
      <trkpt lat="50.46881" lon="3.52166">
        <ele>20.3</ele>
        <time>2022-04-18T13:49:35.000Z</time>
      </trkpt>
      <trkpt lat="50.46886" lon="3.52171">
        <ele>19.9</ele>
        <time>2022-04-18T13:49:37.000Z</time>
      </trkpt>
      <trkpt lat="50.4689" lon="3.52176">
        <ele>19.6</ele>
        <time>2022-04-18T13:49:40.000Z</time>
      </trkpt>
      <trkpt lat="50.46896" lon="3.52181">
        <ele>18.8</ele>
        <time>2022-04-18T13:49:43.000Z</time>
      </trkpt>
      <trkpt lat="50.46901" lon="3.52186">
        <ele>18.3</ele>
        <time>2022-04-18T13:49:46.000Z</time>
      </trkpt>
      <trkpt lat="50.46907" lon="3.52192">
        <ele>17.7</ele>
        <time>2022-04-18T13:49:49.000Z</time>
      </trkpt>
      <trkpt lat="50.46912" lon="3.52197">
        <ele>17.3</ele>
        <time>2022-04-18T13:49:51.000Z</time>
      </trkpt>
      <trkpt lat="50.46917" lon="3.52201">
        <ele>17</ele>
        <time>2022-04-18T13:49:53.000Z</time>
      </trkpt>
      <trkpt lat="50.46923" lon="3.52208">
        <ele>16.9</ele>
        <time>2022-04-18T13:49:56.000Z</time>
      </trkpt>
      <trkpt lat="50.46928" lon="3.52213">
        <ele>16.9</ele>
        <time>2022-04-18T13:49:58.000Z</time>
      </trkpt>
      <trkpt lat="50.46932" lon="3.52219">
        <ele>16.9</ele>
        <time>2022-04-18T13:50:00.000Z</time>
      </trkpt>
      <trkpt lat="50.46938" lon="3.52226">
        <ele>17</ele>
        <time>2022-04-18T13:50:02.000Z</time>
      </trkpt>
      <trkpt lat="50.46941" lon="3.5223">
        <ele>17</ele>
        <time>2022-04-18T13:50:03.000Z</time>
      </trkpt>
      <trkpt lat="50.46948" lon="3.52237">
        <ele>17.3</ele>
        <time>2022-04-18T13:50:05.000Z</time>
      </trkpt>
      <trkpt lat="50.46952" lon="3.52241">
        <ele>17.8</ele>
        <time>2022-04-18T13:50:06.000Z</time>
      </trkpt>
      <trkpt lat="50.46957" lon="3.52247">
        <ele>18.7</ele>
        <time>2022-04-18T13:50:07.000Z</time>
      </trkpt>
      <trkpt lat="50.46962" lon="3.52252">
        <ele>19.5</ele>
        <time>2022-04-18T13:50:08.000Z</time>
      </trkpt>
      <trkpt lat="50.46966" lon="3.52258">
        <ele>19.7</ele>
        <time>2022-04-18T13:50:09.000Z</time>
      </trkpt>
      <trkpt lat="50.46972" lon="3.52265">
        <ele>19.9</ele>
        <time>2022-04-18T13:50:10.000Z</time>
      </trkpt>
      <trkpt lat="50.46977" lon="3.5227">
        <ele>19.3</ele>
        <time>2022-04-18T13:50:11.000Z</time>
      </trkpt>
      <trkpt lat="50.46982" lon="3.52275">
        <ele>18.8</ele>
        <time>2022-04-18T13:50:12.000Z</time>
      </trkpt>
      <trkpt lat="50.46988" lon="3.52282">
        <ele>18.4</ele>
        <time>2022-04-18T13:50:13.000Z</time>
      </trkpt>
      <trkpt lat="50.46992" lon="3.52288">
        <ele>18.2</ele>
        <time>2022-04-18T13:50:14.000Z</time>
      </trkpt>
      <trkpt lat="50.46999" lon="3.52295">
        <ele>18</ele>
        <time>2022-04-18T13:50:15.000Z</time>
      </trkpt>
      <trkpt lat="50.47004" lon="3.523">
        <ele>18.1</ele>
        <time>2022-04-18T13:50:16.000Z</time>
      </trkpt>
      <trkpt lat="50.4701" lon="3.52307">
        <ele>18.4</ele>
        <time>2022-04-18T13:50:17.000Z</time>
      </trkpt>
      <trkpt lat="50.47017" lon="3.52315">
        <ele>18.6</ele>
        <time>2022-04-18T13:50:18.000Z</time>
      </trkpt>
      <trkpt lat="50.47023" lon="3.52321">
        <ele>18.8</ele>
        <time>2022-04-18T13:50:19.000Z</time>
      </trkpt>
      <trkpt lat="50.47028" lon="3.52327">
        <ele>19</ele>
        <time>2022-04-18T13:50:20.000Z</time>
      </trkpt>
      <trkpt lat="50.47034" lon="3.52334">
        <ele>19</ele>
        <time>2022-04-18T13:50:21.000Z</time>
      </trkpt>
      <trkpt lat="50.47039" lon="3.52339">
        <ele>19.1</ele>
        <time>2022-04-18T13:50:22.000Z</time>
      </trkpt>
      <trkpt lat="50.47044" lon="3.52342">
        <ele>19.2</ele>
        <time>2022-04-18T13:50:23.000Z</time>
      </trkpt>
      <trkpt lat="50.4705" lon="3.52343">
        <ele>19.3</ele>
        <time>2022-04-18T13:50:24.000Z</time>
      </trkpt>
      <trkpt lat="50.47054" lon="3.5234">
        <ele>19.2</ele>
        <time>2022-04-18T13:50:25.000Z</time>
      </trkpt>
      <trkpt lat="50.47058" lon="3.52332">
        <ele>19.1</ele>
        <time>2022-04-18T13:50:26.000Z</time>
      </trkpt>
      <trkpt lat="50.47061" lon="3.52323">
        <ele>19.2</ele>
        <time>2022-04-18T13:50:27.000Z</time>
      </trkpt>
      <trkpt lat="50.47064" lon="3.52314">
        <ele>19.3</ele>
        <time>2022-04-18T13:50:28.000Z</time>
      </trkpt>
      <trkpt lat="50.47068" lon="3.52305">
        <ele>19.4</ele>
        <time>2022-04-18T13:50:29.000Z</time>
      </trkpt>
      <trkpt lat="50.47071" lon="3.52297">
        <ele>19.4</ele>
        <time>2022-04-18T13:50:30.000Z</time>
      </trkpt>
      <trkpt lat="50.47075" lon="3.5229">
        <ele>19.3</ele>
        <time>2022-04-18T13:50:31.000Z</time>
      </trkpt>
      <trkpt lat="50.47079" lon="3.52282">
        <ele>19.1</ele>
        <time>2022-04-18T13:50:32.000Z</time>
      </trkpt>
      <trkpt lat="50.47082" lon="3.52276">
        <ele>19</ele>
        <time>2022-04-18T13:50:33.000Z</time>
      </trkpt>
      <trkpt lat="50.47086" lon="3.52269">
        <ele>19.1</ele>
        <time>2022-04-18T13:50:34.000Z</time>
      </trkpt>
      <trkpt lat="50.47089" lon="3.52264">
        <ele>19.2</ele>
        <time>2022-04-18T13:50:35.000Z</time>
      </trkpt>
      <trkpt lat="50.47092" lon="3.52258">
        <ele>19.3</ele>
        <time>2022-04-18T13:50:36.032Z</time>
      </trkpt>
      <trkpt lat="50.47098" lon="3.52246">
        <ele>19.5</ele>
        <time>2022-04-18T13:50:38.000Z</time>
      </trkpt>
      <trkpt lat="50.47101" lon="3.5224">
        <ele>19.4</ele>
        <time>2022-04-18T13:50:39.000Z</time>
      </trkpt>
      <trkpt lat="50.47105" lon="3.52234">
        <ele>19.3</ele>
        <time>2022-04-18T13:50:40.000Z</time>
      </trkpt>
      <trkpt lat="50.47108" lon="3.52229">
        <ele>19.2</ele>
        <time>2022-04-18T13:50:40.961Z</time>
      </trkpt>
      <trkpt lat="50.47113" lon="3.52223">
        <ele>19.1</ele>
        <time>2022-04-18T13:50:42.000Z</time>
      </trkpt>
      <trkpt lat="50.47117" lon="3.52219">
        <ele>19.2</ele>
        <time>2022-04-18T13:50:43.000Z</time>
      </trkpt>
      <trkpt lat="50.47122" lon="3.52215">
        <ele>19.3</ele>
        <time>2022-04-18T13:50:44.000Z</time>
      </trkpt>
      <trkpt lat="50.47127" lon="3.52211">
        <ele>19.3</ele>
        <time>2022-04-18T13:50:45.000Z</time>
      </trkpt>
      <trkpt lat="50.47132" lon="3.52207">
        <ele>19.3</ele>
        <time>2022-04-18T13:50:46.007Z</time>
      </trkpt>
      <trkpt lat="50.47137" lon="3.52202">
        <ele>19.3</ele>
        <time>2022-04-18T13:50:47.000Z</time>
      </trkpt>
      <trkpt lat="50.47142" lon="3.52198">
        <ele>19.1</ele>
        <time>2022-04-18T13:50:48.000Z</time>
      </trkpt>
      <trkpt lat="50.47146" lon="3.52193">
        <ele>19</ele>
        <time>2022-04-18T13:50:49.000Z</time>
      </trkpt>
      <trkpt lat="50.47151" lon="3.5219">
        <ele>19</ele>
        <time>2022-04-18T13:50:50.000Z</time>
      </trkpt>
      <trkpt lat="50.47155" lon="3.52186">
        <ele>19</ele>
        <time>2022-04-18T13:50:51.000Z</time>
      </trkpt>
      <trkpt lat="50.4716" lon="3.52182">
        <ele>19</ele>
        <time>2022-04-18T13:50:52.000Z</time>
      </trkpt>
      <trkpt lat="50.47168" lon="3.52176">
        <ele>19</ele>
        <time>2022-04-18T13:50:54.000Z</time>
      </trkpt>
      <trkpt lat="50.47172" lon="3.52172">
        <ele>19</ele>
        <time>2022-04-18T13:50:55.000Z</time>
      </trkpt>
      <trkpt lat="50.47176" lon="3.52167">
        <ele>19</ele>
        <time>2022-04-18T13:50:56.000Z</time>
      </trkpt>
      <trkpt lat="50.47186" lon="3.52158">
        <ele>19</ele>
        <time>2022-04-18T13:50:58.000Z</time>
      </trkpt>
      <trkpt lat="50.4719" lon="3.52154">
        <ele>19</ele>
        <time>2022-04-18T13:50:59.000Z</time>
      </trkpt>
      <trkpt lat="50.47194" lon="3.52149">
        <ele>19</ele>
        <time>2022-04-18T13:51:00.000Z</time>
      </trkpt>
      <trkpt lat="50.47199" lon="3.52145">
        <ele>19</ele>
        <time>2022-04-18T13:51:01.000Z</time>
      </trkpt>
      <trkpt lat="50.47203" lon="3.52141">
        <ele>19</ele>
        <time>2022-04-18T13:51:02.000Z</time>
      </trkpt>
      <trkpt lat="50.47207" lon="3.52136">
        <ele>19</ele>
        <time>2022-04-18T13:51:03.000Z</time>
      </trkpt>
      <trkpt lat="50.47211" lon="3.52131">
        <ele>19</ele>
        <time>2022-04-18T13:51:04.000Z</time>
      </trkpt>
      <trkpt lat="50.47215" lon="3.52127">
        <ele>19</ele>
        <time>2022-04-18T13:51:05.000Z</time>
      </trkpt>
      <trkpt lat="50.47219" lon="3.52124">
        <ele>19</ele>
        <time>2022-04-18T13:51:06.000Z</time>
      </trkpt>
      <trkpt lat="50.47227" lon="3.52118">
        <ele>19</ele>
        <time>2022-04-18T13:51:08.000Z</time>
      </trkpt>
      <trkpt lat="50.47232" lon="3.52117">
        <ele>19</ele>
        <time>2022-04-18T13:51:09.000Z</time>
      </trkpt>
      <trkpt lat="50.47237" lon="3.52117">
        <ele>19</ele>
        <time>2022-04-18T13:51:10.000Z</time>
      </trkpt>
      <trkpt lat="50.47242" lon="3.52117">
        <ele>19</ele>
        <time>2022-04-18T13:51:11.000Z</time>
      </trkpt>
      <trkpt lat="50.47251" lon="3.52114">
        <ele>19</ele>
        <time>2022-04-18T13:51:13.000Z</time>
      </trkpt>
      <trkpt lat="50.47255" lon="3.52108">
        <ele>19</ele>
        <time>2022-04-18T13:51:14.000Z</time>
      </trkpt>
      <trkpt lat="50.47259" lon="3.52101">
        <ele>19</ele>
        <time>2022-04-18T13:51:15.000Z</time>
      </trkpt>
      <trkpt lat="50.47263" lon="3.52096">
        <ele>19</ele>
        <time>2022-04-18T13:51:16.000Z</time>
      </trkpt>
      <trkpt lat="50.47268" lon="3.52092">
        <ele>19</ele>
        <time>2022-04-18T13:51:17.000Z</time>
      </trkpt>
      <trkpt lat="50.47272" lon="3.52088">
        <ele>19</ele>
        <time>2022-04-18T13:51:18.000Z</time>
      </trkpt>
      <trkpt lat="50.47277" lon="3.52085">
        <ele>19</ele>
        <time>2022-04-18T13:51:19.000Z</time>
      </trkpt>
      <trkpt lat="50.47282" lon="3.52082">
        <ele>19</ele>
        <time>2022-04-18T13:51:20.000Z</time>
      </trkpt>
      <trkpt lat="50.47286" lon="3.52079">
        <ele>19</ele>
        <time>2022-04-18T13:51:21.000Z</time>
      </trkpt>
      <trkpt lat="50.4729" lon="3.52076">
        <ele>19</ele>
        <time>2022-04-18T13:51:22.000Z</time>
      </trkpt>
      <trkpt lat="50.47294" lon="3.52073">
        <ele>19</ele>
        <time>2022-04-18T13:51:23.000Z</time>
      </trkpt>
      <trkpt lat="50.47303" lon="3.52066">
        <ele>19</ele>
        <time>2022-04-18T13:51:25.000Z</time>
      </trkpt>
      <trkpt lat="50.47308" lon="3.52062">
        <ele>19</ele>
        <time>2022-04-18T13:51:26.000Z</time>
      </trkpt>
      <trkpt lat="50.47317" lon="3.52058">
        <ele>19</ele>
        <time>2022-04-18T13:51:28.000Z</time>
      </trkpt>
      <trkpt lat="50.47326" lon="3.52052">
        <ele>19</ele>
        <time>2022-04-18T13:51:30.000Z</time>
      </trkpt>
      <trkpt lat="50.4733" lon="3.52048">
        <ele>19</ele>
        <time>2022-04-18T13:51:31.000Z</time>
      </trkpt>
      <trkpt lat="50.47334" lon="3.52042">
        <ele>19</ele>
        <time>2022-04-18T13:51:32.000Z</time>
      </trkpt>
      <trkpt lat="50.47338" lon="3.52036">
        <ele>19</ele>
        <time>2022-04-18T13:51:33.000Z</time>
      </trkpt>
      <trkpt lat="50.47342" lon="3.52028">
        <ele>19</ele>
        <time>2022-04-18T13:51:34.000Z</time>
      </trkpt>
      <trkpt lat="50.47345" lon="3.52022">
        <ele>18.9</ele>
        <time>2022-04-18T13:51:35.000Z</time>
      </trkpt>
      <trkpt lat="50.47348" lon="3.52016">
        <ele>18.8</ele>
        <time>2022-04-18T13:51:36.000Z</time>
      </trkpt>
      <trkpt lat="50.47352" lon="3.52011">
        <ele>18.6</ele>
        <time>2022-04-18T13:51:37.000Z</time>
      </trkpt>
      <trkpt lat="50.47355" lon="3.52005">
        <ele>18.4</ele>
        <time>2022-04-18T13:51:38.000Z</time>
      </trkpt>
      <trkpt lat="50.47359" lon="3.51998">
        <ele>18.1</ele>
        <time>2022-04-18T13:51:39.000Z</time>
      </trkpt>
      <trkpt lat="50.47363" lon="3.51991">
        <ele>18</ele>
        <time>2022-04-18T13:51:40.000Z</time>
      </trkpt>
      <trkpt lat="50.47366" lon="3.51985">
        <ele>18</ele>
        <time>2022-04-18T13:51:41.000Z</time>
      </trkpt>
      <trkpt lat="50.4737" lon="3.51979">
        <ele>18</ele>
        <time>2022-04-18T13:51:42.000Z</time>
      </trkpt>
      <trkpt lat="50.47374" lon="3.51973">
        <ele>18</ele>
        <time>2022-04-18T13:51:43.000Z</time>
      </trkpt>
      <trkpt lat="50.47379" lon="3.51968">
        <ele>18</ele>
        <time>2022-04-18T13:51:44.000Z</time>
      </trkpt>
      <trkpt lat="50.47383" lon="3.51963">
        <ele>18</ele>
        <time>2022-04-18T13:51:45.000Z</time>
      </trkpt>
      <trkpt lat="50.47387" lon="3.51959">
        <ele>18</ele>
        <time>2022-04-18T13:51:46.000Z</time>
      </trkpt>
      <trkpt lat="50.47391" lon="3.51955">
        <ele>18</ele>
        <time>2022-04-18T13:51:47.000Z</time>
      </trkpt>
      <trkpt lat="50.47395" lon="3.5195">
        <ele>18</ele>
        <time>2022-04-18T13:51:48.000Z</time>
      </trkpt>
      <trkpt lat="50.474" lon="3.51945">
        <ele>18</ele>
        <time>2022-04-18T13:51:49.000Z</time>
      </trkpt>
      <trkpt lat="50.47404" lon="3.51941">
        <ele>18</ele>
        <time>2022-04-18T13:51:50.000Z</time>
      </trkpt>
      <trkpt lat="50.47409" lon="3.51937">
        <ele>18</ele>
        <time>2022-04-18T13:51:51.000Z</time>
      </trkpt>
      <trkpt lat="50.47414" lon="3.51933">
        <ele>18</ele>
        <time>2022-04-18T13:51:52.000Z</time>
      </trkpt>
      <trkpt lat="50.47418" lon="3.51928">
        <ele>18</ele>
        <time>2022-04-18T13:51:53.000Z</time>
      </trkpt>
      <trkpt lat="50.47422" lon="3.51924">
        <ele>18</ele>
        <time>2022-04-18T13:51:54.000Z</time>
      </trkpt>
      <trkpt lat="50.47426" lon="3.5192">
        <ele>18</ele>
        <time>2022-04-18T13:51:55.000Z</time>
      </trkpt>
      <trkpt lat="50.47431" lon="3.51915">
        <ele>17.9</ele>
        <time>2022-04-18T13:51:56.000Z</time>
      </trkpt>
      <trkpt lat="50.47435" lon="3.51911">
        <ele>17.8</ele>
        <time>2022-04-18T13:51:57.000Z</time>
      </trkpt>
      <trkpt lat="50.47439" lon="3.51907">
        <ele>17.7</ele>
        <time>2022-04-18T13:51:58.000Z</time>
      </trkpt>
      <trkpt lat="50.47443" lon="3.51902">
        <ele>17.5</ele>
        <time>2022-04-18T13:51:59.000Z</time>
      </trkpt>
      <trkpt lat="50.47448" lon="3.51898">
        <ele>17.4</ele>
        <time>2022-04-18T13:52:00.000Z</time>
      </trkpt>
      <trkpt lat="50.47452" lon="3.51894">
        <ele>17.4</ele>
        <time>2022-04-18T13:52:01.000Z</time>
      </trkpt>
      <trkpt lat="50.47456" lon="3.5189">
        <ele>17.4</ele>
        <time>2022-04-18T13:52:02.000Z</time>
      </trkpt>
      <trkpt lat="50.47461" lon="3.51886">
        <ele>17.6</ele>
        <time>2022-04-18T13:52:03.000Z</time>
      </trkpt>
      <trkpt lat="50.47465" lon="3.51881">
        <ele>17.7</ele>
        <time>2022-04-18T13:52:04.000Z</time>
      </trkpt>
      <trkpt lat="50.47469" lon="3.51876">
        <ele>17.9</ele>
        <time>2022-04-18T13:52:05.000Z</time>
      </trkpt>
      <trkpt lat="50.47473" lon="3.51873">
        <ele>18</ele>
        <time>2022-04-18T13:52:06.000Z</time>
      </trkpt>
      <trkpt lat="50.47477" lon="3.51868">
        <ele>18</ele>
        <time>2022-04-18T13:52:07.000Z</time>
      </trkpt>
      <trkpt lat="50.47481" lon="3.51864">
        <ele>18</ele>
        <time>2022-04-18T13:52:08.000Z</time>
      </trkpt>
      <trkpt lat="50.47485" lon="3.5186">
        <ele>18</ele>
        <time>2022-04-18T13:52:09.000Z</time>
      </trkpt>
      <trkpt lat="50.47489" lon="3.51856">
        <ele>18</ele>
        <time>2022-04-18T13:52:10.000Z</time>
      </trkpt>
      <trkpt lat="50.47494" lon="3.51851">
        <ele>18</ele>
        <time>2022-04-18T13:52:11.000Z</time>
      </trkpt>
      <trkpt lat="50.47501" lon="3.51843">
        <ele>18</ele>
        <time>2022-04-18T13:52:13.000Z</time>
      </trkpt>
      <trkpt lat="50.47505" lon="3.51836">
        <ele>18</ele>
        <time>2022-04-18T13:52:14.000Z</time>
      </trkpt>
      <trkpt lat="50.47509" lon="3.51827">
        <ele>18</ele>
        <time>2022-04-18T13:52:16.148Z</time>
      </trkpt>
      <trkpt lat="50.47516" lon="3.51816">
        <ele>18</ele>
        <time>2022-04-18T13:52:17.651Z</time>
      </trkpt>
      <trkpt lat="50.47521" lon="3.51809">
        <ele>18</ele>
        <time>2022-04-18T13:52:18.827Z</time>
      </trkpt>
      <trkpt lat="50.47525" lon="3.51804">
        <ele>18</ele>
        <time>2022-04-18T13:52:21.000Z</time>
      </trkpt>
      <trkpt lat="50.47529" lon="3.51799">
        <ele>18</ele>
        <time>2022-04-18T13:52:22.170Z</time>
      </trkpt>
      <trkpt lat="50.47538" lon="3.51789">
        <ele>18</ele>
        <time>2022-04-18T13:52:24.944Z</time>
      </trkpt>
      <trkpt lat="50.47543" lon="3.51778">
        <ele>18</ele>
        <time>2022-04-18T13:52:27.000Z</time>
      </trkpt>
      <trkpt lat="50.47549" lon="3.51769">
        <ele>18</ele>
        <time>2022-04-18T13:52:29.000Z</time>
      </trkpt>
      <trkpt lat="50.47554" lon="3.51761">
        <ele>18</ele>
        <time>2022-04-18T13:52:31.000Z</time>
      </trkpt>
      <trkpt lat="50.47557" lon="3.51755">
        <ele>18.1</ele>
        <time>2022-04-18T13:52:32.000Z</time>
      </trkpt>
      <trkpt lat="50.47563" lon="3.51746">
        <ele>18.3</ele>
        <time>2022-04-18T13:52:34.000Z</time>
      </trkpt>
      <trkpt lat="50.47569" lon="3.51739">
        <ele>18.5</ele>
        <time>2022-04-18T13:52:36.043Z</time>
      </trkpt>
      <trkpt lat="50.47573" lon="3.5173">
        <ele>18.6</ele>
        <time>2022-04-18T13:52:38.000Z</time>
      </trkpt>
      <trkpt lat="50.47578" lon="3.51721">
        <ele>18.8</ele>
        <time>2022-04-18T13:52:40.000Z</time>
      </trkpt>
      <trkpt lat="50.47584" lon="3.51711">
        <ele>18.6</ele>
        <time>2022-04-18T13:52:42.000Z</time>
      </trkpt>
      <trkpt lat="50.47588" lon="3.51707">
        <ele>18.5</ele>
        <time>2022-04-18T13:52:44.000Z</time>
      </trkpt>
      <trkpt lat="50.47592" lon="3.51702">
        <ele>18.5</ele>
        <time>2022-04-18T13:52:45.000Z</time>
      </trkpt>
      <trkpt lat="50.47599" lon="3.51695">
        <ele>18.6</ele>
        <time>2022-04-18T13:52:47.000Z</time>
      </trkpt>
      <trkpt lat="50.47606" lon="3.51689">
        <ele>18.8</ele>
        <time>2022-04-18T13:52:49.065Z</time>
      </trkpt>
      <trkpt lat="50.47613" lon="3.51686">
        <ele>19</ele>
        <time>2022-04-18T13:52:50.941Z</time>
      </trkpt>
      <trkpt lat="50.47618" lon="3.51684">
        <ele>19</ele>
        <time>2022-04-18T13:52:52.125Z</time>
      </trkpt>
      <trkpt lat="50.47625" lon="3.51684">
        <ele>19</ele>
        <time>2022-04-18T13:52:54.000Z</time>
      </trkpt>
      <trkpt lat="50.4763" lon="3.51686">
        <ele>19</ele>
        <time>2022-04-18T13:52:55.642Z</time>
      </trkpt>
      <trkpt lat="50.47638" lon="3.51683">
        <ele>19</ele>
        <time>2022-04-18T13:52:58.149Z</time>
      </trkpt>
      <trkpt lat="50.47645" lon="3.51681">
        <ele>19</ele>
        <time>2022-04-18T13:53:00.000Z</time>
      </trkpt>
      <trkpt lat="50.4765" lon="3.51681">
        <ele>19</ele>
        <time>2022-04-18T13:53:01.000Z</time>
      </trkpt>
      <trkpt lat="50.47656" lon="3.5168">
        <ele>19</ele>
        <time>2022-04-18T13:53:03.000Z</time>
      </trkpt>
      <trkpt lat="50.47666" lon="3.51679">
        <ele>19</ele>
        <time>2022-04-18T13:53:05.000Z</time>
      </trkpt>
      <trkpt lat="50.47675" lon="3.51678">
        <ele>19</ele>
        <time>2022-04-18T13:53:07.671Z</time>
      </trkpt>
      <trkpt lat="50.4768" lon="3.51676">
        <ele>19</ele>
        <time>2022-04-18T13:53:08.905Z</time>
      </trkpt>
      <trkpt lat="50.47688" lon="3.51676">
        <ele>19</ele>
        <time>2022-04-18T13:53:10.946Z</time>
      </trkpt>
      <trkpt lat="50.47695" lon="3.51675">
        <ele>19</ele>
        <time>2022-04-18T13:53:13.000Z</time>
      </trkpt>
      <trkpt lat="50.47702" lon="3.51674">
        <ele>19</ele>
        <time>2022-04-18T13:53:15.000Z</time>
      </trkpt>
      <trkpt lat="50.47712" lon="3.51672">
        <ele>19</ele>
        <time>2022-04-18T13:53:17.000Z</time>
      </trkpt>
      <trkpt lat="50.47719" lon="3.51672">
        <ele>19</ele>
        <time>2022-04-18T13:53:19.000Z</time>
      </trkpt>
      <trkpt lat="50.47724" lon="3.51672">
        <ele>19</ele>
        <time>2022-04-18T13:53:20.000Z</time>
      </trkpt>
      <trkpt lat="50.47729" lon="3.51672">
        <ele>19</ele>
        <time>2022-04-18T13:53:22.000Z</time>
      </trkpt>
      <trkpt lat="50.47735" lon="3.51672">
        <ele>19.1</ele>
        <time>2022-04-18T13:53:23.000Z</time>
      </trkpt>
      <trkpt lat="50.47741" lon="3.51671">
        <ele>19.1</ele>
        <time>2022-04-18T13:53:25.000Z</time>
      </trkpt>
      <trkpt lat="50.47748" lon="3.51667">
        <ele>19</ele>
        <time>2022-04-18T13:53:25.923Z</time>
      </trkpt>
      <trkpt lat="50.47756" lon="3.51668">
        <ele>19.5</ele>
        <time>2022-04-18T13:53:28.000Z</time>
      </trkpt>
      <trkpt lat="50.47761" lon="3.51667">
        <ele>19.8</ele>
        <time>2022-04-18T13:53:30.000Z</time>
      </trkpt>
      <trkpt lat="50.47766" lon="3.51667">
        <ele>20.2</ele>
        <time>2022-04-18T13:53:31.905Z</time>
      </trkpt>
      <trkpt lat="50.47773" lon="3.51665">
        <ele>20.7</ele>
        <time>2022-04-18T13:53:34.000Z</time>
      </trkpt>
      <trkpt lat="50.47779" lon="3.51666">
        <ele>21.1</ele>
        <time>2022-04-18T13:53:35.925Z</time>
      </trkpt>
      <trkpt lat="50.47783" lon="3.5166">
        <ele>21.4</ele>
        <time>2022-04-18T13:53:37.000Z</time>
      </trkpt>
      <trkpt lat="50.47784" lon="3.5165">
        <ele>21.7</ele>
        <time>2022-04-18T13:53:39.000Z</time>
      </trkpt>
      <trkpt lat="50.47786" lon="3.51641">
        <ele>21.9</ele>
        <time>2022-04-18T13:53:40.722Z</time>
      </trkpt>
      <trkpt lat="50.47788" lon="3.51627">
        <ele>22</ele>
        <time>2022-04-18T13:53:43.142Z</time>
      </trkpt>
      <trkpt lat="50.4779" lon="3.51617">
        <ele>22</ele>
        <time>2022-04-18T13:53:44.667Z</time>
      </trkpt>
      <trkpt lat="50.47793" lon="3.51605">
        <ele>22</ele>
        <time>2022-04-18T13:53:47.000Z</time>
      </trkpt>
      <trkpt lat="50.47796" lon="3.51595">
        <ele>22</ele>
        <time>2022-04-18T13:53:49.221Z</time>
      </trkpt>
      <trkpt lat="50.478" lon="3.5158">
        <ele>22</ele>
        <time>2022-04-18T13:53:52.123Z</time>
      </trkpt>
      <trkpt lat="50.47803" lon="3.51571">
        <ele>22</ele>
        <time>2022-04-18T13:53:53.525Z</time>
      </trkpt>
      <trkpt lat="50.47805" lon="3.51562">
        <ele>22</ele>
        <time>2022-04-18T13:53:55.000Z</time>
      </trkpt>
      <trkpt lat="50.47808" lon="3.51551">
        <ele>21.9</ele>
        <time>2022-04-18T13:53:56.824Z</time>
      </trkpt>
      <trkpt lat="50.47811" lon="3.5154">
        <ele>21.5</ele>
        <time>2022-04-18T13:53:58.926Z</time>
      </trkpt>
      <trkpt lat="50.47813" lon="3.5153">
        <ele>21.3</ele>
        <time>2022-04-18T13:54:00.000Z</time>
      </trkpt>
      <trkpt lat="50.47816" lon="3.51518">
        <ele>21.2</ele>
        <time>2022-04-18T13:54:01.985Z</time>
      </trkpt>
      <trkpt lat="50.47819" lon="3.51503">
        <ele>21.1</ele>
        <time>2022-04-18T13:54:04.583Z</time>
      </trkpt>
      <trkpt lat="50.47823" lon="3.51492">
        <ele>21</ele>
        <time>2022-04-18T13:54:07.000Z</time>
      </trkpt>
      <trkpt lat="50.47824" lon="3.51483">
        <ele>21</ele>
        <time>2022-04-18T13:54:08.405Z</time>
      </trkpt>
      <trkpt lat="50.47826" lon="3.51474">
        <ele>21</ele>
        <time>2022-04-18T13:54:10.124Z</time>
      </trkpt>
      <trkpt lat="50.4783" lon="3.51458">
        <ele>21</ele>
        <time>2022-04-18T13:54:12.481Z</time>
      </trkpt>
      <trkpt lat="50.47832" lon="3.5145">
        <ele>21</ele>
        <time>2022-04-18T13:54:13.727Z</time>
      </trkpt>
      <trkpt lat="50.47834" lon="3.51438">
        <ele>20.8</ele>
        <time>2022-04-18T13:54:15.000Z</time>
      </trkpt>
      <trkpt lat="50.47835" lon="3.51431">
        <ele>20.5</ele>
        <time>2022-04-18T13:54:16.000Z</time>
      </trkpt>
      <trkpt lat="50.47837" lon="3.51423">
        <ele>20.3</ele>
        <time>2022-04-18T13:54:17.000Z</time>
      </trkpt>
      <trkpt lat="50.47838" lon="3.51416">
        <ele>20.2</ele>
        <time>2022-04-18T13:54:18.000Z</time>
      </trkpt>
      <trkpt lat="50.47841" lon="3.51403">
        <ele>20.3</ele>
        <time>2022-04-18T13:54:20.000Z</time>
      </trkpt>
      <trkpt lat="50.47844" lon="3.51389">
        <ele>20.4</ele>
        <time>2022-04-18T13:54:22.000Z</time>
      </trkpt>
      <trkpt lat="50.47846" lon="3.51381">
        <ele>20.3</ele>
        <time>2022-04-18T13:54:23.000Z</time>
      </trkpt>
      <trkpt lat="50.47848" lon="3.51374">
        <ele>20.2</ele>
        <time>2022-04-18T13:54:24.000Z</time>
      </trkpt>
      <trkpt lat="50.47849" lon="3.51367">
        <ele>20.1</ele>
        <time>2022-04-18T13:54:25.000Z</time>
      </trkpt>
      <trkpt lat="50.47851" lon="3.5136">
        <ele>20</ele>
        <time>2022-04-18T13:54:26.000Z</time>
      </trkpt>
      <trkpt lat="50.47853" lon="3.51352">
        <ele>20</ele>
        <time>2022-04-18T13:54:27.000Z</time>
      </trkpt>
      <trkpt lat="50.47854" lon="3.51345">
        <ele>20</ele>
        <time>2022-04-18T13:54:28.000Z</time>
      </trkpt>
      <trkpt lat="50.47858" lon="3.5133">
        <ele>19.9</ele>
        <time>2022-04-18T13:54:30.000Z</time>
      </trkpt>
      <trkpt lat="50.47859" lon="3.51323">
        <ele>19.7</ele>
        <time>2022-04-18T13:54:31.000Z</time>
      </trkpt>
      <trkpt lat="50.47861" lon="3.51315">
        <ele>19.3</ele>
        <time>2022-04-18T13:54:32.000Z</time>
      </trkpt>
      <trkpt lat="50.47863" lon="3.51308">
        <ele>19.1</ele>
        <time>2022-04-18T13:54:33.000Z</time>
      </trkpt>
      <trkpt lat="50.47865" lon="3.51301">
        <ele>19</ele>
        <time>2022-04-18T13:54:34.000Z</time>
      </trkpt>
      <trkpt lat="50.47867" lon="3.51294">
        <ele>19.1</ele>
        <time>2022-04-18T13:54:35.000Z</time>
      </trkpt>
      <trkpt lat="50.4787" lon="3.51287">
        <ele>19.2</ele>
        <time>2022-04-18T13:54:36.000Z</time>
      </trkpt>
      <trkpt lat="50.47873" lon="3.5128">
        <ele>19.4</ele>
        <time>2022-04-18T13:54:37.000Z</time>
      </trkpt>
      <trkpt lat="50.47875" lon="3.51274">
        <ele>19.4</ele>
        <time>2022-04-18T13:54:38.000Z</time>
      </trkpt>
      <trkpt lat="50.4788" lon="3.5126">
        <ele>19.2</ele>
        <time>2022-04-18T13:54:40.000Z</time>
      </trkpt>
      <trkpt lat="50.47883" lon="3.51254">
        <ele>19.1</ele>
        <time>2022-04-18T13:54:41.000Z</time>
      </trkpt>
      <trkpt lat="50.47887" lon="3.51241">
        <ele>19</ele>
        <time>2022-04-18T13:54:43.000Z</time>
      </trkpt>
      <trkpt lat="50.47889" lon="3.51234">
        <ele>19</ele>
        <time>2022-04-18T13:54:44.000Z</time>
      </trkpt>
      <trkpt lat="50.47892" lon="3.51228">
        <ele>19</ele>
        <time>2022-04-18T13:54:45.000Z</time>
      </trkpt>
      <trkpt lat="50.47894" lon="3.51221">
        <ele>19</ele>
        <time>2022-04-18T13:54:46.000Z</time>
      </trkpt>
      <trkpt lat="50.47899" lon="3.51208">
        <ele>19</ele>
        <time>2022-04-18T13:54:48.000Z</time>
      </trkpt>
      <trkpt lat="50.47901" lon="3.51202">
        <ele>19</ele>
        <time>2022-04-18T13:54:49.000Z</time>
      </trkpt>
      <trkpt lat="50.47906" lon="3.51189">
        <ele>19</ele>
        <time>2022-04-18T13:54:51.000Z</time>
      </trkpt>
      <trkpt lat="50.47907" lon="3.51182">
        <ele>19</ele>
        <time>2022-04-18T13:54:52.000Z</time>
      </trkpt>
      <trkpt lat="50.4791" lon="3.51175">
        <ele>19</ele>
        <time>2022-04-18T13:54:53.000Z</time>
      </trkpt>
      <trkpt lat="50.47912" lon="3.51168">
        <ele>19</ele>
        <time>2022-04-18T13:54:54.000Z</time>
      </trkpt>
      <trkpt lat="50.47915" lon="3.51162">
        <ele>19</ele>
        <time>2022-04-18T13:54:55.000Z</time>
      </trkpt>
      <trkpt lat="50.47917" lon="3.51154">
        <ele>19</ele>
        <time>2022-04-18T13:54:56.000Z</time>
      </trkpt>
      <trkpt lat="50.4792" lon="3.51146">
        <ele>19</ele>
        <time>2022-04-18T13:54:57.000Z</time>
      </trkpt>
      <trkpt lat="50.47923" lon="3.51138">
        <ele>19</ele>
        <time>2022-04-18T13:54:58.000Z</time>
      </trkpt>
      <trkpt lat="50.47926" lon="3.51131">
        <ele>19</ele>
        <time>2022-04-18T13:54:59.000Z</time>
      </trkpt>
      <trkpt lat="50.47929" lon="3.51123">
        <ele>19</ele>
        <time>2022-04-18T13:55:00.000Z</time>
      </trkpt>
      <trkpt lat="50.47932" lon="3.51116">
        <ele>19</ele>
        <time>2022-04-18T13:55:01.000Z</time>
      </trkpt>
      <trkpt lat="50.47934" lon="3.51108">
        <ele>19</ele>
        <time>2022-04-18T13:55:02.000Z</time>
      </trkpt>
      <trkpt lat="50.47937" lon="3.511">
        <ele>19</ele>
        <time>2022-04-18T13:55:03.000Z</time>
      </trkpt>
      <trkpt lat="50.4794" lon="3.51088">
        <ele>19</ele>
        <time>2022-04-18T13:55:05.000Z</time>
      </trkpt>
      <trkpt lat="50.47945" lon="3.51074">
        <ele>19</ele>
        <time>2022-04-18T13:55:07.000Z</time>
      </trkpt>
      <trkpt lat="50.47947" lon="3.51066">
        <ele>19</ele>
        <time>2022-04-18T13:55:08.000Z</time>
      </trkpt>
      <trkpt lat="50.47949" lon="3.51059">
        <ele>19</ele>
        <time>2022-04-18T13:55:09.000Z</time>
      </trkpt>
      <trkpt lat="50.47953" lon="3.51046">
        <ele>18.9</ele>
        <time>2022-04-18T13:55:11.000Z</time>
      </trkpt>
      <trkpt lat="50.47956" lon="3.5104">
        <ele>18.9</ele>
        <time>2022-04-18T13:55:12.000Z</time>
      </trkpt>
      <trkpt lat="50.47958" lon="3.51033">
        <ele>19</ele>
        <time>2022-04-18T13:55:13.000Z</time>
      </trkpt>
      <trkpt lat="50.47961" lon="3.51026">
        <ele>19.2</ele>
        <time>2022-04-18T13:55:14.000Z</time>
      </trkpt>
      <trkpt lat="50.47964" lon="3.5102">
        <ele>19.2</ele>
        <time>2022-04-18T13:55:15.000Z</time>
      </trkpt>
      <trkpt lat="50.47966" lon="3.51013">
        <ele>19.1</ele>
        <time>2022-04-18T13:55:16.000Z</time>
      </trkpt>
      <trkpt lat="50.47968" lon="3.51007">
        <ele>19.1</ele>
        <time>2022-04-18T13:55:17.000Z</time>
      </trkpt>
      <trkpt lat="50.47971" lon="3.51">
        <ele>19</ele>
        <time>2022-04-18T13:55:18.000Z</time>
      </trkpt>
      <trkpt lat="50.47974" lon="3.50993">
        <ele>18.8</ele>
        <time>2022-04-18T13:55:19.000Z</time>
      </trkpt>
      <trkpt lat="50.47977" lon="3.50987">
        <ele>18.6</ele>
        <time>2022-04-18T13:55:20.000Z</time>
      </trkpt>
      <trkpt lat="50.47983" lon="3.50976">
        <ele>18.5</ele>
        <time>2022-04-18T13:55:22.000Z</time>
      </trkpt>
      <trkpt lat="50.47987" lon="3.5097">
        <ele>18.5</ele>
        <time>2022-04-18T13:55:23.000Z</time>
      </trkpt>
      <trkpt lat="50.47992" lon="3.5096">
        <ele>18.7</ele>
        <time>2022-04-18T13:55:25.000Z</time>
      </trkpt>
      <trkpt lat="50.47998" lon="3.5095">
        <ele>18.9</ele>
        <time>2022-04-18T13:55:27.000Z</time>
      </trkpt>
      <trkpt lat="50.48004" lon="3.50943">
        <ele>19</ele>
        <time>2022-04-18T13:55:29.000Z</time>
      </trkpt>
      <trkpt lat="50.48011" lon="3.50936">
        <ele>18.8</ele>
        <time>2022-04-18T13:55:31.000Z</time>
      </trkpt>
      <trkpt lat="50.48015" lon="3.50928">
        <ele>18.7</ele>
        <time>2022-04-18T13:55:33.015Z</time>
      </trkpt>
      <trkpt lat="50.48021" lon="3.5092">
        <ele>18.8</ele>
        <time>2022-04-18T13:55:34.918Z</time>
      </trkpt>
      <trkpt lat="50.48029" lon="3.50909">
        <ele>19</ele>
        <time>2022-04-18T13:55:37.000Z</time>
      </trkpt>
      <trkpt lat="50.48035" lon="3.509">
        <ele>19</ele>
        <time>2022-04-18T13:55:39.000Z</time>
      </trkpt>
      <trkpt lat="50.48039" lon="3.50891">
        <ele>19</ele>
        <time>2022-04-18T13:55:41.000Z</time>
      </trkpt>
      <trkpt lat="50.48042" lon="3.50885">
        <ele>19</ele>
        <time>2022-04-18T13:55:42.000Z</time>
      </trkpt>
      <trkpt lat="50.48045" lon="3.50879">
        <ele>19</ele>
        <time>2022-04-18T13:55:43.000Z</time>
      </trkpt>
      <trkpt lat="50.4805" lon="3.50867">
        <ele>19</ele>
        <time>2022-04-18T13:55:45.217Z</time>
      </trkpt>
      <trkpt lat="50.48052" lon="3.5086">
        <ele>19</ele>
        <time>2022-04-18T13:55:46.536Z</time>
      </trkpt>
      <trkpt lat="50.48054" lon="3.50853">
        <ele>19</ele>
        <time>2022-04-18T13:55:47.775Z</time>
      </trkpt>
      <trkpt lat="50.48056" lon="3.50844">
        <ele>19</ele>
        <time>2022-04-18T13:55:48.978Z</time>
      </trkpt>
      <trkpt lat="50.48057" lon="3.50837">
        <ele>19</ele>
        <time>2022-04-18T13:55:50.097Z</time>
      </trkpt>
      <trkpt lat="50.48061" lon="3.50827">
        <ele>19</ele>
        <time>2022-04-18T13:55:51.956Z</time>
      </trkpt>
      <trkpt lat="50.48062" lon="3.50818">
        <ele>18.9</ele>
        <time>2022-04-18T13:55:53.097Z</time>
      </trkpt>
      <trkpt lat="50.48065" lon="3.50811">
        <ele>18.7</ele>
        <time>2022-04-18T13:55:54.495Z</time>
      </trkpt>
      <trkpt lat="50.48067" lon="3.50803">
        <ele>18.6</ele>
        <time>2022-04-18T13:55:55.833Z</time>
      </trkpt>
      <trkpt lat="50.48069" lon="3.50794">
        <ele>18.7</ele>
        <time>2022-04-18T13:55:57.000Z</time>
      </trkpt>
      <trkpt lat="50.48073" lon="3.50779">
        <ele>19</ele>
        <time>2022-04-18T13:55:59.383Z</time>
      </trkpt>
      <trkpt lat="50.48075" lon="3.5077">
        <ele>18.7</ele>
        <time>2022-04-18T13:56:00.755Z</time>
      </trkpt>
      <trkpt lat="50.48077" lon="3.50762">
        <ele>18.4</ele>
        <time>2022-04-18T13:56:02.000Z</time>
      </trkpt>
      <trkpt lat="50.48081" lon="3.50748">
        <ele>18.1</ele>
        <time>2022-04-18T13:56:04.000Z</time>
      </trkpt>
      <trkpt lat="50.48083" lon="3.50742">
        <ele>18.3</ele>
        <time>2022-04-18T13:56:05.000Z</time>
      </trkpt>
      <trkpt lat="50.48083" lon="3.50732">
        <ele>18.6</ele>
        <time>2022-04-18T13:56:07.061Z</time>
      </trkpt>
      <trkpt lat="50.48088" lon="3.50722">
        <ele>18.8</ele>
        <time>2022-04-18T13:56:08.000Z</time>
      </trkpt>
      <trkpt lat="50.48093" lon="3.50708">
        <ele>18.3</ele>
        <time>2022-04-18T13:56:10.000Z</time>
      </trkpt>
      <trkpt lat="50.48096" lon="3.50702">
        <ele>18.1</ele>
        <time>2022-04-18T13:56:11.000Z</time>
      </trkpt>
      <trkpt lat="50.48099" lon="3.50696">
        <ele>18</ele>
        <time>2022-04-18T13:56:12.000Z</time>
      </trkpt>
      <trkpt lat="50.48102" lon="3.5069">
        <ele>18</ele>
        <time>2022-04-18T13:56:13.000Z</time>
      </trkpt>
      <trkpt lat="50.48105" lon="3.50684">
        <ele>18</ele>
        <time>2022-04-18T13:56:14.000Z</time>
      </trkpt>
      <trkpt lat="50.48108" lon="3.50679">
        <ele>18</ele>
        <time>2022-04-18T13:56:15.000Z</time>
      </trkpt>
      <trkpt lat="50.48111" lon="3.50673">
        <ele>18</ele>
        <time>2022-04-18T13:56:16.000Z</time>
      </trkpt>
      <trkpt lat="50.48114" lon="3.50667">
        <ele>18</ele>
        <time>2022-04-18T13:56:17.000Z</time>
      </trkpt>
      <trkpt lat="50.48117" lon="3.50662">
        <ele>18</ele>
        <time>2022-04-18T13:56:18.000Z</time>
      </trkpt>
      <trkpt lat="50.4812" lon="3.50657">
        <ele>18</ele>
        <time>2022-04-18T13:56:19.000Z</time>
      </trkpt>
      <trkpt lat="50.48124" lon="3.50652">
        <ele>18</ele>
        <time>2022-04-18T13:56:20.000Z</time>
      </trkpt>
      <trkpt lat="50.48131" lon="3.50642">
        <ele>18</ele>
        <time>2022-04-18T13:56:22.000Z</time>
      </trkpt>
      <trkpt lat="50.48134" lon="3.50637">
        <ele>18</ele>
        <time>2022-04-18T13:56:23.000Z</time>
      </trkpt>
      <trkpt lat="50.48137" lon="3.50632">
        <ele>18</ele>
        <time>2022-04-18T13:56:24.000Z</time>
      </trkpt>
      <trkpt lat="50.48141" lon="3.50626">
        <ele>18</ele>
        <time>2022-04-18T13:56:25.000Z</time>
      </trkpt>
      <trkpt lat="50.48144" lon="3.50621">
        <ele>18</ele>
        <time>2022-04-18T13:56:26.000Z</time>
      </trkpt>
      <trkpt lat="50.48148" lon="3.50617">
        <ele>18</ele>
        <time>2022-04-18T13:56:27.000Z</time>
      </trkpt>
      <trkpt lat="50.48151" lon="3.50612">
        <ele>18</ele>
        <time>2022-04-18T13:56:28.000Z</time>
      </trkpt>
      <trkpt lat="50.48155" lon="3.50607">
        <ele>18</ele>
        <time>2022-04-18T13:56:29.000Z</time>
      </trkpt>
      <trkpt lat="50.48161" lon="3.50599">
        <ele>18</ele>
        <time>2022-04-18T13:56:30.985Z</time>
      </trkpt>
      <trkpt lat="50.48166" lon="3.50592">
        <ele>18</ele>
        <time>2022-04-18T13:56:32.000Z</time>
      </trkpt>
      <trkpt lat="50.48173" lon="3.50583">
        <ele>18</ele>
        <time>2022-04-18T13:56:34.000Z</time>
      </trkpt>
      <trkpt lat="50.48179" lon="3.50574">
        <ele>18</ele>
        <time>2022-04-18T13:56:36.000Z</time>
      </trkpt>
      <trkpt lat="50.48186" lon="3.50564">
        <ele>18</ele>
        <time>2022-04-18T13:56:38.000Z</time>
      </trkpt>
      <trkpt lat="50.48189" lon="3.50559">
        <ele>18</ele>
        <time>2022-04-18T13:56:39.000Z</time>
      </trkpt>
      <trkpt lat="50.48192" lon="3.50554">
        <ele>18.1</ele>
        <time>2022-04-18T13:56:40.000Z</time>
      </trkpt>
      <trkpt lat="50.48199" lon="3.50543">
        <ele>18.4</ele>
        <time>2022-04-18T13:56:42.000Z</time>
      </trkpt>
      <trkpt lat="50.48203" lon="3.50538">
        <ele>18.4</ele>
        <time>2022-04-18T13:56:43.000Z</time>
      </trkpt>
      <trkpt lat="50.48206" lon="3.50532">
        <ele>18.5</ele>
        <time>2022-04-18T13:56:44.000Z</time>
      </trkpt>
      <trkpt lat="50.48212" lon="3.50522">
        <ele>18.4</ele>
        <time>2022-04-18T13:56:46.000Z</time>
      </trkpt>
      <trkpt lat="50.48215" lon="3.50515">
        <ele>18.3</ele>
        <time>2022-04-18T13:56:47.000Z</time>
      </trkpt>
      <trkpt lat="50.48218" lon="3.50509">
        <ele>18.2</ele>
        <time>2022-04-18T13:56:48.000Z</time>
      </trkpt>
      <trkpt lat="50.48223" lon="3.50498">
        <ele>18</ele>
        <time>2022-04-18T13:56:50.000Z</time>
      </trkpt>
      <trkpt lat="50.48226" lon="3.50491">
        <ele>18</ele>
        <time>2022-04-18T13:56:51.000Z</time>
      </trkpt>
      <trkpt lat="50.48233" lon="3.50483">
        <ele>18</ele>
        <time>2022-04-18T13:56:54.000Z</time>
      </trkpt>
      <trkpt lat="50.48235" lon="3.50474">
        <ele>18</ele>
        <time>2022-04-18T13:56:55.000Z</time>
      </trkpt>
      <trkpt lat="50.48238" lon="3.50467">
        <ele>18</ele>
        <time>2022-04-18T13:56:56.000Z</time>
      </trkpt>
      <trkpt lat="50.48244" lon="3.50453">
        <ele>18</ele>
        <time>2022-04-18T13:56:58.000Z</time>
      </trkpt>
      <trkpt lat="50.48249" lon="3.50444">
        <ele>18</ele>
        <time>2022-04-18T13:57:00.000Z</time>
      </trkpt>
      <trkpt lat="50.48253" lon="3.50434">
        <ele>18</ele>
        <time>2022-04-18T13:57:01.930Z</time>
      </trkpt>
      <trkpt lat="50.4826" lon="3.50421">
        <ele>18</ele>
        <time>2022-04-18T13:57:04.000Z</time>
      </trkpt>
      <trkpt lat="50.48264" lon="3.50414">
        <ele>18</ele>
        <time>2022-04-18T13:57:05.948Z</time>
      </trkpt>
      <trkpt lat="50.48267" lon="3.50406">
        <ele>18</ele>
        <time>2022-04-18T13:57:07.000Z</time>
      </trkpt>
      <trkpt lat="50.4827" lon="3.504">
        <ele>18</ele>
        <time>2022-04-18T13:57:08.000Z</time>
      </trkpt>
      <trkpt lat="50.48273" lon="3.50394">
        <ele>18</ele>
        <time>2022-04-18T13:57:09.000Z</time>
      </trkpt>
      <trkpt lat="50.48278" lon="3.50384">
        <ele>18</ele>
        <time>2022-04-18T13:57:11.000Z</time>
      </trkpt>
      <trkpt lat="50.48281" lon="3.50375">
        <ele>18</ele>
        <time>2022-04-18T13:57:13.044Z</time>
      </trkpt>
      <trkpt lat="50.48287" lon="3.50365">
        <ele>18</ele>
        <time>2022-04-18T13:57:15.389Z</time>
      </trkpt>
      <trkpt lat="50.48291" lon="3.50357">
        <ele>18</ele>
        <time>2022-04-18T13:57:16.849Z</time>
      </trkpt>
      <trkpt lat="50.48296" lon="3.50346">
        <ele>18</ele>
        <time>2022-04-18T13:57:19.000Z</time>
      </trkpt>
      <trkpt lat="50.483" lon="3.50337">
        <ele>18</ele>
        <time>2022-04-18T13:57:21.000Z</time>
      </trkpt>
      <trkpt lat="50.48303" lon="3.50331">
        <ele>18</ele>
        <time>2022-04-18T13:57:22.000Z</time>
      </trkpt>
      <trkpt lat="50.48308" lon="3.5032">
        <ele>18</ele>
        <time>2022-04-18T13:57:24.190Z</time>
      </trkpt>
      <trkpt lat="50.4831" lon="3.50313">
        <ele>18</ele>
        <time>2022-04-18T13:57:25.386Z</time>
      </trkpt>
      <trkpt lat="50.48316" lon="3.50302">
        <ele>18</ele>
        <time>2022-04-18T13:57:27.000Z</time>
      </trkpt>
      <trkpt lat="50.48321" lon="3.50293">
        <ele>18</ele>
        <time>2022-04-18T13:57:29.000Z</time>
      </trkpt>
      <trkpt lat="50.48324" lon="3.50287">
        <ele>18</ele>
        <time>2022-04-18T13:57:30.000Z</time>
      </trkpt>
      <trkpt lat="50.48329" lon="3.50275">
        <ele>18</ele>
        <time>2022-04-18T13:57:32.000Z</time>
      </trkpt>
      <trkpt lat="50.48337" lon="3.50258">
        <ele>18</ele>
        <time>2022-04-18T13:57:35.908Z</time>
      </trkpt>
      <trkpt lat="50.48338" lon="3.50245">
        <ele>18</ele>
        <time>2022-04-18T13:57:38.000Z</time>
      </trkpt>
      <trkpt lat="50.48338" lon="3.5023">
        <ele>18</ele>
        <time>2022-04-18T13:57:39.686Z</time>
      </trkpt>
      <trkpt lat="50.48338" lon="3.50216">
        <ele>18</ele>
        <time>2022-04-18T13:57:41.746Z</time>
      </trkpt>
      <trkpt lat="50.48338" lon="3.50204">
        <ele>18</ele>
        <time>2022-04-18T13:57:44.000Z</time>
      </trkpt>
      <trkpt lat="50.48338" lon="3.50196">
        <ele>18</ele>
        <time>2022-04-18T13:57:45.000Z</time>
      </trkpt>
      <trkpt lat="50.48337" lon="3.50179">
        <ele>18</ele>
        <time>2022-04-18T13:57:47.000Z</time>
      </trkpt>
      <trkpt lat="50.48337" lon="3.50165">
        <ele>18</ele>
        <time>2022-04-18T13:57:49.000Z</time>
      </trkpt>
      <trkpt lat="50.4834" lon="3.50156">
        <ele>18</ele>
        <time>2022-04-18T13:57:51.000Z</time>
      </trkpt>
      <trkpt lat="50.48338" lon="3.50149">
        <ele>18</ele>
        <time>2022-04-18T13:57:52.000Z</time>
      </trkpt>
      <trkpt lat="50.48334" lon="3.50137">
        <ele>18</ele>
        <time>2022-04-18T13:57:54.000Z</time>
      </trkpt>
      <trkpt lat="50.48331" lon="3.50125">
        <ele>18</ele>
        <time>2022-04-18T13:57:54.961Z</time>
      </trkpt>
      <trkpt lat="50.48329" lon="3.50118">
        <ele>18</ele>
        <time>2022-04-18T13:57:56.000Z</time>
      </trkpt>
      <trkpt lat="50.48328" lon="3.5011">
        <ele>18</ele>
        <time>2022-04-18T13:57:57.964Z</time>
      </trkpt>
      <trkpt lat="50.48324" lon="3.50095">
        <ele>18</ele>
        <time>2022-04-18T13:58:00.000Z</time>
      </trkpt>
      <trkpt lat="50.4832" lon="3.50082">
        <ele>18</ele>
        <time>2022-04-18T13:58:03.000Z</time>
      </trkpt>
      <trkpt lat="50.48316" lon="3.50071">
        <ele>18.3</ele>
        <time>2022-04-18T13:58:05.043Z</time>
      </trkpt>
      <trkpt lat="50.48315" lon="3.50059">
        <ele>18.6</ele>
        <time>2022-04-18T13:58:06.925Z</time>
      </trkpt>
      <trkpt lat="50.48318" lon="3.50047">
        <ele>18.4</ele>
        <time>2022-04-18T13:58:09.000Z</time>
      </trkpt>
      <trkpt lat="50.4832" lon="3.50041">
        <ele>18.2</ele>
        <time>2022-04-18T13:58:10.000Z</time>
      </trkpt>
      <trkpt lat="50.48325" lon="3.50031">
        <ele>18</ele>
        <time>2022-04-18T13:58:12.022Z</time>
      </trkpt>
      <trkpt lat="50.48331" lon="3.50021">
        <ele>18</ele>
        <time>2022-04-18T13:58:13.982Z</time>
      </trkpt>
      <trkpt lat="50.48334" lon="3.50015">
        <ele>18</ele>
        <time>2022-04-18T13:58:14.925Z</time>
      </trkpt>
      <trkpt lat="50.48337" lon="3.5001">
        <ele>18</ele>
        <time>2022-04-18T13:58:16.000Z</time>
      </trkpt>
      <trkpt lat="50.48342" lon="3.50001">
        <ele>18</ele>
        <time>2022-04-18T13:58:18.000Z</time>
      </trkpt>
      <trkpt lat="50.48348" lon="3.4999">
        <ele>18</ele>
        <time>2022-04-18T13:58:20.000Z</time>
      </trkpt>
      <trkpt lat="50.48354" lon="3.49978">
        <ele>18</ele>
        <time>2022-04-18T13:58:22.045Z</time>
      </trkpt>
      <trkpt lat="50.48357" lon="3.49972">
        <ele>18</ele>
        <time>2022-04-18T13:58:23.026Z</time>
      </trkpt>
      <trkpt lat="50.4836" lon="3.49965">
        <ele>18</ele>
        <time>2022-04-18T13:58:24.000Z</time>
      </trkpt>
      <trkpt lat="50.48366" lon="3.49959">
        <ele>18</ele>
        <time>2022-04-18T13:58:26.189Z</time>
      </trkpt>
      <trkpt lat="50.48369" lon="3.49949">
        <ele>18</ele>
        <time>2022-04-18T13:58:27.555Z</time>
      </trkpt>
      <trkpt lat="50.48374" lon="3.4994">
        <ele>18.1</ele>
        <time>2022-04-18T13:58:29.013Z</time>
      </trkpt>
      <trkpt lat="50.48377" lon="3.49935">
        <ele>18.1</ele>
        <time>2022-04-18T13:58:30.000Z</time>
      </trkpt>
      <trkpt lat="50.48381" lon="3.49929">
        <ele>18.2</ele>
        <time>2022-04-18T13:58:31.000Z</time>
      </trkpt>
      <trkpt lat="50.48384" lon="3.49923">
        <ele>18.1</ele>
        <time>2022-04-18T13:58:32.000Z</time>
      </trkpt>
      <trkpt lat="50.48391" lon="3.49915">
        <ele>18</ele>
        <time>2022-04-18T13:58:33.931Z</time>
      </trkpt>
      <trkpt lat="50.48395" lon="3.49909">
        <ele>18</ele>
        <time>2022-04-18T13:58:35.000Z</time>
      </trkpt>
      <trkpt lat="50.484" lon="3.49904">
        <ele>18</ele>
        <time>2022-04-18T13:58:36.250Z</time>
      </trkpt>
      <trkpt lat="50.48405" lon="3.49895">
        <ele>18</ele>
        <time>2022-04-18T13:58:37.830Z</time>
      </trkpt>
      <trkpt lat="50.48408" lon="3.49889">
        <ele>18</ele>
        <time>2022-04-18T13:58:39.095Z</time>
      </trkpt>
      <trkpt lat="50.48415" lon="3.4988">
        <ele>18</ele>
        <time>2022-04-18T13:58:40.931Z</time>
      </trkpt>
      <trkpt lat="50.48418" lon="3.49874">
        <ele>18</ele>
        <time>2022-04-18T13:58:42.000Z</time>
      </trkpt>
      <trkpt lat="50.48424" lon="3.49865">
        <ele>18</ele>
        <time>2022-04-18T13:58:44.000Z</time>
      </trkpt>
      <trkpt lat="50.4843" lon="3.49856">
        <ele>18.2</ele>
        <time>2022-04-18T13:58:46.000Z</time>
      </trkpt>
      <trkpt lat="50.48436" lon="3.49848">
        <ele>18.5</ele>
        <time>2022-04-18T13:58:48.085Z</time>
      </trkpt>
      <trkpt lat="50.48441" lon="3.49841">
        <ele>18.7</ele>
        <time>2022-04-18T13:58:49.558Z</time>
      </trkpt>
      <trkpt lat="50.48445" lon="3.49834">
        <ele>19</ele>
        <time>2022-04-18T13:58:50.799Z</time>
      </trkpt>
      <trkpt lat="50.48449" lon="3.49828">
        <ele>18.7</ele>
        <time>2022-04-18T13:58:51.985Z</time>
      </trkpt>
      <trkpt lat="50.48452" lon="3.49823">
        <ele>18.6</ele>
        <time>2022-04-18T13:58:53.000Z</time>
      </trkpt>
      <trkpt lat="50.48456" lon="3.49818">
        <ele>18.5</ele>
        <time>2022-04-18T13:58:54.000Z</time>
      </trkpt>
      <trkpt lat="50.48461" lon="3.49813">
        <ele>18.5</ele>
        <time>2022-04-18T13:58:55.000Z</time>
      </trkpt>
      <trkpt lat="50.48468" lon="3.49806">
        <ele>18.8</ele>
        <time>2022-04-18T13:58:57.352Z</time>
      </trkpt>
      <trkpt lat="50.48479" lon="3.49803">
        <ele>18.9</ele>
        <time>2022-04-18T13:58:59.853Z</time>
      </trkpt>
      <trkpt lat="50.48484" lon="3.49803">
        <ele>18.9</ele>
        <time>2022-04-18T13:59:01.035Z</time>
      </trkpt>
      <trkpt lat="50.4849" lon="3.49803">
        <ele>18.9</ele>
        <time>2022-04-18T13:59:02.000Z</time>
      </trkpt>
      <trkpt lat="50.48497" lon="3.49804">
        <ele>19</ele>
        <time>2022-04-18T13:59:04.128Z</time>
      </trkpt>
      <trkpt lat="50.48504" lon="3.49802">
        <ele>19</ele>
        <time>2022-04-18T13:59:05.488Z</time>
      </trkpt>
      <trkpt lat="50.48509" lon="3.498">
        <ele>19</ele>
        <time>2022-04-18T13:59:06.608Z</time>
      </trkpt>
      <trkpt lat="50.48514" lon="3.49798">
        <ele>19</ele>
        <time>2022-04-18T13:59:07.728Z</time>
      </trkpt>
      <trkpt lat="50.48519" lon="3.49794">
        <ele>19</ele>
        <time>2022-04-18T13:59:09.000Z</time>
      </trkpt>
      <trkpt lat="50.48523" lon="3.49789">
        <ele>19</ele>
        <time>2022-04-18T13:59:10.000Z</time>
      </trkpt>
      <trkpt lat="50.48528" lon="3.49782">
        <ele>19</ele>
        <time>2022-04-18T13:59:10.987Z</time>
      </trkpt>
      <trkpt lat="50.48533" lon="3.49772">
        <ele>18.8</ele>
        <time>2022-04-18T13:59:13.186Z</time>
      </trkpt>
      <trkpt lat="50.48537" lon="3.49766">
        <ele>18.7</ele>
        <time>2022-04-18T13:59:14.427Z</time>
      </trkpt>
      <trkpt lat="50.4854" lon="3.49758">
        <ele>18.6</ele>
        <time>2022-04-18T13:59:15.849Z</time>
      </trkpt>
      <trkpt lat="50.48544" lon="3.49752">
        <ele>18.6</ele>
        <time>2022-04-18T13:59:17.000Z</time>
      </trkpt>
      <trkpt lat="50.48547" lon="3.49746">
        <ele>18.7</ele>
        <time>2022-04-18T13:59:18.000Z</time>
      </trkpt>
      <trkpt lat="50.4855" lon="3.4974">
        <ele>18.8</ele>
        <time>2022-04-18T13:59:19.000Z</time>
      </trkpt>
      <trkpt lat="50.48554" lon="3.49735">
        <ele>18.9</ele>
        <time>2022-04-18T13:59:20.000Z</time>
      </trkpt>
      <trkpt lat="50.48557" lon="3.49729">
        <ele>19</ele>
        <time>2022-04-18T13:59:21.000Z</time>
      </trkpt>
      <trkpt lat="50.48561" lon="3.49723">
        <ele>19</ele>
        <time>2022-04-18T13:59:22.000Z</time>
      </trkpt>
      <trkpt lat="50.48567" lon="3.49713">
        <ele>18.8</ele>
        <time>2022-04-18T13:59:24.000Z</time>
      </trkpt>
      <trkpt lat="50.48572" lon="3.49708">
        <ele>18.8</ele>
        <time>2022-04-18T13:59:25.000Z</time>
      </trkpt>
      <trkpt lat="50.48579" lon="3.49699">
        <ele>18.9</ele>
        <time>2022-04-18T13:59:27.000Z</time>
      </trkpt>
      <trkpt lat="50.48582" lon="3.49695">
        <ele>19</ele>
        <time>2022-04-18T13:59:28.000Z</time>
      </trkpt>
      <trkpt lat="50.48587" lon="3.49689">
        <ele>18.8</ele>
        <time>2022-04-18T13:59:29.000Z</time>
      </trkpt>
      <trkpt lat="50.48593" lon="3.49685">
        <ele>18.8</ele>
        <time>2022-04-18T13:59:31.000Z</time>
      </trkpt>
      <trkpt lat="50.48601" lon="3.49677">
        <ele>18.8</ele>
        <time>2022-04-18T13:59:33.000Z</time>
      </trkpt>
      <trkpt lat="50.48609" lon="3.4967">
        <ele>18.9</ele>
        <time>2022-04-18T13:59:35.000Z</time>
      </trkpt>
      <trkpt lat="50.48614" lon="3.49667">
        <ele>19</ele>
        <time>2022-04-18T13:59:36.000Z</time>
      </trkpt>
      <trkpt lat="50.48618" lon="3.49664">
        <ele>18.9</ele>
        <time>2022-04-18T13:59:37.000Z</time>
      </trkpt>
      <trkpt lat="50.48626" lon="3.49659">
        <ele>18.7</ele>
        <time>2022-04-18T13:59:39.000Z</time>
      </trkpt>
      <trkpt lat="50.48631" lon="3.49657">
        <ele>18.7</ele>
        <time>2022-04-18T13:59:40.000Z</time>
      </trkpt>
      <trkpt lat="50.4864" lon="3.49655">
        <ele>18.6</ele>
        <time>2022-04-18T13:59:42.000Z</time>
      </trkpt>
      <trkpt lat="50.48648" lon="3.49655">
        <ele>18.6</ele>
        <time>2022-04-18T13:59:44.000Z</time>
      </trkpt>
      <trkpt lat="50.48654" lon="3.49655">
        <ele>18.6</ele>
        <time>2022-04-18T13:59:45.000Z</time>
      </trkpt>
      <trkpt lat="50.48658" lon="3.49654">
        <ele>18.5</ele>
        <time>2022-04-18T13:59:46.000Z</time>
      </trkpt>
      <trkpt lat="50.48663" lon="3.49652">
        <ele>18.5</ele>
        <time>2022-04-18T13:59:47.000Z</time>
      </trkpt>
      <trkpt lat="50.48673" lon="3.4965">
        <ele>18.5</ele>
        <time>2022-04-18T13:59:49.000Z</time>
      </trkpt>
      <trkpt lat="50.48678" lon="3.49648">
        <ele>18.6</ele>
        <time>2022-04-18T13:59:50.000Z</time>
      </trkpt>
      <trkpt lat="50.48683" lon="3.49647">
        <ele>18.7</ele>
        <time>2022-04-18T13:59:51.000Z</time>
      </trkpt>
      <trkpt lat="50.48688" lon="3.49645">
        <ele>18.8</ele>
        <time>2022-04-18T13:59:52.000Z</time>
      </trkpt>
      <trkpt lat="50.48693" lon="3.49642">
        <ele>19</ele>
        <time>2022-04-18T13:59:53.000Z</time>
      </trkpt>
      <trkpt lat="50.48697" lon="3.4964">
        <ele>19</ele>
        <time>2022-04-18T13:59:54.000Z</time>
      </trkpt>
      <trkpt lat="50.48702" lon="3.49636">
        <ele>18.9</ele>
        <time>2022-04-18T13:59:55.000Z</time>
      </trkpt>
      <trkpt lat="50.48706" lon="3.49632">
        <ele>18.9</ele>
        <time>2022-04-18T13:59:56.000Z</time>
      </trkpt>
      <trkpt lat="50.4871" lon="3.49629">
        <ele>18.8</ele>
        <time>2022-04-18T13:59:57.000Z</time>
      </trkpt>
      <trkpt lat="50.48718" lon="3.49624">
        <ele>18.9</ele>
        <time>2022-04-18T13:59:59.000Z</time>
      </trkpt>
      <trkpt lat="50.48722" lon="3.49621">
        <ele>19</ele>
        <time>2022-04-18T14:00:00.000Z</time>
      </trkpt>
      <trkpt lat="50.48727" lon="3.49619">
        <ele>18.8</ele>
        <time>2022-04-18T14:00:01.000Z</time>
      </trkpt>
      <trkpt lat="50.48736" lon="3.49618">
        <ele>18.5</ele>
        <time>2022-04-18T14:00:03.000Z</time>
      </trkpt>
      <trkpt lat="50.4874" lon="3.49621">
        <ele>18.4</ele>
        <time>2022-04-18T14:00:04.000Z</time>
      </trkpt>
      <trkpt lat="50.48744" lon="3.49625">
        <ele>18.2</ele>
        <time>2022-04-18T14:00:05.000Z</time>
      </trkpt>
      <trkpt lat="50.48752" lon="3.49629">
        <ele>18</ele>
        <time>2022-04-18T14:00:07.839Z</time>
      </trkpt>
      <trkpt lat="50.48756" lon="3.49637">
        <ele>18</ele>
        <time>2022-04-18T14:00:08.880Z</time>
      </trkpt>
      <trkpt lat="50.4876" lon="3.49644">
        <ele>18</ele>
        <time>2022-04-18T14:00:10.034Z</time>
      </trkpt>
      <trkpt lat="50.48763" lon="3.49649">
        <ele>18</ele>
        <time>2022-04-18T14:00:11.000Z</time>
      </trkpt>
      <trkpt lat="50.48767" lon="3.49653">
        <ele>18</ele>
        <time>2022-04-18T14:00:12.000Z</time>
      </trkpt>
      <trkpt lat="50.48775" lon="3.49659">
        <ele>18</ele>
        <time>2022-04-18T14:00:14.000Z</time>
      </trkpt>
      <trkpt lat="50.48784" lon="3.49664">
        <ele>18</ele>
        <time>2022-04-18T14:00:16.000Z</time>
      </trkpt>
      <trkpt lat="50.4879" lon="3.49666">
        <ele>18</ele>
        <time>2022-04-18T14:00:17.919Z</time>
      </trkpt>
      <trkpt lat="50.48799" lon="3.4967">
        <ele>18</ele>
        <time>2022-04-18T14:00:20.251Z</time>
      </trkpt>
      <trkpt lat="50.48805" lon="3.49671">
        <ele>18</ele>
        <time>2022-04-18T14:00:21.351Z</time>
      </trkpt>
      <trkpt lat="50.48811" lon="3.49672">
        <ele>18</ele>
        <time>2022-04-18T14:00:22.495Z</time>
      </trkpt>
      <trkpt lat="50.48818" lon="3.49674">
        <ele>18</ele>
        <time>2022-04-18T14:00:24.000Z</time>
      </trkpt>
      <trkpt lat="50.48822" lon="3.49676">
        <ele>18</ele>
        <time>2022-04-18T14:00:25.000Z</time>
      </trkpt>
      <trkpt lat="50.48831" lon="3.49681">
        <ele>18</ele>
        <time>2022-04-18T14:00:27.000Z</time>
      </trkpt>
      <trkpt lat="50.48841" lon="3.49687">
        <ele>18</ele>
        <time>2022-04-18T14:00:29.109Z</time>
      </trkpt>
      <trkpt lat="50.48851" lon="3.49696">
        <ele>18</ele>
        <time>2022-04-18T14:00:31.852Z</time>
      </trkpt>
      <trkpt lat="50.48858" lon="3.49705">
        <ele>18</ele>
        <time>2022-04-18T14:00:34.091Z</time>
      </trkpt>
      <trkpt lat="50.48863" lon="3.49714">
        <ele>18</ele>
        <time>2022-04-18T14:00:36.011Z</time>
      </trkpt>
      <trkpt lat="50.48868" lon="3.49726">
        <ele>18</ele>
        <time>2022-04-18T14:00:38.432Z</time>
      </trkpt>
      <trkpt lat="50.48871" lon="3.49732">
        <ele>18</ele>
        <time>2022-04-18T14:00:40.000Z</time>
      </trkpt>
      <trkpt lat="50.48874" lon="3.49743">
        <ele>18</ele>
        <time>2022-04-18T14:00:42.000Z</time>
      </trkpt>
      <trkpt lat="50.48876" lon="3.49749">
        <ele>18</ele>
        <time>2022-04-18T14:00:43.000Z</time>
      </trkpt>
      <trkpt lat="50.48878" lon="3.49764">
        <ele>18</ele>
        <time>2022-04-18T14:00:45.000Z</time>
      </trkpt>
      <trkpt lat="50.48881" lon="3.49777">
        <ele>18</ele>
        <time>2022-04-18T14:00:47.000Z</time>
      </trkpt>
      <trkpt lat="50.48883" lon="3.49789">
        <ele>18</ele>
        <time>2022-04-18T14:00:49.000Z</time>
      </trkpt>
      <trkpt lat="50.48886" lon="3.498">
        <ele>18</ele>
        <time>2022-04-18T14:00:51.033Z</time>
      </trkpt>
      <trkpt lat="50.48888" lon="3.49812">
        <ele>18</ele>
        <time>2022-04-18T14:00:53.000Z</time>
      </trkpt>
      <trkpt lat="50.48891" lon="3.49825">
        <ele>18</ele>
        <time>2022-04-18T14:00:55.000Z</time>
      </trkpt>
      <trkpt lat="50.48893" lon="3.49837">
        <ele>18</ele>
        <time>2022-04-18T14:00:57.000Z</time>
      </trkpt>
      <trkpt lat="50.48896" lon="3.4985">
        <ele>18</ele>
        <time>2022-04-18T14:00:59.000Z</time>
      </trkpt>
      <trkpt lat="50.48899" lon="3.49863">
        <ele>18.1</ele>
        <time>2022-04-18T14:01:01.000Z</time>
      </trkpt>
      <trkpt lat="50.48901" lon="3.4987">
        <ele>18.3</ele>
        <time>2022-04-18T14:01:02.000Z</time>
      </trkpt>
      <trkpt lat="50.48903" lon="3.49883">
        <ele>18.8</ele>
        <time>2022-04-18T14:01:04.113Z</time>
      </trkpt>
      <trkpt lat="50.48905" lon="3.49895">
        <ele>19</ele>
        <time>2022-04-18T14:01:06.000Z</time>
      </trkpt>
      <trkpt lat="50.4891" lon="3.49906">
        <ele>19</ele>
        <time>2022-04-18T14:01:08.085Z</time>
      </trkpt>
      <trkpt lat="50.48917" lon="3.4991">
        <ele>19</ele>
        <time>2022-04-18T14:01:10.000Z</time>
      </trkpt>
      <trkpt lat="50.48925" lon="3.4991">
        <ele>18.9</ele>
        <time>2022-04-18T14:01:12.000Z</time>
      </trkpt>
      <trkpt lat="50.48934" lon="3.49912">
        <ele>18.9</ele>
        <time>2022-04-18T14:01:14.000Z</time>
      </trkpt>
      <trkpt lat="50.48941" lon="3.49913">
        <ele>18.9</ele>
        <time>2022-04-18T14:01:16.000Z</time>
      </trkpt>
      <trkpt lat="50.48948" lon="3.49915">
        <ele>18.9</ele>
        <time>2022-04-18T14:01:18.000Z</time>
      </trkpt>
      <trkpt lat="50.48957" lon="3.49915">
        <ele>18.9</ele>
        <time>2022-04-18T14:01:20.000Z</time>
      </trkpt>
      <trkpt lat="50.48965" lon="3.49918">
        <ele>19</ele>
        <time>2022-04-18T14:01:22.000Z</time>
      </trkpt>
      <trkpt lat="50.48973" lon="3.49921">
        <ele>19</ele>
        <time>2022-04-18T14:01:24.000Z</time>
      </trkpt>
      <trkpt lat="50.48981" lon="3.49922">
        <ele>18.9</ele>
        <time>2022-04-18T14:01:26.000Z</time>
      </trkpt>
      <trkpt lat="50.48989" lon="3.49926">
        <ele>18.8</ele>
        <time>2022-04-18T14:01:28.002Z</time>
      </trkpt>
      <trkpt lat="50.48997" lon="3.49923">
        <ele>18.8</ele>
        <time>2022-04-18T14:01:29.935Z</time>
      </trkpt>
      <trkpt lat="50.49001" lon="3.49918">
        <ele>18.9</ele>
        <time>2022-04-18T14:01:31.000Z</time>
      </trkpt>
      <trkpt lat="50.49005" lon="3.49915">
        <ele>18.8</ele>
        <time>2022-04-18T14:01:32.000Z</time>
      </trkpt>
      <trkpt lat="50.49013" lon="3.49909">
        <ele>18.5</ele>
        <time>2022-04-18T14:01:34.000Z</time>
      </trkpt>
      <trkpt lat="50.49017" lon="3.49907">
        <ele>18.4</ele>
        <time>2022-04-18T14:01:35.000Z</time>
      </trkpt>
      <trkpt lat="50.49024" lon="3.499">
        <ele>18.1</ele>
        <time>2022-04-18T14:01:37.000Z</time>
      </trkpt>
      <trkpt lat="50.49031" lon="3.49894">
        <ele>18.1</ele>
        <time>2022-04-18T14:01:39.000Z</time>
      </trkpt>
      <trkpt lat="50.49038" lon="3.49887">
        <ele>18.4</ele>
        <time>2022-04-18T14:01:41.000Z</time>
      </trkpt>
      <trkpt lat="50.49045" lon="3.4988">
        <ele>18.6</ele>
        <time>2022-04-18T14:01:43.000Z</time>
      </trkpt>
      <trkpt lat="50.49053" lon="3.49871">
        <ele>18.9</ele>
        <time>2022-04-18T14:01:45.556Z</time>
      </trkpt>
      <trkpt lat="50.49058" lon="3.49866">
        <ele>18.9</ele>
        <time>2022-04-18T14:01:46.749Z</time>
      </trkpt>
      <trkpt lat="50.49063" lon="3.49861">
        <ele>18.7</ele>
        <time>2022-04-18T14:01:48.016Z</time>
      </trkpt>
      <trkpt lat="50.49069" lon="3.49854">
        <ele>18.5</ele>
        <time>2022-04-18T14:01:49.953Z</time>
      </trkpt>
      <trkpt lat="50.49073" lon="3.4985">
        <ele>18.5</ele>
        <time>2022-04-18T14:01:50.990Z</time>
      </trkpt>
      <trkpt lat="50.49077" lon="3.49845">
        <ele>18.5</ele>
        <time>2022-04-18T14:01:51.950Z</time>
      </trkpt>
      <trkpt lat="50.49084" lon="3.49842">
        <ele>18.7</ele>
        <time>2022-04-18T14:01:53.318Z</time>
      </trkpt>
      <trkpt lat="50.4909" lon="3.49841">
        <ele>18.8</ele>
        <time>2022-04-18T14:01:54.652Z</time>
      </trkpt>
      <trkpt lat="50.49096" lon="3.4984">
        <ele>18.9</ele>
        <time>2022-04-18T14:01:55.901Z</time>
      </trkpt>
      <trkpt lat="50.49101" lon="3.4984">
        <ele>18.9</ele>
        <time>2022-04-18T14:01:57.000Z</time>
      </trkpt>
      <trkpt lat="50.49106" lon="3.49841">
        <ele>18.9</ele>
        <time>2022-04-18T14:01:58.000Z</time>
      </trkpt>
      <trkpt lat="50.49111" lon="3.49842">
        <ele>19</ele>
        <time>2022-04-18T14:01:59.000Z</time>
      </trkpt>
      <trkpt lat="50.49116" lon="3.49843">
        <ele>19</ele>
        <time>2022-04-18T14:02:00.000Z</time>
      </trkpt>
      <trkpt lat="50.49121" lon="3.49844">
        <ele>19</ele>
        <time>2022-04-18T14:02:01.000Z</time>
      </trkpt>
      <trkpt lat="50.49125" lon="3.49845">
        <ele>19</ele>
        <time>2022-04-18T14:02:02.000Z</time>
      </trkpt>
      <trkpt lat="50.49133" lon="3.49847">
        <ele>19</ele>
        <time>2022-04-18T14:02:03.913Z</time>
      </trkpt>
      <trkpt lat="50.49138" lon="3.49848">
        <ele>19</ele>
        <time>2022-04-18T14:02:05.000Z</time>
      </trkpt>
      <trkpt lat="50.49146" lon="3.49849">
        <ele>19</ele>
        <time>2022-04-18T14:02:06.971Z</time>
      </trkpt>
      <trkpt lat="50.49151" lon="3.4985">
        <ele>19</ele>
        <time>2022-04-18T14:02:08.132Z</time>
      </trkpt>
      <trkpt lat="50.49159" lon="3.49853">
        <ele>19</ele>
        <time>2022-04-18T14:02:10.000Z</time>
      </trkpt>
      <trkpt lat="50.49167" lon="3.49854">
        <ele>19</ele>
        <time>2022-04-18T14:02:12.032Z</time>
      </trkpt>
      <trkpt lat="50.49174" lon="3.49856">
        <ele>19</ele>
        <time>2022-04-18T14:02:14.000Z</time>
      </trkpt>
      <trkpt lat="50.49182" lon="3.49857">
        <ele>19</ele>
        <time>2022-04-18T14:02:15.813Z</time>
      </trkpt>
      <trkpt lat="50.49187" lon="3.49858">
        <ele>19</ele>
        <time>2022-04-18T14:02:17.000Z</time>
      </trkpt>
      <trkpt lat="50.49196" lon="3.49856">
        <ele>19</ele>
        <time>2022-04-18T14:02:19.000Z</time>
      </trkpt>
      <trkpt lat="50.49207" lon="3.49849">
        <ele>18.7</ele>
        <time>2022-04-18T14:02:21.892Z</time>
      </trkpt>
      <trkpt lat="50.49214" lon="3.4984">
        <ele>18.8</ele>
        <time>2022-04-18T14:02:23.971Z</time>
      </trkpt>
      <trkpt lat="50.49218" lon="3.49836">
        <ele>18.9</ele>
        <time>2022-04-18T14:02:25.000Z</time>
      </trkpt>
      <trkpt lat="50.49226" lon="3.4983">
        <ele>19</ele>
        <time>2022-04-18T14:02:27.000Z</time>
      </trkpt>
      <trkpt lat="50.4923" lon="3.49825">
        <ele>19</ele>
        <time>2022-04-18T14:02:30.000Z</time>
      </trkpt>
      <trkpt lat="50.49237" lon="3.49818">
        <ele>19</ele>
        <time>2022-04-18T14:02:31.000Z</time>
      </trkpt>
      <trkpt lat="50.49244" lon="3.4981">
        <ele>19</ele>
        <time>2022-04-18T14:02:32.328Z</time>
      </trkpt>
      <trkpt lat="50.4925" lon="3.49802">
        <ele>19</ele>
        <time>2022-04-18T14:02:34.000Z</time>
      </trkpt>
      <trkpt lat="50.49254" lon="3.49798">
        <ele>19</ele>
        <time>2022-04-18T14:02:35.074Z</time>
      </trkpt>
      <trkpt lat="50.49261" lon="3.49791">
        <ele>19</ele>
        <time>2022-04-18T14:02:37.000Z</time>
      </trkpt>
      <trkpt lat="50.49266" lon="3.49787">
        <ele>19</ele>
        <time>2022-04-18T14:02:38.000Z</time>
      </trkpt>
      <trkpt lat="50.49269" lon="3.49782">
        <ele>19</ele>
        <time>2022-04-18T14:02:39.000Z</time>
      </trkpt>
      <trkpt lat="50.49277" lon="3.49777">
        <ele>19</ele>
        <time>2022-04-18T14:02:41.000Z</time>
      </trkpt>
      <trkpt lat="50.49281" lon="3.49775">
        <ele>18.9</ele>
        <time>2022-04-18T14:02:42.070Z</time>
      </trkpt>
      <trkpt lat="50.4929" lon="3.49771">
        <ele>18.8</ele>
        <time>2022-04-18T14:02:44.053Z</time>
      </trkpt>
      <trkpt lat="50.49294" lon="3.49769">
        <ele>18.7</ele>
        <time>2022-04-18T14:02:45.000Z</time>
      </trkpt>
      <trkpt lat="50.49302" lon="3.49764">
        <ele>18.5</ele>
        <time>2022-04-18T14:02:46.906Z</time>
      </trkpt>
      <trkpt lat="50.49307" lon="3.49761">
        <ele>18.4</ele>
        <time>2022-04-18T14:02:48.000Z</time>
      </trkpt>
      <trkpt lat="50.49315" lon="3.49759">
        <ele>18.2</ele>
        <time>2022-04-18T14:02:50.000Z</time>
      </trkpt>
      <trkpt lat="50.49321" lon="3.4976">
        <ele>18.2</ele>
        <time>2022-04-18T14:02:51.502Z</time>
      </trkpt>
      <trkpt lat="50.49328" lon="3.49761">
        <ele>18.1</ele>
        <time>2022-04-18T14:02:52.874Z</time>
      </trkpt>
      <trkpt lat="50.49333" lon="3.49765">
        <ele>18</ele>
        <time>2022-04-18T14:02:54.000Z</time>
      </trkpt>
      <trkpt lat="50.49337" lon="3.49769">
        <ele>18.1</ele>
        <time>2022-04-18T14:02:55.000Z</time>
      </trkpt>
      <trkpt lat="50.49341" lon="3.49773">
        <ele>18.2</ele>
        <time>2022-04-18T14:02:56.000Z</time>
      </trkpt>
      <trkpt lat="50.49347" lon="3.49778">
        <ele>18.5</ele>
        <time>2022-04-18T14:02:58.000Z</time>
      </trkpt>
      <trkpt lat="50.49351" lon="3.49782">
        <ele>18.6</ele>
        <time>2022-04-18T14:02:59.000Z</time>
      </trkpt>
      <trkpt lat="50.49356" lon="3.49785">
        <ele>18.8</ele>
        <time>2022-04-18T14:03:00.000Z</time>
      </trkpt>
      <trkpt lat="50.4936" lon="3.49787">
        <ele>19</ele>
        <time>2022-04-18T14:03:01.000Z</time>
      </trkpt>
      <trkpt lat="50.49365" lon="3.49788">
        <ele>19</ele>
        <time>2022-04-18T14:03:02.000Z</time>
      </trkpt>
      <trkpt lat="50.4937" lon="3.49789">
        <ele>19</ele>
        <time>2022-04-18T14:03:03.000Z</time>
      </trkpt>
      <trkpt lat="50.49379" lon="3.49789">
        <ele>19</ele>
        <time>2022-04-18T14:03:05.000Z</time>
      </trkpt>
      <trkpt lat="50.49385" lon="3.49793">
        <ele>19</ele>
        <time>2022-04-18T14:03:07.000Z</time>
      </trkpt>
      <trkpt lat="50.49392" lon="3.49791">
        <ele>19</ele>
        <time>2022-04-18T14:03:08.000Z</time>
      </trkpt>
      <trkpt lat="50.49398" lon="3.49792">
        <ele>19</ele>
        <time>2022-04-18T14:03:09.000Z</time>
      </trkpt>
      <trkpt lat="50.49403" lon="3.49792">
        <ele>19</ele>
        <time>2022-04-18T14:03:10.000Z</time>
      </trkpt>
      <trkpt lat="50.49408" lon="3.49792">
        <ele>19</ele>
        <time>2022-04-18T14:03:11.000Z</time>
      </trkpt>
      <trkpt lat="50.49413" lon="3.49793">
        <ele>19</ele>
        <time>2022-04-18T14:03:12.000Z</time>
      </trkpt>
      <trkpt lat="50.49418" lon="3.49794">
        <ele>19</ele>
        <time>2022-04-18T14:03:13.000Z</time>
      </trkpt>
      <trkpt lat="50.49423" lon="3.49795">
        <ele>18.9</ele>
        <time>2022-04-18T14:03:14.000Z</time>
      </trkpt>
      <trkpt lat="50.49428" lon="3.49795">
        <ele>18.8</ele>
        <time>2022-04-18T14:03:15.000Z</time>
      </trkpt>
      <trkpt lat="50.49432" lon="3.49794">
        <ele>18.8</ele>
        <time>2022-04-18T14:03:16.000Z</time>
      </trkpt>
      <trkpt lat="50.49437" lon="3.49795">
        <ele>18.7</ele>
        <time>2022-04-18T14:03:17.000Z</time>
      </trkpt>
      <trkpt lat="50.49442" lon="3.49795">
        <ele>18.7</ele>
        <time>2022-04-18T14:03:18.000Z</time>
      </trkpt>
      <trkpt lat="50.49447" lon="3.49795">
        <ele>18.7</ele>
        <time>2022-04-18T14:03:19.000Z</time>
      </trkpt>
      <trkpt lat="50.49456" lon="3.49793">
        <ele>18.7</ele>
        <time>2022-04-18T14:03:21.000Z</time>
      </trkpt>
      <trkpt lat="50.49461" lon="3.49792">
        <ele>18.8</ele>
        <time>2022-04-18T14:03:22.000Z</time>
      </trkpt>
      <trkpt lat="50.49465" lon="3.49791">
        <ele>18.9</ele>
        <time>2022-04-18T14:03:23.000Z</time>
      </trkpt>
      <trkpt lat="50.4947" lon="3.4979">
        <ele>19</ele>
        <time>2022-04-18T14:03:24.000Z</time>
      </trkpt>
      <trkpt lat="50.49475" lon="3.49789">
        <ele>19</ele>
        <time>2022-04-18T14:03:25.000Z</time>
      </trkpt>
      <trkpt lat="50.49479" lon="3.49788">
        <ele>19</ele>
        <time>2022-04-18T14:03:26.000Z</time>
      </trkpt>
      <trkpt lat="50.49488" lon="3.49788">
        <ele>19</ele>
        <time>2022-04-18T14:03:28.000Z</time>
      </trkpt>
      <trkpt lat="50.49497" lon="3.49791">
        <ele>19</ele>
        <time>2022-04-18T14:03:30.000Z</time>
      </trkpt>
      <trkpt lat="50.49502" lon="3.49795">
        <ele>19</ele>
        <time>2022-04-18T14:03:31.000Z</time>
      </trkpt>
      <trkpt lat="50.49505" lon="3.498">
        <ele>19.1</ele>
        <time>2022-04-18T14:03:32.000Z</time>
      </trkpt>
      <trkpt lat="50.49512" lon="3.4981">
        <ele>19.4</ele>
        <time>2022-04-18T14:03:34.000Z</time>
      </trkpt>
      <trkpt lat="50.49515" lon="3.49817">
        <ele>19.5</ele>
        <time>2022-04-18T14:03:36.031Z</time>
      </trkpt>
      <trkpt lat="50.49518" lon="3.49823">
        <ele>19.6</ele>
        <time>2022-04-18T14:03:36.985Z</time>
      </trkpt>
      <trkpt lat="50.49524" lon="3.49831">
        <ele>19.9</ele>
        <time>2022-04-18T14:03:38.806Z</time>
      </trkpt>
      <trkpt lat="50.49528" lon="3.49838">
        <ele>20</ele>
        <time>2022-04-18T14:03:40.069Z</time>
      </trkpt>
      <trkpt lat="50.49533" lon="3.49846">
        <ele>20.2</ele>
        <time>2022-04-18T14:03:42.105Z</time>
      </trkpt>
      <trkpt lat="50.49538" lon="3.49852">
        <ele>20.4</ele>
        <time>2022-04-18T14:03:44.025Z</time>
      </trkpt>
      <trkpt lat="50.49543" lon="3.4986">
        <ele>20.5</ele>
        <time>2022-04-18T14:03:46.000Z</time>
      </trkpt>
      <trkpt lat="50.49548" lon="3.49868">
        <ele>21</ele>
        <time>2022-04-18T14:03:48.000Z</time>
      </trkpt>
      <trkpt lat="50.49555" lon="3.49867">
        <ele>21.2</ele>
        <time>2022-04-18T14:03:50.047Z</time>
      </trkpt>
      <trkpt lat="50.49561" lon="3.49865">
        <ele>21.3</ele>
        <time>2022-04-18T14:03:52.000Z</time>
      </trkpt>
      <trkpt lat="50.49565" lon="3.49862">
        <ele>21.4</ele>
        <time>2022-04-18T14:03:53.000Z</time>
      </trkpt>
      <trkpt lat="50.49569" lon="3.49859">
        <ele>21.4</ele>
        <time>2022-04-18T14:03:54.427Z</time>
      </trkpt>
      <trkpt lat="50.49574" lon="3.49856">
        <ele>21.5</ele>
        <time>2022-04-18T14:03:55.906Z</time>
      </trkpt>
      <trkpt lat="50.49581" lon="3.4985">
        <ele>21.5</ele>
        <time>2022-04-18T14:03:58.000Z</time>
      </trkpt>
      <trkpt lat="50.49588" lon="3.49848">
        <ele>21.6</ele>
        <time>2022-04-18T14:04:00.000Z</time>
      </trkpt>
      <trkpt lat="50.49595" lon="3.49842">
        <ele>21.6</ele>
        <time>2022-04-18T14:04:02.000Z</time>
      </trkpt>
      <trkpt lat="50.49602" lon="3.49836">
        <ele>21.7</ele>
        <time>2022-04-18T14:04:04.000Z</time>
      </trkpt>
      <trkpt lat="50.4961" lon="3.49832">
        <ele>21.9</ele>
        <time>2022-04-18T14:04:06.000Z</time>
      </trkpt>
      <trkpt lat="50.49617" lon="3.49826">
        <ele>21.8</ele>
        <time>2022-04-18T14:04:08.000Z</time>
      </trkpt>
      <trkpt lat="50.49625" lon="3.49821">
        <ele>21.8</ele>
        <time>2022-04-18T14:04:10.000Z</time>
      </trkpt>
      <trkpt lat="50.49632" lon="3.49815">
        <ele>21.8</ele>
        <time>2022-04-18T14:04:12.000Z</time>
      </trkpt>
      <trkpt lat="50.49638" lon="3.49812">
        <ele>22</ele>
        <time>2022-04-18T14:04:13.448Z</time>
      </trkpt>
      <trkpt lat="50.49644" lon="3.49806">
        <ele>22</ele>
        <time>2022-04-18T14:04:15.000Z</time>
      </trkpt>
      <trkpt lat="50.49651" lon="3.49801">
        <ele>22</ele>
        <time>2022-04-18T14:04:17.000Z</time>
      </trkpt>
      <trkpt lat="50.49659" lon="3.49795">
        <ele>22</ele>
        <time>2022-04-18T14:04:19.069Z</time>
      </trkpt>
      <trkpt lat="50.49666" lon="3.4979">
        <ele>22</ele>
        <time>2022-04-18T14:04:21.000Z</time>
      </trkpt>
      <trkpt lat="50.49671" lon="3.49788">
        <ele>22</ele>
        <time>2022-04-18T14:04:22.000Z</time>
      </trkpt>
      <trkpt lat="50.49675" lon="3.49785">
        <ele>22</ele>
        <time>2022-04-18T14:04:23.000Z</time>
      </trkpt>
      <trkpt lat="50.4968" lon="3.49782">
        <ele>22</ele>
        <time>2022-04-18T14:04:24.000Z</time>
      </trkpt>
      <trkpt lat="50.49688" lon="3.49776">
        <ele>22</ele>
        <time>2022-04-18T14:04:26.000Z</time>
      </trkpt>
      <trkpt lat="50.49692" lon="3.49773">
        <ele>22</ele>
        <time>2022-04-18T14:04:27.000Z</time>
      </trkpt>
      <trkpt lat="50.497" lon="3.49765">
        <ele>21.8</ele>
        <time>2022-04-18T14:04:29.000Z</time>
      </trkpt>
      <trkpt lat="50.49704" lon="3.4976">
        <ele>21.7</ele>
        <time>2022-04-18T14:04:30.000Z</time>
      </trkpt>
      <trkpt lat="50.49708" lon="3.49756">
        <ele>21.5</ele>
        <time>2022-04-18T14:04:31.000Z</time>
      </trkpt>
      <trkpt lat="50.49712" lon="3.49753">
        <ele>21.4</ele>
        <time>2022-04-18T14:04:32.000Z</time>
      </trkpt>
      <trkpt lat="50.49717" lon="3.4975">
        <ele>21.2</ele>
        <time>2022-04-18T14:04:33.000Z</time>
      </trkpt>
      <trkpt lat="50.49721" lon="3.49748">
        <ele>21</ele>
        <time>2022-04-18T14:04:34.000Z</time>
      </trkpt>
      <trkpt lat="50.49726" lon="3.49744">
        <ele>21</ele>
        <time>2022-04-18T14:04:35.000Z</time>
      </trkpt>
      <trkpt lat="50.4973" lon="3.4974">
        <ele>21</ele>
        <time>2022-04-18T14:04:36.000Z</time>
      </trkpt>
      <trkpt lat="50.49734" lon="3.49735">
        <ele>21</ele>
        <time>2022-04-18T14:04:37.000Z</time>
      </trkpt>
      <trkpt lat="50.49739" lon="3.49731">
        <ele>21</ele>
        <time>2022-04-18T14:04:38.000Z</time>
      </trkpt>
      <trkpt lat="50.49744" lon="3.49727">
        <ele>21</ele>
        <time>2022-04-18T14:04:39.000Z</time>
      </trkpt>
      <trkpt lat="50.49752" lon="3.49721">
        <ele>21</ele>
        <time>2022-04-18T14:04:41.000Z</time>
      </trkpt>
      <trkpt lat="50.49757" lon="3.49717">
        <ele>21</ele>
        <time>2022-04-18T14:04:42.000Z</time>
      </trkpt>
      <trkpt lat="50.49762" lon="3.49713">
        <ele>20.9</ele>
        <time>2022-04-18T14:04:43.000Z</time>
      </trkpt>
      <trkpt lat="50.49766" lon="3.4971">
        <ele>20.7</ele>
        <time>2022-04-18T14:04:44.000Z</time>
      </trkpt>
      <trkpt lat="50.49772" lon="3.49705">
        <ele>20.5</ele>
        <time>2022-04-18T14:04:45.000Z</time>
      </trkpt>
      <trkpt lat="50.49779" lon="3.49699">
        <ele>20.2</ele>
        <time>2022-04-18T14:04:47.000Z</time>
      </trkpt>
      <trkpt lat="50.49784" lon="3.49695">
        <ele>20</ele>
        <time>2022-04-18T14:04:48.000Z</time>
      </trkpt>
      <trkpt lat="50.4979" lon="3.49692">
        <ele>20</ele>
        <time>2022-04-18T14:04:49.000Z</time>
      </trkpt>
      <trkpt lat="50.49795" lon="3.49689">
        <ele>20</ele>
        <time>2022-04-18T14:04:50.000Z</time>
      </trkpt>
      <trkpt lat="50.49804" lon="3.49683">
        <ele>20</ele>
        <time>2022-04-18T14:04:52.000Z</time>
      </trkpt>
      <trkpt lat="50.49808" lon="3.49681">
        <ele>20</ele>
        <time>2022-04-18T14:04:53.000Z</time>
      </trkpt>
      <trkpt lat="50.49813" lon="3.49678">
        <ele>20</ele>
        <time>2022-04-18T14:04:54.000Z</time>
      </trkpt>
      <trkpt lat="50.49817" lon="3.49675">
        <ele>20</ele>
        <time>2022-04-18T14:04:55.000Z</time>
      </trkpt>
      <trkpt lat="50.49822" lon="3.49671">
        <ele>20</ele>
        <time>2022-04-18T14:04:56.000Z</time>
      </trkpt>
      <trkpt lat="50.49828" lon="3.49668">
        <ele>20</ele>
        <time>2022-04-18T14:04:57.000Z</time>
      </trkpt>
      <trkpt lat="50.49837" lon="3.49662">
        <ele>19.8</ele>
        <time>2022-04-18T14:04:59.000Z</time>
      </trkpt>
      <trkpt lat="50.49842" lon="3.49659">
        <ele>19.7</ele>
        <time>2022-04-18T14:05:00.000Z</time>
      </trkpt>
      <trkpt lat="50.49851" lon="3.49653">
        <ele>19.5</ele>
        <time>2022-04-18T14:05:02.000Z</time>
      </trkpt>
      <trkpt lat="50.49858" lon="3.4965">
        <ele>19.4</ele>
        <time>2022-04-18T14:05:03.000Z</time>
      </trkpt>
      <trkpt lat="50.49866" lon="3.49644">
        <ele>19.2</ele>
        <time>2022-04-18T14:05:05.000Z</time>
      </trkpt>
      <trkpt lat="50.49871" lon="3.49641">
        <ele>19</ele>
        <time>2022-04-18T14:05:06.000Z</time>
      </trkpt>
      <trkpt lat="50.49881" lon="3.49634">
        <ele>19</ele>
        <time>2022-04-18T14:05:08.000Z</time>
      </trkpt>
      <trkpt lat="50.49886" lon="3.4963">
        <ele>19</ele>
        <time>2022-04-18T14:05:09.000Z</time>
      </trkpt>
      <trkpt lat="50.4989" lon="3.49626">
        <ele>19</ele>
        <time>2022-04-18T14:05:10.000Z</time>
      </trkpt>
      <trkpt lat="50.49895" lon="3.49622">
        <ele>18.9</ele>
        <time>2022-04-18T14:05:11.000Z</time>
      </trkpt>
      <trkpt lat="50.49899" lon="3.49617">
        <ele>18.7</ele>
        <time>2022-04-18T14:05:12.000Z</time>
      </trkpt>
      <trkpt lat="50.49903" lon="3.49613">
        <ele>18.5</ele>
        <time>2022-04-18T14:05:13.000Z</time>
      </trkpt>
      <trkpt lat="50.49907" lon="3.49608">
        <ele>18.4</ele>
        <time>2022-04-18T14:05:14.000Z</time>
      </trkpt>
      <trkpt lat="50.49911" lon="3.49603">
        <ele>18.4</ele>
        <time>2022-04-18T14:05:15.000Z</time>
      </trkpt>
      <trkpt lat="50.49915" lon="3.49597">
        <ele>18.5</ele>
        <time>2022-04-18T14:05:16.000Z</time>
      </trkpt>
      <trkpt lat="50.49919" lon="3.49592">
        <ele>18.7</ele>
        <time>2022-04-18T14:05:17.000Z</time>
      </trkpt>
      <trkpt lat="50.49923" lon="3.49588">
        <ele>18.8</ele>
        <time>2022-04-18T14:05:18.000Z</time>
      </trkpt>
      <trkpt lat="50.49927" lon="3.49583">
        <ele>19</ele>
        <time>2022-04-18T14:05:19.000Z</time>
      </trkpt>
      <trkpt lat="50.49931" lon="3.49579">
        <ele>18.8</ele>
        <time>2022-04-18T14:05:20.000Z</time>
      </trkpt>
      <trkpt lat="50.49935" lon="3.49574">
        <ele>18.7</ele>
        <time>2022-04-18T14:05:21.000Z</time>
      </trkpt>
      <trkpt lat="50.49939" lon="3.49569">
        <ele>18.5</ele>
        <time>2022-04-18T14:05:22.000Z</time>
      </trkpt>
      <trkpt lat="50.49943" lon="3.49565">
        <ele>18.3</ele>
        <time>2022-04-18T14:05:23.000Z</time>
      </trkpt>
      <trkpt lat="50.49951" lon="3.49556">
        <ele>18</ele>
        <time>2022-04-18T14:05:25.000Z</time>
      </trkpt>
      <trkpt lat="50.49955" lon="3.49551">
        <ele>18</ele>
        <time>2022-04-18T14:05:26.000Z</time>
      </trkpt>
      <trkpt lat="50.49958" lon="3.49546">
        <ele>18</ele>
        <time>2022-04-18T14:05:27.000Z</time>
      </trkpt>
      <trkpt lat="50.49962" lon="3.49542">
        <ele>18</ele>
        <time>2022-04-18T14:05:28.000Z</time>
      </trkpt>
      <trkpt lat="50.49966" lon="3.49537">
        <ele>18</ele>
        <time>2022-04-18T14:05:29.000Z</time>
      </trkpt>
      <trkpt lat="50.4997" lon="3.49532">
        <ele>18</ele>
        <time>2022-04-18T14:05:30.000Z</time>
      </trkpt>
      <trkpt lat="50.49974" lon="3.49528">
        <ele>18</ele>
        <time>2022-04-18T14:05:31.000Z</time>
      </trkpt>
      <trkpt lat="50.49977" lon="3.49523">
        <ele>18</ele>
        <time>2022-04-18T14:05:32.000Z</time>
      </trkpt>
      <trkpt lat="50.49982" lon="3.49519">
        <ele>18</ele>
        <time>2022-04-18T14:05:33.000Z</time>
      </trkpt>
      <trkpt lat="50.49986" lon="3.49514">
        <ele>18</ele>
        <time>2022-04-18T14:05:34.000Z</time>
      </trkpt>
      <trkpt lat="50.49989" lon="3.4951">
        <ele>18</ele>
        <time>2022-04-18T14:05:35.000Z</time>
      </trkpt>
      <trkpt lat="50.49993" lon="3.49506">
        <ele>18</ele>
        <time>2022-04-18T14:05:36.000Z</time>
      </trkpt>
      <trkpt lat="50.5" lon="3.49498">
        <ele>17.9</ele>
        <time>2022-04-18T14:05:38.000Z</time>
      </trkpt>
      <trkpt lat="50.50004" lon="3.49494">
        <ele>17.8</ele>
        <time>2022-04-18T14:05:39.000Z</time>
      </trkpt>
      <trkpt lat="50.5001" lon="3.49487">
        <ele>17.5</ele>
        <time>2022-04-18T14:05:41.000Z</time>
      </trkpt>
      <trkpt lat="50.50014" lon="3.49483">
        <ele>17.4</ele>
        <time>2022-04-18T14:05:42.000Z</time>
      </trkpt>
      <trkpt lat="50.50022" lon="3.49471">
        <ele>17</ele>
        <time>2022-04-18T14:05:44.000Z</time>
      </trkpt>
      <trkpt lat="50.50027" lon="3.49462">
        <ele>17</ele>
        <time>2022-04-18T14:05:46.000Z</time>
      </trkpt>
      <trkpt lat="50.50034" lon="3.49457">
        <ele>17</ele>
        <time>2022-04-18T14:05:47.969Z</time>
      </trkpt>
      <trkpt lat="50.5004" lon="3.49445">
        <ele>17</ele>
        <time>2022-04-18T14:05:50.000Z</time>
      </trkpt>
      <trkpt lat="50.50046" lon="3.49437">
        <ele>17</ele>
        <time>2022-04-18T14:05:51.000Z</time>
      </trkpt>
      <trkpt lat="50.5005" lon="3.4943">
        <ele>17</ele>
        <time>2022-04-18T14:05:52.487Z</time>
      </trkpt>
      <trkpt lat="50.50059" lon="3.49423">
        <ele>17</ele>
        <time>2022-04-18T14:05:55.000Z</time>
      </trkpt>
      <trkpt lat="50.50067" lon="3.49417">
        <ele>17</ele>
        <time>2022-04-18T14:05:57.000Z</time>
      </trkpt>
      <trkpt lat="50.50072" lon="3.49414">
        <ele>17</ele>
        <time>2022-04-18T14:05:58.000Z</time>
      </trkpt>
      <trkpt lat="50.50076" lon="3.49412">
        <ele>17</ele>
        <time>2022-04-18T14:05:59.000Z</time>
      </trkpt>
      <trkpt lat="50.50081" lon="3.4941">
        <ele>17</ele>
        <time>2022-04-18T14:06:00.000Z</time>
      </trkpt>
      <trkpt lat="50.50085" lon="3.49407">
        <ele>16.9</ele>
        <time>2022-04-18T14:06:01.000Z</time>
      </trkpt>
      <trkpt lat="50.50093" lon="3.49401">
        <ele>16.7</ele>
        <time>2022-04-18T14:06:03.000Z</time>
      </trkpt>
      <trkpt lat="50.50098" lon="3.49398">
        <ele>16.5</ele>
        <time>2022-04-18T14:06:04.000Z</time>
      </trkpt>
      <trkpt lat="50.50107" lon="3.49392">
        <ele>16.1</ele>
        <time>2022-04-18T14:06:06.000Z</time>
      </trkpt>
      <trkpt lat="50.50111" lon="3.49389">
        <ele>16</ele>
        <time>2022-04-18T14:06:07.000Z</time>
      </trkpt>
      <trkpt lat="50.50116" lon="3.49385">
        <ele>16</ele>
        <time>2022-04-18T14:06:08.000Z</time>
      </trkpt>
      <trkpt lat="50.5012" lon="3.49382">
        <ele>16</ele>
        <time>2022-04-18T14:06:09.000Z</time>
      </trkpt>
      <trkpt lat="50.50124" lon="3.49378">
        <ele>16</ele>
        <time>2022-04-18T14:06:10.000Z</time>
      </trkpt>
      <trkpt lat="50.50132" lon="3.49372">
        <ele>16</ele>
        <time>2022-04-18T14:06:12.000Z</time>
      </trkpt>
      <trkpt lat="50.50136" lon="3.49367">
        <ele>16</ele>
        <time>2022-04-18T14:06:13.000Z</time>
      </trkpt>
      <trkpt lat="50.50145" lon="3.4936">
        <ele>16.2</ele>
        <time>2022-04-18T14:06:15.000Z</time>
      </trkpt>
      <trkpt lat="50.50151" lon="3.49354">
        <ele>16.4</ele>
        <time>2022-04-18T14:06:17.000Z</time>
      </trkpt>
      <trkpt lat="50.50156" lon="3.49351">
        <ele>16.6</ele>
        <time>2022-04-18T14:06:18.000Z</time>
      </trkpt>
      <trkpt lat="50.50161" lon="3.49347">
        <ele>16.8</ele>
        <time>2022-04-18T14:06:19.000Z</time>
      </trkpt>
      <trkpt lat="50.50166" lon="3.49343">
        <ele>17</ele>
        <time>2022-04-18T14:06:20.000Z</time>
      </trkpt>
      <trkpt lat="50.50174" lon="3.49337">
        <ele>17</ele>
        <time>2022-04-18T14:06:22.000Z</time>
      </trkpt>
      <trkpt lat="50.5018" lon="3.49331">
        <ele>17</ele>
        <time>2022-04-18T14:06:24.000Z</time>
      </trkpt>
      <trkpt lat="50.50187" lon="3.49326">
        <ele>17</ele>
        <time>2022-04-18T14:06:26.000Z</time>
      </trkpt>
      <trkpt lat="50.50194" lon="3.4932">
        <ele>17</ele>
        <time>2022-04-18T14:06:28.000Z</time>
      </trkpt>
      <trkpt lat="50.50202" lon="3.49315">
        <ele>17</ele>
        <time>2022-04-18T14:06:30.000Z</time>
      </trkpt>
      <trkpt lat="50.50206" lon="3.49313">
        <ele>17</ele>
        <time>2022-04-18T14:06:31.081Z</time>
      </trkpt>
      <trkpt lat="50.50211" lon="3.49311">
        <ele>17</ele>
        <time>2022-04-18T14:06:32.351Z</time>
      </trkpt>
      <trkpt lat="50.50216" lon="3.49308">
        <ele>17</ele>
        <time>2022-04-18T14:06:33.505Z</time>
      </trkpt>
      <trkpt lat="50.50221" lon="3.49305">
        <ele>17</ele>
        <time>2022-04-18T14:06:34.681Z</time>
      </trkpt>
      <trkpt lat="50.50226" lon="3.49302">
        <ele>17</ele>
        <time>2022-04-18T14:06:36.000Z</time>
      </trkpt>
      <trkpt lat="50.50234" lon="3.49297">
        <ele>17</ele>
        <time>2022-04-18T14:06:38.000Z</time>
      </trkpt>
      <trkpt lat="50.50238" lon="3.49294">
        <ele>17</ele>
        <time>2022-04-18T14:06:39.000Z</time>
      </trkpt>
      <trkpt lat="50.50243" lon="3.49293">
        <ele>17</ele>
        <time>2022-04-18T14:06:40.000Z</time>
      </trkpt>
      <trkpt lat="50.50251" lon="3.49289">
        <ele>17</ele>
        <time>2022-04-18T14:06:42.174Z</time>
      </trkpt>
      <trkpt lat="50.50257" lon="3.49284">
        <ele>17</ele>
        <time>2022-04-18T14:06:43.861Z</time>
      </trkpt>
      <trkpt lat="50.50261" lon="3.49281">
        <ele>17</ele>
        <time>2022-04-18T14:06:45.000Z</time>
      </trkpt>
      <trkpt lat="50.50273" lon="3.49273">
        <ele>17.1</ele>
        <time>2022-04-18T14:06:48.021Z</time>
      </trkpt>
      <trkpt lat="50.5028" lon="3.49268">
        <ele>17.4</ele>
        <time>2022-04-18T14:06:50.000Z</time>
      </trkpt>
      <trkpt lat="50.50286" lon="3.49264">
        <ele>17.6</ele>
        <time>2022-04-18T14:06:52.000Z</time>
      </trkpt>
      <trkpt lat="50.50293" lon="3.4926">
        <ele>17.8</ele>
        <time>2022-04-18T14:06:54.000Z</time>
      </trkpt>
      <trkpt lat="50.503" lon="3.49256">
        <ele>18</ele>
        <time>2022-04-18T14:06:56.000Z</time>
      </trkpt>
      <trkpt lat="50.50307" lon="3.49257">
        <ele>18</ele>
        <time>2022-04-18T14:06:58.000Z</time>
      </trkpt>
      <trkpt lat="50.50315" lon="3.49266">
        <ele>18</ele>
        <time>2022-04-18T14:07:00.741Z</time>
      </trkpt>
      <trkpt lat="50.50323" lon="3.49274">
        <ele>18</ele>
        <time>2022-04-18T14:07:03.000Z</time>
      </trkpt>
      <trkpt lat="50.5033" lon="3.4928">
        <ele>18</ele>
        <time>2022-04-18T14:07:05.119Z</time>
      </trkpt>
      <trkpt lat="50.50335" lon="3.49284">
        <ele>18</ele>
        <time>2022-04-18T14:07:06.394Z</time>
      </trkpt>
      <trkpt lat="50.50339" lon="3.49289">
        <ele>18</ele>
        <time>2022-04-18T14:07:07.599Z</time>
      </trkpt>
      <trkpt lat="50.50343" lon="3.49293">
        <ele>18</ele>
        <time>2022-04-18T14:07:08.721Z</time>
      </trkpt>
      <trkpt lat="50.50347" lon="3.49297">
        <ele>18</ele>
        <time>2022-04-18T14:07:09.823Z</time>
      </trkpt>
      <trkpt lat="50.50351" lon="3.49303">
        <ele>18</ele>
        <time>2022-04-18T14:07:11.101Z</time>
      </trkpt>
      <trkpt lat="50.50355" lon="3.49307">
        <ele>18</ele>
        <time>2022-04-18T14:07:12.416Z</time>
      </trkpt>
      <trkpt lat="50.5036" lon="3.49313">
        <ele>18</ele>
        <time>2022-04-18T14:07:13.981Z</time>
      </trkpt>
      <trkpt lat="50.50365" lon="3.49318">
        <ele>18.1</ele>
        <time>2022-04-18T14:07:15.000Z</time>
      </trkpt>
      <trkpt lat="50.50374" lon="3.49329">
        <ele>18.5</ele>
        <time>2022-04-18T14:07:17.556Z</time>
      </trkpt>
      <trkpt lat="50.50383" lon="3.49341">
        <ele>18.6</ele>
        <time>2022-04-18T14:07:20.697Z</time>
      </trkpt>
      <trkpt lat="50.50391" lon="3.4935">
        <ele>18.4</ele>
        <time>2022-04-18T14:07:23.000Z</time>
      </trkpt>
      <trkpt lat="50.50395" lon="3.49356">
        <ele>18.4</ele>
        <time>2022-04-18T14:07:25.000Z</time>
      </trkpt>
      <trkpt lat="50.504" lon="3.49362">
        <ele>18.4</ele>
        <time>2022-04-18T14:07:26.000Z</time>
      </trkpt>
      <trkpt lat="50.50406" lon="3.4937">
        <ele>18.6</ele>
        <time>2022-04-18T14:07:28.000Z</time>
      </trkpt>
      <trkpt lat="50.50412" lon="3.49373">
        <ele>18.8</ele>
        <time>2022-04-18T14:07:31.000Z</time>
      </trkpt>
      <trkpt lat="50.50418" lon="3.49375">
        <ele>19</ele>
        <time>2022-04-18T14:07:33.000Z</time>
      </trkpt>
      <trkpt lat="50.50424" lon="3.49379">
        <ele>19</ele>
        <time>2022-04-18T14:07:35.002Z</time>
      </trkpt>
      <trkpt lat="50.5043" lon="3.49382">
        <ele>19</ele>
        <time>2022-04-18T14:07:37.000Z</time>
      </trkpt>
      <trkpt lat="50.50439" lon="3.49387">
        <ele>19</ele>
        <time>2022-04-18T14:07:39.540Z</time>
      </trkpt>
      <trkpt lat="50.50444" lon="3.49388">
        <ele>19</ele>
        <time>2022-04-18T14:07:40.761Z</time>
      </trkpt>
      <trkpt lat="50.5045" lon="3.49391">
        <ele>19</ele>
        <time>2022-04-18T14:07:42.362Z</time>
      </trkpt>
      <trkpt lat="50.50455" lon="3.49392">
        <ele>19</ele>
        <time>2022-04-18T14:07:43.460Z</time>
      </trkpt>
      <trkpt lat="50.50463" lon="3.49394">
        <ele>19</ele>
        <time>2022-04-18T14:07:46.000Z</time>
      </trkpt>
      <trkpt lat="50.50471" lon="3.49397">
        <ele>19</ele>
        <time>2022-04-18T14:07:48.679Z</time>
      </trkpt>
      <trkpt lat="50.50476" lon="3.49399">
        <ele>19</ele>
        <time>2022-04-18T14:07:49.981Z</time>
      </trkpt>
      <trkpt lat="50.50483" lon="3.494">
        <ele>19</ele>
        <time>2022-04-18T14:07:52.016Z</time>
      </trkpt>
      <trkpt lat="50.50488" lon="3.49402">
        <ele>19</ele>
        <time>2022-04-18T14:07:53.000Z</time>
      </trkpt>
      <trkpt lat="50.50495" lon="3.49405">
        <ele>19</ele>
        <time>2022-04-18T14:07:55.000Z</time>
      </trkpt>
      <trkpt lat="50.50502" lon="3.49404">
        <ele>19.1</ele>
        <time>2022-04-18T14:07:57.039Z</time>
      </trkpt>
      <trkpt lat="50.50512" lon="3.4941">
        <ele>19.4</ele>
        <time>2022-04-18T14:08:00.857Z</time>
      </trkpt>
      <trkpt lat="50.50517" lon="3.49411">
        <ele>19.6</ele>
        <time>2022-04-18T14:08:02.000Z</time>
      </trkpt>
      <trkpt lat="50.50524" lon="3.49414">
        <ele>19.9</ele>
        <time>2022-04-18T14:08:04.000Z</time>
      </trkpt>
      <trkpt lat="50.50529" lon="3.49415">
        <ele>20</ele>
        <time>2022-04-18T14:08:06.240Z</time>
      </trkpt>
      <trkpt lat="50.50534" lon="3.49415">
        <ele>20</ele>
        <time>2022-04-18T14:08:07.141Z</time>
      </trkpt>
      <trkpt lat="50.5054" lon="3.49417">
        <ele>20</ele>
        <time>2022-04-18T14:08:09.357Z</time>
      </trkpt>
      <trkpt lat="50.5055" lon="3.4942">
        <ele>19.9</ele>
        <time>2022-04-18T14:08:11.759Z</time>
      </trkpt>
      <trkpt lat="50.50554" lon="3.49422">
        <ele>19.8</ele>
        <time>2022-04-18T14:08:12.939Z</time>
      </trkpt>
      <trkpt lat="50.50562" lon="3.49424">
        <ele>19.8</ele>
        <time>2022-04-18T14:08:15.539Z</time>
      </trkpt>
      <trkpt lat="50.50568" lon="3.49425">
        <ele>19.8</ele>
        <time>2022-04-18T14:08:17.301Z</time>
      </trkpt>
      <trkpt lat="50.50574" lon="3.49428">
        <ele>19.9</ele>
        <time>2022-04-18T14:08:19.702Z</time>
      </trkpt>
      <trkpt lat="50.50581" lon="3.49432">
        <ele>20</ele>
        <time>2022-04-18T14:08:22.059Z</time>
      </trkpt>
      <trkpt lat="50.50589" lon="3.49435">
        <ele>20</ele>
        <time>2022-04-18T14:08:24.101Z</time>
      </trkpt>
      <trkpt lat="50.50596" lon="3.49439">
        <ele>20</ele>
        <time>2022-04-18T14:08:26.918Z</time>
      </trkpt>
      <trkpt lat="50.50602" lon="3.49443">
        <ele>20</ele>
        <time>2022-04-18T14:08:28.942Z</time>
      </trkpt>
      <trkpt lat="50.50611" lon="3.49447">
        <ele>20.2</ele>
        <time>2022-04-18T14:08:30.976Z</time>
      </trkpt>
      <trkpt lat="50.50616" lon="3.49451">
        <ele>20.5</ele>
        <time>2022-04-18T14:08:32.899Z</time>
      </trkpt>
      <trkpt lat="50.50624" lon="3.49455">
        <ele>20.8</ele>
        <time>2022-04-18T14:08:35.418Z</time>
      </trkpt>
      <trkpt lat="50.50628" lon="3.49458">
        <ele>21</ele>
        <time>2022-04-18T14:08:37.000Z</time>
      </trkpt>
      <trkpt lat="50.50634" lon="3.49462">
        <ele>21.3</ele>
        <time>2022-04-18T14:08:39.120Z</time>
      </trkpt>
      <trkpt lat="50.50642" lon="3.49466">
        <ele>21.6</ele>
        <time>2022-04-18T14:08:41.777Z</time>
      </trkpt>
      <trkpt lat="50.50647" lon="3.49469">
        <ele>21.8</ele>
        <time>2022-04-18T14:08:44.261Z</time>
      </trkpt>
      <trkpt lat="50.50657" lon="3.49474">
        <ele>22</ele>
        <time>2022-04-18T14:08:47.079Z</time>
      </trkpt>
      <trkpt lat="50.50661" lon="3.49477">
        <ele>22</ele>
        <time>2022-04-18T14:08:47.980Z</time>
      </trkpt>
      <trkpt lat="50.50668" lon="3.49481">
        <ele>22</ele>
        <time>2022-04-18T14:08:50.598Z</time>
      </trkpt>
      <trkpt lat="50.50674" lon="3.49483">
        <ele>22</ele>
        <time>2022-04-18T14:08:53.000Z</time>
      </trkpt>
      <trkpt lat="50.5068" lon="3.49486">
        <ele>22</ele>
        <time>2022-04-18T14:08:55.000Z</time>
      </trkpt>
      <trkpt lat="50.50687" lon="3.49488">
        <ele>22</ele>
        <time>2022-04-18T14:08:57.000Z</time>
      </trkpt>
      <trkpt lat="50.50694" lon="3.49489">
        <ele>22</ele>
        <time>2022-04-18T14:08:59.059Z</time>
      </trkpt>
      <trkpt lat="50.50703" lon="3.49491">
        <ele>22</ele>
        <time>2022-04-18T14:09:02.339Z</time>
      </trkpt>
      <trkpt lat="50.50714" lon="3.49494">
        <ele>22</ele>
        <time>2022-04-18T14:09:05.297Z</time>
      </trkpt>
      <trkpt lat="50.50718" lon="3.49496">
        <ele>22</ele>
        <time>2022-04-18T14:09:06.620Z</time>
      </trkpt>
      <trkpt lat="50.50725" lon="3.49498">
        <ele>22</ele>
        <time>2022-04-18T14:09:09.158Z</time>
      </trkpt>
      <trkpt lat="50.50733" lon="3.49498">
        <ele>22</ele>
        <time>2022-04-18T14:09:10.757Z</time>
      </trkpt>
      <trkpt lat="50.50738" lon="3.495">
        <ele>22</ele>
        <time>2022-04-18T14:09:12.000Z</time>
      </trkpt>
      <trkpt lat="50.50744" lon="3.49501">
        <ele>22</ele>
        <time>2022-04-18T14:09:13.500Z</time>
      </trkpt>
      <trkpt lat="50.5075" lon="3.49502">
        <ele>22</ele>
        <time>2022-04-18T14:09:14.562Z</time>
      </trkpt>
      <trkpt lat="50.50758" lon="3.49503">
        <ele>22</ele>
        <time>2022-04-18T14:09:16.659Z</time>
      </trkpt>
      <trkpt lat="50.50765" lon="3.49504">
        <ele>22</ele>
        <time>2022-04-18T14:09:19.000Z</time>
      </trkpt>
      <trkpt lat="50.50772" lon="3.49507">
        <ele>22</ele>
        <time>2022-04-18T14:09:21.000Z</time>
      </trkpt>
      <trkpt lat="50.50777" lon="3.49508">
        <ele>22</ele>
        <time>2022-04-18T14:09:22.121Z</time>
      </trkpt>
      <trkpt lat="50.50787" lon="3.49509">
        <ele>22</ele>
        <time>2022-04-18T14:09:24.976Z</time>
      </trkpt>
      <trkpt lat="50.50793" lon="3.4951">
        <ele>22</ele>
        <time>2022-04-18T14:09:27.000Z</time>
      </trkpt>
      <trkpt lat="50.508" lon="3.49512">
        <ele>22</ele>
        <time>2022-04-18T14:09:29.000Z</time>
      </trkpt>
      <trkpt lat="50.5081" lon="3.49514">
        <ele>22</ele>
        <time>2022-04-18T14:09:31.000Z</time>
      </trkpt>
      <trkpt lat="50.50822" lon="3.49514">
        <ele>22</ele>
        <time>2022-04-18T14:09:34.120Z</time>
      </trkpt>
      <trkpt lat="50.50833" lon="3.49512">
        <ele>22</ele>
        <time>2022-04-18T14:09:37.016Z</time>
      </trkpt>
      <trkpt lat="50.50841" lon="3.49507">
        <ele>22</ele>
        <time>2022-04-18T14:09:40.018Z</time>
      </trkpt>
      <trkpt lat="50.50847" lon="3.49502">
        <ele>22</ele>
        <time>2022-04-18T14:09:42.000Z</time>
      </trkpt>
      <trkpt lat="50.50854" lon="3.49495">
        <ele>22</ele>
        <time>2022-04-18T14:09:44.272Z</time>
      </trkpt>
      <trkpt lat="50.50862" lon="3.49489">
        <ele>22</ele>
        <time>2022-04-18T14:09:46.000Z</time>
      </trkpt>
      <trkpt lat="50.50867" lon="3.49484">
        <ele>22</ele>
        <time>2022-04-18T14:09:48.058Z</time>
      </trkpt>
      <trkpt lat="50.50871" lon="3.49479">
        <ele>22</ele>
        <time>2022-04-18T14:09:48.980Z</time>
      </trkpt>
      <trkpt lat="50.50875" lon="3.49475">
        <ele>22</ele>
        <time>2022-04-18T14:09:50.388Z</time>
      </trkpt>
      <trkpt lat="50.50881" lon="3.49466">
        <ele>21.6</ele>
        <time>2022-04-18T14:09:52.721Z</time>
      </trkpt>
      <trkpt lat="50.50884" lon="3.49461">
        <ele>21.2</ele>
        <time>2022-04-18T14:09:53.987Z</time>
      </trkpt>
      <trkpt lat="50.50889" lon="3.49454">
        <ele>20.7</ele>
        <time>2022-04-18T14:09:56.000Z</time>
      </trkpt>
      <trkpt lat="50.50896" lon="3.49441">
        <ele>20</ele>
        <time>2022-04-18T14:09:59.000Z</time>
      </trkpt>
      <trkpt lat="50.50904" lon="3.49437">
        <ele>20</ele>
        <time>2022-04-18T14:10:02.598Z</time>
      </trkpt>
      <trkpt lat="50.50909" lon="3.4944">
        <ele>20</ele>
        <time>2022-04-18T14:10:04.076Z</time>
      </trkpt>
      <trkpt lat="50.50918" lon="3.49445">
        <ele>20</ele>
        <time>2022-04-18T14:10:06.554Z</time>
      </trkpt>
      <trkpt lat="50.50926" lon="3.49449">
        <ele>20.3</ele>
        <time>2022-04-18T14:10:08.926Z</time>
      </trkpt>
      <trkpt lat="50.50933" lon="3.49453">
        <ele>20.6</ele>
        <time>2022-04-18T14:10:11.000Z</time>
      </trkpt>
      <trkpt lat="50.5094" lon="3.49455">
        <ele>20.8</ele>
        <time>2022-04-18T14:10:13.000Z</time>
      </trkpt>
      <trkpt lat="50.50948" lon="3.49456">
        <ele>20.9</ele>
        <time>2022-04-18T14:10:15.000Z</time>
      </trkpt>
      <trkpt lat="50.50956" lon="3.49456">
        <ele>21.1</ele>
        <time>2022-04-18T14:10:17.600Z</time>
      </trkpt>
      <trkpt lat="50.50963" lon="3.49447">
        <ele>20.8</ele>
        <time>2022-04-18T14:10:19.981Z</time>
      </trkpt>
      <trkpt lat="50.50967" lon="3.49437">
        <ele>20.6</ele>
        <time>2022-04-18T14:10:22.000Z</time>
      </trkpt>
      <trkpt lat="50.50971" lon="3.49427">
        <ele>20.4</ele>
        <time>2022-04-18T14:10:23.959Z</time>
      </trkpt>
      <trkpt lat="50.50973" lon="3.4942">
        <ele>20.1</ele>
        <time>2022-04-18T14:10:25.000Z</time>
      </trkpt>
      <trkpt lat="50.50976" lon="3.4941">
        <ele>20.1</ele>
        <time>2022-04-18T14:10:26.960Z</time>
      </trkpt>
      <trkpt lat="50.50982" lon="3.49402">
        <ele>20.4</ele>
        <time>2022-04-18T14:10:29.000Z</time>
      </trkpt>
      <trkpt lat="50.5099" lon="3.49395">
        <ele>20.6</ele>
        <time>2022-04-18T14:10:31.758Z</time>
      </trkpt>
      <trkpt lat="50.50995" lon="3.49391">
        <ele>20.8</ele>
        <time>2022-04-18T14:10:32.901Z</time>
      </trkpt>
      <trkpt lat="50.51001" lon="3.49387">
        <ele>21</ele>
        <time>2022-04-18T14:10:35.000Z</time>
      </trkpt>
      <trkpt lat="50.51008" lon="3.49384">
        <ele>21</ele>
        <time>2022-04-18T14:10:37.000Z</time>
      </trkpt>
      <trkpt lat="50.51014" lon="3.49377">
        <ele>21</ele>
        <time>2022-04-18T14:10:39.082Z</time>
      </trkpt>
      <trkpt lat="50.51021" lon="3.49368">
        <ele>21</ele>
        <time>2022-04-18T14:10:41.000Z</time>
      </trkpt>
      <trkpt lat="50.51024" lon="3.49362">
        <ele>21</ele>
        <time>2022-04-18T14:10:42.000Z</time>
      </trkpt>
      <trkpt lat="50.51027" lon="3.49357">
        <ele>21.1</ele>
        <time>2022-04-18T14:10:43.977Z</time>
      </trkpt>
      <trkpt lat="50.51035" lon="3.49351">
        <ele>21.5</ele>
        <time>2022-04-18T14:10:47.000Z</time>
      </trkpt>
      <trkpt lat="50.51041" lon="3.49353">
        <ele>21.6</ele>
        <time>2022-04-18T14:10:49.000Z</time>
      </trkpt>
      <trkpt lat="50.51046" lon="3.49359">
        <ele>21.7</ele>
        <time>2022-04-18T14:10:51.000Z</time>
      </trkpt>
      <trkpt lat="50.5105" lon="3.49368">
        <ele>21.8</ele>
        <time>2022-04-18T14:10:53.000Z</time>
      </trkpt>
      <trkpt lat="50.51057" lon="3.49381">
        <ele>22</ele>
        <time>2022-04-18T14:10:56.000Z</time>
      </trkpt>
      <trkpt lat="50.51061" lon="3.49389">
        <ele>22.2</ele>
        <time>2022-04-18T14:10:58.000Z</time>
      </trkpt>
      <trkpt lat="50.51066" lon="3.49399">
        <ele>22.2</ele>
        <time>2022-04-18T14:11:00.000Z</time>
      </trkpt>
      <trkpt lat="50.51071" lon="3.49406">
        <ele>22.2</ele>
        <time>2022-04-18T14:11:01.987Z</time>
      </trkpt>
      <trkpt lat="50.51076" lon="3.49416">
        <ele>22</ele>
        <time>2022-04-18T14:11:04.000Z</time>
      </trkpt>
      <trkpt lat="50.51081" lon="3.49424">
        <ele>22</ele>
        <time>2022-04-18T14:11:06.000Z</time>
      </trkpt>
      <trkpt lat="50.51084" lon="3.4943">
        <ele>22</ele>
        <time>2022-04-18T14:11:07.000Z</time>
      </trkpt>
      <trkpt lat="50.51089" lon="3.49439">
        <ele>22.2</ele>
        <time>2022-04-18T14:11:09.000Z</time>
      </trkpt>
      <trkpt lat="50.51094" lon="3.49448">
        <ele>22.6</ele>
        <time>2022-04-18T14:11:11.000Z</time>
      </trkpt>
      <trkpt lat="50.51099" lon="3.49457">
        <ele>23.2</ele>
        <time>2022-04-18T14:11:13.000Z</time>
      </trkpt>
      <trkpt lat="50.51104" lon="3.49465">
        <ele>23.7</ele>
        <time>2022-04-18T14:11:15.000Z</time>
      </trkpt>
      <trkpt lat="50.51107" lon="3.4947">
        <ele>23.9</ele>
        <time>2022-04-18T14:11:16.000Z</time>
      </trkpt>
      <trkpt lat="50.5111" lon="3.49475">
        <ele>24</ele>
        <time>2022-04-18T14:11:17.000Z</time>
      </trkpt>
      <trkpt lat="50.51116" lon="3.49485">
        <ele>24.2</ele>
        <time>2022-04-18T14:11:19.000Z</time>
      </trkpt>
      <trkpt lat="50.5112" lon="3.4949">
        <ele>24.3</ele>
        <time>2022-04-18T14:11:20.000Z</time>
      </trkpt>
      <trkpt lat="50.51124" lon="3.49497">
        <ele>24.5</ele>
        <time>2022-04-18T14:11:21.000Z</time>
      </trkpt>
      <trkpt lat="50.5113" lon="3.49504">
        <ele>24.6</ele>
        <time>2022-04-18T14:11:22.934Z</time>
      </trkpt>
      <trkpt lat="50.51137" lon="3.4951">
        <ele>24.6</ele>
        <time>2022-04-18T14:11:25.000Z</time>
      </trkpt>
      <trkpt lat="50.51145" lon="3.49515">
        <ele>24.6</ele>
        <time>2022-04-18T14:11:27.000Z</time>
      </trkpt>
      <trkpt lat="50.51153" lon="3.49518">
        <ele>24.7</ele>
        <time>2022-04-18T14:11:29.000Z</time>
      </trkpt>
      <trkpt lat="50.5116" lon="3.49521">
        <ele>24.8</ele>
        <time>2022-04-18T14:11:30.988Z</time>
      </trkpt>
      <trkpt lat="50.51166" lon="3.49521">
        <ele>25</ele>
        <time>2022-04-18T14:11:32.000Z</time>
      </trkpt>
      <trkpt lat="50.5117" lon="3.49522">
        <ele>25</ele>
        <time>2022-04-18T14:11:33.000Z</time>
      </trkpt>
      <trkpt lat="50.51176" lon="3.49524">
        <ele>25</ele>
        <time>2022-04-18T14:11:35.000Z</time>
      </trkpt>
      <trkpt lat="50.51184" lon="3.49528">
        <ele>25</ele>
        <time>2022-04-18T14:11:37.000Z</time>
      </trkpt>
      <trkpt lat="50.5119" lon="3.49533">
        <ele>25</ele>
        <time>2022-04-18T14:11:39.000Z</time>
      </trkpt>
      <trkpt lat="50.51196" lon="3.49538">
        <ele>25.1</ele>
        <time>2022-04-18T14:11:41.000Z</time>
      </trkpt>
      <trkpt lat="50.51202" lon="3.49542">
        <ele>25.3</ele>
        <time>2022-04-18T14:11:43.043Z</time>
      </trkpt>
      <trkpt lat="50.51206" lon="3.49546">
        <ele>25.4</ele>
        <time>2022-04-18T14:11:44.000Z</time>
      </trkpt>
      <trkpt lat="50.51213" lon="3.49551">
        <ele>25.7</ele>
        <time>2022-04-18T14:11:46.000Z</time>
      </trkpt>
      <trkpt lat="50.51219" lon="3.49554">
        <ele>25.9</ele>
        <time>2022-04-18T14:11:48.000Z</time>
      </trkpt>
      <trkpt lat="50.51227" lon="3.49559">
        <ele>26</ele>
        <time>2022-04-18T14:11:50.000Z</time>
      </trkpt>
      <trkpt lat="50.51235" lon="3.49561">
        <ele>26</ele>
        <time>2022-04-18T14:11:52.000Z</time>
      </trkpt>
      <trkpt lat="50.51243" lon="3.49564">
        <ele>26</ele>
        <time>2022-04-18T14:11:54.000Z</time>
      </trkpt>
      <trkpt lat="50.51251" lon="3.49568">
        <ele>26</ele>
        <time>2022-04-18T14:11:56.000Z</time>
      </trkpt>
      <trkpt lat="50.51258" lon="3.4957">
        <ele>26.3</ele>
        <time>2022-04-18T14:11:58.000Z</time>
      </trkpt>
      <trkpt lat="50.51264" lon="3.49574">
        <ele>26.5</ele>
        <time>2022-04-18T14:12:00.000Z</time>
      </trkpt>
      <trkpt lat="50.5127" lon="3.49582">
        <ele>26.7</ele>
        <time>2022-04-18T14:12:02.000Z</time>
      </trkpt>
      <trkpt lat="50.51273" lon="3.49594">
        <ele>26.5</ele>
        <time>2022-04-18T14:12:04.000Z</time>
      </trkpt>
      <trkpt lat="50.51274" lon="3.49606">
        <ele>26.2</ele>
        <time>2022-04-18T14:12:06.000Z</time>
      </trkpt>
      <trkpt lat="50.51275" lon="3.49614">
        <ele>26</ele>
        <time>2022-04-18T14:12:07.000Z</time>
      </trkpt>
      <trkpt lat="50.51276" lon="3.49626">
        <ele>26</ele>
        <time>2022-04-18T14:12:08.976Z</time>
      </trkpt>
      <trkpt lat="50.51277" lon="3.49636">
        <ele>26</ele>
        <time>2022-04-18T14:12:10.000Z</time>
      </trkpt>
      <trkpt lat="50.51278" lon="3.49644">
        <ele>26</ele>
        <time>2022-04-18T14:12:11.000Z</time>
      </trkpt>
      <trkpt lat="50.5128" lon="3.49651">
        <ele>26</ele>
        <time>2022-04-18T14:12:12.000Z</time>
      </trkpt>
      <trkpt lat="50.51283" lon="3.49657">
        <ele>26.1</ele>
        <time>2022-04-18T14:12:13.000Z</time>
      </trkpt>
      <trkpt lat="50.51287" lon="3.49662">
        <ele>26.1</ele>
        <time>2022-04-18T14:12:14.000Z</time>
      </trkpt>
      <trkpt lat="50.51291" lon="3.49669">
        <ele>26</ele>
        <time>2022-04-18T14:12:15.000Z</time>
      </trkpt>
      <trkpt lat="50.51295" lon="3.49676">
        <ele>26</ele>
        <time>2022-04-18T14:12:16.000Z</time>
      </trkpt>
      <trkpt lat="50.51299" lon="3.49682">
        <ele>26</ele>
        <time>2022-04-18T14:12:17.000Z</time>
      </trkpt>
      <trkpt lat="50.51303" lon="3.49688">
        <ele>26</ele>
        <time>2022-04-18T14:12:18.000Z</time>
      </trkpt>
      <trkpt lat="50.51306" lon="3.49695">
        <ele>26</ele>
        <time>2022-04-18T14:12:19.000Z</time>
      </trkpt>
      <trkpt lat="50.51308" lon="3.49702">
        <ele>26.1</ele>
        <time>2022-04-18T14:12:20.000Z</time>
      </trkpt>
      <trkpt lat="50.51312" lon="3.49711">
        <ele>26.1</ele>
        <time>2022-04-18T14:12:21.000Z</time>
      </trkpt>
      <trkpt lat="50.51315" lon="3.49719">
        <ele>26</ele>
        <time>2022-04-18T14:12:22.000Z</time>
      </trkpt>
      <trkpt lat="50.51317" lon="3.49727">
        <ele>25.8</ele>
        <time>2022-04-18T14:12:23.000Z</time>
      </trkpt>
      <trkpt lat="50.51319" lon="3.49735">
        <ele>25.5</ele>
        <time>2022-04-18T14:12:24.000Z</time>
      </trkpt>
      <trkpt lat="50.5132" lon="3.49744">
        <ele>25.2</ele>
        <time>2022-04-18T14:12:25.000Z</time>
      </trkpt>
      <trkpt lat="50.51321" lon="3.49755">
        <ele>25</ele>
        <time>2022-04-18T14:12:26.000Z</time>
      </trkpt>
      <trkpt lat="50.51321" lon="3.49764">
        <ele>25</ele>
        <time>2022-04-18T14:12:27.000Z</time>
      </trkpt>
      <trkpt lat="50.51321" lon="3.49774">
        <ele>25</ele>
        <time>2022-04-18T14:12:28.000Z</time>
      </trkpt>
      <trkpt lat="50.51321" lon="3.49782">
        <ele>24.9</ele>
        <time>2022-04-18T14:12:29.000Z</time>
      </trkpt>
      <trkpt lat="50.51322" lon="3.49791">
        <ele>24.8</ele>
        <time>2022-04-18T14:12:30.000Z</time>
      </trkpt>
      <trkpt lat="50.51322" lon="3.49801">
        <ele>24.7</ele>
        <time>2022-04-18T14:12:31.000Z</time>
      </trkpt>
      <trkpt lat="50.51322" lon="3.4981">
        <ele>24.5</ele>
        <time>2022-04-18T14:12:32.000Z</time>
      </trkpt>
      <trkpt lat="50.51322" lon="3.49819">
        <ele>24.3</ele>
        <time>2022-04-18T14:12:33.000Z</time>
      </trkpt>
      <trkpt lat="50.51323" lon="3.49828">
        <ele>24.1</ele>
        <time>2022-04-18T14:12:34.000Z</time>
      </trkpt>
      <trkpt lat="50.51323" lon="3.49837">
        <ele>24</ele>
        <time>2022-04-18T14:12:35.000Z</time>
      </trkpt>
      <trkpt lat="50.51324" lon="3.49845">
        <ele>24</ele>
        <time>2022-04-18T14:12:36.000Z</time>
      </trkpt>
      <trkpt lat="50.51324" lon="3.49854">
        <ele>24</ele>
        <time>2022-04-18T14:12:37.000Z</time>
      </trkpt>
      <trkpt lat="50.51324" lon="3.49863">
        <ele>24</ele>
        <time>2022-04-18T14:12:38.000Z</time>
      </trkpt>
      <trkpt lat="50.51323" lon="3.49872">
        <ele>24</ele>
        <time>2022-04-18T14:12:39.000Z</time>
      </trkpt>
      <trkpt lat="50.51323" lon="3.49881">
        <ele>24</ele>
        <time>2022-04-18T14:12:40.000Z</time>
      </trkpt>
      <trkpt lat="50.51323" lon="3.49888">
        <ele>24</ele>
        <time>2022-04-18T14:12:41.000Z</time>
      </trkpt>
      <trkpt lat="50.51323" lon="3.49897">
        <ele>24.1</ele>
        <time>2022-04-18T14:12:42.000Z</time>
      </trkpt>
      <trkpt lat="50.51323" lon="3.49907">
        <ele>24.2</ele>
        <time>2022-04-18T14:12:43.000Z</time>
      </trkpt>
      <trkpt lat="50.51322" lon="3.49922">
        <ele>24.4</ele>
        <time>2022-04-18T14:12:45.000Z</time>
      </trkpt>
      <trkpt lat="50.51322" lon="3.49937">
        <ele>24.5</ele>
        <time>2022-04-18T14:12:47.000Z</time>
      </trkpt>
      <trkpt lat="50.51324" lon="3.4995">
        <ele>24.7</ele>
        <time>2022-04-18T14:12:49.000Z</time>
      </trkpt>
      <trkpt lat="50.51326" lon="3.49957">
        <ele>24.9</ele>
        <time>2022-04-18T14:12:50.000Z</time>
      </trkpt>
      <trkpt lat="50.51332" lon="3.49968">
        <ele>25</ele>
        <time>2022-04-18T14:12:52.000Z</time>
      </trkpt>
      <trkpt lat="50.51335" lon="3.49977">
        <ele>25</ele>
        <time>2022-04-18T14:12:54.000Z</time>
      </trkpt>
      <trkpt lat="50.51343" lon="3.49995">
        <ele>25.1</ele>
        <time>2022-04-18T14:12:57.084Z</time>
      </trkpt>
      <trkpt lat="50.5135" lon="3.50004">
        <ele>25.2</ele>
        <time>2022-04-18T14:12:59.000Z</time>
      </trkpt>
      <trkpt lat="50.51356" lon="3.50011">
        <ele>25.5</ele>
        <time>2022-04-18T14:13:01.000Z</time>
      </trkpt>
      <trkpt lat="50.51362" lon="3.50018">
        <ele>25.6</ele>
        <time>2022-04-18T14:13:02.000Z</time>
      </trkpt>
      <trkpt lat="50.51367" lon="3.50021">
        <ele>25.6</ele>
        <time>2022-04-18T14:13:04.000Z</time>
      </trkpt>
      <trkpt lat="50.51373" lon="3.50024">
        <ele>25.6</ele>
        <time>2022-04-18T14:13:06.000Z</time>
      </trkpt>
      <trkpt lat="50.51378" lon="3.50027">
        <ele>25.4</ele>
        <time>2022-04-18T14:13:07.085Z</time>
      </trkpt>
      <trkpt lat="50.51384" lon="3.5003">
        <ele>25.3</ele>
        <time>2022-04-18T14:13:09.000Z</time>
      </trkpt>
      <trkpt lat="50.51392" lon="3.50033">
        <ele>25.3</ele>
        <time>2022-04-18T14:13:11.000Z</time>
      </trkpt>
      <trkpt lat="50.51396" lon="3.50033">
        <ele>25.4</ele>
        <time>2022-04-18T14:13:12.000Z</time>
      </trkpt>
      <trkpt lat="50.51405" lon="3.50031">
        <ele>25.7</ele>
        <time>2022-04-18T14:13:14.360Z</time>
      </trkpt>
      <trkpt lat="50.5141" lon="3.50029">
        <ele>25.8</ele>
        <time>2022-04-18T14:13:15.643Z</time>
      </trkpt>
      <trkpt lat="50.51419" lon="3.50028">
        <ele>26</ele>
        <time>2022-04-18T14:13:17.682Z</time>
      </trkpt>
      <trkpt lat="50.51425" lon="3.50028">
        <ele>26</ele>
        <time>2022-04-18T14:13:19.000Z</time>
      </trkpt>
      <trkpt lat="50.51433" lon="3.50029">
        <ele>26.1</ele>
        <time>2022-04-18T14:13:21.341Z</time>
      </trkpt>
      <trkpt lat="50.51444" lon="3.50031">
        <ele>26.2</ele>
        <time>2022-04-18T14:13:24.000Z</time>
      </trkpt>
      <trkpt lat="50.5145" lon="3.50033">
        <ele>26.5</ele>
        <time>2022-04-18T14:13:26.000Z</time>
      </trkpt>
      <trkpt lat="50.51459" lon="3.50035">
        <ele>26.9</ele>
        <time>2022-04-18T14:13:28.041Z</time>
      </trkpt>
      <trkpt lat="50.51464" lon="3.50037">
        <ele>27.1</ele>
        <time>2022-04-18T14:13:29.000Z</time>
      </trkpt>
      <trkpt lat="50.51468" lon="3.50037">
        <ele>27.2</ele>
        <time>2022-04-18T14:13:30.000Z</time>
      </trkpt>
      <trkpt lat="50.51478" lon="3.50036">
        <ele>27.3</ele>
        <time>2022-04-18T14:13:32.421Z</time>
      </trkpt>
      <trkpt lat="50.51488" lon="3.50036">
        <ele>27.3</ele>
        <time>2022-04-18T14:13:35.000Z</time>
      </trkpt>
      <trkpt lat="50.51495" lon="3.50036">
        <ele>27.3</ele>
        <time>2022-04-18T14:13:36.922Z</time>
      </trkpt>
      <trkpt lat="50.51502" lon="3.50032">
        <ele>27.2</ele>
        <time>2022-04-18T14:13:39.000Z</time>
      </trkpt>
      <trkpt lat="50.51509" lon="3.50034">
        <ele>27.5</ele>
        <time>2022-04-18T14:13:41.000Z</time>
      </trkpt>
      <trkpt lat="50.51516" lon="3.50033">
        <ele>27.8</ele>
        <time>2022-04-18T14:13:43.481Z</time>
      </trkpt>
      <trkpt lat="50.51522" lon="3.50034">
        <ele>28</ele>
        <time>2022-04-18T14:13:44.727Z</time>
      </trkpt>
      <trkpt lat="50.51527" lon="3.50033">
        <ele>28.2</ele>
        <time>2022-04-18T14:13:46.000Z</time>
      </trkpt>
      <trkpt lat="50.51536" lon="3.50031">
        <ele>28.1</ele>
        <time>2022-04-18T14:13:48.000Z</time>
      </trkpt>
      <trkpt lat="50.5154" lon="3.50029">
        <ele>28</ele>
        <time>2022-04-18T14:13:49.000Z</time>
      </trkpt>
      <trkpt lat="50.51546" lon="3.50027">
        <ele>28</ele>
        <time>2022-04-18T14:13:50.381Z</time>
      </trkpt>
      <trkpt lat="50.51557" lon="3.5002">
        <ele>27.7</ele>
        <time>2022-04-18T14:13:53.000Z</time>
      </trkpt>
      <trkpt lat="50.51561" lon="3.50017">
        <ele>27.6</ele>
        <time>2022-04-18T14:13:54.000Z</time>
      </trkpt>
      <trkpt lat="50.51566" lon="3.50013">
        <ele>27.5</ele>
        <time>2022-04-18T14:13:55.000Z</time>
      </trkpt>
      <trkpt lat="50.5157" lon="3.5001">
        <ele>27.4</ele>
        <time>2022-04-18T14:13:56.000Z</time>
      </trkpt>
      <trkpt lat="50.51575" lon="3.50006">
        <ele>27.2</ele>
        <time>2022-04-18T14:13:57.000Z</time>
      </trkpt>
      <trkpt lat="50.51579" lon="3.50003">
        <ele>27.1</ele>
        <time>2022-04-18T14:13:58.000Z</time>
      </trkpt>
      <trkpt lat="50.51584" lon="3.5">
        <ele>27</ele>
        <time>2022-04-18T14:13:59.000Z</time>
      </trkpt>
      <trkpt lat="50.51589" lon="3.49998">
        <ele>27</ele>
        <time>2022-04-18T14:14:00.000Z</time>
      </trkpt>
      <trkpt lat="50.51593" lon="3.49996">
        <ele>27</ele>
        <time>2022-04-18T14:14:01.000Z</time>
      </trkpt>
      <trkpt lat="50.51598" lon="3.49993">
        <ele>27</ele>
        <time>2022-04-18T14:14:02.000Z</time>
      </trkpt>
      <trkpt lat="50.51606" lon="3.49989">
        <ele>27</ele>
        <time>2022-04-18T14:14:03.909Z</time>
      </trkpt>
      <trkpt lat="50.51612" lon="3.49986">
        <ele>27</ele>
        <time>2022-04-18T14:14:05.000Z</time>
      </trkpt>
      <trkpt lat="50.51617" lon="3.49984">
        <ele>27</ele>
        <time>2022-04-18T14:14:06.000Z</time>
      </trkpt>
      <trkpt lat="50.51621" lon="3.49981">
        <ele>27</ele>
        <time>2022-04-18T14:14:07.000Z</time>
      </trkpt>
      <trkpt lat="50.51625" lon="3.49979">
        <ele>27</ele>
        <time>2022-04-18T14:14:08.000Z</time>
      </trkpt>
      <trkpt lat="50.5163" lon="3.49976">
        <ele>27</ele>
        <time>2022-04-18T14:14:09.000Z</time>
      </trkpt>
      <trkpt lat="50.51639" lon="3.49971">
        <ele>27</ele>
        <time>2022-04-18T14:14:11.000Z</time>
      </trkpt>
      <trkpt lat="50.51648" lon="3.49968">
        <ele>27</ele>
        <time>2022-04-18T14:14:13.000Z</time>
      </trkpt>
      <trkpt lat="50.51652" lon="3.49967">
        <ele>27</ele>
        <time>2022-04-18T14:14:14.000Z</time>
      </trkpt>
      <trkpt lat="50.51658" lon="3.49966">
        <ele>27</ele>
        <time>2022-04-18T14:14:15.000Z</time>
      </trkpt>
      <trkpt lat="50.51663" lon="3.49966">
        <ele>27</ele>
        <time>2022-04-18T14:14:16.000Z</time>
      </trkpt>
      <trkpt lat="50.51667" lon="3.49966">
        <ele>27</ele>
        <time>2022-04-18T14:14:17.000Z</time>
      </trkpt>
      <trkpt lat="50.51675" lon="3.49969">
        <ele>27.3</ele>
        <time>2022-04-18T14:14:19.000Z</time>
      </trkpt>
      <trkpt lat="50.51679" lon="3.49973">
        <ele>27.4</ele>
        <time>2022-04-18T14:14:20.000Z</time>
      </trkpt>
      <trkpt lat="50.51683" lon="3.49977">
        <ele>27.5</ele>
        <time>2022-04-18T14:14:21.000Z</time>
      </trkpt>
      <trkpt lat="50.51686" lon="3.49982">
        <ele>27.5</ele>
        <time>2022-04-18T14:14:22.000Z</time>
      </trkpt>
      <trkpt lat="50.51692" lon="3.49993">
        <ele>27.2</ele>
        <time>2022-04-18T14:14:24.000Z</time>
      </trkpt>
      <trkpt lat="50.51697" lon="3.50005">
        <ele>27.1</ele>
        <time>2022-04-18T14:14:26.000Z</time>
      </trkpt>
      <trkpt lat="50.51699" lon="3.50012">
        <ele>27.2</ele>
        <time>2022-04-18T14:14:27.000Z</time>
      </trkpt>
      <trkpt lat="50.517" lon="3.50019">
        <ele>27.2</ele>
        <time>2022-04-18T14:14:28.000Z</time>
      </trkpt>
      <trkpt lat="50.51703" lon="3.50033">
        <ele>27.3</ele>
        <time>2022-04-18T14:14:30.000Z</time>
      </trkpt>
      <trkpt lat="50.51703" lon="3.50046">
        <ele>27.3</ele>
        <time>2022-04-18T14:14:32.000Z</time>
      </trkpt>
      <trkpt lat="50.51702" lon="3.50053">
        <ele>27.3</ele>
        <time>2022-04-18T14:14:32.951Z</time>
      </trkpt>
      <trkpt lat="50.517" lon="3.50067">
        <ele>27.5</ele>
        <time>2022-04-18T14:14:34.794Z</time>
      </trkpt>
      <trkpt lat="50.517" lon="3.5008">
        <ele>27.9</ele>
        <time>2022-04-18T14:14:37.000Z</time>
      </trkpt>
      <trkpt lat="50.51703" lon="3.5009">
        <ele>28</ele>
        <time>2022-04-18T14:14:39.000Z</time>
      </trkpt>
      <trkpt lat="50.51709" lon="3.50095">
        <ele>28</ele>
        <time>2022-04-18T14:14:41.090Z</time>
      </trkpt>
      <trkpt lat="50.51718" lon="3.50097">
        <ele>28</ele>
        <time>2022-04-18T14:14:43.393Z</time>
      </trkpt>
      <trkpt lat="50.51722" lon="3.501">
        <ele>28</ele>
        <time>2022-04-18T14:14:44.445Z</time>
      </trkpt>
      <trkpt lat="50.51728" lon="3.50102">
        <ele>28</ele>
        <time>2022-04-18T14:14:45.802Z</time>
      </trkpt>
      <trkpt lat="50.51733" lon="3.50103">
        <ele>28</ele>
        <time>2022-04-18T14:14:47.010Z</time>
      </trkpt>
      <trkpt lat="50.51738" lon="3.50104">
        <ele>28</ele>
        <time>2022-04-18T14:14:48.000Z</time>
      </trkpt>
      <trkpt lat="50.51742" lon="3.50106">
        <ele>28</ele>
        <time>2022-04-18T14:14:49.000Z</time>
      </trkpt>
      <trkpt lat="50.51748" lon="3.50108">
        <ele>28</ele>
        <time>2022-04-18T14:14:50.521Z</time>
      </trkpt>
      <trkpt lat="50.51754" lon="3.50107">
        <ele>28</ele>
        <time>2022-04-18T14:14:51.770Z</time>
      </trkpt>
      <trkpt lat="50.51762" lon="3.5011">
        <ele>28</ele>
        <time>2022-04-18T14:14:53.729Z</time>
      </trkpt>
      <trkpt lat="50.51767" lon="3.5011">
        <ele>28</ele>
        <time>2022-04-18T14:14:54.992Z</time>
      </trkpt>
      <trkpt lat="50.51774" lon="3.5011">
        <ele>28</ele>
        <time>2022-04-18T14:14:56.831Z</time>
      </trkpt>
      <trkpt lat="50.51782" lon="3.5011">
        <ele>28.2</ele>
        <time>2022-04-18T14:14:59.000Z</time>
      </trkpt>
      <trkpt lat="50.5179" lon="3.5011">
        <ele>28.5</ele>
        <time>2022-04-18T14:15:01.000Z</time>
      </trkpt>
      <trkpt lat="50.51795" lon="3.50115">
        <ele>28.6</ele>
        <time>2022-04-18T14:15:03.000Z</time>
      </trkpt>
      <trkpt lat="50.518" lon="3.50117">
        <ele>28.8</ele>
        <time>2022-04-18T14:15:04.000Z</time>
      </trkpt>
      <trkpt lat="50.51809" lon="3.50119">
        <ele>29</ele>
        <time>2022-04-18T14:15:06.000Z</time>
      </trkpt>
      <trkpt lat="50.51814" lon="3.50119">
        <ele>29</ele>
        <time>2022-04-18T14:15:07.133Z</time>
      </trkpt>
      <trkpt lat="50.5182" lon="3.50119">
        <ele>29</ele>
        <time>2022-04-18T14:15:08.712Z</time>
      </trkpt>
      <trkpt lat="50.51825" lon="3.50118">
        <ele>29</ele>
        <time>2022-04-18T14:15:10.009Z</time>
      </trkpt>
      <trkpt lat="50.51833" lon="3.50117">
        <ele>29</ele>
        <time>2022-04-18T14:15:12.000Z</time>
      </trkpt>
      <trkpt lat="50.51838" lon="3.50117">
        <ele>29</ele>
        <time>2022-04-18T14:15:13.150Z</time>
      </trkpt>
      <trkpt lat="50.51844" lon="3.50116">
        <ele>29</ele>
        <time>2022-04-18T14:15:14.371Z</time>
      </trkpt>
      <trkpt lat="50.51854" lon="3.50114">
        <ele>29</ele>
        <time>2022-04-18T14:15:17.000Z</time>
      </trkpt>
      <trkpt lat="50.51859" lon="3.50113">
        <ele>29</ele>
        <time>2022-04-18T14:15:18.000Z</time>
      </trkpt>
      <trkpt lat="50.51863" lon="3.50111">
        <ele>29</ele>
        <time>2022-04-18T14:15:19.155Z</time>
      </trkpt>
      <trkpt lat="50.51869" lon="3.50108">
        <ele>29</ele>
        <time>2022-04-18T14:15:20.512Z</time>
      </trkpt>
      <trkpt lat="50.51876" lon="3.50105">
        <ele>28.9</ele>
        <time>2022-04-18T14:15:22.000Z</time>
      </trkpt>
      <trkpt lat="50.51885" lon="3.501">
        <ele>28.7</ele>
        <time>2022-04-18T14:15:24.000Z</time>
      </trkpt>
      <trkpt lat="50.51895" lon="3.50095">
        <ele>28.3</ele>
        <time>2022-04-18T14:15:26.000Z</time>
      </trkpt>
      <trkpt lat="50.519" lon="3.50093">
        <ele>28.2</ele>
        <time>2022-04-18T14:15:27.000Z</time>
      </trkpt>
      <trkpt lat="50.51906" lon="3.5009">
        <ele>28.1</ele>
        <time>2022-04-18T14:15:28.000Z</time>
      </trkpt>
      <trkpt lat="50.51911" lon="3.50089">
        <ele>28</ele>
        <time>2022-04-18T14:15:29.000Z</time>
      </trkpt>
      <trkpt lat="50.51916" lon="3.50089">
        <ele>28</ele>
        <time>2022-04-18T14:15:30.000Z</time>
      </trkpt>
      <trkpt lat="50.51921" lon="3.50089">
        <ele>28</ele>
        <time>2022-04-18T14:15:31.000Z</time>
      </trkpt>
      <trkpt lat="50.51925" lon="3.50091">
        <ele>28</ele>
        <time>2022-04-18T14:15:32.000Z</time>
      </trkpt>
      <trkpt lat="50.51936" lon="3.50097">
        <ele>28</ele>
        <time>2022-04-18T14:15:34.000Z</time>
      </trkpt>
      <trkpt lat="50.51941" lon="3.50101">
        <ele>28</ele>
        <time>2022-04-18T14:15:35.000Z</time>
      </trkpt>
      <trkpt lat="50.51946" lon="3.50104">
        <ele>28</ele>
        <time>2022-04-18T14:15:36.000Z</time>
      </trkpt>
      <trkpt lat="50.51951" lon="3.50108">
        <ele>28</ele>
        <time>2022-04-18T14:15:37.000Z</time>
      </trkpt>
      <trkpt lat="50.51956" lon="3.50112">
        <ele>28</ele>
        <time>2022-04-18T14:15:38.000Z</time>
      </trkpt>
      <trkpt lat="50.5196" lon="3.50116">
        <ele>28</ele>
        <time>2022-04-18T14:15:39.000Z</time>
      </trkpt>
      <trkpt lat="50.51964" lon="3.5012">
        <ele>28</ele>
        <time>2022-04-18T14:15:40.000Z</time>
      </trkpt>
      <trkpt lat="50.5197" lon="3.5013">
        <ele>28</ele>
        <time>2022-04-18T14:15:42.000Z</time>
      </trkpt>
      <trkpt lat="50.51974" lon="3.50135">
        <ele>28</ele>
        <time>2022-04-18T14:15:43.000Z</time>
      </trkpt>
      <trkpt lat="50.51975" lon="3.50142">
        <ele>28</ele>
        <time>2022-04-18T14:15:45.903Z</time>
      </trkpt>
      <trkpt lat="50.51979" lon="3.50146">
        <ele>28</ele>
        <time>2022-04-18T14:15:46.908Z</time>
      </trkpt>
      <trkpt lat="50.51983" lon="3.50154">
        <ele>28</ele>
        <time>2022-04-18T14:15:48.583Z</time>
      </trkpt>
      <trkpt lat="50.51987" lon="3.5016">
        <ele>28</ele>
        <time>2022-04-18T14:15:49.825Z</time>
      </trkpt>
      <trkpt lat="50.5199" lon="3.50166">
        <ele>28</ele>
        <time>2022-04-18T14:15:51.000Z</time>
      </trkpt>
      <trkpt lat="50.51993" lon="3.50171">
        <ele>28</ele>
        <time>2022-04-18T14:15:52.026Z</time>
      </trkpt>
      <trkpt lat="50.51997" lon="3.50181">
        <ele>28</ele>
        <time>2022-04-18T14:15:53.664Z</time>
      </trkpt>
      <trkpt lat="50.52001" lon="3.50187">
        <ele>28</ele>
        <time>2022-04-18T14:15:55.022Z</time>
      </trkpt>
      <trkpt lat="50.52007" lon="3.50194">
        <ele>28.2</ele>
        <time>2022-04-18T14:15:57.026Z</time>
      </trkpt>
      <trkpt lat="50.52012" lon="3.502">
        <ele>28.3</ele>
        <time>2022-04-18T14:15:59.004Z</time>
      </trkpt>
      <trkpt lat="50.52023" lon="3.50212">
        <ele>28.3</ele>
        <time>2022-04-18T14:16:02.000Z</time>
      </trkpt>
      <trkpt lat="50.52031" lon="3.5022">
        <ele>28.2</ele>
        <time>2022-04-18T14:16:04.000Z</time>
      </trkpt>
      <trkpt lat="50.52038" lon="3.50227">
        <ele>28.4</ele>
        <time>2022-04-18T14:16:06.007Z</time>
      </trkpt>
      <trkpt lat="50.52047" lon="3.50238">
        <ele>28.5</ele>
        <time>2022-04-18T14:16:08.068Z</time>
      </trkpt>
      <trkpt lat="50.52053" lon="3.50242">
        <ele>28.3</ele>
        <time>2022-04-18T14:16:10.000Z</time>
      </trkpt>
      <trkpt lat="50.52064" lon="3.50252">
        <ele>28.3</ele>
        <time>2022-04-18T14:16:12.466Z</time>
      </trkpt>
      <trkpt lat="50.52071" lon="3.50259">
        <ele>28.4</ele>
        <time>2022-04-18T14:16:14.906Z</time>
      </trkpt>
      <trkpt lat="50.52075" lon="3.50263">
        <ele>28.4</ele>
        <time>2022-04-18T14:16:16.000Z</time>
      </trkpt>
      <trkpt lat="50.5208" lon="3.50269">
        <ele>28.3</ele>
        <time>2022-04-18T14:16:17.722Z</time>
      </trkpt>
      <trkpt lat="50.52085" lon="3.50274">
        <ele>28.2</ele>
        <time>2022-04-18T14:16:18.962Z</time>
      </trkpt>
      <trkpt lat="50.52089" lon="3.50279">
        <ele>28.2</ele>
        <time>2022-04-18T14:16:19.986Z</time>
      </trkpt>
      <trkpt lat="50.52093" lon="3.50283">
        <ele>28.5</ele>
        <time>2022-04-18T14:16:21.000Z</time>
      </trkpt>
      <trkpt lat="50.52098" lon="3.50287">
        <ele>28.7</ele>
        <time>2022-04-18T14:16:22.000Z</time>
      </trkpt>
      <trkpt lat="50.52102" lon="3.50291">
        <ele>28.8</ele>
        <time>2022-04-18T14:16:23.000Z</time>
      </trkpt>
      <trkpt lat="50.52107" lon="3.50295">
        <ele>28.9</ele>
        <time>2022-04-18T14:16:24.105Z</time>
      </trkpt>
      <trkpt lat="50.52113" lon="3.50301">
        <ele>29</ele>
        <time>2022-04-18T14:16:25.846Z</time>
      </trkpt>
      <trkpt lat="50.5212" lon="3.5031">
        <ele>29</ele>
        <time>2022-04-18T14:16:28.063Z</time>
      </trkpt>
      <trkpt lat="50.52126" lon="3.50315">
        <ele>29</ele>
        <time>2022-04-18T14:16:29.946Z</time>
      </trkpt>
      <trkpt lat="50.52133" lon="3.50323">
        <ele>29</ele>
        <time>2022-04-18T14:16:32.000Z</time>
      </trkpt>
      <trkpt lat="50.5214" lon="3.50326">
        <ele>29</ele>
        <time>2022-04-18T14:16:34.000Z</time>
      </trkpt>
      <trkpt lat="50.52148" lon="3.50331">
        <ele>29.3</ele>
        <time>2022-04-18T14:16:36.000Z</time>
      </trkpt>
      <trkpt lat="50.52153" lon="3.50333">
        <ele>29.5</ele>
        <time>2022-04-18T14:16:36.941Z</time>
      </trkpt>
      <trkpt lat="50.52158" lon="3.50334">
        <ele>29.7</ele>
        <time>2022-04-18T14:16:38.123Z</time>
      </trkpt>
      <trkpt lat="50.52163" lon="3.50336">
        <ele>29.9</ele>
        <time>2022-04-18T14:16:39.583Z</time>
      </trkpt>
      <trkpt lat="50.52169" lon="3.50339">
        <ele>30</ele>
        <time>2022-04-18T14:16:41.000Z</time>
      </trkpt>
      <trkpt lat="50.52177" lon="3.50343">
        <ele>30</ele>
        <time>2022-04-18T14:16:43.262Z</time>
      </trkpt>
      <trkpt lat="50.52182" lon="3.50346">
        <ele>30</ele>
        <time>2022-04-18T14:16:44.527Z</time>
      </trkpt>
      <trkpt lat="50.5219" lon="3.50349">
        <ele>30</ele>
        <time>2022-04-18T14:16:46.902Z</time>
      </trkpt>
      <trkpt lat="50.52196" lon="3.50352">
        <ele>30.1</ele>
        <time>2022-04-18T14:16:49.125Z</time>
      </trkpt>
      <trkpt lat="50.52201" lon="3.50355">
        <ele>30.2</ele>
        <time>2022-04-18T14:16:50.586Z</time>
      </trkpt>
      <trkpt lat="50.52206" lon="3.50357">
        <ele>30.4</ele>
        <time>2022-04-18T14:16:51.983Z</time>
      </trkpt>
      <trkpt lat="50.5221" lon="3.5036">
        <ele>30.6</ele>
        <time>2022-04-18T14:16:53.405Z</time>
      </trkpt>
      <trkpt lat="50.52214" lon="3.50363">
        <ele>30.7</ele>
        <time>2022-04-18T14:16:55.004Z</time>
      </trkpt>
      <trkpt lat="50.5222" lon="3.50366">
        <ele>30.8</ele>
        <time>2022-04-18T14:16:56.925Z</time>
      </trkpt>
      <trkpt lat="50.52224" lon="3.50369">
        <ele>30.7</ele>
        <time>2022-04-18T14:16:58.984Z</time>
      </trkpt>
      <trkpt lat="50.5223" lon="3.50369">
        <ele>30.8</ele>
        <time>2022-04-18T14:17:01.000Z</time>
      </trkpt>
      <trkpt lat="50.52239" lon="3.50368">
        <ele>30.9</ele>
        <time>2022-04-18T14:17:03.984Z</time>
      </trkpt>
      <trkpt lat="50.52245" lon="3.50366">
        <ele>31</ele>
        <time>2022-04-18T14:17:06.000Z</time>
      </trkpt>
      <trkpt lat="50.52251" lon="3.50364">
        <ele>31</ele>
        <time>2022-04-18T14:17:08.000Z</time>
      </trkpt>
      <trkpt lat="50.52257" lon="3.50362">
        <ele>31.3</ele>
        <time>2022-04-18T14:17:10.082Z</time>
      </trkpt>
      <trkpt lat="50.52263" lon="3.50362">
        <ele>31.5</ele>
        <time>2022-04-18T14:17:12.170Z</time>
      </trkpt>
      <trkpt lat="50.52268" lon="3.5036">
        <ele>31.6</ele>
        <time>2022-04-18T14:17:13.743Z</time>
      </trkpt>
      <trkpt lat="50.52275" lon="3.5036">
        <ele>31.9</ele>
        <time>2022-04-18T14:17:16.000Z</time>
      </trkpt>
      <trkpt lat="50.5228" lon="3.5036">
        <ele>32.1</ele>
        <time>2022-04-18T14:17:18.000Z</time>
      </trkpt>
      <trkpt lat="50.52286" lon="3.5036">
        <ele>32.3</ele>
        <time>2022-04-18T14:17:20.143Z</time>
      </trkpt>
      <trkpt lat="50.52292" lon="3.50361">
        <ele>32.5</ele>
        <time>2022-04-18T14:17:22.408Z</time>
      </trkpt>
      <trkpt lat="50.523" lon="3.50362">
        <ele>32.8</ele>
        <time>2022-04-18T14:17:25.000Z</time>
      </trkpt>
      <trkpt lat="50.52306" lon="3.50363">
        <ele>33</ele>
        <time>2022-04-18T14:17:28.000Z</time>
      </trkpt>
      <trkpt lat="50.52313" lon="3.50363">
        <ele>33.5</ele>
        <time>2022-04-18T14:17:31.244Z</time>
      </trkpt>
      <trkpt lat="50.52318" lon="3.50363">
        <ele>33.9</ele>
        <time>2022-04-18T14:17:33.503Z</time>
      </trkpt>
      <trkpt lat="50.52323" lon="3.50364">
        <ele>34.3</ele>
        <time>2022-04-18T14:17:36.784Z</time>
      </trkpt>
      <trkpt lat="50.52328" lon="3.50364">
        <ele>34.6</ele>
        <time>2022-04-18T14:17:40.000Z</time>
      </trkpt>
      <trkpt lat="50.52334" lon="3.50366">
        <ele>35</ele>
        <time>2022-04-18T14:17:43.000Z</time>
      </trkpt>
      <trkpt lat="50.5234" lon="3.50365">
        <ele>35</ele>
        <time>2022-04-18T14:17:46.144Z</time>
      </trkpt>
      <trkpt lat="50.52345" lon="3.50366">
        <ele>35.1</ele>
        <time>2022-04-18T14:17:49.000Z</time>
      </trkpt>
      <trkpt lat="50.52352" lon="3.50366">
        <ele>35.1</ele>
        <time>2022-04-18T14:17:52.000Z</time>
      </trkpt>
      <trkpt lat="50.52359" lon="3.50367">
        <ele>35.2</ele>
        <time>2022-04-18T14:17:55.087Z</time>
      </trkpt>
      <trkpt lat="50.52365" lon="3.50367">
        <ele>35.3</ele>
        <time>2022-04-18T14:17:57.560Z</time>
      </trkpt>
      <trkpt lat="50.52371" lon="3.50367">
        <ele>35.4</ele>
        <time>2022-04-18T14:17:59.762Z</time>
      </trkpt>
      <trkpt lat="50.52378" lon="3.50369">
        <ele>35.5</ele>
        <time>2022-04-18T14:18:02.027Z</time>
      </trkpt>
      <trkpt lat="50.52382" lon="3.5037">
        <ele>35.6</ele>
        <time>2022-04-18T14:18:04.000Z</time>
      </trkpt>
      <trkpt lat="50.52388" lon="3.50371">
        <ele>35.6</ele>
        <time>2022-04-18T14:18:06.066Z</time>
      </trkpt>
      <trkpt lat="50.524" lon="3.5037">
        <ele>35.5</ele>
        <time>2022-04-18T14:18:08.709Z</time>
      </trkpt>
      <trkpt lat="50.52409" lon="3.5037">
        <ele>35.4</ele>
        <time>2022-04-18T14:18:11.422Z</time>
      </trkpt>
      <trkpt lat="50.52416" lon="3.50372">
        <ele>35.4</ele>
        <time>2022-04-18T14:18:14.000Z</time>
      </trkpt>
      <trkpt lat="50.52425" lon="3.50377">
        <ele>35.4</ele>
        <time>2022-04-18T14:18:16.000Z</time>
      </trkpt>
      <trkpt lat="50.52431" lon="3.50378">
        <ele>35.3</ele>
        <time>2022-04-18T14:18:18.000Z</time>
      </trkpt>
      <trkpt lat="50.52439" lon="3.5038">
        <ele>35.1</ele>
        <time>2022-04-18T14:18:19.404Z</time>
      </trkpt>
      <trkpt lat="50.52444" lon="3.50383">
        <ele>35</ele>
        <time>2022-04-18T14:18:21.000Z</time>
      </trkpt>
      <trkpt lat="50.52451" lon="3.50384">
        <ele>35</ele>
        <time>2022-04-18T14:18:22.000Z</time>
      </trkpt>
      <trkpt lat="50.52458" lon="3.50387">
        <ele>35</ele>
        <time>2022-04-18T14:18:24.000Z</time>
      </trkpt>
      <trkpt lat="50.52463" lon="3.50389">
        <ele>35</ele>
        <time>2022-04-18T14:18:25.000Z</time>
      </trkpt>
      <trkpt lat="50.5247" lon="3.50391">
        <ele>35</ele>
        <time>2022-04-18T14:18:26.000Z</time>
      </trkpt>
      <trkpt lat="50.52478" lon="3.50394">
        <ele>35</ele>
        <time>2022-04-18T14:18:28.403Z</time>
      </trkpt>
      <trkpt lat="50.52491" lon="3.50398">
        <ele>35</ele>
        <time>2022-04-18T14:18:31.045Z</time>
      </trkpt>
      <trkpt lat="50.52497" lon="3.50399">
        <ele>35</ele>
        <time>2022-04-18T14:18:33.000Z</time>
      </trkpt>
      <trkpt lat="50.52503" lon="3.50401">
        <ele>35</ele>
        <time>2022-04-18T14:18:34.000Z</time>
      </trkpt>
      <trkpt lat="50.52508" lon="3.50403">
        <ele>35</ele>
        <time>2022-04-18T14:18:35.064Z</time>
      </trkpt>
      <trkpt lat="50.52513" lon="3.50404">
        <ele>35</ele>
        <time>2022-04-18T14:18:36.341Z</time>
      </trkpt>
      <trkpt lat="50.52518" lon="3.50402">
        <ele>35</ele>
        <time>2022-04-18T14:18:37.903Z</time>
      </trkpt>
      <trkpt lat="50.52524" lon="3.50399">
        <ele>35</ele>
        <time>2022-04-18T14:18:39.006Z</time>
      </trkpt>
      <trkpt lat="50.52531" lon="3.50392">
        <ele>35.1</ele>
        <time>2022-04-18T14:18:40.824Z</time>
      </trkpt>
      <trkpt lat="50.52536" lon="3.50388">
        <ele>35.3</ele>
        <time>2022-04-18T14:18:41.987Z</time>
      </trkpt>
      <trkpt lat="50.52542" lon="3.50383">
        <ele>35.5</ele>
        <time>2022-04-18T14:18:43.907Z</time>
      </trkpt>
      <trkpt lat="50.52546" lon="3.50379">
        <ele>35.7</ele>
        <time>2022-04-18T14:18:44.986Z</time>
      </trkpt>
      <trkpt lat="50.5255" lon="3.50368">
        <ele>35.8</ele>
        <time>2022-04-18T14:18:47.564Z</time>
      </trkpt>
      <trkpt lat="50.52552" lon="3.50357">
        <ele>35.9</ele>
        <time>2022-04-18T14:18:49.000Z</time>
      </trkpt>
      <trkpt lat="50.52554" lon="3.50345">
        <ele>35.9</ele>
        <time>2022-04-18T14:18:51.521Z</time>
      </trkpt>
      <trkpt lat="50.52557" lon="3.50334">
        <ele>36</ele>
        <time>2022-04-18T14:18:55.105Z</time>
      </trkpt>
      <trkpt lat="50.52561" lon="3.50324">
        <ele>36</ele>
        <time>2022-04-18T14:18:58.044Z</time>
      </trkpt>
      <trkpt lat="50.52565" lon="3.50316">
        <ele>36</ele>
        <time>2022-04-18T14:19:00.000Z</time>
      </trkpt>
      <trkpt lat="50.52571" lon="3.50306">
        <ele>36</ele>
        <time>2022-04-18T14:19:03.123Z</time>
      </trkpt>
      <trkpt lat="50.52574" lon="3.50296">
        <ele>36</ele>
        <time>2022-04-18T14:19:05.362Z</time>
      </trkpt>
      <trkpt lat="50.52578" lon="3.50288">
        <ele>36</ele>
        <time>2022-04-18T14:19:07.505Z</time>
      </trkpt>
      <trkpt lat="50.52583" lon="3.50283">
        <ele>36</ele>
        <time>2022-04-18T14:19:10.000Z</time>
      </trkpt>
      <trkpt lat="50.52589" lon="3.50274">
        <ele>36</ele>
        <time>2022-04-18T14:19:12.000Z</time>
      </trkpt>
      <trkpt lat="50.52592" lon="3.50264">
        <ele>36</ele>
        <time>2022-04-18T14:19:14.582Z</time>
      </trkpt>
      <trkpt lat="50.52596" lon="3.50252">
        <ele>36</ele>
        <time>2022-04-18T14:20:48.000Z</time>
      </trkpt>
      <trkpt lat="50.526" lon="3.50242">
        <ele>36</ele>
        <time>2022-04-18T14:20:50.000Z</time>
      </trkpt>
      <trkpt lat="50.52608" lon="3.50227">
        <ele>36</ele>
        <time>2022-04-18T14:20:54.021Z</time>
      </trkpt>
      <trkpt lat="50.52612" lon="3.50217">
        <ele>36</ele>
        <time>2022-04-18T14:20:55.145Z</time>
      </trkpt>
      <trkpt lat="50.52617" lon="3.50204">
        <ele>36</ele>
        <time>2022-04-18T14:20:57.758Z</time>
      </trkpt>
      <trkpt lat="50.52619" lon="3.50196">
        <ele>36</ele>
        <time>2022-04-18T14:20:58.959Z</time>
      </trkpt>
      <trkpt lat="50.52623" lon="3.50185">
        <ele>36</ele>
        <time>2022-04-18T14:21:01.017Z</time>
      </trkpt>
      <trkpt lat="50.52625" lon="3.50178">
        <ele>36</ele>
        <time>2022-04-18T14:21:01.939Z</time>
      </trkpt>
      <trkpt lat="50.52627" lon="3.50171">
        <ele>36</ele>
        <time>2022-04-18T14:21:03.319Z</time>
      </trkpt>
      <trkpt lat="50.52632" lon="3.50157">
        <ele>36</ele>
        <time>2022-04-18T14:21:06.137Z</time>
      </trkpt>
      <trkpt lat="50.52634" lon="3.50148">
        <ele>36</ele>
        <time>2022-04-18T14:21:08.080Z</time>
      </trkpt>
      <trkpt lat="50.52637" lon="3.50141">
        <ele>36</ele>
        <time>2022-04-18T14:21:09.120Z</time>
      </trkpt>
      <trkpt lat="50.52641" lon="3.50129">
        <ele>36</ele>
        <time>2022-04-18T14:21:11.700Z</time>
      </trkpt>
      <trkpt lat="50.52644" lon="3.50121">
        <ele>36</ele>
        <time>2022-04-18T14:21:14.018Z</time>
      </trkpt>
      <trkpt lat="50.52649" lon="3.50111">
        <ele>36</ele>
        <time>2022-04-18T14:21:15.718Z</time>
      </trkpt>
      <trkpt lat="50.52654" lon="3.50101">
        <ele>36</ele>
        <time>2022-04-18T14:21:17.960Z</time>
      </trkpt>
      <trkpt lat="50.52658" lon="3.50095">
        <ele>36</ele>
        <time>2022-04-18T14:21:19.000Z</time>
      </trkpt>
      <trkpt lat="50.52663" lon="3.50089">
        <ele>36</ele>
        <time>2022-04-18T14:21:21.337Z</time>
      </trkpt>
      <trkpt lat="50.52668" lon="3.50083">
        <ele>36</ele>
        <time>2022-04-18T14:21:22.916Z</time>
      </trkpt>
      <trkpt lat="50.52674" lon="3.50077">
        <ele>36</ele>
        <time>2022-04-18T14:21:25.000Z</time>
      </trkpt>
      <trkpt lat="50.5268" lon="3.50069">
        <ele>36</ele>
        <time>2022-04-18T14:21:28.000Z</time>
      </trkpt>
      <trkpt lat="50.52686" lon="3.50062">
        <ele>36</ele>
        <time>2022-04-18T14:21:30.024Z</time>
      </trkpt>
      <trkpt lat="50.5269" lon="3.50054">
        <ele>36</ele>
        <time>2022-04-18T14:21:31.638Z</time>
      </trkpt>
      <trkpt lat="50.52692" lon="3.50048">
        <ele>36</ele>
        <time>2022-04-18T14:21:33.000Z</time>
      </trkpt>
      <trkpt lat="50.52695" lon="3.50042">
        <ele>36</ele>
        <time>2022-04-18T14:21:34.142Z</time>
      </trkpt>
      <trkpt lat="50.52701" lon="3.50035">
        <ele>36</ele>
        <time>2022-04-18T14:21:35.796Z</time>
      </trkpt>
      <trkpt lat="50.52707" lon="3.50023">
        <ele>36</ele>
        <time>2022-04-18T14:21:38.078Z</time>
      </trkpt>
      <trkpt lat="50.5271" lon="3.50016">
        <ele>36</ele>
        <time>2022-04-18T14:21:39.841Z</time>
      </trkpt>
      <trkpt lat="50.52715" lon="3.50009">
        <ele>36</ele>
        <time>2022-04-18T14:21:42.000Z</time>
      </trkpt>
      <trkpt lat="50.52719" lon="3.50001">
        <ele>36</ele>
        <time>2022-04-18T14:21:43.359Z</time>
      </trkpt>
      <trkpt lat="50.52724" lon="3.49994">
        <ele>36.3</ele>
        <time>2022-04-18T14:21:44.618Z</time>
      </trkpt>
      <trkpt lat="50.52727" lon="3.49989">
        <ele>36.5</ele>
        <time>2022-04-18T14:21:46.000Z</time>
      </trkpt>
      <trkpt lat="50.52734" lon="3.49975">
        <ele>36.9</ele>
        <time>2022-04-18T14:21:48.821Z</time>
      </trkpt>
      <trkpt lat="50.5274" lon="3.49964">
        <ele>36.9</ele>
        <time>2022-04-18T14:21:52.000Z</time>
      </trkpt>
      <trkpt lat="50.52744" lon="3.49956">
        <ele>36.9</ele>
        <time>2022-04-18T14:21:54.060Z</time>
      </trkpt>
      <trkpt lat="50.52747" lon="3.4995">
        <ele>36.9</ele>
        <time>2022-04-18T14:21:57.000Z</time>
      </trkpt>
      <trkpt lat="50.52751" lon="3.49945">
        <ele>37</ele>
        <time>2022-04-18T14:21:59.000Z</time>
      </trkpt>
      <trkpt lat="50.52758" lon="3.49939">
        <ele>37.1</ele>
        <time>2022-04-18T14:22:01.000Z</time>
      </trkpt>
      <trkpt lat="50.52763" lon="3.49935">
        <ele>37.2</ele>
        <time>2022-04-18T14:22:03.000Z</time>
      </trkpt>
      <trkpt lat="50.52767" lon="3.49931">
        <ele>37.3</ele>
        <time>2022-04-18T14:22:04.000Z</time>
      </trkpt>
      <trkpt lat="50.52774" lon="3.49931">
        <ele>37.4</ele>
        <time>2022-04-18T14:22:06.000Z</time>
      </trkpt>
      <trkpt lat="50.52783" lon="3.49927">
        <ele>37.7</ele>
        <time>2022-04-18T14:22:09.297Z</time>
      </trkpt>
      <trkpt lat="50.5279" lon="3.49923">
        <ele>37.9</ele>
        <time>2022-04-18T14:22:12.012Z</time>
      </trkpt>
      <trkpt lat="50.52795" lon="3.49919">
        <ele>38</ele>
        <time>2022-04-18T14:22:14.000Z</time>
      </trkpt>
      <trkpt lat="50.52801" lon="3.49911">
        <ele>38.2</ele>
        <time>2022-04-18T14:22:17.141Z</time>
      </trkpt>
      <trkpt lat="50.52806" lon="3.49907">
        <ele>38.4</ele>
        <time>2022-04-18T14:22:20.000Z</time>
      </trkpt>
      <trkpt lat="50.52809" lon="3.49901">
        <ele>38.6</ele>
        <time>2022-04-18T14:22:22.040Z</time>
      </trkpt>
      <trkpt lat="50.52811" lon="3.49893">
        <ele>38.9</ele>
        <time>2022-04-18T14:22:25.000Z</time>
      </trkpt>
      <trkpt lat="50.52808" lon="3.49884">
        <ele>39</ele>
        <time>2022-04-18T14:22:28.000Z</time>
      </trkpt>
      <trkpt lat="50.52804" lon="3.49876">
        <ele>38.9</ele>
        <time>2022-04-18T14:22:30.878Z</time>
      </trkpt>
      <trkpt lat="50.52799" lon="3.49868">
        <ele>38.8</ele>
        <time>2022-04-18T14:22:33.000Z</time>
      </trkpt>
      <trkpt lat="50.52796" lon="3.49859">
        <ele>38.6</ele>
        <time>2022-04-18T14:22:35.129Z</time>
      </trkpt>
      <trkpt lat="50.5279" lon="3.49845">
        <ele>38.2</ele>
        <time>2022-04-18T14:22:37.940Z</time>
      </trkpt>
      <trkpt lat="50.52787" lon="3.49838">
        <ele>38.1</ele>
        <time>2022-04-18T14:22:39.018Z</time>
      </trkpt>
      <trkpt lat="50.52785" lon="3.49831">
        <ele>38</ele>
        <time>2022-04-18T14:22:39.948Z</time>
      </trkpt>
      <trkpt lat="50.52783" lon="3.49824">
        <ele>38.1</ele>
        <time>2022-04-18T14:22:41.838Z</time>
      </trkpt>
      <trkpt lat="50.5278" lon="3.49815">
        <ele>38.1</ele>
        <time>2022-04-18T14:22:43.739Z</time>
      </trkpt>
      <trkpt lat="50.52776" lon="3.49806">
        <ele>37.9</ele>
        <time>2022-04-18T14:22:44.681Z</time>
      </trkpt>
      <trkpt lat="50.52773" lon="3.49801">
        <ele>38</ele>
        <time>2022-04-18T14:22:46.002Z</time>
      </trkpt>
      <trkpt lat="50.5277" lon="3.49792">
        <ele>38.2</ele>
        <time>2022-04-18T14:22:47.600Z</time>
      </trkpt>
      <trkpt lat="50.52764" lon="3.49784">
        <ele>38.3</ele>
        <time>2022-04-18T14:22:49.921Z</time>
      </trkpt>
      <trkpt lat="50.52761" lon="3.49776">
        <ele>38.4</ele>
        <time>2022-04-18T14:22:52.000Z</time>
      </trkpt>
      <trkpt lat="50.52758" lon="3.4977">
        <ele>38.3</ele>
        <time>2022-04-18T14:22:55.937Z</time>
      </trkpt>
      <trkpt lat="50.52754" lon="3.49763">
        <ele>38.1</ele>
        <time>2022-04-18T14:23:01.000Z</time>
      </trkpt>
      <trkpt lat="50.52753" lon="3.4974">
        <ele>38.4</ele>
        <time>2022-04-18T14:25:49.000Z</time>
      </trkpt>
      <trkpt lat="50.52751" lon="3.49731">
        <ele>38.7</ele>
        <time>2022-04-18T14:25:51.563Z</time>
      </trkpt>
      <trkpt lat="50.52747" lon="3.49722">
        <ele>38.9</ele>
        <time>2022-04-18T14:25:53.000Z</time>
      </trkpt>
      <trkpt lat="50.52744" lon="3.49714">
        <ele>38.8</ele>
        <time>2022-04-18T14:25:53.963Z</time>
      </trkpt>
      <trkpt lat="50.52741" lon="3.49703">
        <ele>38.7</ele>
        <time>2022-04-18T14:25:55.905Z</time>
      </trkpt>
      <trkpt lat="50.52738" lon="3.49693">
        <ele>38.6</ele>
        <time>2022-04-18T14:25:57.010Z</time>
      </trkpt>
      <trkpt lat="50.52735" lon="3.4968">
        <ele>38.5</ele>
        <time>2022-04-18T14:25:59.142Z</time>
      </trkpt>
      <trkpt lat="50.52733" lon="3.49668">
        <ele>38.4</ele>
        <time>2022-04-18T14:26:01.000Z</time>
      </trkpt>
      <trkpt lat="50.52729" lon="3.49654">
        <ele>38.6</ele>
        <time>2022-04-18T14:26:03.000Z</time>
      </trkpt>
      <trkpt lat="50.52727" lon="3.49645">
        <ele>38.8</ele>
        <time>2022-04-18T14:26:04.942Z</time>
      </trkpt>
      <trkpt lat="50.52727" lon="3.49635">
        <ele>39</ele>
        <time>2022-04-18T14:26:06.000Z</time>
      </trkpt>
      <trkpt lat="50.52727" lon="3.49625">
        <ele>39</ele>
        <time>2022-04-18T14:26:07.000Z</time>
      </trkpt>
      <trkpt lat="50.52727" lon="3.49612">
        <ele>39</ele>
        <time>2022-04-18T14:26:10.000Z</time>
      </trkpt>
      <trkpt lat="50.52725" lon="3.49601">
        <ele>39</ele>
        <time>2022-04-18T14:26:12.000Z</time>
      </trkpt>
      <trkpt lat="50.52724" lon="3.49593">
        <ele>39</ele>
        <time>2022-04-18T14:26:13.000Z</time>
      </trkpt>
      <trkpt lat="50.52724" lon="3.49585">
        <ele>39</ele>
        <time>2022-04-18T14:26:15.000Z</time>
      </trkpt>
      <trkpt lat="50.52723" lon="3.49574">
        <ele>39</ele>
        <time>2022-04-18T14:26:16.000Z</time>
      </trkpt>
      <trkpt lat="50.52722" lon="3.49559">
        <ele>39</ele>
        <time>2022-04-18T14:26:18.744Z</time>
      </trkpt>
      <trkpt lat="50.52721" lon="3.49552">
        <ele>39</ele>
        <time>2022-04-18T14:26:20.003Z</time>
      </trkpt>
      <trkpt lat="50.52717" lon="3.49542">
        <ele>38.8</ele>
        <time>2022-04-18T14:26:22.000Z</time>
      </trkpt>
      <trkpt lat="50.52714" lon="3.49534">
        <ele>38.7</ele>
        <time>2022-04-18T14:26:23.984Z</time>
      </trkpt>
      <trkpt lat="50.52706" lon="3.49517">
        <ele>38.4</ele>
        <time>2022-04-18T14:26:26.782Z</time>
      </trkpt>
      <trkpt lat="50.52703" lon="3.49511">
        <ele>38.3</ele>
        <time>2022-04-18T14:26:27.865Z</time>
      </trkpt>
      <trkpt lat="50.527" lon="3.49503">
        <ele>38.2</ele>
        <time>2022-04-18T14:26:29.886Z</time>
      </trkpt>
      <trkpt lat="50.52696" lon="3.49495">
        <ele>38</ele>
        <time>2022-04-18T14:26:31.000Z</time>
      </trkpt>
      <trkpt lat="50.52691" lon="3.49484">
        <ele>37.9</ele>
        <time>2022-04-18T14:26:33.000Z</time>
      </trkpt>
      <trkpt lat="50.52685" lon="3.49473">
        <ele>37.7</ele>
        <time>2022-04-18T14:26:35.000Z</time>
      </trkpt>
      <trkpt lat="50.52679" lon="3.49463">
        <ele>37.3</ele>
        <time>2022-04-18T14:26:37.000Z</time>
      </trkpt>
      <trkpt lat="50.52675" lon="3.49458">
        <ele>37.1</ele>
        <time>2022-04-18T14:26:38.000Z</time>
      </trkpt>
      <trkpt lat="50.52671" lon="3.49453">
        <ele>37</ele>
        <time>2022-04-18T14:26:39.000Z</time>
      </trkpt>
      <trkpt lat="50.52666" lon="3.49446">
        <ele>37</ele>
        <time>2022-04-18T14:26:40.000Z</time>
      </trkpt>
      <trkpt lat="50.52662" lon="3.49442">
        <ele>36.8</ele>
        <time>2022-04-18T14:26:41.000Z</time>
      </trkpt>
      <trkpt lat="50.52657" lon="3.49436">
        <ele>36.8</ele>
        <time>2022-04-18T14:26:42.000Z</time>
      </trkpt>
      <trkpt lat="50.52652" lon="3.49432">
        <ele>36.7</ele>
        <time>2022-04-18T14:26:43.000Z</time>
      </trkpt>
      <trkpt lat="50.52648" lon="3.49428">
        <ele>36.7</ele>
        <time>2022-04-18T14:26:44.000Z</time>
      </trkpt>
      <trkpt lat="50.52644" lon="3.49424">
        <ele>36.8</ele>
        <time>2022-04-18T14:26:45.000Z</time>
      </trkpt>
      <trkpt lat="50.5264" lon="3.4942">
        <ele>36.9</ele>
        <time>2022-04-18T14:26:46.000Z</time>
      </trkpt>
      <trkpt lat="50.52635" lon="3.49416">
        <ele>36.9</ele>
        <time>2022-04-18T14:26:47.000Z</time>
      </trkpt>
      <trkpt lat="50.52627" lon="3.4941">
        <ele>36.7</ele>
        <time>2022-04-18T14:26:49.000Z</time>
      </trkpt>
      <trkpt lat="50.52622" lon="3.49406">
        <ele>36.6</ele>
        <time>2022-04-18T14:26:51.000Z</time>
      </trkpt>
      <trkpt lat="50.52616" lon="3.49404">
        <ele>36.6</ele>
        <time>2022-04-18T14:27:14.958Z</time>
      </trkpt>
      <trkpt lat="50.52611" lon="3.49399">
        <ele>36.6</ele>
        <time>2022-04-18T14:27:17.314Z</time>
      </trkpt>
      <trkpt lat="50.52601" lon="3.4939">
        <ele>36.6</ele>
        <time>2022-04-18T14:27:19.476Z</time>
      </trkpt>
      <trkpt lat="50.52594" lon="3.49384">
        <ele>36.3</ele>
        <time>2022-04-18T14:27:20.696Z</time>
      </trkpt>
      <trkpt lat="50.52589" lon="3.49378">
        <ele>36.1</ele>
        <time>2022-04-18T14:27:21.775Z</time>
      </trkpt>
      <trkpt lat="50.52584" lon="3.49372">
        <ele>36</ele>
        <time>2022-04-18T14:27:22.896Z</time>
      </trkpt>
      <trkpt lat="50.52581" lon="3.49367">
        <ele>36</ele>
        <time>2022-04-18T14:27:24.000Z</time>
      </trkpt>
      <trkpt lat="50.52574" lon="3.4936">
        <ele>36</ele>
        <time>2022-04-18T14:27:25.000Z</time>
      </trkpt>
      <trkpt lat="50.5257" lon="3.49355">
        <ele>36.2</ele>
        <time>2022-04-18T14:27:26.000Z</time>
      </trkpt>
      <trkpt lat="50.52565" lon="3.4935">
        <ele>36.4</ele>
        <time>2022-04-18T14:27:27.219Z</time>
      </trkpt>
      <trkpt lat="50.52559" lon="3.49343">
        <ele>36.7</ele>
        <time>2022-04-18T14:27:28.495Z</time>
      </trkpt>
      <trkpt lat="50.52553" lon="3.49337">
        <ele>36.8</ele>
        <time>2022-04-18T14:27:30.759Z</time>
      </trkpt>
      <trkpt lat="50.52546" lon="3.49331">
        <ele>36.7</ele>
        <time>2022-04-18T14:27:31.876Z</time>
      </trkpt>
      <trkpt lat="50.52542" lon="3.49327">
        <ele>36.6</ele>
        <time>2022-04-18T14:27:33.000Z</time>
      </trkpt>
      <trkpt lat="50.52537" lon="3.49321">
        <ele>36.6</ele>
        <time>2022-04-18T14:27:34.000Z</time>
      </trkpt>
      <trkpt lat="50.52532" lon="3.49317">
        <ele>36.7</ele>
        <time>2022-04-18T14:27:35.313Z</time>
      </trkpt>
      <trkpt lat="50.52527" lon="3.49311">
        <ele>36.8</ele>
        <time>2022-04-18T14:27:37.000Z</time>
      </trkpt>
      <trkpt lat="50.52523" lon="3.49305">
        <ele>36.8</ele>
        <time>2022-04-18T14:27:38.556Z</time>
      </trkpt>
      <trkpt lat="50.52515" lon="3.49299">
        <ele>36.6</ele>
        <time>2022-04-18T14:27:39.879Z</time>
      </trkpt>
      <trkpt lat="50.52507" lon="3.49295">
        <ele>36.5</ele>
        <time>2022-04-18T14:27:42.114Z</time>
      </trkpt>
      <trkpt lat="50.525" lon="3.49288">
        <ele>36.6</ele>
        <time>2022-04-18T14:27:44.156Z</time>
      </trkpt>
      <trkpt lat="50.52495" lon="3.49285">
        <ele>36.7</ele>
        <time>2022-04-18T14:27:45.433Z</time>
      </trkpt>
      <trkpt lat="50.52489" lon="3.49281">
        <ele>36.9</ele>
        <time>2022-04-18T14:27:46.756Z</time>
      </trkpt>
      <trkpt lat="50.52483" lon="3.49277">
        <ele>37</ele>
        <time>2022-04-18T14:27:48.953Z</time>
      </trkpt>
      <trkpt lat="50.52479" lon="3.49273">
        <ele>37</ele>
        <time>2022-04-18T14:27:50.000Z</time>
      </trkpt>
      <trkpt lat="50.52473" lon="3.49269">
        <ele>37</ele>
        <time>2022-04-18T14:27:50.994Z</time>
      </trkpt>
      <trkpt lat="50.52466" lon="3.49264">
        <ele>37</ele>
        <time>2022-04-18T14:27:53.236Z</time>
      </trkpt>
      <trkpt lat="50.52461" lon="3.49261">
        <ele>37</ele>
        <time>2022-04-18T14:27:54.660Z</time>
      </trkpt>
      <trkpt lat="50.52452" lon="3.49254">
        <ele>37</ele>
        <time>2022-04-18T14:27:56.996Z</time>
      </trkpt>
      <trkpt lat="50.52448" lon="3.4925">
        <ele>37</ele>
        <time>2022-04-18T14:27:58.000Z</time>
      </trkpt>
      <trkpt lat="50.52443" lon="3.49246">
        <ele>36.9</ele>
        <time>2022-04-18T14:27:59.937Z</time>
      </trkpt>
      <trkpt lat="50.52438" lon="3.49242">
        <ele>36.8</ele>
        <time>2022-04-18T14:28:01.000Z</time>
      </trkpt>
      <trkpt lat="50.52433" lon="3.49238">
        <ele>36.6</ele>
        <time>2022-04-18T14:28:03.000Z</time>
      </trkpt>
      <trkpt lat="50.52428" lon="3.49234">
        <ele>36.4</ele>
        <time>2022-04-18T14:28:04.000Z</time>
      </trkpt>
      <trkpt lat="50.52423" lon="3.49228">
        <ele>36.2</ele>
        <time>2022-04-18T14:28:06.000Z</time>
      </trkpt>
      <trkpt lat="50.52416" lon="3.49221">
        <ele>36</ele>
        <time>2022-04-18T14:28:08.000Z</time>
      </trkpt>
      <trkpt lat="50.52411" lon="3.49217">
        <ele>36.1</ele>
        <time>2022-04-18T14:28:10.000Z</time>
      </trkpt>
      <trkpt lat="50.52406" lon="3.49212">
        <ele>36.2</ele>
        <time>2022-04-18T14:28:11.000Z</time>
      </trkpt>
      <trkpt lat="50.52401" lon="3.49206">
        <ele>36.3</ele>
        <time>2022-04-18T14:28:12.000Z</time>
      </trkpt>
      <trkpt lat="50.52399" lon="3.492">
        <ele>36.3</ele>
        <time>2022-04-18T14:28:13.852Z</time>
      </trkpt>
      <trkpt lat="50.52398" lon="3.49191">
        <ele>36.3</ele>
        <time>2022-04-18T14:28:14.976Z</time>
      </trkpt>
      <trkpt lat="50.52406" lon="3.49186">
        <ele>36.6</ele>
        <time>2022-04-18T14:28:17.000Z</time>
      </trkpt>
      <trkpt lat="50.52408" lon="3.49196">
        <ele>36.6</ele>
        <time>2022-04-18T14:28:19.000Z</time>
      </trkpt>
      <trkpt lat="50.52412" lon="3.49192">
        <ele>36.8</ele>
        <time>2022-04-18T14:28:22.000Z</time>
      </trkpt>
      <trkpt lat="50.52413" lon="3.49182">
        <ele>36.9</ele>
        <time>2022-04-18T14:28:26.097Z</time>
      </trkpt>
      <trkpt lat="50.52415" lon="3.49175">
        <ele>36.9</ele>
        <time>2022-04-18T14:28:27.805Z</time>
      </trkpt>
      <trkpt lat="50.52417" lon="3.49167">
        <ele>37</ele>
        <time>2022-04-18T14:28:30.000Z</time>
      </trkpt>
      <trkpt lat="50.52419" lon="3.49161">
        <ele>37</ele>
        <time>2022-04-18T14:28:31.000Z</time>
      </trkpt>
      <trkpt lat="50.52421" lon="3.49152">
        <ele>37</ele>
        <time>2022-04-18T14:28:32.736Z</time>
      </trkpt>
      <trkpt lat="50.52424" lon="3.49141">
        <ele>37</ele>
        <time>2022-04-18T14:28:35.000Z</time>
      </trkpt>
      <trkpt lat="50.52427" lon="3.4913">
        <ele>37</ele>
        <time>2022-04-18T14:28:37.000Z</time>
      </trkpt>
      <trkpt lat="50.5243" lon="3.49119">
        <ele>37</ele>
        <time>2022-04-18T14:28:39.000Z</time>
      </trkpt>
      <trkpt lat="50.52433" lon="3.49107">
        <ele>37.1</ele>
        <time>2022-04-18T14:28:41.317Z</time>
      </trkpt>
      <trkpt lat="50.52435" lon="3.49097">
        <ele>37.3</ele>
        <time>2022-04-18T14:28:43.474Z</time>
      </trkpt>
      <trkpt lat="50.52439" lon="3.49084">
        <ele>37.8</ele>
        <time>2022-04-18T14:28:46.000Z</time>
      </trkpt>
      <trkpt lat="50.52441" lon="3.49073">
        <ele>37.9</ele>
        <time>2022-04-18T14:28:48.000Z</time>
      </trkpt>
      <trkpt lat="50.52443" lon="3.49062">
        <ele>37.9</ele>
        <time>2022-04-18T14:28:50.096Z</time>
      </trkpt>
      <trkpt lat="50.52446" lon="3.49053">
        <ele>38.1</ele>
        <time>2022-04-18T14:28:52.054Z</time>
      </trkpt>
      <trkpt lat="50.5245" lon="3.49044">
        <ele>38.3</ele>
        <time>2022-04-18T14:28:54.134Z</time>
      </trkpt>
      <trkpt lat="50.52452" lon="3.49032">
        <ele>38.5</ele>
        <time>2022-04-18T14:28:56.000Z</time>
      </trkpt>
      <trkpt lat="50.52454" lon="3.49025">
        <ele>38.8</ele>
        <time>2022-04-18T14:28:57.000Z</time>
      </trkpt>
      <trkpt lat="50.52457" lon="3.49015">
        <ele>39.4</ele>
        <time>2022-04-18T14:29:00.000Z</time>
      </trkpt>
      <trkpt lat="50.52464" lon="3.49008">
        <ele>40.1</ele>
        <time>2022-04-18T14:29:02.994Z</time>
      </trkpt>
      <trkpt lat="50.52467" lon="3.49016">
        <ele>40</ele>
        <time>2022-04-18T14:29:04.935Z</time>
      </trkpt>
      <trkpt lat="50.52474" lon="3.49024">
        <ele>40.2</ele>
        <time>2022-04-18T14:29:09.148Z</time>
      </trkpt>
      <trkpt lat="50.52481" lon="3.49029">
        <ele>40.3</ele>
        <time>2022-04-18T14:29:11.938Z</time>
      </trkpt>
      <trkpt lat="50.52485" lon="3.49033">
        <ele>40.3</ele>
        <time>2022-04-18T14:29:13.935Z</time>
      </trkpt>
      <trkpt lat="50.5249" lon="3.49037">
        <ele>40.3</ele>
        <time>2022-04-18T14:29:15.097Z</time>
      </trkpt>
      <trkpt lat="50.52495" lon="3.49042">
        <ele>40.3</ele>
        <time>2022-04-18T14:29:17.000Z</time>
      </trkpt>
      <trkpt lat="50.525" lon="3.49045">
        <ele>40.4</ele>
        <time>2022-04-18T14:29:18.738Z</time>
      </trkpt>
      <trkpt lat="50.52504" lon="3.4905">
        <ele>40.3</ele>
        <time>2022-04-18T14:29:19.855Z</time>
      </trkpt>
      <trkpt lat="50.52509" lon="3.49055">
        <ele>40.3</ele>
        <time>2022-04-18T14:29:22.000Z</time>
      </trkpt>
      <trkpt lat="50.52516" lon="3.4906">
        <ele>40.5</ele>
        <time>2022-04-18T14:29:24.000Z</time>
      </trkpt>
      <trkpt lat="50.52521" lon="3.49064">
        <ele>40.5</ele>
        <time>2022-04-18T14:29:25.000Z</time>
      </trkpt>
      <trkpt lat="50.52525" lon="3.49067">
        <ele>40.5</ele>
        <time>2022-04-18T14:29:26.000Z</time>
      </trkpt>
      <trkpt lat="50.52529" lon="3.49072">
        <ele>40.4</ele>
        <time>2022-04-18T14:29:27.516Z</time>
      </trkpt>
      <trkpt lat="50.52536" lon="3.49078">
        <ele>40.2</ele>
        <time>2022-04-18T14:29:30.000Z</time>
      </trkpt>
      <trkpt lat="50.52547" lon="3.49083">
        <ele>40</ele>
        <time>2022-04-18T14:29:33.075Z</time>
      </trkpt>
      <trkpt lat="50.52551" lon="3.49088">
        <ele>39.8</ele>
        <time>2022-04-18T14:29:34.000Z</time>
      </trkpt>
      <trkpt lat="50.52556" lon="3.49095">
        <ele>39.6</ele>
        <time>2022-04-18T14:29:36.000Z</time>
      </trkpt>
      <trkpt lat="50.52562" lon="3.49102">
        <ele>39.5</ele>
        <time>2022-04-18T14:29:38.054Z</time>
      </trkpt>
      <trkpt lat="50.52567" lon="3.49108">
        <ele>39.5</ele>
        <time>2022-04-18T14:29:39.073Z</time>
      </trkpt>
      <trkpt lat="50.52571" lon="3.49113">
        <ele>39.5</ele>
        <time>2022-04-18T14:29:40.000Z</time>
      </trkpt>
      <trkpt lat="50.52577" lon="3.49119">
        <ele>39.6</ele>
        <time>2022-04-18T14:29:41.716Z</time>
      </trkpt>
      <trkpt lat="50.52582" lon="3.49124">
        <ele>39.5</ele>
        <time>2022-04-18T14:29:42.695Z</time>
      </trkpt>
      <trkpt lat="50.52591" lon="3.49134">
        <ele>39.2</ele>
        <time>2022-04-18T14:29:45.095Z</time>
      </trkpt>
      <trkpt lat="50.526" lon="3.49146">
        <ele>39</ele>
        <time>2022-04-18T14:29:48.073Z</time>
      </trkpt>
      <trkpt lat="50.52607" lon="3.49151">
        <ele>39</ele>
        <time>2022-04-18T14:29:50.058Z</time>
      </trkpt>
      <trkpt lat="50.52612" lon="3.49154">
        <ele>39</ele>
        <time>2022-04-18T14:29:51.000Z</time>
      </trkpt>
      <trkpt lat="50.5262" lon="3.49161">
        <ele>39.1</ele>
        <time>2022-04-18T14:29:53.000Z</time>
      </trkpt>
      <trkpt lat="50.52625" lon="3.49166">
        <ele>39</ele>
        <time>2022-04-18T14:29:54.000Z</time>
      </trkpt>
      <trkpt lat="50.5263" lon="3.4917">
        <ele>39</ele>
        <time>2022-04-18T14:29:55.000Z</time>
      </trkpt>
      <trkpt lat="50.52635" lon="3.49173">
        <ele>39</ele>
        <time>2022-04-18T14:29:56.360Z</time>
      </trkpt>
      <trkpt lat="50.52639" lon="3.49175">
        <ele>39</ele>
        <time>2022-04-18T14:29:57.337Z</time>
      </trkpt>
      <trkpt lat="50.52646" lon="3.49184">
        <ele>39</ele>
        <time>2022-04-18T14:29:59.877Z</time>
      </trkpt>
      <trkpt lat="50.52652" lon="3.49191">
        <ele>39</ele>
        <time>2022-04-18T14:30:02.000Z</time>
      </trkpt>
      <trkpt lat="50.52656" lon="3.49196">
        <ele>39</ele>
        <time>2022-04-18T14:30:05.000Z</time>
      </trkpt>
      <trkpt lat="50.5266" lon="3.49202">
        <ele>39</ele>
        <time>2022-04-18T14:30:11.000Z</time>
      </trkpt>
      <trkpt lat="50.52666" lon="3.49207">
        <ele>39</ele>
        <time>2022-04-18T14:30:14.051Z</time>
      </trkpt>
      <trkpt lat="50.52671" lon="3.49211">
        <ele>39</ele>
        <time>2022-04-18T14:30:15.796Z</time>
      </trkpt>
      <trkpt lat="50.5268" lon="3.4922">
        <ele>39</ele>
        <time>2022-04-18T14:30:18.000Z</time>
      </trkpt>
      <trkpt lat="50.5269" lon="3.49229">
        <ele>39</ele>
        <time>2022-04-18T14:30:20.054Z</time>
      </trkpt>
      <trkpt lat="50.52697" lon="3.49235">
        <ele>39</ele>
        <time>2022-04-18T14:30:21.000Z</time>
      </trkpt>
      <trkpt lat="50.52708" lon="3.49245">
        <ele>39</ele>
        <time>2022-04-18T14:30:23.000Z</time>
      </trkpt>
      <trkpt lat="50.52713" lon="3.4925">
        <ele>39</ele>
        <time>2022-04-18T14:30:24.000Z</time>
      </trkpt>
      <trkpt lat="50.52717" lon="3.49254">
        <ele>39</ele>
        <time>2022-04-18T14:30:25.000Z</time>
      </trkpt>
      <trkpt lat="50.5272" lon="3.49259">
        <ele>39</ele>
        <time>2022-04-18T14:30:26.000Z</time>
      </trkpt>
      <trkpt lat="50.52729" lon="3.49265">
        <ele>39</ele>
        <time>2022-04-18T14:30:28.597Z</time>
      </trkpt>
      <trkpt lat="50.52734" lon="3.49272">
        <ele>39</ele>
        <time>2022-04-18T14:30:29.919Z</time>
      </trkpt>
      <trkpt lat="50.52739" lon="3.4928">
        <ele>39</ele>
        <time>2022-04-18T14:30:32.000Z</time>
      </trkpt>
      <trkpt lat="50.52744" lon="3.49285">
        <ele>39</ele>
        <time>2022-04-18T14:30:34.000Z</time>
      </trkpt>
      <trkpt lat="50.52749" lon="3.4929">
        <ele>39</ele>
        <time>2022-04-18T14:30:35.000Z</time>
      </trkpt>
      <trkpt lat="50.52754" lon="3.49295">
        <ele>39.1</ele>
        <time>2022-04-18T14:30:37.438Z</time>
      </trkpt>
      <trkpt lat="50.52758" lon="3.493">
        <ele>39.3</ele>
        <time>2022-04-18T14:30:39.178Z</time>
      </trkpt>
      <trkpt lat="50.52763" lon="3.49304">
        <ele>39.5</ele>
        <time>2022-04-18T14:30:40.979Z</time>
      </trkpt>
      <trkpt lat="50.5277" lon="3.4931">
        <ele>39.7</ele>
        <time>2022-04-18T14:30:44.000Z</time>
      </trkpt>
      <trkpt lat="50.52777" lon="3.49315">
        <ele>40</ele>
        <time>2022-04-18T14:30:46.439Z</time>
      </trkpt>
      <trkpt lat="50.52783" lon="3.49319">
        <ele>40</ele>
        <time>2022-04-18T14:30:49.000Z</time>
      </trkpt>
      <trkpt lat="50.5279" lon="3.49326">
        <ele>40</ele>
        <time>2022-04-18T14:30:51.000Z</time>
      </trkpt>
      <trkpt lat="50.52797" lon="3.49333">
        <ele>40</ele>
        <time>2022-04-18T14:30:53.977Z</time>
      </trkpt>
      <trkpt lat="50.52803" lon="3.49336">
        <ele>40</ele>
        <time>2022-04-18T14:30:57.099Z</time>
      </trkpt>
      <trkpt lat="50.52808" lon="3.49342">
        <ele>40</ele>
        <time>2022-04-18T14:31:01.000Z</time>
      </trkpt>
      <trkpt lat="50.52814" lon="3.49347">
        <ele>40</ele>
        <time>2022-04-18T14:31:03.800Z</time>
      </trkpt>
      <trkpt lat="50.52819" lon="3.49353">
        <ele>40</ele>
        <time>2022-04-18T14:31:07.297Z</time>
      </trkpt>
      <trkpt lat="50.5282" lon="3.49363">
        <ele>40</ele>
        <time>2022-04-18T14:31:09.957Z</time>
      </trkpt>
      <trkpt lat="50.52816" lon="3.49372">
        <ele>39.8</ele>
        <time>2022-04-18T14:31:13.099Z</time>
      </trkpt>
      <trkpt lat="50.52811" lon="3.4938">
        <ele>39.5</ele>
        <time>2022-04-18T14:31:14.717Z</time>
      </trkpt>
      <trkpt lat="50.52807" lon="3.49387">
        <ele>39.1</ele>
        <time>2022-04-18T14:31:16.640Z</time>
      </trkpt>
      <trkpt lat="50.52803" lon="3.49392">
        <ele>39</ele>
        <time>2022-04-18T14:31:17.977Z</time>
      </trkpt>
      <trkpt lat="50.52798" lon="3.49402">
        <ele>39</ele>
        <time>2022-04-18T14:31:19.140Z</time>
      </trkpt>
      <trkpt lat="50.52794" lon="3.49409">
        <ele>39</ele>
        <time>2022-04-18T14:31:20.556Z</time>
      </trkpt>
      <trkpt lat="50.5279" lon="3.49415">
        <ele>39</ele>
        <time>2022-04-18T14:31:22.000Z</time>
      </trkpt>
      <trkpt lat="50.52785" lon="3.49421">
        <ele>39</ele>
        <time>2022-04-18T14:31:23.000Z</time>
      </trkpt>
      <trkpt lat="50.5278" lon="3.49427">
        <ele>39</ele>
        <time>2022-04-18T14:31:24.556Z</time>
      </trkpt>
      <trkpt lat="50.52774" lon="3.49437">
        <ele>38.9</ele>
        <time>2022-04-18T14:31:25.801Z</time>
      </trkpt>
      <trkpt lat="50.52765" lon="3.49451">
        <ele>38.6</ele>
        <time>2022-04-18T14:31:29.000Z</time>
      </trkpt>
      <trkpt lat="50.52761" lon="3.49457">
        <ele>38.7</ele>
        <time>2022-04-18T14:31:30.000Z</time>
      </trkpt>
      <trkpt lat="50.52757" lon="3.49462">
        <ele>38.7</ele>
        <time>2022-04-18T14:31:32.000Z</time>
      </trkpt>
      <trkpt lat="50.52751" lon="3.4947">
        <ele>38.9</ele>
        <time>2022-04-18T14:31:34.900Z</time>
      </trkpt>
      <trkpt lat="50.52747" lon="3.49478">
        <ele>38.9</ele>
        <time>2022-04-18T14:31:36.056Z</time>
      </trkpt>
      <trkpt lat="50.52741" lon="3.49486">
        <ele>38.8</ele>
        <time>2022-04-18T14:31:38.441Z</time>
      </trkpt>
      <trkpt lat="50.52737" lon="3.49494">
        <ele>38.9</ele>
        <time>2022-04-18T14:31:40.798Z</time>
      </trkpt>
      <trkpt lat="50.5273" lon="3.49499">
        <ele>39</ele>
        <time>2022-04-18T14:31:42.737Z</time>
      </trkpt>
      <trkpt lat="50.52723" lon="3.49509">
        <ele>39</ele>
        <time>2022-04-18T14:31:46.156Z</time>
      </trkpt>
      <trkpt lat="50.52718" lon="3.49516">
        <ele>38.8</ele>
        <time>2022-04-18T14:31:48.901Z</time>
      </trkpt>
      <trkpt lat="50.52714" lon="3.49522">
        <ele>38.7</ele>
        <time>2022-04-18T14:31:51.000Z</time>
      </trkpt>
      <trkpt lat="50.5271" lon="3.49532">
        <ele>38.6</ele>
        <time>2022-04-18T14:31:52.936Z</time>
      </trkpt>
      <trkpt lat="50.52704" lon="3.4954">
        <ele>38.3</ele>
        <time>2022-04-18T14:31:55.000Z</time>
      </trkpt>
      <trkpt lat="50.527" lon="3.49546">
        <ele>38.2</ele>
        <time>2022-04-18T14:31:56.979Z</time>
      </trkpt>
      <trkpt lat="50.52694" lon="3.49555">
        <ele>38</ele>
        <time>2022-04-18T14:31:59.041Z</time>
      </trkpt>
      <trkpt lat="50.52691" lon="3.49562">
        <ele>38</ele>
        <time>2022-04-18T14:32:01.000Z</time>
      </trkpt>
      <trkpt lat="50.52688" lon="3.4957">
        <ele>37.9</ele>
        <time>2022-04-18T14:32:03.000Z</time>
      </trkpt>
      <trkpt lat="50.52684" lon="3.49577">
        <ele>37.7</ele>
        <time>2022-04-18T14:32:04.000Z</time>
      </trkpt>
      <trkpt lat="50.52678" lon="3.49588">
        <ele>37.4</ele>
        <time>2022-04-18T14:32:06.000Z</time>
      </trkpt>
      <trkpt lat="50.52676" lon="3.49598">
        <ele>37.3</ele>
        <time>2022-04-18T14:32:08.020Z</time>
      </trkpt>
      <trkpt lat="50.52673" lon="3.49612">
        <ele>37.2</ele>
        <time>2022-04-18T14:32:11.000Z</time>
      </trkpt>
      <trkpt lat="50.52673" lon="3.49625">
        <ele>37.2</ele>
        <time>2022-04-18T14:32:13.777Z</time>
      </trkpt>
      <trkpt lat="50.52674" lon="3.49635">
        <ele>37.3</ele>
        <time>2022-04-18T14:32:16.058Z</time>
      </trkpt>
      <trkpt lat="50.52675" lon="3.4965">
        <ele>37.3</ele>
        <time>2022-04-18T14:32:18.258Z</time>
      </trkpt>
      <trkpt lat="50.52676" lon="3.49657">
        <ele>37.3</ele>
        <time>2022-04-18T14:32:19.396Z</time>
      </trkpt>
      <trkpt lat="50.52677" lon="3.49665">
        <ele>37.4</ele>
        <time>2022-04-18T14:32:20.661Z</time>
      </trkpt>
      <trkpt lat="50.52678" lon="3.49673">
        <ele>37.4</ele>
        <time>2022-04-18T14:32:21.960Z</time>
      </trkpt>
      <trkpt lat="50.52678" lon="3.49683">
        <ele>37.4</ele>
        <time>2022-04-18T14:32:24.059Z</time>
      </trkpt>
      <trkpt lat="50.52677" lon="3.49692">
        <ele>37.4</ele>
        <time>2022-04-18T14:32:26.000Z</time>
      </trkpt>
      <trkpt lat="50.52677" lon="3.49699">
        <ele>37.3</ele>
        <time>2022-04-18T14:32:27.159Z</time>
      </trkpt>
      <trkpt lat="50.52679" lon="3.49708">
        <ele>37.2</ele>
        <time>2022-04-18T14:32:28.496Z</time>
      </trkpt>
      <trkpt lat="50.52681" lon="3.49716">
        <ele>37.1</ele>
        <time>2022-04-18T14:32:30.000Z</time>
      </trkpt>
      <trkpt lat="50.52683" lon="3.49723">
        <ele>37</ele>
        <time>2022-04-18T14:32:31.000Z</time>
      </trkpt>
      <trkpt lat="50.52685" lon="3.4973">
        <ele>36.9</ele>
        <time>2022-04-18T14:32:32.000Z</time>
      </trkpt>
      <trkpt lat="50.52687" lon="3.49742">
        <ele>36.8</ele>
        <time>2022-04-18T14:32:34.000Z</time>
      </trkpt>
      <trkpt lat="50.5269" lon="3.49756">
        <ele>36.8</ele>
        <time>2022-04-18T14:32:36.000Z</time>
      </trkpt>
      <trkpt lat="50.52691" lon="3.49768">
        <ele>36.9</ele>
        <time>2022-04-18T14:32:38.077Z</time>
      </trkpt>
      <trkpt lat="50.52694" lon="3.49779">
        <ele>37</ele>
        <time>2022-04-18T14:32:40.000Z</time>
      </trkpt>
      <trkpt lat="50.52699" lon="3.49789">
        <ele>37</ele>
        <time>2022-04-18T14:32:42.000Z</time>
      </trkpt>
      <trkpt lat="50.52706" lon="3.49801">
        <ele>37</ele>
        <time>2022-04-18T14:32:44.136Z</time>
      </trkpt>
      <trkpt lat="50.52714" lon="3.49811">
        <ele>37</ele>
        <time>2022-04-18T14:32:46.000Z</time>
      </trkpt>
      <trkpt lat="50.52717" lon="3.49816">
        <ele>37</ele>
        <time>2022-04-18T14:32:47.699Z</time>
      </trkpt>
      <trkpt lat="50.52721" lon="3.49819">
        <ele>37</ele>
        <time>2022-04-18T14:32:48.799Z</time>
      </trkpt>
      <trkpt lat="50.52726" lon="3.49826">
        <ele>37</ele>
        <time>2022-04-18T14:32:51.000Z</time>
      </trkpt>
      <trkpt lat="50.52733" lon="3.49837">
        <ele>37</ele>
        <time>2022-04-18T14:32:54.000Z</time>
      </trkpt>
      <trkpt lat="50.5274" lon="3.49843">
        <ele>37</ele>
        <time>2022-04-18T14:32:56.799Z</time>
      </trkpt>
      <trkpt lat="50.5275" lon="3.49854">
        <ele>37</ele>
        <time>2022-04-18T14:33:00.000Z</time>
      </trkpt>
      <trkpt lat="50.52755" lon="3.49859">
        <ele>37.2</ele>
        <time>2022-04-18T14:33:02.000Z</time>
      </trkpt>
      <trkpt lat="50.52761" lon="3.49864">
        <ele>37.4</ele>
        <time>2022-04-18T14:33:04.136Z</time>
      </trkpt>
      <trkpt lat="50.52768" lon="3.49872">
        <ele>37.6</ele>
        <time>2022-04-18T14:33:07.000Z</time>
      </trkpt>
      <trkpt lat="50.52778" lon="3.4988">
        <ele>38</ele>
        <time>2022-04-18T14:33:10.000Z</time>
      </trkpt>
      <trkpt lat="50.52782" lon="3.49886">
        <ele>38.2</ele>
        <time>2022-04-18T14:33:12.000Z</time>
      </trkpt>
      <trkpt lat="50.52787" lon="3.49892">
        <ele>38.3</ele>
        <time>2022-04-18T14:33:14.960Z</time>
      </trkpt>
      <trkpt lat="50.52792" lon="3.499">
        <ele>38.3</ele>
        <time>2022-04-18T14:33:18.000Z</time>
      </trkpt>
      <trkpt lat="50.52795" lon="3.49907">
        <ele>38.2</ele>
        <time>2022-04-18T14:33:21.000Z</time>
      </trkpt>
      <trkpt lat="50.52798" lon="3.49913">
        <ele>38.1</ele>
        <time>2022-04-18T14:33:24.060Z</time>
      </trkpt>
      <trkpt lat="50.52802" lon="3.49909">
        <ele>38.2</ele>
        <time>2022-04-18T14:33:27.000Z</time>
      </trkpt>
      <trkpt lat="50.52806" lon="3.49902">
        <ele>38.5</ele>
        <time>2022-04-18T14:33:30.000Z</time>
      </trkpt>
      <trkpt lat="50.52809" lon="3.49891">
        <ele>38.9</ele>
        <time>2022-04-18T14:33:33.060Z</time>
      </trkpt>
      <trkpt lat="50.52808" lon="3.49882">
        <ele>39</ele>
        <time>2022-04-18T14:33:35.560Z</time>
      </trkpt>
      <trkpt lat="50.52805" lon="3.49874">
        <ele>39</ele>
        <time>2022-04-18T14:33:37.780Z</time>
      </trkpt>
      <trkpt lat="50.52802" lon="3.49867">
        <ele>38.9</ele>
        <time>2022-04-18T14:33:40.000Z</time>
      </trkpt>
      <trkpt lat="50.52803" lon="3.49878">
        <ele>38.9</ele>
        <time>2022-04-18T14:33:42.759Z</time>
      </trkpt>
      <trkpt lat="50.52806" lon="3.49883">
        <ele>39</ele>
        <time>2022-04-18T14:33:45.020Z</time>
      </trkpt>
      <trkpt lat="50.52809" lon="3.4989">
        <ele>39</ele>
        <time>2022-04-18T14:33:48.000Z</time>
      </trkpt>
      <trkpt lat="50.52814" lon="3.49898">
        <ele>38.8</ele>
        <time>2022-04-18T14:33:51.017Z</time>
      </trkpt>
      <trkpt lat="50.52816" lon="3.49906">
        <ele>38.6</ele>
        <time>2022-04-18T14:33:52.942Z</time>
      </trkpt>
      <trkpt lat="50.5282" lon="3.49916">
        <ele>38.5</ele>
        <time>2022-04-18T14:33:56.000Z</time>
      </trkpt>
      <trkpt lat="50.52825" lon="3.4992">
        <ele>38.7</ele>
        <time>2022-04-18T14:33:58.000Z</time>
      </trkpt>
      <trkpt lat="50.52831" lon="3.49919">
        <ele>38.9</ele>
        <time>2022-04-18T14:34:02.000Z</time>
      </trkpt>
      <trkpt lat="50.52836" lon="3.49921">
        <ele>39</ele>
        <time>2022-04-18T14:34:04.876Z</time>
      </trkpt>
      <trkpt lat="50.52841" lon="3.49918">
        <ele>39</ele>
        <time>2022-04-18T14:34:07.000Z</time>
      </trkpt>
      <trkpt lat="50.52845" lon="3.49914">
        <ele>39</ele>
        <time>2022-04-18T14:34:09.000Z</time>
      </trkpt>
      <trkpt lat="50.52855" lon="3.49904">
        <ele>39</ele>
        <time>2022-04-18T14:34:11.721Z</time>
      </trkpt>
      <trkpt lat="50.52862" lon="3.49899">
        <ele>39</ele>
        <time>2022-04-18T14:34:14.095Z</time>
      </trkpt>
      <trkpt lat="50.52865" lon="3.49894">
        <ele>39.1</ele>
        <time>2022-04-18T14:34:15.000Z</time>
      </trkpt>
      <trkpt lat="50.52873" lon="3.49887">
        <ele>39.4</ele>
        <time>2022-04-18T14:34:18.000Z</time>
      </trkpt>
      <trkpt lat="50.52878" lon="3.49883">
        <ele>39.6</ele>
        <time>2022-04-18T14:34:20.258Z</time>
      </trkpt>
      <trkpt lat="50.52885" lon="3.4988">
        <ele>39.9</ele>
        <time>2022-04-18T14:34:22.817Z</time>
      </trkpt>
      <trkpt lat="50.5289" lon="3.49879">
        <ele>40.1</ele>
        <time>2022-04-18T14:34:24.700Z</time>
      </trkpt>
      <trkpt lat="50.52897" lon="3.49878">
        <ele>41.1</ele>
        <time>2022-04-18T14:34:28.000Z</time>
      </trkpt>
      <trkpt lat="50.52897" lon="3.49868">
        <ele>41.3</ele>
        <time>2022-04-18T14:34:46.000Z</time>
      </trkpt>
      <trkpt lat="50.52901" lon="3.49861">
        <ele>42.2</ele>
        <time>2022-04-18T14:34:50.778Z</time>
      </trkpt>
      <trkpt lat="50.52906" lon="3.49861">
        <ele>43.1</ele>
        <time>2022-04-18T14:34:56.000Z</time>
      </trkpt>
      <trkpt lat="50.52913" lon="3.49861">
        <ele>44.3</ele>
        <time>2022-04-18T14:35:02.000Z</time>
      </trkpt>
      <trkpt lat="50.52918" lon="3.49863">
        <ele>45</ele>
        <time>2022-04-18T14:35:08.000Z</time>
      </trkpt>
      <trkpt lat="50.52923" lon="3.49861">
        <ele>45.4</ele>
        <time>2022-04-18T14:35:13.000Z</time>
      </trkpt>
      <trkpt lat="50.52927" lon="3.49859">
        <ele>45.5</ele>
        <time>2022-04-18T14:35:23.000Z</time>
      </trkpt>
      <trkpt lat="50.52932" lon="3.49855">
        <ele>45.6</ele>
        <time>2022-04-18T14:35:28.358Z</time>
      </trkpt>
      <trkpt lat="50.52938" lon="3.49851">
        <ele>45.9</ele>
        <time>2022-04-18T14:35:30.696Z</time>
      </trkpt>
      <trkpt lat="50.52945" lon="3.49843">
        <ele>46.3</ele>
        <time>2022-04-18T14:35:33.000Z</time>
      </trkpt>
      <trkpt lat="50.52951" lon="3.49835">
        <ele>46.3</ele>
        <time>2022-04-18T14:35:34.840Z</time>
      </trkpt>
      <trkpt lat="50.52955" lon="3.49833">
        <ele>46.3</ele>
        <time>2022-04-18T14:35:36.000Z</time>
      </trkpt>
      <trkpt lat="50.52962" lon="3.49833">
        <ele>46.6</ele>
        <time>2022-04-18T14:35:38.482Z</time>
      </trkpt>
      <trkpt lat="50.52966" lon="3.49828">
        <ele>46.5</ele>
        <time>2022-04-18T14:35:41.078Z</time>
      </trkpt>
      <trkpt lat="50.5297" lon="3.49821">
        <ele>46.4</ele>
        <time>2022-04-18T14:35:43.000Z</time>
      </trkpt>
      <trkpt lat="50.52975" lon="3.49818">
        <ele>46.9</ele>
        <time>2022-04-18T14:35:44.000Z</time>
      </trkpt>
      <trkpt lat="50.5298" lon="3.49813">
        <ele>47.5</ele>
        <time>2022-04-18T14:35:46.000Z</time>
      </trkpt>
      <trkpt lat="50.52985" lon="3.49804">
        <ele>48.2</ele>
        <time>2022-04-18T14:35:49.000Z</time>
      </trkpt>
      <trkpt lat="50.52989" lon="3.49797">
        <ele>48.6</ele>
        <time>2022-04-18T14:35:51.940Z</time>
      </trkpt>
      <trkpt lat="50.52995" lon="3.49786">
        <ele>49.3</ele>
        <time>2022-04-18T14:35:55.057Z</time>
      </trkpt>
      <trkpt lat="50.53" lon="3.49781">
        <ele>50.1</ele>
        <time>2022-04-18T14:35:57.000Z</time>
      </trkpt>
      <trkpt lat="50.53" lon="3.49771">
        <ele>50</ele>
        <time>2022-04-18T14:36:01.649Z</time>
      </trkpt>
      <trkpt lat="50.52999" lon="3.49761">
        <ele>49.8</ele>
        <time>2022-04-18T14:36:04.118Z</time>
      </trkpt>
      <trkpt lat="50.52998" lon="3.49753">
        <ele>49.5</ele>
        <time>2022-04-18T14:36:05.900Z</time>
      </trkpt>
      <trkpt lat="50.52999" lon="3.49744">
        <ele>50</ele>
        <time>2022-04-18T14:36:08.000Z</time>
      </trkpt>
      <trkpt lat="50.52999" lon="3.49736">
        <ele>50.3</ele>
        <time>2022-04-18T14:36:10.000Z</time>
      </trkpt>
      <trkpt lat="50.53" lon="3.49728">
        <ele>50.8</ele>
        <time>2022-04-18T14:36:21.577Z</time>
      </trkpt>
      <trkpt lat="50.53003" lon="3.4972">
        <ele>51.4</ele>
        <time>2022-04-18T14:36:26.000Z</time>
      </trkpt>
      <trkpt lat="50.53003" lon="3.49712">
        <ele>51.4</ele>
        <time>2022-04-18T14:36:37.000Z</time>
      </trkpt>
      <trkpt lat="50.53002" lon="3.49705">
        <ele>51.3</ele>
        <time>2022-04-18T14:36:42.884Z</time>
      </trkpt>
      <trkpt lat="50.52999" lon="3.49698">
        <ele>50.7</ele>
        <time>2022-04-18T14:36:46.000Z</time>
      </trkpt>
      <trkpt lat="50.52997" lon="3.49689">
        <ele>50.3</ele>
        <time>2022-04-18T14:36:50.000Z</time>
      </trkpt>
      <trkpt lat="50.52994" lon="3.49681">
        <ele>49.6</ele>
        <time>2022-04-18T14:36:57.437Z</time>
      </trkpt>
      <trkpt lat="50.52995" lon="3.4967">
        <ele>49.9</ele>
        <time>2022-04-18T14:37:01.096Z</time>
      </trkpt>
      <trkpt lat="50.52998" lon="3.49661">
        <ele>50.6</ele>
        <time>2022-04-18T14:37:02.897Z</time>
      </trkpt>
      <trkpt lat="50.53001" lon="3.49651">
        <ele>51.1</ele>
        <time>2022-04-18T14:37:05.000Z</time>
      </trkpt>
      <trkpt lat="50.53004" lon="3.49645">
        <ele>51.4</ele>
        <time>2022-04-18T14:37:07.000Z</time>
      </trkpt>
      <trkpt lat="50.53003" lon="3.49638">
        <ele>51.3</ele>
        <time>2022-04-18T14:37:08.939Z</time>
      </trkpt>
      <trkpt lat="50.53006" lon="3.49628">
        <ele>51.6</ele>
        <time>2022-04-18T14:37:12.080Z</time>
      </trkpt>
      <trkpt lat="50.53009" lon="3.49619">
        <ele>52</ele>
        <time>2022-04-18T14:37:14.000Z</time>
      </trkpt>
      <trkpt lat="50.53012" lon="3.49613">
        <ele>52.3</ele>
        <time>2022-04-18T14:37:16.000Z</time>
      </trkpt>
      <trkpt lat="50.53012" lon="3.49602">
        <ele>52.5</ele>
        <time>2022-04-18T14:37:21.000Z</time>
      </trkpt>
      <trkpt lat="50.53011" lon="3.49593">
        <ele>52.6</ele>
        <time>2022-04-18T14:37:24.142Z</time>
      </trkpt>
      <trkpt lat="50.53012" lon="3.49585">
        <ele>52.8</ele>
        <time>2022-04-18T14:37:25.959Z</time>
      </trkpt>
      <trkpt lat="50.53011" lon="3.49576">
        <ele>52.8</ele>
        <time>2022-04-18T14:37:28.000Z</time>
      </trkpt>
      <trkpt lat="50.53009" lon="3.49565">
        <ele>52.6</ele>
        <time>2022-04-18T14:37:30.959Z</time>
      </trkpt>
      <trkpt lat="50.53007" lon="3.49557">
        <ele>52.5</ele>
        <time>2022-04-18T14:37:34.156Z</time>
      </trkpt>
      <trkpt lat="50.53006" lon="3.49548">
        <ele>52.9</ele>
        <time>2022-04-18T14:37:36.981Z</time>
      </trkpt>
      <trkpt lat="50.53003" lon="3.49539">
        <ele>53.3</ele>
        <time>2022-04-18T14:37:39.000Z</time>
      </trkpt>
      <trkpt lat="50.53001" lon="3.49528">
        <ele>54</ele>
        <time>2022-04-18T14:37:42.000Z</time>
      </trkpt>
      <trkpt lat="50.52998" lon="3.4952">
        <ele>53.7</ele>
        <time>2022-04-18T14:37:44.216Z</time>
      </trkpt>
      <trkpt lat="50.52997" lon="3.49508">
        <ele>53.5</ele>
        <time>2022-04-18T14:37:46.637Z</time>
      </trkpt>
      <trkpt lat="50.52995" lon="3.49499">
        <ele>53.3</ele>
        <time>2022-04-18T14:37:49.000Z</time>
      </trkpt>
      <trkpt lat="50.52993" lon="3.4949">
        <ele>53.2</ele>
        <time>2022-04-18T14:37:51.000Z</time>
      </trkpt>
      <trkpt lat="50.52993" lon="3.49475">
        <ele>53.4</ele>
        <time>2022-04-18T14:37:53.699Z</time>
      </trkpt>
      <trkpt lat="50.52994" lon="3.49467">
        <ele>53.6</ele>
        <time>2022-04-18T14:37:55.558Z</time>
      </trkpt>
      <trkpt lat="50.52997" lon="3.49456">
        <ele>53.9</ele>
        <time>2022-04-18T14:37:58.000Z</time>
      </trkpt>
      <trkpt lat="50.53" lon="3.49444">
        <ele>54</ele>
        <time>2022-04-18T14:38:00.000Z</time>
      </trkpt>
      <trkpt lat="50.53007" lon="3.4943">
        <ele>54</ele>
        <time>2022-04-18T14:38:03.039Z</time>
      </trkpt>
      <trkpt lat="50.53003" lon="3.49415">
        <ele>54</ele>
        <time>2022-04-18T14:38:05.479Z</time>
      </trkpt>
      <trkpt lat="50.53001" lon="3.49407">
        <ele>54</ele>
        <time>2022-04-18T14:38:06.996Z</time>
      </trkpt>
      <trkpt lat="50.52999" lon="3.494">
        <ele>54</ele>
        <time>2022-04-18T14:38:09.000Z</time>
      </trkpt>
      <trkpt lat="50.52995" lon="3.49389">
        <ele>54</ele>
        <time>2022-04-18T14:38:11.000Z</time>
      </trkpt>
      <trkpt lat="50.52989" lon="3.49377">
        <ele>54</ele>
        <time>2022-04-18T14:38:13.620Z</time>
      </trkpt>
      <trkpt lat="50.52985" lon="3.4937">
        <ele>54</ele>
        <time>2022-04-18T14:38:15.000Z</time>
      </trkpt>
      <trkpt lat="50.5298" lon="3.49361">
        <ele>54</ele>
        <time>2022-04-18T14:38:16.938Z</time>
      </trkpt>
      <trkpt lat="50.52977" lon="3.49354">
        <ele>54</ele>
        <time>2022-04-18T14:38:18.000Z</time>
      </trkpt>
      <trkpt lat="50.52974" lon="3.49348">
        <ele>54</ele>
        <time>2022-04-18T14:38:19.000Z</time>
      </trkpt>
      <trkpt lat="50.52971" lon="3.49343">
        <ele>53.9</ele>
        <time>2022-04-18T14:38:20.000Z</time>
      </trkpt>
      <trkpt lat="50.52964" lon="3.49333">
        <ele>53.7</ele>
        <time>2022-04-18T14:38:22.756Z</time>
      </trkpt>
      <trkpt lat="50.52961" lon="3.49326">
        <ele>53.5</ele>
        <time>2022-04-18T14:38:24.000Z</time>
      </trkpt>
      <trkpt lat="50.52959" lon="3.49319">
        <ele>53.5</ele>
        <time>2022-04-18T14:38:25.000Z</time>
      </trkpt>
      <trkpt lat="50.52956" lon="3.49309">
        <ele>53.6</ele>
        <time>2022-04-18T14:38:27.000Z</time>
      </trkpt>
      <trkpt lat="50.52953" lon="3.49303">
        <ele>53.7</ele>
        <time>2022-04-18T14:38:28.121Z</time>
      </trkpt>
      <trkpt lat="50.52944" lon="3.49297">
        <ele>54</ele>
        <time>2022-04-18T14:38:31.000Z</time>
      </trkpt>
      <trkpt lat="50.52936" lon="3.49293">
        <ele>53.2</ele>
        <time>2022-04-18T14:38:34.036Z</time>
      </trkpt>
      <trkpt lat="50.52932" lon="3.49283">
        <ele>53.3</ele>
        <time>2022-04-18T14:38:36.000Z</time>
      </trkpt>
      <trkpt lat="50.52928" lon="3.49275">
        <ele>53.4</ele>
        <time>2022-04-18T14:38:38.000Z</time>
      </trkpt>
      <trkpt lat="50.5292" lon="3.49271">
        <ele>53.3</ele>
        <time>2022-04-18T14:38:40.678Z</time>
      </trkpt>
      <trkpt lat="50.52917" lon="3.49265">
        <ele>53.5</ele>
        <time>2022-04-18T14:38:41.920Z</time>
      </trkpt>
      <trkpt lat="50.52911" lon="3.49257">
        <ele>52.8</ele>
        <time>2022-04-18T14:38:43.899Z</time>
      </trkpt>
      <trkpt lat="50.52903" lon="3.49245">
        <ele>52.1</ele>
        <time>2022-04-18T14:38:46.781Z</time>
      </trkpt>
      <trkpt lat="50.52897" lon="3.49241">
        <ele>51.5</ele>
        <time>2022-04-18T14:38:48.000Z</time>
      </trkpt>
      <trkpt lat="50.52889" lon="3.49228">
        <ele>51.6</ele>
        <time>2022-04-18T14:38:50.000Z</time>
      </trkpt>
      <trkpt lat="50.52882" lon="3.49219">
        <ele>51.2</ele>
        <time>2022-04-18T14:38:52.000Z</time>
      </trkpt>
      <trkpt lat="50.52877" lon="3.49212">
        <ele>51</ele>
        <time>2022-04-18T14:38:53.000Z</time>
      </trkpt>
      <trkpt lat="50.52874" lon="3.49207">
        <ele>51</ele>
        <time>2022-04-18T14:38:54.000Z</time>
      </trkpt>
      <trkpt lat="50.5287" lon="3.49202">
        <ele>51</ele>
        <time>2022-04-18T14:38:55.000Z</time>
      </trkpt>
      <trkpt lat="50.52865" lon="3.49196">
        <ele>51.1</ele>
        <time>2022-04-18T14:38:56.000Z</time>
      </trkpt>
      <trkpt lat="50.52858" lon="3.4919">
        <ele>50.7</ele>
        <time>2022-04-18T14:38:58.000Z</time>
      </trkpt>
      <trkpt lat="50.52853" lon="3.49185">
        <ele>50.1</ele>
        <time>2022-04-18T14:38:59.000Z</time>
      </trkpt>
      <trkpt lat="50.52848" lon="3.49176">
        <ele>50.1</ele>
        <time>2022-04-18T14:39:01.000Z</time>
      </trkpt>
      <trkpt lat="50.52844" lon="3.49169">
        <ele>50.3</ele>
        <time>2022-04-18T14:39:02.000Z</time>
      </trkpt>
      <trkpt lat="50.52841" lon="3.49162">
        <ele>50.2</ele>
        <time>2022-04-18T14:39:05.000Z</time>
      </trkpt>
      <trkpt lat="50.5284" lon="3.49154">
        <ele>50.3</ele>
        <time>2022-04-18T14:39:07.132Z</time>
      </trkpt>
      <trkpt lat="50.52843" lon="3.49142">
        <ele>51</ele>
        <time>2022-04-18T14:39:10.128Z</time>
      </trkpt>
      <trkpt lat="50.52848" lon="3.49143">
        <ele>51.5</ele>
        <time>2022-04-18T14:39:11.768Z</time>
      </trkpt>
      <trkpt lat="50.52854" lon="3.49147">
        <ele>52.2</ele>
        <time>2022-04-18T14:39:15.000Z</time>
      </trkpt>
      <trkpt lat="50.52861" lon="3.49146">
        <ele>53</ele>
        <time>2022-04-18T14:39:18.000Z</time>
      </trkpt>
      <trkpt lat="50.52867" lon="3.49146">
        <ele>53</ele>
        <time>2022-04-18T14:39:19.110Z</time>
      </trkpt>
      <trkpt lat="50.52874" lon="3.49144">
        <ele>53</ele>
        <time>2022-04-18T14:39:21.849Z</time>
      </trkpt>
      <trkpt lat="50.52887" lon="3.49138">
        <ele>52.9</ele>
        <time>2022-04-18T14:39:25.026Z</time>
      </trkpt>
      <trkpt lat="50.52893" lon="3.49138">
        <ele>52.9</ele>
        <time>2022-04-18T14:39:26.469Z</time>
      </trkpt>
      <trkpt lat="50.529" lon="3.49136">
        <ele>52.8</ele>
        <time>2022-04-18T14:39:28.010Z</time>
      </trkpt>
      <trkpt lat="50.52906" lon="3.49132">
        <ele>52.7</ele>
        <time>2022-04-18T14:39:29.000Z</time>
      </trkpt>
      <trkpt lat="50.5291" lon="3.49125">
        <ele>52.6</ele>
        <time>2022-04-18T14:39:30.050Z</time>
      </trkpt>
      <trkpt lat="50.52914" lon="3.49116">
        <ele>52.8</ele>
        <time>2022-04-18T14:39:32.113Z</time>
      </trkpt>
      <trkpt lat="50.52919" lon="3.49107">
        <ele>53</ele>
        <time>2022-04-18T14:39:33.885Z</time>
      </trkpt>
      <trkpt lat="50.52922" lon="3.49102">
        <ele>53.1</ele>
        <time>2022-04-18T14:39:35.068Z</time>
      </trkpt>
      <trkpt lat="50.52927" lon="3.49093">
        <ele>53.1</ele>
        <time>2022-04-18T14:39:37.569Z</time>
      </trkpt>
      <trkpt lat="50.5293" lon="3.4908">
        <ele>52.7</ele>
        <time>2022-04-18T14:39:40.008Z</time>
      </trkpt>
      <trkpt lat="50.52934" lon="3.49074">
        <ele>52.7</ele>
        <time>2022-04-18T14:39:42.391Z</time>
      </trkpt>
      <trkpt lat="50.52933" lon="3.49065">
        <ele>52</ele>
        <time>2022-04-18T14:39:45.000Z</time>
      </trkpt>
      <trkpt lat="50.52935" lon="3.49052">
        <ele>51.7</ele>
        <time>2022-04-18T14:39:48.000Z</time>
      </trkpt>
      <trkpt lat="50.52938" lon="3.49041">
        <ele>52.2</ele>
        <time>2022-04-18T14:39:51.000Z</time>
      </trkpt>
      <trkpt lat="50.5294" lon="3.49032">
        <ele>52.5</ele>
        <time>2022-04-18T14:39:53.809Z</time>
      </trkpt>
      <trkpt lat="50.52941" lon="3.49025">
        <ele>52.7</ele>
        <time>2022-04-18T14:39:56.072Z</time>
      </trkpt>
      <trkpt lat="50.52943" lon="3.49017">
        <ele>53.2</ele>
        <time>2022-04-18T14:39:58.000Z</time>
      </trkpt>
      <trkpt lat="50.52944" lon="3.49008">
        <ele>53.7</ele>
        <time>2022-04-18T14:40:00.906Z</time>
      </trkpt>
      <trkpt lat="50.52946" lon="3.49001">
        <ele>53.9</ele>
        <time>2022-04-18T14:40:03.000Z</time>
      </trkpt>
      <trkpt lat="50.5295" lon="3.48993">
        <ele>53.6</ele>
        <time>2022-04-18T14:40:06.000Z</time>
      </trkpt>
      <trkpt lat="50.52951" lon="3.48983">
        <ele>53.3</ele>
        <time>2022-04-18T14:40:08.030Z</time>
      </trkpt>
      <trkpt lat="50.52952" lon="3.48975">
        <ele>53.1</ele>
        <time>2022-04-18T14:40:10.371Z</time>
      </trkpt>
      <trkpt lat="50.52951" lon="3.48962">
        <ele>52.7</ele>
        <time>2022-04-18T14:40:12.910Z</time>
      </trkpt>
      <trkpt lat="50.52949" lon="3.48951">
        <ele>52.4</ele>
        <time>2022-04-18T14:40:16.000Z</time>
      </trkpt>
      <trkpt lat="50.52944" lon="3.48947">
        <ele>52</ele>
        <time>2022-04-18T14:40:18.000Z</time>
      </trkpt>
      <trkpt lat="50.52946" lon="3.48938">
        <ele>52.1</ele>
        <time>2022-04-18T14:40:20.287Z</time>
      </trkpt>
      <trkpt lat="50.52948" lon="3.48927">
        <ele>52.1</ele>
        <time>2022-04-18T14:40:23.050Z</time>
      </trkpt>
      <trkpt lat="50.52945" lon="3.48922">
        <ele>52</ele>
        <time>2022-04-18T14:40:25.000Z</time>
      </trkpt>
      <trkpt lat="50.52939" lon="3.48921">
        <ele>51.1</ele>
        <time>2022-04-18T14:40:27.000Z</time>
      </trkpt>
      <trkpt lat="50.52936" lon="3.48916">
        <ele>50.4</ele>
        <time>2022-04-18T14:40:29.147Z</time>
      </trkpt>
      <trkpt lat="50.52934" lon="3.48907">
        <ele>49.1</ele>
        <time>2022-04-18T14:40:33.000Z</time>
      </trkpt>
      <trkpt lat="50.52936" lon="3.48899">
        <ele>48.6</ele>
        <time>2022-04-18T14:40:35.927Z</time>
      </trkpt>
      <trkpt lat="50.52934" lon="3.48893">
        <ele>47.6</ele>
        <time>2022-04-18T14:40:39.000Z</time>
      </trkpt>
      <trkpt lat="50.52933" lon="3.48882">
        <ele>46.3</ele>
        <time>2022-04-18T14:40:42.000Z</time>
      </trkpt>
      <trkpt lat="50.52927" lon="3.48876">
        <ele>44.8</ele>
        <time>2022-04-18T14:40:45.000Z</time>
      </trkpt>
      <trkpt lat="50.52922" lon="3.48875">
        <ele>43.9</ele>
        <time>2022-04-18T14:40:49.376Z</time>
      </trkpt>
      <trkpt lat="50.5292" lon="3.48868">
        <ele>43</ele>
        <time>2022-04-18T14:40:52.000Z</time>
      </trkpt>
      <trkpt lat="50.52924" lon="3.48862">
        <ele>43.1</ele>
        <time>2022-04-18T14:40:56.000Z</time>
      </trkpt>
      <trkpt lat="50.52927" lon="3.48853">
        <ele>42.9</ele>
        <time>2022-04-18T14:40:58.968Z</time>
      </trkpt>
      <trkpt lat="50.52924" lon="3.48844">
        <ele>42</ele>
        <time>2022-04-18T14:41:02.000Z</time>
      </trkpt>
      <trkpt lat="50.52927" lon="3.48835">
        <ele>41.5</ele>
        <time>2022-04-18T14:41:05.000Z</time>
      </trkpt>
      <trkpt lat="50.52931" lon="3.48825">
        <ele>41.1</ele>
        <time>2022-04-18T14:41:09.000Z</time>
      </trkpt>
      <trkpt lat="50.52934" lon="3.48819">
        <ele>40.8</ele>
        <time>2022-04-18T14:41:11.000Z</time>
      </trkpt>
      <trkpt lat="50.52939" lon="3.48808">
        <ele>40.2</ele>
        <time>2022-04-18T14:41:14.000Z</time>
      </trkpt>
      <trkpt lat="50.52943" lon="3.48797">
        <ele>39.7</ele>
        <time>2022-04-18T14:41:16.491Z</time>
      </trkpt>
      <trkpt lat="50.52945" lon="3.4879">
        <ele>39.5</ele>
        <time>2022-04-18T14:41:17.767Z</time>
      </trkpt>
      <trkpt lat="50.52946" lon="3.48777">
        <ele>39.1</ele>
        <time>2022-04-18T14:41:20.000Z</time>
      </trkpt>
      <trkpt lat="50.52945" lon="3.48767">
        <ele>39</ele>
        <time>2022-04-18T14:41:22.000Z</time>
      </trkpt>
      <trkpt lat="50.52947" lon="3.48756">
        <ele>39</ele>
        <time>2022-04-18T14:41:24.000Z</time>
      </trkpt>
      <trkpt lat="50.52948" lon="3.48748">
        <ele>39</ele>
        <time>2022-04-18T14:41:26.052Z</time>
      </trkpt>
      <trkpt lat="50.52952" lon="3.48738">
        <ele>39</ele>
        <time>2022-04-18T14:41:27.928Z</time>
      </trkpt>
      <trkpt lat="50.52955" lon="3.4873">
        <ele>39</ele>
        <time>2022-04-18T14:41:30.000Z</time>
      </trkpt>
      <trkpt lat="50.52957" lon="3.48723">
        <ele>39</ele>
        <time>2022-04-18T14:41:31.511Z</time>
      </trkpt>
      <trkpt lat="50.5296" lon="3.48715">
        <ele>39</ele>
        <time>2022-04-18T14:41:32.790Z</time>
      </trkpt>
      <trkpt lat="50.52963" lon="3.48709">
        <ele>39</ele>
        <time>2022-04-18T14:41:35.000Z</time>
      </trkpt>
      <trkpt lat="50.52966" lon="3.48701">
        <ele>39</ele>
        <time>2022-04-18T14:41:36.480Z</time>
      </trkpt>
      <trkpt lat="50.52968" lon="3.48694">
        <ele>39</ele>
        <time>2022-04-18T14:41:38.000Z</time>
      </trkpt>
      <trkpt lat="50.52971" lon="3.48682">
        <ele>39</ele>
        <time>2022-04-18T14:41:40.000Z</time>
      </trkpt>
      <trkpt lat="50.52973" lon="3.48673">
        <ele>39</ele>
        <time>2022-04-18T14:41:42.000Z</time>
      </trkpt>
      <trkpt lat="50.52975" lon="3.48666">
        <ele>39</ele>
        <time>2022-04-18T14:41:44.000Z</time>
      </trkpt>
      <trkpt lat="50.52978" lon="3.48653">
        <ele>39</ele>
        <time>2022-04-18T14:41:46.950Z</time>
      </trkpt>
      <trkpt lat="50.52981" lon="3.48645">
        <ele>39</ele>
        <time>2022-04-18T14:41:49.070Z</time>
      </trkpt>
      <trkpt lat="50.52985" lon="3.48634">
        <ele>39</ele>
        <time>2022-04-18T14:41:51.000Z</time>
      </trkpt>
      <trkpt lat="50.52986" lon="3.48624">
        <ele>39</ele>
        <time>2022-04-18T14:41:52.907Z</time>
      </trkpt>
      <trkpt lat="50.52986" lon="3.48615">
        <ele>39</ele>
        <time>2022-04-18T14:41:54.000Z</time>
      </trkpt>
      <trkpt lat="50.52987" lon="3.48608">
        <ele>39</ele>
        <time>2022-04-18T14:41:55.000Z</time>
      </trkpt>
      <trkpt lat="50.52989" lon="3.48597">
        <ele>39</ele>
        <time>2022-04-18T14:41:58.000Z</time>
      </trkpt>
      <trkpt lat="50.52992" lon="3.48592">
        <ele>39</ele>
        <time>2022-04-18T14:42:02.000Z</time>
      </trkpt>
      <trkpt lat="50.52996" lon="3.48584">
        <ele>39</ele>
        <time>2022-04-18T14:42:04.990Z</time>
      </trkpt>
      <trkpt lat="50.52999" lon="3.48573">
        <ele>39</ele>
        <time>2022-04-18T14:42:07.948Z</time>
      </trkpt>
      <trkpt lat="50.53003" lon="3.48561">
        <ele>39</ele>
        <time>2022-04-18T14:42:10.886Z</time>
      </trkpt>
      <trkpt lat="50.53006" lon="3.48553">
        <ele>39</ele>
        <time>2022-04-18T14:42:13.000Z</time>
      </trkpt>
      <trkpt lat="50.53009" lon="3.48547">
        <ele>39</ele>
        <time>2022-04-18T14:42:14.000Z</time>
      </trkpt>
      <trkpt lat="50.53013" lon="3.4854">
        <ele>39</ele>
        <time>2022-04-18T14:42:15.910Z</time>
      </trkpt>
      <trkpt lat="50.5302" lon="3.48527">
        <ele>39</ele>
        <time>2022-04-18T14:42:18.357Z</time>
      </trkpt>
      <trkpt lat="50.53024" lon="3.48518">
        <ele>39</ele>
        <time>2022-04-18T14:42:20.049Z</time>
      </trkpt>
      <trkpt lat="50.5303" lon="3.48507">
        <ele>38.9</ele>
        <time>2022-04-18T14:42:21.988Z</time>
      </trkpt>
      <trkpt lat="50.53037" lon="3.48501">
        <ele>38.7</ele>
        <time>2022-04-18T14:42:24.000Z</time>
      </trkpt>
      <trkpt lat="50.53043" lon="3.48497">
        <ele>38.5</ele>
        <time>2022-04-18T14:42:25.950Z</time>
      </trkpt>
      <trkpt lat="50.53047" lon="3.4849">
        <ele>38.6</ele>
        <time>2022-04-18T14:42:27.071Z</time>
      </trkpt>
      <trkpt lat="50.53051" lon="3.48482">
        <ele>38.7</ele>
        <time>2022-04-18T14:42:28.269Z</time>
      </trkpt>
      <trkpt lat="50.53053" lon="3.48474">
        <ele>38.9</ele>
        <time>2022-04-18T14:42:29.389Z</time>
      </trkpt>
      <trkpt lat="50.53056" lon="3.48464">
        <ele>38.7</ele>
        <time>2022-04-18T14:42:30.849Z</time>
      </trkpt>
      <trkpt lat="50.53062" lon="3.48445">
        <ele>38</ele>
        <time>2022-04-18T14:42:34.000Z</time>
      </trkpt>
      <trkpt lat="50.53065" lon="3.48438">
        <ele>38.2</ele>
        <time>2022-04-18T14:42:36.029Z</time>
      </trkpt>
      <trkpt lat="50.53067" lon="3.4843">
        <ele>38.3</ele>
        <time>2022-04-18T14:42:37.000Z</time>
      </trkpt>
      <trkpt lat="50.53069" lon="3.48418">
        <ele>38.5</ele>
        <time>2022-04-18T14:42:39.000Z</time>
      </trkpt>
      <trkpt lat="50.53069" lon="3.4841">
        <ele>38.4</ele>
        <time>2022-04-18T14:42:41.000Z</time>
      </trkpt>
      <trkpt lat="50.53064" lon="3.48413">
        <ele>38.7</ele>
        <time>2022-04-18T14:42:46.000Z</time>
      </trkpt>
      <trkpt lat="50.53064" lon="3.48404">
        <ele>38.6</ele>
        <time>2022-04-18T14:43:14.000Z</time>
      </trkpt>
      <trkpt lat="50.53065" lon="3.48397">
        <ele>38.4</ele>
        <time>2022-04-18T14:43:16.000Z</time>
      </trkpt>
      <trkpt lat="50.53065" lon="3.48388">
        <ele>38.3</ele>
        <time>2022-04-18T14:43:18.000Z</time>
      </trkpt>
      <trkpt lat="50.53063" lon="3.48377">
        <ele>38.5</ele>
        <time>2022-04-18T14:43:20.530Z</time>
      </trkpt>
      <trkpt lat="50.53062" lon="3.48364">
        <ele>38.5</ele>
        <time>2022-04-18T14:43:22.992Z</time>
      </trkpt>
      <trkpt lat="50.53059" lon="3.48357">
        <ele>38.6</ele>
        <time>2022-04-18T14:43:25.000Z</time>
      </trkpt>
      <trkpt lat="50.53056" lon="3.48348">
        <ele>38.5</ele>
        <time>2022-04-18T14:43:27.469Z</time>
      </trkpt>
      <trkpt lat="50.53054" lon="3.48338">
        <ele>38.2</ele>
        <time>2022-04-18T14:43:29.486Z</time>
      </trkpt>
      <trkpt lat="50.53054" lon="3.48327">
        <ele>38.1</ele>
        <time>2022-04-18T14:43:31.907Z</time>
      </trkpt>
      <trkpt lat="50.53053" lon="3.48314">
        <ele>38.1</ele>
        <time>2022-04-18T14:43:34.130Z</time>
      </trkpt>
      <trkpt lat="50.53054" lon="3.48305">
        <ele>38</ele>
        <time>2022-04-18T14:43:35.851Z</time>
      </trkpt>
      <trkpt lat="50.53054" lon="3.48296">
        <ele>37.7</ele>
        <time>2022-04-18T14:43:36.948Z</time>
      </trkpt>
      <trkpt lat="50.53053" lon="3.48271">
        <ele>37.1</ele>
        <time>2022-04-18T14:43:40.000Z</time>
      </trkpt>
      <trkpt lat="50.5305" lon="3.4826">
        <ele>37.2</ele>
        <time>2022-04-18T14:43:41.991Z</time>
      </trkpt>
      <trkpt lat="50.53049" lon="3.48246">
        <ele>37.1</ele>
        <time>2022-04-18T14:43:44.000Z</time>
      </trkpt>
      <trkpt lat="50.53048" lon="3.48238">
        <ele>37</ele>
        <time>2022-04-18T14:43:45.000Z</time>
      </trkpt>
      <trkpt lat="50.53048" lon="3.48227">
        <ele>36.7</ele>
        <time>2022-04-18T14:43:46.667Z</time>
      </trkpt>
      <trkpt lat="50.53049" lon="3.48218">
        <ele>36.5</ele>
        <time>2022-04-18T14:43:47.951Z</time>
      </trkpt>
      <trkpt lat="50.53051" lon="3.48209">
        <ele>36.3</ele>
        <time>2022-04-18T14:43:49.000Z</time>
      </trkpt>
      <trkpt lat="50.53057" lon="3.48201">
        <ele>35.9</ele>
        <time>2022-04-18T14:43:51.000Z</time>
      </trkpt>
      <trkpt lat="50.53061" lon="3.48196">
        <ele>35.8</ele>
        <time>2022-04-18T14:43:52.000Z</time>
      </trkpt>
      <trkpt lat="50.53068" lon="3.48189">
        <ele>35.7</ele>
        <time>2022-04-18T14:43:54.068Z</time>
      </trkpt>
      <trkpt lat="50.53075" lon="3.48183">
        <ele>35.9</ele>
        <time>2022-04-18T14:43:55.926Z</time>
      </trkpt>
      <trkpt lat="50.5308" lon="3.48178">
        <ele>36.2</ele>
        <time>2022-04-18T14:43:57.069Z</time>
      </trkpt>
      <trkpt lat="50.53084" lon="3.48174">
        <ele>36.4</ele>
        <time>2022-04-18T14:43:58.000Z</time>
      </trkpt>
      <trkpt lat="50.53087" lon="3.48169">
        <ele>36.6</ele>
        <time>2022-04-18T14:43:59.000Z</time>
      </trkpt>
      <trkpt lat="50.53094" lon="3.4816">
        <ele>36.9</ele>
        <time>2022-04-18T14:44:01.000Z</time>
      </trkpt>
      <trkpt lat="50.53098" lon="3.48151">
        <ele>37.7</ele>
        <time>2022-04-18T14:44:03.000Z</time>
      </trkpt>
      <trkpt lat="50.53101" lon="3.48142">
        <ele>38.6</ele>
        <time>2022-04-18T14:44:05.000Z</time>
      </trkpt>
      <trkpt lat="50.53105" lon="3.48132">
        <ele>39</ele>
        <time>2022-04-18T14:44:07.046Z</time>
      </trkpt>
      <trkpt lat="50.5311" lon="3.48128">
        <ele>39</ele>
        <time>2022-04-18T14:44:09.947Z</time>
      </trkpt>
      <trkpt lat="50.53114" lon="3.48118">
        <ele>38.5</ele>
        <time>2022-04-18T14:44:13.031Z</time>
      </trkpt>
      <trkpt lat="50.53116" lon="3.4811">
        <ele>38.1</ele>
        <time>2022-04-18T14:44:16.829Z</time>
      </trkpt>
      <trkpt lat="50.53117" lon="3.48103">
        <ele>38.1</ele>
        <time>2022-04-18T14:44:19.000Z</time>
      </trkpt>
      <trkpt lat="50.5312" lon="3.48096">
        <ele>37.7</ele>
        <time>2022-04-18T14:44:21.173Z</time>
      </trkpt>
      <trkpt lat="50.53122" lon="3.48089">
        <ele>37.7</ele>
        <time>2022-04-18T14:44:22.788Z</time>
      </trkpt>
      <trkpt lat="50.53125" lon="3.48081">
        <ele>37.6</ele>
        <time>2022-04-18T14:44:25.000Z</time>
      </trkpt>
      <trkpt lat="50.53126" lon="3.48074">
        <ele>37.8</ele>
        <time>2022-04-18T14:44:26.088Z</time>
      </trkpt>
      <trkpt lat="50.53127" lon="3.4806">
        <ele>38.2</ele>
        <time>2022-04-18T14:44:28.847Z</time>
      </trkpt>
      <trkpt lat="50.53129" lon="3.48051">
        <ele>38.6</ele>
        <time>2022-04-18T14:44:31.000Z</time>
      </trkpt>
      <trkpt lat="50.53131" lon="3.48041">
        <ele>39.2</ele>
        <time>2022-04-18T14:44:32.968Z</time>
      </trkpt>
      <trkpt lat="50.53134" lon="3.48034">
        <ele>39.6</ele>
        <time>2022-04-18T14:44:35.030Z</time>
      </trkpt>
      <trkpt lat="50.53136" lon="3.48024">
        <ele>40</ele>
        <time>2022-04-18T14:44:38.048Z</time>
      </trkpt>
      <trkpt lat="50.53136" lon="3.48014">
        <ele>40</ele>
        <time>2022-04-18T14:44:41.228Z</time>
      </trkpt>
      <trkpt lat="50.53134" lon="3.48004">
        <ele>40</ele>
        <time>2022-04-18T14:44:43.547Z</time>
      </trkpt>
      <trkpt lat="50.53134" lon="3.47995">
        <ele>40</ele>
        <time>2022-04-18T14:44:45.988Z</time>
      </trkpt>
      <trkpt lat="50.53135" lon="3.47986">
        <ele>40</ele>
        <time>2022-04-18T14:44:48.000Z</time>
      </trkpt>
      <trkpt lat="50.53137" lon="3.47975">
        <ele>40</ele>
        <time>2022-04-18T14:44:50.000Z</time>
      </trkpt>
      <trkpt lat="50.53138" lon="3.4796">
        <ele>40</ele>
        <time>2022-04-18T14:44:52.728Z</time>
      </trkpt>
      <trkpt lat="50.53138" lon="3.4795">
        <ele>40</ele>
        <time>2022-04-18T14:44:55.389Z</time>
      </trkpt>
      <trkpt lat="50.53138" lon="3.47939">
        <ele>40</ele>
        <time>2022-04-18T14:44:57.669Z</time>
      </trkpt>
      <trkpt lat="50.53134" lon="3.4794">
        <ele>40</ele>
        <time>2022-04-18T14:44:59.000Z</time>
      </trkpt>
      <trkpt lat="50.53135" lon="3.47948">
        <ele>40</ele>
        <time>2022-04-18T14:45:01.000Z</time>
      </trkpt>
      <trkpt lat="50.53139" lon="3.47952">
        <ele>40</ele>
        <time>2022-04-18T14:45:07.000Z</time>
      </trkpt>
      <trkpt lat="50.53147" lon="3.47953">
        <ele>38.5</ele>
        <time>2022-04-18T14:45:11.710Z</time>
      </trkpt>
      <trkpt lat="50.53151" lon="3.47958">
        <ele>37.8</ele>
        <time>2022-04-18T14:45:14.000Z</time>
      </trkpt>
      <trkpt lat="50.53144" lon="3.47934">
        <ele>39.1</ele>
        <time>2022-04-18T14:57:09.000Z</time>
      </trkpt>
      <trkpt lat="50.53143" lon="3.47922">
        <ele>39.4</ele>
        <time>2022-04-18T14:57:13.768Z</time>
      </trkpt>
      <trkpt lat="50.53144" lon="3.47914">
        <ele>39.3</ele>
        <time>2022-04-18T14:57:16.807Z</time>
      </trkpt>
      <trkpt lat="50.53146" lon="3.47903">
        <ele>39.4</ele>
        <time>2022-04-18T14:57:19.000Z</time>
      </trkpt>
      <trkpt lat="50.5315" lon="3.47897">
        <ele>39.2</ele>
        <time>2022-04-18T14:57:29.000Z</time>
      </trkpt>
      <trkpt lat="50.53155" lon="3.47894">
        <ele>39.1</ele>
        <time>2022-04-18T14:57:33.107Z</time>
      </trkpt>
      <trkpt lat="50.53158" lon="3.47878">
        <ele>39.6</ele>
        <time>2022-04-18T14:57:34.787Z</time>
      </trkpt>
      <trkpt lat="50.53161" lon="3.47862">
        <ele>40</ele>
        <time>2022-04-18T14:57:35.866Z</time>
      </trkpt>
      <trkpt lat="50.53166" lon="3.47853">
        <ele>40</ele>
        <time>2022-04-18T14:57:37.000Z</time>
      </trkpt>
      <trkpt lat="50.53169" lon="3.47849">
        <ele>39.7</ele>
        <time>2022-04-18T14:57:38.000Z</time>
      </trkpt>
      <trkpt lat="50.53175" lon="3.47843">
        <ele>39.2</ele>
        <time>2022-04-18T14:57:40.000Z</time>
      </trkpt>
      <trkpt lat="50.5318" lon="3.47838">
        <ele>39.1</ele>
        <time>2022-04-18T14:57:41.548Z</time>
      </trkpt>
      <trkpt lat="50.53187" lon="3.47831">
        <ele>39.3</ele>
        <time>2022-04-18T14:57:43.000Z</time>
      </trkpt>
      <trkpt lat="50.53193" lon="3.47823">
        <ele>39.4</ele>
        <time>2022-04-18T14:57:45.000Z</time>
      </trkpt>
      <trkpt lat="50.53197" lon="3.4781">
        <ele>39.6</ele>
        <time>2022-04-18T14:57:47.009Z</time>
      </trkpt>
      <trkpt lat="50.53197" lon="3.47796">
        <ele>39.8</ele>
        <time>2022-04-18T14:57:49.530Z</time>
      </trkpt>
      <trkpt lat="50.53193" lon="3.4778">
        <ele>40</ele>
        <time>2022-04-18T14:57:52.000Z</time>
      </trkpt>
      <trkpt lat="50.53189" lon="3.47775">
        <ele>40</ele>
        <time>2022-04-18T14:57:53.007Z</time>
      </trkpt>
      <trkpt lat="50.53185" lon="3.47769">
        <ele>39.9</ele>
        <time>2022-04-18T14:57:54.129Z</time>
      </trkpt>
      <trkpt lat="50.53181" lon="3.4776">
        <ele>39.7</ele>
        <time>2022-04-18T14:57:55.628Z</time>
      </trkpt>
      <trkpt lat="50.53177" lon="3.47755">
        <ele>39.5</ele>
        <time>2022-04-18T14:57:56.728Z</time>
      </trkpt>
      <trkpt lat="50.53173" lon="3.47746">
        <ele>39.3</ele>
        <time>2022-04-18T14:57:59.000Z</time>
      </trkpt>
      <trkpt lat="50.53169" lon="3.47737">
        <ele>39.5</ele>
        <time>2022-04-18T14:58:00.329Z</time>
      </trkpt>
      <trkpt lat="50.53164" lon="3.47729">
        <ele>39.8</ele>
        <time>2022-04-18T14:58:01.550Z</time>
      </trkpt>
      <trkpt lat="50.5316" lon="3.47723">
        <ele>40</ele>
        <time>2022-04-18T14:58:02.788Z</time>
      </trkpt>
      <trkpt lat="50.53156" lon="3.47715">
        <ele>39.8</ele>
        <time>2022-04-18T14:58:04.008Z</time>
      </trkpt>
      <trkpt lat="50.53153" lon="3.4771">
        <ele>39.8</ele>
        <time>2022-04-18T14:58:05.000Z</time>
      </trkpt>
      <trkpt lat="50.53146" lon="3.47701">
        <ele>39.8</ele>
        <time>2022-04-18T14:58:08.147Z</time>
      </trkpt>
      <trkpt lat="50.53141" lon="3.47698">
        <ele>39.9</ele>
        <time>2022-04-18T14:58:09.127Z</time>
      </trkpt>
      <trkpt lat="50.53139" lon="3.47691">
        <ele>40</ele>
        <time>2022-04-18T14:58:10.829Z</time>
      </trkpt>
      <trkpt lat="50.53135" lon="3.47682">
        <ele>40</ele>
        <time>2022-04-18T14:58:12.948Z</time>
      </trkpt>
      <trkpt lat="50.53131" lon="3.47678">
        <ele>40</ele>
        <time>2022-04-18T14:58:13.969Z</time>
      </trkpt>
      <trkpt lat="50.53128" lon="3.47671">
        <ele>40</ele>
        <time>2022-04-18T14:58:15.000Z</time>
      </trkpt>
      <trkpt lat="50.53119" lon="3.47663">
        <ele>40</ele>
        <time>2022-04-18T14:58:18.000Z</time>
      </trkpt>
      <trkpt lat="50.53111" lon="3.47653">
        <ele>40</ele>
        <time>2022-04-18T14:58:21.147Z</time>
      </trkpt>
      <trkpt lat="50.53106" lon="3.47646">
        <ele>40</ele>
        <time>2022-04-18T14:58:23.667Z</time>
      </trkpt>
      <trkpt lat="50.53102" lon="3.47641">
        <ele>40</ele>
        <time>2022-04-18T14:58:24.868Z</time>
      </trkpt>
      <trkpt lat="50.53095" lon="3.47634">
        <ele>40</ele>
        <time>2022-04-18T14:58:28.000Z</time>
      </trkpt>
      <trkpt lat="50.53089" lon="3.47629">
        <ele>40</ele>
        <time>2022-04-18T14:58:30.150Z</time>
      </trkpt>
      <trkpt lat="50.53083" lon="3.47624">
        <ele>40</ele>
        <time>2022-04-18T14:58:33.000Z</time>
      </trkpt>
      <trkpt lat="50.53078" lon="3.47619">
        <ele>40</ele>
        <time>2022-04-18T14:58:34.000Z</time>
      </trkpt>
      <trkpt lat="50.53074" lon="3.47613">
        <ele>40</ele>
        <time>2022-04-18T14:58:36.670Z</time>
      </trkpt>
      <trkpt lat="50.53067" lon="3.47606">
        <ele>40</ele>
        <time>2022-04-18T14:58:38.967Z</time>
      </trkpt>
      <trkpt lat="50.53062" lon="3.47602">
        <ele>40</ele>
        <time>2022-04-18T14:58:41.090Z</time>
      </trkpt>
      <trkpt lat="50.53058" lon="3.47597">
        <ele>40</ele>
        <time>2022-04-18T14:58:42.069Z</time>
      </trkpt>
      <trkpt lat="50.53052" lon="3.47595">
        <ele>40</ele>
        <time>2022-04-18T14:58:44.148Z</time>
      </trkpt>
      <trkpt lat="50.53043" lon="3.47594">
        <ele>40</ele>
        <time>2022-04-18T14:58:47.000Z</time>
      </trkpt>
      <trkpt lat="50.53037" lon="3.47593">
        <ele>40</ele>
        <time>2022-04-18T14:58:49.488Z</time>
      </trkpt>
      <trkpt lat="50.5303" lon="3.47588">
        <ele>40</ele>
        <time>2022-04-18T14:58:53.000Z</time>
      </trkpt>
      <trkpt lat="50.53024" lon="3.47583">
        <ele>39.9</ele>
        <time>2022-04-18T14:58:55.000Z</time>
      </trkpt>
      <trkpt lat="50.5302" lon="3.47579">
        <ele>39.7</ele>
        <time>2022-04-18T14:58:57.000Z</time>
      </trkpt>
      <trkpt lat="50.53016" lon="3.47575">
        <ele>39.6</ele>
        <time>2022-04-18T14:58:58.000Z</time>
      </trkpt>
      <trkpt lat="50.53012" lon="3.4757">
        <ele>39.4</ele>
        <time>2022-04-18T14:58:59.000Z</time>
      </trkpt>
      <trkpt lat="50.53007" lon="3.47565">
        <ele>39.3</ele>
        <time>2022-04-18T14:59:01.000Z</time>
      </trkpt>
      <trkpt lat="50.53" lon="3.47559">
        <ele>39</ele>
        <time>2022-04-18T14:59:03.327Z</time>
      </trkpt>
      <trkpt lat="50.52995" lon="3.47553">
        <ele>38.8</ele>
        <time>2022-04-18T14:59:04.446Z</time>
      </trkpt>
      <trkpt lat="50.52984" lon="3.47541">
        <ele>38.4</ele>
        <time>2022-04-18T14:59:07.031Z</time>
      </trkpt>
      <trkpt lat="50.52975" lon="3.47531">
        <ele>38.1</ele>
        <time>2022-04-18T14:59:08.107Z</time>
      </trkpt>
      <trkpt lat="50.52963" lon="3.47518">
        <ele>37.3</ele>
        <time>2022-04-18T14:59:10.000Z</time>
      </trkpt>
      <trkpt lat="50.52956" lon="3.47512">
        <ele>36.8</ele>
        <time>2022-04-18T14:59:11.000Z</time>
      </trkpt>
      <trkpt lat="50.52949" lon="3.47507">
        <ele>36.3</ele>
        <time>2022-04-18T14:59:12.000Z</time>
      </trkpt>
      <trkpt lat="50.52943" lon="3.47502">
        <ele>35.9</ele>
        <time>2022-04-18T14:59:13.000Z</time>
      </trkpt>
      <trkpt lat="50.52936" lon="3.47498">
        <ele>35.4</ele>
        <time>2022-04-18T14:59:14.000Z</time>
      </trkpt>
      <trkpt lat="50.52929" lon="3.47492">
        <ele>34.9</ele>
        <time>2022-04-18T14:59:15.000Z</time>
      </trkpt>
      <trkpt lat="50.52922" lon="3.47487">
        <ele>34.4</ele>
        <time>2022-04-18T14:59:16.000Z</time>
      </trkpt>
      <trkpt lat="50.52916" lon="3.47481">
        <ele>34</ele>
        <time>2022-04-18T14:59:17.000Z</time>
      </trkpt>
      <trkpt lat="50.52909" lon="3.47475">
        <ele>33.7</ele>
        <time>2022-04-18T14:59:18.000Z</time>
      </trkpt>
      <trkpt lat="50.52903" lon="3.47469">
        <ele>33.5</ele>
        <time>2022-04-18T14:59:19.000Z</time>
      </trkpt>
      <trkpt lat="50.52897" lon="3.47463">
        <ele>33.3</ele>
        <time>2022-04-18T14:59:20.000Z</time>
      </trkpt>
      <trkpt lat="50.5289" lon="3.47457">
        <ele>33</ele>
        <time>2022-04-18T14:59:21.000Z</time>
      </trkpt>
      <trkpt lat="50.52884" lon="3.47451">
        <ele>32.8</ele>
        <time>2022-04-18T14:59:22.000Z</time>
      </trkpt>
      <trkpt lat="50.52878" lon="3.47446">
        <ele>32.6</ele>
        <time>2022-04-18T14:59:23.000Z</time>
      </trkpt>
      <trkpt lat="50.52872" lon="3.47441">
        <ele>32.3</ele>
        <time>2022-04-18T14:59:24.000Z</time>
      </trkpt>
      <trkpt lat="50.52867" lon="3.47437">
        <ele>31.9</ele>
        <time>2022-04-18T14:59:25.000Z</time>
      </trkpt>
      <trkpt lat="50.52863" lon="3.47434">
        <ele>31.7</ele>
        <time>2022-04-18T14:59:26.000Z</time>
      </trkpt>
      <trkpt lat="50.52855" lon="3.47433">
        <ele>31.2</ele>
        <time>2022-04-18T14:59:28.000Z</time>
      </trkpt>
      <trkpt lat="50.52846" lon="3.47426">
        <ele>30.6</ele>
        <time>2022-04-18T14:59:30.000Z</time>
      </trkpt>
      <trkpt lat="50.52841" lon="3.47421">
        <ele>30.3</ele>
        <time>2022-04-18T14:59:31.000Z</time>
      </trkpt>
      <trkpt lat="50.52835" lon="3.47414">
        <ele>30.1</ele>
        <time>2022-04-18T14:59:32.000Z</time>
      </trkpt>
      <trkpt lat="50.52829" lon="3.47406">
        <ele>29.8</ele>
        <time>2022-04-18T14:59:33.000Z</time>
      </trkpt>
      <trkpt lat="50.52823" lon="3.474">
        <ele>29.4</ele>
        <time>2022-04-18T14:59:34.000Z</time>
      </trkpt>
      <trkpt lat="50.52818" lon="3.47394">
        <ele>29</ele>
        <time>2022-04-18T14:59:35.000Z</time>
      </trkpt>
      <trkpt lat="50.52812" lon="3.47388">
        <ele>28.5</ele>
        <time>2022-04-18T14:59:36.000Z</time>
      </trkpt>
      <trkpt lat="50.52806" lon="3.47382">
        <ele>28</ele>
        <time>2022-04-18T14:59:37.000Z</time>
      </trkpt>
      <trkpt lat="50.52799" lon="3.47374">
        <ele>27.8</ele>
        <time>2022-04-18T14:59:38.000Z</time>
      </trkpt>
      <trkpt lat="50.52793" lon="3.47367">
        <ele>27.5</ele>
        <time>2022-04-18T14:59:39.000Z</time>
      </trkpt>
      <trkpt lat="50.52787" lon="3.47361">
        <ele>27.3</ele>
        <time>2022-04-18T14:59:40.000Z</time>
      </trkpt>
      <trkpt lat="50.52781" lon="3.47355">
        <ele>27.1</ele>
        <time>2022-04-18T14:59:41.000Z</time>
      </trkpt>
      <trkpt lat="50.52776" lon="3.47348">
        <ele>26.9</ele>
        <time>2022-04-18T14:59:42.000Z</time>
      </trkpt>
      <trkpt lat="50.52769" lon="3.47341">
        <ele>26.7</ele>
        <time>2022-04-18T14:59:43.000Z</time>
      </trkpt>
      <trkpt lat="50.52764" lon="3.47334">
        <ele>26.5</ele>
        <time>2022-04-18T14:59:44.000Z</time>
      </trkpt>
      <trkpt lat="50.52757" lon="3.47326">
        <ele>26.2</ele>
        <time>2022-04-18T14:59:45.000Z</time>
      </trkpt>
      <trkpt lat="50.52752" lon="3.47319">
        <ele>26</ele>
        <time>2022-04-18T14:59:46.000Z</time>
      </trkpt>
      <trkpt lat="50.52747" lon="3.47312">
        <ele>26</ele>
        <time>2022-04-18T14:59:47.000Z</time>
      </trkpt>
      <trkpt lat="50.52741" lon="3.47306">
        <ele>26</ele>
        <time>2022-04-18T14:59:48.000Z</time>
      </trkpt>
      <trkpt lat="50.52736" lon="3.473">
        <ele>25.8</ele>
        <time>2022-04-18T14:59:49.000Z</time>
      </trkpt>
      <trkpt lat="50.52729" lon="3.4729">
        <ele>25.4</ele>
        <time>2022-04-18T14:59:50.000Z</time>
      </trkpt>
      <trkpt lat="50.52725" lon="3.47286">
        <ele>25.3</ele>
        <time>2022-04-18T14:59:51.000Z</time>
      </trkpt>
      <trkpt lat="50.52717" lon="3.47279">
        <ele>25</ele>
        <time>2022-04-18T14:59:52.000Z</time>
      </trkpt>
      <trkpt lat="50.52713" lon="3.47274">
        <ele>25</ele>
        <time>2022-04-18T14:59:53.000Z</time>
      </trkpt>
      <trkpt lat="50.52707" lon="3.47269">
        <ele>25</ele>
        <time>2022-04-18T14:59:54.000Z</time>
      </trkpt>
      <trkpt lat="50.527" lon="3.47261">
        <ele>25</ele>
        <time>2022-04-18T14:59:55.000Z</time>
      </trkpt>
      <trkpt lat="50.52696" lon="3.47257">
        <ele>25</ele>
        <time>2022-04-18T14:59:56.000Z</time>
      </trkpt>
      <trkpt lat="50.5269" lon="3.47249">
        <ele>25</ele>
        <time>2022-04-18T14:59:57.000Z</time>
      </trkpt>
      <trkpt lat="50.52685" lon="3.47243">
        <ele>24.8</ele>
        <time>2022-04-18T14:59:58.000Z</time>
      </trkpt>
      <trkpt lat="50.5268" lon="3.47237">
        <ele>24.8</ele>
        <time>2022-04-18T14:59:59.000Z</time>
      </trkpt>
      <trkpt lat="50.52676" lon="3.47232">
        <ele>24.8</ele>
        <time>2022-04-18T15:00:00.000Z</time>
      </trkpt>
      <trkpt lat="50.52668" lon="3.47225">
        <ele>25</ele>
        <time>2022-04-18T15:00:01.000Z</time>
      </trkpt>
      <trkpt lat="50.52664" lon="3.4722">
        <ele>24.9</ele>
        <time>2022-04-18T15:00:02.000Z</time>
      </trkpt>
      <trkpt lat="50.52658" lon="3.47213">
        <ele>24.7</ele>
        <time>2022-04-18T15:00:03.000Z</time>
      </trkpt>
      <trkpt lat="50.52653" lon="3.47208">
        <ele>24.5</ele>
        <time>2022-04-18T15:00:04.000Z</time>
      </trkpt>
      <trkpt lat="50.52648" lon="3.47203">
        <ele>24.3</ele>
        <time>2022-04-18T15:00:05.000Z</time>
      </trkpt>
      <trkpt lat="50.52643" lon="3.47198">
        <ele>24.1</ele>
        <time>2022-04-18T15:00:06.000Z</time>
      </trkpt>
      <trkpt lat="50.52638" lon="3.47193">
        <ele>24</ele>
        <time>2022-04-18T15:00:07.000Z</time>
      </trkpt>
      <trkpt lat="50.52633" lon="3.47187">
        <ele>24.2</ele>
        <time>2022-04-18T15:00:08.000Z</time>
      </trkpt>
      <trkpt lat="50.52626" lon="3.47179">
        <ele>24.5</ele>
        <time>2022-04-18T15:00:09.000Z</time>
      </trkpt>
      <trkpt lat="50.52622" lon="3.47174">
        <ele>24.6</ele>
        <time>2022-04-18T15:00:10.000Z</time>
      </trkpt>
      <trkpt lat="50.52618" lon="3.47169">
        <ele>24.8</ele>
        <time>2022-04-18T15:00:11.000Z</time>
      </trkpt>
      <trkpt lat="50.52613" lon="3.47164">
        <ele>24.8</ele>
        <time>2022-04-18T15:00:12.000Z</time>
      </trkpt>
      <trkpt lat="50.52608" lon="3.47159">
        <ele>24.7</ele>
        <time>2022-04-18T15:00:13.000Z</time>
      </trkpt>
      <trkpt lat="50.52603" lon="3.47153">
        <ele>24.5</ele>
        <time>2022-04-18T15:00:14.000Z</time>
      </trkpt>
      <trkpt lat="50.52599" lon="3.47148">
        <ele>24.3</ele>
        <time>2022-04-18T15:00:15.000Z</time>
      </trkpt>
      <trkpt lat="50.52593" lon="3.47143">
        <ele>24.1</ele>
        <time>2022-04-18T15:00:16.000Z</time>
      </trkpt>
      <trkpt lat="50.52588" lon="3.47144">
        <ele>24.2</ele>
        <time>2022-04-18T15:00:19.000Z</time>
      </trkpt>
      <trkpt lat="50.52587" lon="3.47152">
        <ele>24.5</ele>
        <time>2022-04-18T15:00:21.000Z</time>
      </trkpt>
      <trkpt lat="50.52586" lon="3.47158">
        <ele>24.7</ele>
        <time>2022-04-18T15:00:40.000Z</time>
      </trkpt>
      <trkpt lat="50.52582" lon="3.47166">
        <ele>24.9</ele>
        <time>2022-04-18T15:00:44.000Z</time>
      </trkpt>
      <trkpt lat="50.52577" lon="3.47177">
        <ele>24.8</ele>
        <time>2022-04-18T15:00:48.059Z</time>
      </trkpt>
      <trkpt lat="50.52574" lon="3.47185">
        <ele>24.7</ele>
        <time>2022-04-18T15:00:50.000Z</time>
      </trkpt>
      <trkpt lat="50.52571" lon="3.47192">
        <ele>24.6</ele>
        <time>2022-04-18T15:00:52.022Z</time>
      </trkpt>
      <trkpt lat="50.52568" lon="3.47198">
        <ele>24.5</ele>
        <time>2022-04-18T15:00:53.020Z</time>
      </trkpt>
      <trkpt lat="50.52563" lon="3.47206">
        <ele>24.5</ele>
        <time>2022-04-18T15:00:55.000Z</time>
      </trkpt>
      <trkpt lat="50.52561" lon="3.47212">
        <ele>24.6</ele>
        <time>2022-04-18T15:00:56.383Z</time>
      </trkpt>
      <trkpt lat="50.52557" lon="3.4722">
        <ele>24.9</ele>
        <time>2022-04-18T15:00:58.592Z</time>
      </trkpt>
      <trkpt lat="50.52554" lon="3.47226">
        <ele>25</ele>
        <time>2022-04-18T15:00:59.544Z</time>
      </trkpt>
      <trkpt lat="50.52549" lon="3.47235">
        <ele>25</ele>
        <time>2022-04-18T15:01:02.101Z</time>
      </trkpt>
      <trkpt lat="50.52545" lon="3.47245">
        <ele>25</ele>
        <time>2022-04-18T15:01:04.501Z</time>
      </trkpt>
      <trkpt lat="50.52542" lon="3.47253">
        <ele>25</ele>
        <time>2022-04-18T15:01:07.000Z</time>
      </trkpt>
      <trkpt lat="50.52539" lon="3.4726">
        <ele>25</ele>
        <time>2022-04-18T15:01:08.041Z</time>
      </trkpt>
      <trkpt lat="50.52536" lon="3.47266">
        <ele>25</ele>
        <time>2022-04-18T15:01:10.084Z</time>
      </trkpt>
      <trkpt lat="50.52532" lon="3.47275">
        <ele>25</ele>
        <time>2022-04-18T15:01:12.342Z</time>
      </trkpt>
      <trkpt lat="50.52529" lon="3.47282">
        <ele>25</ele>
        <time>2022-04-18T15:01:14.184Z</time>
      </trkpt>
      <trkpt lat="50.52526" lon="3.47288">
        <ele>25</ele>
        <time>2022-04-18T15:01:15.107Z</time>
      </trkpt>
      <trkpt lat="50.52523" lon="3.47296">
        <ele>25</ele>
        <time>2022-04-18T15:01:16.982Z</time>
      </trkpt>
      <trkpt lat="50.5252" lon="3.47303">
        <ele>25</ele>
        <time>2022-04-18T15:01:19.000Z</time>
      </trkpt>
      <trkpt lat="50.52516" lon="3.47311">
        <ele>25</ele>
        <time>2022-04-18T15:01:21.221Z</time>
      </trkpt>
      <trkpt lat="50.52513" lon="3.47317">
        <ele>25</ele>
        <time>2022-04-18T15:01:22.861Z</time>
      </trkpt>
      <trkpt lat="50.52508" lon="3.47325">
        <ele>25</ele>
        <time>2022-04-18T15:01:25.000Z</time>
      </trkpt>
      <trkpt lat="50.52504" lon="3.47336">
        <ele>25</ele>
        <time>2022-04-18T15:01:28.000Z</time>
      </trkpt>
      <trkpt lat="50.525" lon="3.47343">
        <ele>25</ele>
        <time>2022-04-18T15:01:29.982Z</time>
      </trkpt>
      <trkpt lat="50.52496" lon="3.47352">
        <ele>25</ele>
        <time>2022-04-18T15:01:32.781Z</time>
      </trkpt>
      <trkpt lat="50.52493" lon="3.47359">
        <ele>25</ele>
        <time>2022-04-18T15:01:34.172Z</time>
      </trkpt>
      <trkpt lat="50.52489" lon="3.47368">
        <ele>25.2</ele>
        <time>2022-04-18T15:01:36.820Z</time>
      </trkpt>
      <trkpt lat="50.52487" lon="3.47375">
        <ele>25.5</ele>
        <time>2022-04-18T15:01:39.000Z</time>
      </trkpt>
      <trkpt lat="50.52481" lon="3.47382">
        <ele>25.8</ele>
        <time>2022-04-18T15:01:42.000Z</time>
      </trkpt>
      <trkpt lat="50.52476" lon="3.47391">
        <ele>26</ele>
        <time>2022-04-18T15:01:45.000Z</time>
      </trkpt>
      <trkpt lat="50.52472" lon="3.47401">
        <ele>26</ele>
        <time>2022-04-18T15:01:47.461Z</time>
      </trkpt>
      <trkpt lat="50.52468" lon="3.47409">
        <ele>26</ele>
        <time>2022-04-18T15:01:49.501Z</time>
      </trkpt>
      <trkpt lat="50.52465" lon="3.47416">
        <ele>26</ele>
        <time>2022-04-18T15:01:51.000Z</time>
      </trkpt>
      <trkpt lat="50.52463" lon="3.47422">
        <ele>26</ele>
        <time>2022-04-18T15:01:53.000Z</time>
      </trkpt>
      <trkpt lat="50.52459" lon="3.47428">
        <ele>26</ele>
        <time>2022-04-18T15:01:54.083Z</time>
      </trkpt>
      <trkpt lat="50.52457" lon="3.47435">
        <ele>26</ele>
        <time>2022-04-18T15:01:56.244Z</time>
      </trkpt>
      <trkpt lat="50.52453" lon="3.47445">
        <ele>26</ele>
        <time>2022-04-18T15:01:58.501Z</time>
      </trkpt>
      <trkpt lat="50.52448" lon="3.47454">
        <ele>26</ele>
        <time>2022-04-18T15:02:01.000Z</time>
      </trkpt>
      <trkpt lat="50.52444" lon="3.47461">
        <ele>26</ele>
        <time>2022-04-18T15:02:03.000Z</time>
      </trkpt>
      <trkpt lat="50.52438" lon="3.4747">
        <ele>26</ele>
        <time>2022-04-18T15:02:05.901Z</time>
      </trkpt>
      <trkpt lat="50.52437" lon="3.47477">
        <ele>26</ele>
        <time>2022-04-18T15:02:08.384Z</time>
      </trkpt>
      <trkpt lat="50.52434" lon="3.47489">
        <ele>26</ele>
        <time>2022-04-18T15:02:11.624Z</time>
      </trkpt>
      <trkpt lat="50.52431" lon="3.47495">
        <ele>26</ele>
        <time>2022-04-18T15:02:13.000Z</time>
      </trkpt>
      <trkpt lat="50.52425" lon="3.47506">
        <ele>26</ele>
        <time>2022-04-18T15:02:16.164Z</time>
      </trkpt>
      <trkpt lat="50.52421" lon="3.47514">
        <ele>26</ele>
        <time>2022-04-18T15:02:17.983Z</time>
      </trkpt>
      <trkpt lat="50.52418" lon="3.47521">
        <ele>26</ele>
        <time>2022-04-18T15:02:19.901Z</time>
      </trkpt>
      <trkpt lat="50.52414" lon="3.47531">
        <ele>26</ele>
        <time>2022-04-18T15:02:22.000Z</time>
      </trkpt>
      <trkpt lat="50.52409" lon="3.47539">
        <ele>26.1</ele>
        <time>2022-04-18T15:02:24.000Z</time>
      </trkpt>
      <trkpt lat="50.52406" lon="3.47549">
        <ele>26.3</ele>
        <time>2022-04-18T15:02:25.922Z</time>
      </trkpt>
      <trkpt lat="50.52403" lon="3.47555">
        <ele>26.5</ele>
        <time>2022-04-18T15:02:28.000Z</time>
      </trkpt>
      <trkpt lat="50.524" lon="3.47562">
        <ele>26.7</ele>
        <time>2022-04-18T15:02:28.963Z</time>
      </trkpt>
      <trkpt lat="50.52398" lon="3.47568">
        <ele>26.8</ele>
        <time>2022-04-18T15:02:30.000Z</time>
      </trkpt>
      <trkpt lat="50.52395" lon="3.47574">
        <ele>26.9</ele>
        <time>2022-04-18T15:02:31.943Z</time>
      </trkpt>
      <trkpt lat="50.52391" lon="3.47583">
        <ele>27</ele>
        <time>2022-04-18T15:02:35.000Z</time>
      </trkpt>
      <trkpt lat="50.52387" lon="3.47592">
        <ele>27</ele>
        <time>2022-04-18T15:02:37.341Z</time>
      </trkpt>
      <trkpt lat="50.52383" lon="3.47602">
        <ele>26.9</ele>
        <time>2022-04-18T15:02:39.962Z</time>
      </trkpt>
      <trkpt lat="50.52379" lon="3.47609">
        <ele>27</ele>
        <time>2022-04-18T15:02:42.000Z</time>
      </trkpt>
      <trkpt lat="50.52375" lon="3.47616">
        <ele>26.9</ele>
        <time>2022-04-18T15:02:44.102Z</time>
      </trkpt>
      <trkpt lat="50.52373" lon="3.47623">
        <ele>26.8</ele>
        <time>2022-04-18T15:02:45.102Z</time>
      </trkpt>
      <trkpt lat="50.52369" lon="3.47633">
        <ele>26.4</ele>
        <time>2022-04-18T15:02:47.000Z</time>
      </trkpt>
      <trkpt lat="50.52362" lon="3.47643">
        <ele>26</ele>
        <time>2022-04-18T15:02:49.884Z</time>
      </trkpt>
      <trkpt lat="50.52357" lon="3.47653">
        <ele>26</ele>
        <time>2022-04-18T15:02:52.401Z</time>
      </trkpt>
      <trkpt lat="50.52352" lon="3.47665">
        <ele>26</ele>
        <time>2022-04-18T15:02:55.000Z</time>
      </trkpt>
      <trkpt lat="50.52349" lon="3.47671">
        <ele>26</ele>
        <time>2022-04-18T15:02:56.704Z</time>
      </trkpt>
      <trkpt lat="50.52345" lon="3.4768">
        <ele>26</ele>
        <time>2022-04-18T15:02:58.062Z</time>
      </trkpt>
      <trkpt lat="50.52341" lon="3.4769">
        <ele>26</ele>
        <time>2022-04-18T15:03:00.083Z</time>
      </trkpt>
      <trkpt lat="50.52338" lon="3.47699">
        <ele>26</ele>
        <time>2022-04-18T15:03:02.042Z</time>
      </trkpt>
      <trkpt lat="50.52334" lon="3.47706">
        <ele>26</ele>
        <time>2022-04-18T15:03:04.382Z</time>
      </trkpt>
      <trkpt lat="50.5233" lon="3.47714">
        <ele>26</ele>
        <time>2022-04-18T15:03:05.905Z</time>
      </trkpt>
      <trkpt lat="50.52326" lon="3.47722">
        <ele>26</ele>
        <time>2022-04-18T15:03:08.000Z</time>
      </trkpt>
      <trkpt lat="50.52322" lon="3.47729">
        <ele>26</ele>
        <time>2022-04-18T15:03:10.000Z</time>
      </trkpt>
      <trkpt lat="50.52318" lon="3.47739">
        <ele>26</ele>
        <time>2022-04-18T15:03:12.881Z</time>
      </trkpt>
      <trkpt lat="50.52314" lon="3.4775">
        <ele>26</ele>
        <time>2022-04-18T15:03:16.003Z</time>
      </trkpt>
      <trkpt lat="50.5231" lon="3.47759">
        <ele>26</ele>
        <time>2022-04-18T15:03:18.722Z</time>
      </trkpt>
      <trkpt lat="50.52305" lon="3.47768">
        <ele>26</ele>
        <time>2022-04-18T15:03:21.325Z</time>
      </trkpt>
      <trkpt lat="50.52302" lon="3.47777">
        <ele>26</ele>
        <time>2022-04-18T15:03:23.663Z</time>
      </trkpt>
      <trkpt lat="50.52298" lon="3.47785">
        <ele>26</ele>
        <time>2022-04-18T15:03:26.040Z</time>
      </trkpt>
      <trkpt lat="50.52294" lon="3.47793">
        <ele>26</ele>
        <time>2022-04-18T15:03:27.902Z</time>
      </trkpt>
      <trkpt lat="50.52291" lon="3.47802">
        <ele>26</ele>
        <time>2022-04-18T15:03:30.000Z</time>
      </trkpt>
      <trkpt lat="50.52288" lon="3.47809">
        <ele>26</ele>
        <time>2022-04-18T15:03:31.981Z</time>
      </trkpt>
      <trkpt lat="50.52285" lon="3.47817">
        <ele>26</ele>
        <time>2022-04-18T15:03:34.084Z</time>
      </trkpt>
      <trkpt lat="50.52281" lon="3.47824">
        <ele>26</ele>
        <time>2022-04-18T15:03:36.041Z</time>
      </trkpt>
      <trkpt lat="50.52277" lon="3.47833">
        <ele>26</ele>
        <time>2022-04-18T15:03:38.134Z</time>
      </trkpt>
      <trkpt lat="50.52274" lon="3.47839">
        <ele>26</ele>
        <time>2022-04-18T15:03:39.981Z</time>
      </trkpt>
      <trkpt lat="50.52271" lon="3.47845">
        <ele>26</ele>
        <time>2022-04-18T15:03:41.901Z</time>
      </trkpt>
      <trkpt lat="50.52267" lon="3.47853">
        <ele>26</ele>
        <time>2022-04-18T15:03:44.081Z</time>
      </trkpt>
      <trkpt lat="50.52262" lon="3.47864">
        <ele>26.1</ele>
        <time>2022-04-18T15:03:46.000Z</time>
      </trkpt>
      <trkpt lat="50.52258" lon="3.47874">
        <ele>26.3</ele>
        <time>2022-04-18T15:03:48.384Z</time>
      </trkpt>
      <trkpt lat="50.52253" lon="3.47883">
        <ele>26.7</ele>
        <time>2022-04-18T15:03:51.000Z</time>
      </trkpt>
      <trkpt lat="50.52249" lon="3.47892">
        <ele>27</ele>
        <time>2022-04-18T15:03:53.000Z</time>
      </trkpt>
      <trkpt lat="50.52246" lon="3.47898">
        <ele>26.9</ele>
        <time>2022-04-18T15:03:53.940Z</time>
      </trkpt>
      <trkpt lat="50.52243" lon="3.47906">
        <ele>26.7</ele>
        <time>2022-04-18T15:03:56.000Z</time>
      </trkpt>
      <trkpt lat="50.5224" lon="3.47912">
        <ele>26.6</ele>
        <time>2022-04-18T15:03:58.145Z</time>
      </trkpt>
      <trkpt lat="50.52235" lon="3.47923">
        <ele>26.6</ele>
        <time>2022-04-18T15:04:00.940Z</time>
      </trkpt>
      <trkpt lat="50.52232" lon="3.47931">
        <ele>26.7</ele>
        <time>2022-04-18T15:04:02.000Z</time>
      </trkpt>
      <trkpt lat="50.52228" lon="3.4794">
        <ele>26.9</ele>
        <time>2022-04-18T15:04:04.000Z</time>
      </trkpt>
      <trkpt lat="50.52224" lon="3.47947">
        <ele>27</ele>
        <time>2022-04-18T15:04:06.000Z</time>
      </trkpt>
      <trkpt lat="50.52221" lon="3.47953">
        <ele>27</ele>
        <time>2022-04-18T15:04:08.120Z</time>
      </trkpt>
      <trkpt lat="50.52218" lon="3.47961">
        <ele>27</ele>
        <time>2022-04-18T15:04:10.944Z</time>
      </trkpt>
      <trkpt lat="50.52215" lon="3.47967">
        <ele>27</ele>
        <time>2022-04-18T15:04:12.063Z</time>
      </trkpt>
      <trkpt lat="50.52213" lon="3.47973">
        <ele>27</ele>
        <time>2022-04-18T15:04:14.000Z</time>
      </trkpt>
      <trkpt lat="50.52209" lon="3.4798">
        <ele>27</ele>
        <time>2022-04-18T15:04:16.020Z</time>
      </trkpt>
      <trkpt lat="50.52204" lon="3.47988">
        <ele>27</ele>
        <time>2022-04-18T15:04:18.583Z</time>
      </trkpt>
      <trkpt lat="50.52199" lon="3.47996">
        <ele>27</ele>
        <time>2022-04-18T15:04:21.000Z</time>
      </trkpt>
      <trkpt lat="50.52195" lon="3.48006">
        <ele>27</ele>
        <time>2022-04-18T15:04:23.083Z</time>
      </trkpt>
      <trkpt lat="50.52192" lon="3.48014">
        <ele>26.9</ele>
        <time>2022-04-18T15:04:25.023Z</time>
      </trkpt>
      <trkpt lat="50.5219" lon="3.4802">
        <ele>26.8</ele>
        <time>2022-04-18T15:04:26.000Z</time>
      </trkpt>
      <trkpt lat="50.52186" lon="3.4803">
        <ele>26.7</ele>
        <time>2022-04-18T15:04:28.083Z</time>
      </trkpt>
      <trkpt lat="50.5218" lon="3.48041">
        <ele>26.7</ele>
        <time>2022-04-18T15:04:30.902Z</time>
      </trkpt>
      <trkpt lat="50.52173" lon="3.48055">
        <ele>27</ele>
        <time>2022-04-18T15:04:33.700Z</time>
      </trkpt>
      <trkpt lat="50.52171" lon="3.4806">
        <ele>26.9</ele>
        <time>2022-04-18T15:04:35.503Z</time>
      </trkpt>
      <trkpt lat="50.52167" lon="3.48067">
        <ele>26.6</ele>
        <time>2022-04-18T15:04:36.620Z</time>
      </trkpt>
      <trkpt lat="50.52163" lon="3.48076">
        <ele>26.2</ele>
        <time>2022-04-18T15:04:38.000Z</time>
      </trkpt>
      <trkpt lat="50.52158" lon="3.48086">
        <ele>26</ele>
        <time>2022-04-18T15:04:40.000Z</time>
      </trkpt>
      <trkpt lat="50.52155" lon="3.48094">
        <ele>26</ele>
        <time>2022-04-18T15:04:41.903Z</time>
      </trkpt>
      <trkpt lat="50.5215" lon="3.48104">
        <ele>26</ele>
        <time>2022-04-18T15:04:43.000Z</time>
      </trkpt>
      <trkpt lat="50.52146" lon="3.48111">
        <ele>26</ele>
        <time>2022-04-18T15:04:44.000Z</time>
      </trkpt>
      <trkpt lat="50.52143" lon="3.48118">
        <ele>26</ele>
        <time>2022-04-18T15:04:46.000Z</time>
      </trkpt>
      <trkpt lat="50.5214" lon="3.48124">
        <ele>26</ele>
        <time>2022-04-18T15:04:47.000Z</time>
      </trkpt>
      <trkpt lat="50.52137" lon="3.48132">
        <ele>26</ele>
        <time>2022-04-18T15:04:48.905Z</time>
      </trkpt>
      <trkpt lat="50.52134" lon="3.48139">
        <ele>26</ele>
        <time>2022-04-18T15:04:50.000Z</time>
      </trkpt>
      <trkpt lat="50.52129" lon="3.48152">
        <ele>26</ele>
        <time>2022-04-18T15:04:52.000Z</time>
      </trkpt>
      <trkpt lat="50.52123" lon="3.48162">
        <ele>26</ele>
        <time>2022-04-18T15:04:55.000Z</time>
      </trkpt>
      <trkpt lat="50.52119" lon="3.48172">
        <ele>26</ele>
        <time>2022-04-18T15:04:57.000Z</time>
      </trkpt>
      <trkpt lat="50.52115" lon="3.4818">
        <ele>26</ele>
        <time>2022-04-18T15:04:59.000Z</time>
      </trkpt>
      <trkpt lat="50.52112" lon="3.48187">
        <ele>26</ele>
        <time>2022-04-18T15:05:00.000Z</time>
      </trkpt>
      <trkpt lat="50.52107" lon="3.48199">
        <ele>26</ele>
        <time>2022-04-18T15:05:02.000Z</time>
      </trkpt>
      <trkpt lat="50.52104" lon="3.48204">
        <ele>26</ele>
        <time>2022-04-18T15:05:03.000Z</time>
      </trkpt>
      <trkpt lat="50.521" lon="3.48212">
        <ele>26</ele>
        <time>2022-04-18T15:05:04.779Z</time>
      </trkpt>
      <trkpt lat="50.52096" lon="3.48219">
        <ele>26</ele>
        <time>2022-04-18T15:05:06.120Z</time>
      </trkpt>
      <trkpt lat="50.52093" lon="3.48225">
        <ele>26.1</ele>
        <time>2022-04-18T15:05:08.003Z</time>
      </trkpt>
      <trkpt lat="50.5209" lon="3.48236">
        <ele>26.4</ele>
        <time>2022-04-18T15:05:10.000Z</time>
      </trkpt>
      <trkpt lat="50.52087" lon="3.48242">
        <ele>26.6</ele>
        <time>2022-04-18T15:05:11.803Z</time>
      </trkpt>
      <trkpt lat="50.52083" lon="3.48248">
        <ele>26.9</ele>
        <time>2022-04-18T15:05:14.000Z</time>
      </trkpt>
      <trkpt lat="50.52078" lon="3.48257">
        <ele>26.7</ele>
        <time>2022-04-18T15:05:16.103Z</time>
      </trkpt>
      <trkpt lat="50.52075" lon="3.48262">
        <ele>26.5</ele>
        <time>2022-04-18T15:05:18.002Z</time>
      </trkpt>
      <trkpt lat="50.52072" lon="3.48271">
        <ele>26.5</ele>
        <time>2022-04-18T15:05:20.141Z</time>
      </trkpt>
      <trkpt lat="50.52069" lon="3.48281">
        <ele>26.6</ele>
        <time>2022-04-18T15:05:22.000Z</time>
      </trkpt>
      <trkpt lat="50.52065" lon="3.48289">
        <ele>26.8</ele>
        <time>2022-04-18T15:05:24.522Z</time>
      </trkpt>
      <trkpt lat="50.52062" lon="3.48295">
        <ele>26.9</ele>
        <time>2022-04-18T15:05:26.980Z</time>
      </trkpt>
      <trkpt lat="50.52057" lon="3.48304">
        <ele>27</ele>
        <time>2022-04-18T15:05:29.000Z</time>
      </trkpt>
      <trkpt lat="50.52054" lon="3.4831">
        <ele>27</ele>
        <time>2022-04-18T15:05:31.042Z</time>
      </trkpt>
      <trkpt lat="50.52048" lon="3.48322">
        <ele>27</ele>
        <time>2022-04-18T15:05:34.000Z</time>
      </trkpt>
      <trkpt lat="50.52045" lon="3.48329">
        <ele>27</ele>
        <time>2022-04-18T15:05:36.105Z</time>
      </trkpt>
      <trkpt lat="50.52042" lon="3.48336">
        <ele>27</ele>
        <time>2022-04-18T15:05:37.583Z</time>
      </trkpt>
      <trkpt lat="50.52037" lon="3.48344">
        <ele>27.3</ele>
        <time>2022-04-18T15:05:40.000Z</time>
      </trkpt>
      <trkpt lat="50.52034" lon="3.48351">
        <ele>27.5</ele>
        <time>2022-04-18T15:05:42.607Z</time>
      </trkpt>
      <trkpt lat="50.52031" lon="3.48359">
        <ele>27.8</ele>
        <time>2022-04-18T15:05:45.000Z</time>
      </trkpt>
      <trkpt lat="50.52028" lon="3.48366">
        <ele>28</ele>
        <time>2022-04-18T15:05:47.000Z</time>
      </trkpt>
      <trkpt lat="50.52027" lon="3.48373">
        <ele>28</ele>
        <time>2022-04-18T15:05:48.881Z</time>
      </trkpt>
      <trkpt lat="50.52023" lon="3.48381">
        <ele>28</ele>
        <time>2022-04-18T15:05:51.614Z</time>
      </trkpt>
      <trkpt lat="50.52019" lon="3.48389">
        <ele>28</ele>
        <time>2022-04-18T15:05:54.000Z</time>
      </trkpt>
      <trkpt lat="50.52017" lon="3.48394">
        <ele>28</ele>
        <time>2022-04-18T15:05:55.962Z</time>
      </trkpt>
      <trkpt lat="50.52016" lon="3.48403">
        <ele>28</ele>
        <time>2022-04-18T15:05:57.000Z</time>
      </trkpt>
      <trkpt lat="50.52023" lon="3.48411">
        <ele>28</ele>
        <time>2022-04-18T15:06:00.783Z</time>
      </trkpt>
      <trkpt lat="50.52027" lon="3.48417">
        <ele>28</ele>
        <time>2022-04-18T15:06:03.171Z</time>
      </trkpt>
      <trkpt lat="50.52032" lon="3.48422">
        <ele>28.2</ele>
        <time>2022-04-18T15:06:05.681Z</time>
      </trkpt>
      <trkpt lat="50.52037" lon="3.48428">
        <ele>28.4</ele>
        <time>2022-04-18T15:06:08.000Z</time>
      </trkpt>
      <trkpt lat="50.52041" lon="3.48431">
        <ele>28.5</ele>
        <time>2022-04-18T15:06:11.000Z</time>
      </trkpt>
      <trkpt lat="50.52045" lon="3.48437">
        <ele>28.7</ele>
        <time>2022-04-18T15:06:14.000Z</time>
      </trkpt>
      <trkpt lat="50.52051" lon="3.48442">
        <ele>28.9</ele>
        <time>2022-04-18T15:06:15.923Z</time>
      </trkpt>
      <trkpt lat="50.52054" lon="3.48447">
        <ele>29</ele>
        <time>2022-04-18T15:06:18.000Z</time>
      </trkpt>
      <trkpt lat="50.5206" lon="3.48455">
        <ele>29</ele>
        <time>2022-04-18T15:06:19.924Z</time>
      </trkpt>
      <trkpt lat="50.52065" lon="3.48461">
        <ele>29</ele>
        <time>2022-04-18T15:06:22.149Z</time>
      </trkpt>
      <trkpt lat="50.5207" lon="3.48465">
        <ele>29</ele>
        <time>2022-04-18T15:06:23.464Z</time>
      </trkpt>
      <trkpt lat="50.52073" lon="3.48469">
        <ele>29</ele>
        <time>2022-04-18T15:06:24.683Z</time>
      </trkpt>
      <trkpt lat="50.52078" lon="3.48474">
        <ele>29.1</ele>
        <time>2022-04-18T15:06:27.000Z</time>
      </trkpt>
      <trkpt lat="50.52086" lon="3.48483">
        <ele>29.4</ele>
        <time>2022-04-18T15:06:28.945Z</time>
      </trkpt>
      <trkpt lat="50.52089" lon="3.48487">
        <ele>29.4</ele>
        <time>2022-04-18T15:06:30.403Z</time>
      </trkpt>
      <trkpt lat="50.52096" lon="3.48494">
        <ele>29.4</ele>
        <time>2022-04-18T15:06:32.721Z</time>
      </trkpt>
      <trkpt lat="50.52102" lon="3.48503">
        <ele>29.4</ele>
        <time>2022-04-18T15:06:34.983Z</time>
      </trkpt>
      <trkpt lat="50.52109" lon="3.4851">
        <ele>29.4</ele>
        <time>2022-04-18T15:06:36.000Z</time>
      </trkpt>
      <trkpt lat="50.52113" lon="3.48516">
        <ele>29.6</ele>
        <time>2022-04-18T15:06:38.000Z</time>
      </trkpt>
      <trkpt lat="50.52117" lon="3.48521">
        <ele>29.8</ele>
        <time>2022-04-18T15:06:38.943Z</time>
      </trkpt>
      <trkpt lat="50.52121" lon="3.48525">
        <ele>29.9</ele>
        <time>2022-04-18T15:06:40.000Z</time>
      </trkpt>
      <trkpt lat="50.52128" lon="3.48532">
        <ele>30</ele>
        <time>2022-04-18T15:06:43.009Z</time>
      </trkpt>
      <trkpt lat="50.52133" lon="3.48536">
        <ele>30</ele>
        <time>2022-04-18T15:06:45.143Z</time>
      </trkpt>
      <trkpt lat="50.52136" lon="3.4854">
        <ele>30</ele>
        <time>2022-04-18T15:06:46.142Z</time>
      </trkpt>
      <trkpt lat="50.52143" lon="3.48548">
        <ele>30</ele>
        <time>2022-04-18T15:06:48.881Z</time>
      </trkpt>
      <trkpt lat="50.52147" lon="3.48553">
        <ele>30</ele>
        <time>2022-04-18T15:06:50.000Z</time>
      </trkpt>
      <trkpt lat="50.52152" lon="3.48559">
        <ele>30</ele>
        <time>2022-04-18T15:06:51.000Z</time>
      </trkpt>
      <trkpt lat="50.52157" lon="3.48563">
        <ele>30</ele>
        <time>2022-04-18T15:06:53.000Z</time>
      </trkpt>
      <trkpt lat="50.5216" lon="3.48569">
        <ele>30</ele>
        <time>2022-04-18T15:06:54.000Z</time>
      </trkpt>
      <trkpt lat="50.52167" lon="3.48576">
        <ele>30</ele>
        <time>2022-04-18T15:06:56.502Z</time>
      </trkpt>
      <trkpt lat="50.52173" lon="3.4858">
        <ele>30</ele>
        <time>2022-04-18T15:06:57.921Z</time>
      </trkpt>
      <trkpt lat="50.52177" lon="3.48584">
        <ele>30</ele>
        <time>2022-04-18T15:07:00.000Z</time>
      </trkpt>
      <trkpt lat="50.52181" lon="3.48592">
        <ele>30.2</ele>
        <time>2022-04-18T15:07:02.000Z</time>
      </trkpt>
      <trkpt lat="50.52186" lon="3.486">
        <ele>30.2</ele>
        <time>2022-04-18T15:07:04.000Z</time>
      </trkpt>
      <trkpt lat="50.52192" lon="3.48608">
        <ele>30.1</ele>
        <time>2022-04-18T15:07:06.365Z</time>
      </trkpt>
      <trkpt lat="50.52198" lon="3.48616">
        <ele>30.3</ele>
        <time>2022-04-18T15:07:08.000Z</time>
      </trkpt>
      <trkpt lat="50.52204" lon="3.48624">
        <ele>30.6</ele>
        <time>2022-04-18T15:07:10.663Z</time>
      </trkpt>
      <trkpt lat="50.52209" lon="3.48628">
        <ele>30.8</ele>
        <time>2022-04-18T15:07:13.000Z</time>
      </trkpt>
      <trkpt lat="50.52216" lon="3.48635">
        <ele>31</ele>
        <time>2022-04-18T15:07:15.467Z</time>
      </trkpt>
      <trkpt lat="50.52224" lon="3.48642">
        <ele>31</ele>
        <time>2022-04-18T15:07:18.100Z</time>
      </trkpt>
      <trkpt lat="50.52232" lon="3.48649">
        <ele>31.1</ele>
        <time>2022-04-18T15:07:21.001Z</time>
      </trkpt>
      <trkpt lat="50.52237" lon="3.48653">
        <ele>31.3</ele>
        <time>2022-04-18T15:07:23.105Z</time>
      </trkpt>
      <trkpt lat="50.52243" lon="3.48658">
        <ele>31.5</ele>
        <time>2022-04-18T15:07:25.000Z</time>
      </trkpt>
      <trkpt lat="50.52246" lon="3.48663">
        <ele>31.7</ele>
        <time>2022-04-18T15:07:26.864Z</time>
      </trkpt>
      <trkpt lat="50.52252" lon="3.48667">
        <ele>32</ele>
        <time>2022-04-18T15:07:29.000Z</time>
      </trkpt>
      <trkpt lat="50.52256" lon="3.48675">
        <ele>32.1</ele>
        <time>2022-04-18T15:07:31.000Z</time>
      </trkpt>
      <trkpt lat="50.52261" lon="3.48683">
        <ele>32.2</ele>
        <time>2022-04-18T15:07:34.024Z</time>
      </trkpt>
      <trkpt lat="50.52264" lon="3.48691">
        <ele>32.4</ele>
        <time>2022-04-18T15:07:37.000Z</time>
      </trkpt>
      <trkpt lat="50.52269" lon="3.48694">
        <ele>32.7</ele>
        <time>2022-04-18T15:07:39.000Z</time>
      </trkpt>
      <trkpt lat="50.52276" lon="3.48697">
        <ele>32.9</ele>
        <time>2022-04-18T15:07:41.124Z</time>
      </trkpt>
      <trkpt lat="50.5228" lon="3.48701">
        <ele>33</ele>
        <time>2022-04-18T15:07:42.822Z</time>
      </trkpt>
      <trkpt lat="50.52284" lon="3.48706">
        <ele>33.1</ele>
        <time>2022-04-18T15:07:45.140Z</time>
      </trkpt>
      <trkpt lat="50.52287" lon="3.48711">
        <ele>33.2</ele>
        <time>2022-04-18T15:07:48.000Z</time>
      </trkpt>
      <trkpt lat="50.52292" lon="3.48716">
        <ele>33.4</ele>
        <time>2022-04-18T15:07:50.000Z</time>
      </trkpt>
      <trkpt lat="50.52295" lon="3.48722">
        <ele>33.6</ele>
        <time>2022-04-18T15:07:52.000Z</time>
      </trkpt>
      <trkpt lat="50.523" lon="3.48726">
        <ele>33.8</ele>
        <time>2022-04-18T15:07:55.124Z</time>
      </trkpt>
      <trkpt lat="50.52305" lon="3.48731">
        <ele>34</ele>
        <time>2022-04-18T15:07:57.604Z</time>
      </trkpt>
      <trkpt lat="50.52309" lon="3.48735">
        <ele>34</ele>
        <time>2022-04-18T15:08:00.000Z</time>
      </trkpt>
      <trkpt lat="50.52314" lon="3.48741">
        <ele>34</ele>
        <time>2022-04-18T15:08:01.962Z</time>
      </trkpt>
      <trkpt lat="50.52317" lon="3.48747">
        <ele>34</ele>
        <time>2022-04-18T15:08:04.000Z</time>
      </trkpt>
      <trkpt lat="50.52322" lon="3.4875">
        <ele>34</ele>
        <time>2022-04-18T15:08:05.000Z</time>
      </trkpt>
      <trkpt lat="50.52327" lon="3.48757">
        <ele>34.2</ele>
        <time>2022-04-18T15:08:07.000Z</time>
      </trkpt>
      <trkpt lat="50.52333" lon="3.48764">
        <ele>34.5</ele>
        <time>2022-04-18T15:08:09.000Z</time>
      </trkpt>
      <trkpt lat="50.52339" lon="3.48769">
        <ele>34.7</ele>
        <time>2022-04-18T15:08:11.022Z</time>
      </trkpt>
      <trkpt lat="50.52345" lon="3.48777">
        <ele>35</ele>
        <time>2022-04-18T15:08:13.924Z</time>
      </trkpt>
      <trkpt lat="50.52349" lon="3.48781">
        <ele>35.1</ele>
        <time>2022-04-18T15:08:16.000Z</time>
      </trkpt>
      <trkpt lat="50.52353" lon="3.48785">
        <ele>35.2</ele>
        <time>2022-04-18T15:08:18.046Z</time>
      </trkpt>
      <trkpt lat="50.52358" lon="3.4879">
        <ele>35.4</ele>
        <time>2022-04-18T15:08:20.003Z</time>
      </trkpt>
      <trkpt lat="50.52363" lon="3.48795">
        <ele>35.7</ele>
        <time>2022-04-18T15:08:22.000Z</time>
      </trkpt>
      <trkpt lat="50.52368" lon="3.48803">
        <ele>36.2</ele>
        <time>2022-04-18T15:08:25.000Z</time>
      </trkpt>
      <trkpt lat="50.52373" lon="3.48808">
        <ele>36.4</ele>
        <time>2022-04-18T15:08:26.944Z</time>
      </trkpt>
      <trkpt lat="50.52379" lon="3.48815">
        <ele>36.6</ele>
        <time>2022-04-18T15:08:30.122Z</time>
      </trkpt>
      <trkpt lat="50.52385" lon="3.48821">
        <ele>36.9</ele>
        <time>2022-04-18T15:08:33.000Z</time>
      </trkpt>
      <trkpt lat="50.5239" lon="3.48828">
        <ele>37</ele>
        <time>2022-04-18T15:08:35.143Z</time>
      </trkpt>
      <trkpt lat="50.52394" lon="3.48832">
        <ele>37.2</ele>
        <time>2022-04-18T15:08:37.000Z</time>
      </trkpt>
      <trkpt lat="50.524" lon="3.48835">
        <ele>37.4</ele>
        <time>2022-04-18T15:08:38.609Z</time>
      </trkpt>
      <trkpt lat="50.52405" lon="3.48844">
        <ele>37.6</ele>
        <time>2022-04-18T15:08:42.000Z</time>
      </trkpt>
      <trkpt lat="50.52412" lon="3.48849">
        <ele>37.8</ele>
        <time>2022-04-18T15:08:45.000Z</time>
      </trkpt>
      <trkpt lat="50.52416" lon="3.48854">
        <ele>38</ele>
        <time>2022-04-18T15:08:47.960Z</time>
      </trkpt>
      <trkpt lat="50.52419" lon="3.48863">
        <ele>38.1</ele>
        <time>2022-04-18T15:08:50.983Z</time>
      </trkpt>
      <trkpt lat="50.52423" lon="3.4887">
        <ele>38.2</ele>
        <time>2022-04-18T15:08:54.000Z</time>
      </trkpt>
      <trkpt lat="50.52431" lon="3.48876">
        <ele>38.5</ele>
        <time>2022-04-18T15:08:57.963Z</time>
      </trkpt>
      <trkpt lat="50.52435" lon="3.4888">
        <ele>38.7</ele>
        <time>2022-04-18T15:09:00.000Z</time>
      </trkpt>
      <trkpt lat="50.52441" lon="3.48884">
        <ele>38.9</ele>
        <time>2022-04-18T15:09:02.000Z</time>
      </trkpt>
      <trkpt lat="50.52446" lon="3.48891">
        <ele>39.1</ele>
        <time>2022-04-18T15:09:04.000Z</time>
      </trkpt>
      <trkpt lat="50.52451" lon="3.48896">
        <ele>39.5</ele>
        <time>2022-04-18T15:09:06.000Z</time>
      </trkpt>
      <trkpt lat="50.52456" lon="3.48902">
        <ele>39.9</ele>
        <time>2022-04-18T15:09:08.000Z</time>
      </trkpt>
      <trkpt lat="50.52462" lon="3.48906">
        <ele>40.2</ele>
        <time>2022-04-18T15:09:10.000Z</time>
      </trkpt>
      <trkpt lat="50.52467" lon="3.48913">
        <ele>40.7</ele>
        <time>2022-04-18T15:09:13.000Z</time>
      </trkpt>
      <trkpt lat="50.52471" lon="3.4892">
        <ele>41</ele>
        <time>2022-04-18T15:09:15.062Z</time>
      </trkpt>
      <trkpt lat="50.5247" lon="3.48933">
        <ele>40.9</ele>
        <time>2022-04-18T15:09:17.124Z</time>
      </trkpt>
      <trkpt lat="50.52467" lon="3.48946">
        <ele>40.8</ele>
        <time>2022-04-18T15:09:20.000Z</time>
      </trkpt>
      <trkpt lat="50.52464" lon="3.48957">
        <ele>40.6</ele>
        <time>2022-04-18T15:09:22.021Z</time>
      </trkpt>
      <trkpt lat="50.52463" lon="3.48966">
        <ele>40.4</ele>
        <time>2022-04-18T15:09:22.981Z</time>
      </trkpt>
      <trkpt lat="50.52461" lon="3.48974">
        <ele>40.2</ele>
        <time>2022-04-18T15:09:24.000Z</time>
      </trkpt>
      <trkpt lat="50.5246" lon="3.48981">
        <ele>40.1</ele>
        <time>2022-04-18T15:09:25.000Z</time>
      </trkpt>
      <trkpt lat="50.52458" lon="3.4899">
        <ele>40</ele>
        <time>2022-04-18T15:09:26.000Z</time>
      </trkpt>
      <trkpt lat="50.52456" lon="3.49">
        <ele>39.8</ele>
        <time>2022-04-18T15:09:27.000Z</time>
      </trkpt>
      <trkpt lat="50.52454" lon="3.49007">
        <ele>39.4</ele>
        <time>2022-04-18T15:09:28.000Z</time>
      </trkpt>
      <trkpt lat="50.52452" lon="3.49016">
        <ele>39</ele>
        <time>2022-04-18T15:09:29.000Z</time>
      </trkpt>
      <trkpt lat="50.5245" lon="3.49023">
        <ele>38.6</ele>
        <time>2022-04-18T15:09:30.000Z</time>
      </trkpt>
      <trkpt lat="50.52447" lon="3.49031">
        <ele>38.2</ele>
        <time>2022-04-18T15:09:31.000Z</time>
      </trkpt>
      <trkpt lat="50.52444" lon="3.49041">
        <ele>38</ele>
        <time>2022-04-18T15:09:32.000Z</time>
      </trkpt>
      <trkpt lat="50.52441" lon="3.4905">
        <ele>37.9</ele>
        <time>2022-04-18T15:09:33.000Z</time>
      </trkpt>
      <trkpt lat="50.52438" lon="3.49059">
        <ele>37.8</ele>
        <time>2022-04-18T15:09:34.000Z</time>
      </trkpt>
      <trkpt lat="50.52436" lon="3.49067">
        <ele>37.7</ele>
        <time>2022-04-18T15:09:35.000Z</time>
      </trkpt>
      <trkpt lat="50.52434" lon="3.49077">
        <ele>37.6</ele>
        <time>2022-04-18T15:09:36.000Z</time>
      </trkpt>
      <trkpt lat="50.52433" lon="3.49084">
        <ele>37.6</ele>
        <time>2022-04-18T15:09:37.000Z</time>
      </trkpt>
      <trkpt lat="50.52431" lon="3.49093">
        <ele>37.3</ele>
        <time>2022-04-18T15:09:38.000Z</time>
      </trkpt>
      <trkpt lat="50.52429" lon="3.49103">
        <ele>37.1</ele>
        <time>2022-04-18T15:09:39.000Z</time>
      </trkpt>
      <trkpt lat="50.52427" lon="3.49112">
        <ele>37</ele>
        <time>2022-04-18T15:09:40.000Z</time>
      </trkpt>
      <trkpt lat="50.52425" lon="3.4912">
        <ele>37</ele>
        <time>2022-04-18T15:09:41.000Z</time>
      </trkpt>
      <trkpt lat="50.52423" lon="3.49129">
        <ele>37</ele>
        <time>2022-04-18T15:09:42.000Z</time>
      </trkpt>
      <trkpt lat="50.5242" lon="3.49139">
        <ele>37</ele>
        <time>2022-04-18T15:09:43.000Z</time>
      </trkpt>
      <trkpt lat="50.52417" lon="3.49147">
        <ele>37</ele>
        <time>2022-04-18T15:09:44.000Z</time>
      </trkpt>
      <trkpt lat="50.52415" lon="3.49154">
        <ele>36.9</ele>
        <time>2022-04-18T15:09:45.000Z</time>
      </trkpt>
      <trkpt lat="50.52413" lon="3.49163">
        <ele>36.9</ele>
        <time>2022-04-18T15:09:46.000Z</time>
      </trkpt>
      <trkpt lat="50.52411" lon="3.49177">
        <ele>36.8</ele>
        <time>2022-04-18T15:09:48.000Z</time>
      </trkpt>
      <trkpt lat="50.52409" lon="3.49185">
        <ele>36.7</ele>
        <time>2022-04-18T15:09:49.000Z</time>
      </trkpt>
      <trkpt lat="50.52406" lon="3.49192">
        <ele>36.6</ele>
        <time>2022-04-18T15:09:51.000Z</time>
      </trkpt>
      <trkpt lat="50.524" lon="3.49198">
        <ele>36.3</ele>
        <time>2022-04-18T15:09:53.000Z</time>
      </trkpt>
      <trkpt lat="50.52395" lon="3.49197">
        <ele>36.2</ele>
        <time>2022-04-18T15:09:54.000Z</time>
      </trkpt>
      <trkpt lat="50.5239" lon="3.49191">
        <ele>36</ele>
        <time>2022-04-18T15:09:56.000Z</time>
      </trkpt>
      <trkpt lat="50.52386" lon="3.49191">
        <ele>36</ele>
        <time>2022-04-18T15:09:58.000Z</time>
      </trkpt>
      <trkpt lat="50.52378" lon="3.49177">
        <ele>36</ele>
        <time>2022-04-18T15:09:59.194Z</time>
      </trkpt>
      <trkpt lat="50.52372" lon="3.49168">
        <ele>36</ele>
        <time>2022-04-18T15:10:00.692Z</time>
      </trkpt>
      <trkpt lat="50.52368" lon="3.49164">
        <ele>36</ele>
        <time>2022-04-18T15:10:01.625Z</time>
      </trkpt>
      <trkpt lat="50.5236" lon="3.49155">
        <ele>36</ele>
        <time>2022-04-18T15:10:04.053Z</time>
      </trkpt>
      <trkpt lat="50.52348" lon="3.49145">
        <ele>36</ele>
        <time>2022-04-18T15:10:06.633Z</time>
      </trkpt>
      <trkpt lat="50.52336" lon="3.49131">
        <ele>36</ele>
        <time>2022-04-18T15:10:10.000Z</time>
      </trkpt>
      <trkpt lat="50.52324" lon="3.49117">
        <ele>35.9</ele>
        <time>2022-04-18T15:10:13.000Z</time>
      </trkpt>
      <trkpt lat="50.52319" lon="3.49111">
        <ele>36</ele>
        <time>2022-04-18T15:10:14.000Z</time>
      </trkpt>
      <trkpt lat="50.52316" lon="3.49106">
        <ele>36</ele>
        <time>2022-04-18T15:10:15.000Z</time>
      </trkpt>
      <trkpt lat="50.52308" lon="3.49098">
        <ele>36</ele>
        <time>2022-04-18T15:10:17.363Z</time>
      </trkpt>
      <trkpt lat="50.52302" lon="3.49089">
        <ele>35.9</ele>
        <time>2022-04-18T15:10:18.963Z</time>
      </trkpt>
      <trkpt lat="50.52298" lon="3.49081">
        <ele>35.8</ele>
        <time>2022-04-18T15:10:21.003Z</time>
      </trkpt>
      <trkpt lat="50.52293" lon="3.49076">
        <ele>35.7</ele>
        <time>2022-04-18T15:10:22.103Z</time>
      </trkpt>
      <trkpt lat="50.52286" lon="3.49066">
        <ele>35.7</ele>
        <time>2022-04-18T15:10:24.000Z</time>
      </trkpt>
      <trkpt lat="50.52278" lon="3.49054">
        <ele>36</ele>
        <time>2022-04-18T15:10:26.502Z</time>
      </trkpt>
      <trkpt lat="50.52276" lon="3.49048">
        <ele>36</ele>
        <time>2022-04-18T15:10:27.861Z</time>
      </trkpt>
      <trkpt lat="50.52272" lon="3.49038">
        <ele>35.9</ele>
        <time>2022-04-18T15:10:29.003Z</time>
      </trkpt>
      <trkpt lat="50.52268" lon="3.49033">
        <ele>35.7</ele>
        <time>2022-04-18T15:10:30.123Z</time>
      </trkpt>
      <trkpt lat="50.52262" lon="3.49023">
        <ele>35.4</ele>
        <time>2022-04-18T15:10:33.000Z</time>
      </trkpt>
      <trkpt lat="50.52257" lon="3.49018">
        <ele>35.2</ele>
        <time>2022-04-18T15:10:34.123Z</time>
      </trkpt>
      <trkpt lat="50.52254" lon="3.49012">
        <ele>35.1</ele>
        <time>2022-04-18T15:10:35.241Z</time>
      </trkpt>
      <trkpt lat="50.5225" lon="3.49005">
        <ele>35</ele>
        <time>2022-04-18T15:10:36.722Z</time>
      </trkpt>
      <trkpt lat="50.52246" lon="3.48999">
        <ele>35</ele>
        <time>2022-04-18T15:10:38.103Z</time>
      </trkpt>
      <trkpt lat="50.52242" lon="3.48992">
        <ele>35</ele>
        <time>2022-04-18T15:10:39.404Z</time>
      </trkpt>
      <trkpt lat="50.52236" lon="3.48984">
        <ele>35</ele>
        <time>2022-04-18T15:10:41.080Z</time>
      </trkpt>
      <trkpt lat="50.52233" lon="3.48979">
        <ele>35</ele>
        <time>2022-04-18T15:10:42.000Z</time>
      </trkpt>
      <trkpt lat="50.52226" lon="3.48973">
        <ele>35</ele>
        <time>2022-04-18T15:10:44.004Z</time>
      </trkpt>
      <trkpt lat="50.52219" lon="3.48965">
        <ele>35.1</ele>
        <time>2022-04-18T15:10:46.041Z</time>
      </trkpt>
      <trkpt lat="50.52215" lon="3.4896">
        <ele>35.1</ele>
        <time>2022-04-18T15:10:47.000Z</time>
      </trkpt>
      <trkpt lat="50.52208" lon="3.48952">
        <ele>35.1</ele>
        <time>2022-04-18T15:10:49.000Z</time>
      </trkpt>
      <trkpt lat="50.522" lon="3.48945">
        <ele>35</ele>
        <time>2022-04-18T15:10:51.000Z</time>
      </trkpt>
      <trkpt lat="50.52196" lon="3.4894">
        <ele>35</ele>
        <time>2022-04-18T15:10:52.000Z</time>
      </trkpt>
      <trkpt lat="50.52192" lon="3.48935">
        <ele>35.1</ele>
        <time>2022-04-18T15:10:53.000Z</time>
      </trkpt>
      <trkpt lat="50.52186" lon="3.48928">
        <ele>35.1</ele>
        <time>2022-04-18T15:10:55.000Z</time>
      </trkpt>
      <trkpt lat="50.52178" lon="3.48919">
        <ele>35</ele>
        <time>2022-04-18T15:10:57.000Z</time>
      </trkpt>
      <trkpt lat="50.52174" lon="3.48914">
        <ele>35</ele>
        <time>2022-04-18T15:10:58.000Z</time>
      </trkpt>
      <trkpt lat="50.52166" lon="3.48908">
        <ele>35</ele>
        <time>2022-04-18T15:11:00.000Z</time>
      </trkpt>
      <trkpt lat="50.52161" lon="3.48905">
        <ele>34.9</ele>
        <time>2022-04-18T15:11:01.000Z</time>
      </trkpt>
      <trkpt lat="50.52156" lon="3.48902">
        <ele>34.8</ele>
        <time>2022-04-18T15:11:02.000Z</time>
      </trkpt>
      <trkpt lat="50.52148" lon="3.48897">
        <ele>34.5</ele>
        <time>2022-04-18T15:11:04.000Z</time>
      </trkpt>
      <trkpt lat="50.52143" lon="3.48895">
        <ele>34.3</ele>
        <time>2022-04-18T15:11:05.000Z</time>
      </trkpt>
      <trkpt lat="50.52138" lon="3.48893">
        <ele>34.1</ele>
        <time>2022-04-18T15:11:06.000Z</time>
      </trkpt>
      <trkpt lat="50.52134" lon="3.4889">
        <ele>34</ele>
        <time>2022-04-18T15:11:07.000Z</time>
      </trkpt>
      <trkpt lat="50.52129" lon="3.48887">
        <ele>34</ele>
        <time>2022-04-18T15:11:08.000Z</time>
      </trkpt>
      <trkpt lat="50.52125" lon="3.48884">
        <ele>33.9</ele>
        <time>2022-04-18T15:11:09.142Z</time>
      </trkpt>
      <trkpt lat="50.52118" lon="3.48881">
        <ele>33.8</ele>
        <time>2022-04-18T15:11:10.577Z</time>
      </trkpt>
      <trkpt lat="50.52112" lon="3.48878">
        <ele>33.6</ele>
        <time>2022-04-18T15:11:11.963Z</time>
      </trkpt>
      <trkpt lat="50.52104" lon="3.48875">
        <ele>33.5</ele>
        <time>2022-04-18T15:11:14.000Z</time>
      </trkpt>
      <trkpt lat="50.52095" lon="3.48871">
        <ele>33.4</ele>
        <time>2022-04-18T15:11:16.124Z</time>
      </trkpt>
      <trkpt lat="50.52087" lon="3.48867">
        <ele>33.2</ele>
        <time>2022-04-18T15:11:18.000Z</time>
      </trkpt>
      <trkpt lat="50.52081" lon="3.48862">
        <ele>32.9</ele>
        <time>2022-04-18T15:11:19.600Z</time>
      </trkpt>
      <trkpt lat="50.52077" lon="3.48859">
        <ele>32.8</ele>
        <time>2022-04-18T15:11:24.000Z</time>
      </trkpt>
      <trkpt lat="50.52072" lon="3.48857">
        <ele>32.6</ele>
        <time>2022-04-18T15:11:26.000Z</time>
      </trkpt>
      <trkpt lat="50.52065" lon="3.48852">
        <ele>32.3</ele>
        <time>2022-04-18T15:11:28.000Z</time>
      </trkpt>
      <trkpt lat="50.52058" lon="3.48848">
        <ele>32.1</ele>
        <time>2022-04-18T15:11:30.000Z</time>
      </trkpt>
      <trkpt lat="50.52052" lon="3.48842">
        <ele>32</ele>
        <time>2022-04-18T15:11:32.000Z</time>
      </trkpt>
      <trkpt lat="50.52044" lon="3.48835">
        <ele>32</ele>
        <time>2022-04-18T15:11:34.000Z</time>
      </trkpt>
      <trkpt lat="50.52039" lon="3.48832">
        <ele>32</ele>
        <time>2022-04-18T15:11:36.000Z</time>
      </trkpt>
      <trkpt lat="50.52034" lon="3.48829">
        <ele>32</ele>
        <time>2022-04-18T15:11:37.000Z</time>
      </trkpt>
      <trkpt lat="50.52026" lon="3.48825">
        <ele>32</ele>
        <time>2022-04-18T15:11:39.000Z</time>
      </trkpt>
      <trkpt lat="50.52019" lon="3.48821">
        <ele>32</ele>
        <time>2022-04-18T15:11:41.000Z</time>
      </trkpt>
      <trkpt lat="50.52015" lon="3.48818">
        <ele>32</ele>
        <time>2022-04-18T15:11:42.000Z</time>
      </trkpt>
      <trkpt lat="50.52008" lon="3.48813">
        <ele>32</ele>
        <time>2022-04-18T15:11:44.000Z</time>
      </trkpt>
      <trkpt lat="50.52" lon="3.48807">
        <ele>32</ele>
        <time>2022-04-18T15:11:46.000Z</time>
      </trkpt>
      <trkpt lat="50.51996" lon="3.48804">
        <ele>32</ele>
        <time>2022-04-18T15:11:47.000Z</time>
      </trkpt>
      <trkpt lat="50.51991" lon="3.48802">
        <ele>32</ele>
        <time>2022-04-18T15:11:48.000Z</time>
      </trkpt>
      <trkpt lat="50.51981" lon="3.48795">
        <ele>32</ele>
        <time>2022-04-18T15:11:50.524Z</time>
      </trkpt>
      <trkpt lat="50.51975" lon="3.4879">
        <ele>32</ele>
        <time>2022-04-18T15:11:51.960Z</time>
      </trkpt>
      <trkpt lat="50.51969" lon="3.48786">
        <ele>32</ele>
        <time>2022-04-18T15:11:53.000Z</time>
      </trkpt>
      <trkpt lat="50.51965" lon="3.48782">
        <ele>32</ele>
        <time>2022-04-18T15:11:54.000Z</time>
      </trkpt>
      <trkpt lat="50.51961" lon="3.48778">
        <ele>32</ele>
        <time>2022-04-18T15:11:55.000Z</time>
      </trkpt>
      <trkpt lat="50.51956" lon="3.48773">
        <ele>32</ele>
        <time>2022-04-18T15:11:56.000Z</time>
      </trkpt>
      <trkpt lat="50.51953" lon="3.48768">
        <ele>32</ele>
        <time>2022-04-18T15:11:57.000Z</time>
      </trkpt>
      <trkpt lat="50.51949" lon="3.48764">
        <ele>32</ele>
        <time>2022-04-18T15:11:58.000Z</time>
      </trkpt>
      <trkpt lat="50.5194" lon="3.48752">
        <ele>31.8</ele>
        <time>2022-04-18T15:12:01.571Z</time>
      </trkpt>
      <trkpt lat="50.51935" lon="3.48747">
        <ele>31.6</ele>
        <time>2022-04-18T15:12:02.486Z</time>
      </trkpt>
      <trkpt lat="50.5193" lon="3.48741">
        <ele>31.3</ele>
        <time>2022-04-18T15:12:03.826Z</time>
      </trkpt>
      <trkpt lat="50.51926" lon="3.48737">
        <ele>31.2</ele>
        <time>2022-04-18T15:12:04.769Z</time>
      </trkpt>
      <trkpt lat="50.5192" lon="3.48731">
        <ele>31</ele>
        <time>2022-04-18T15:12:06.000Z</time>
      </trkpt>
      <trkpt lat="50.51915" lon="3.48728">
        <ele>31</ele>
        <time>2022-04-18T15:12:07.000Z</time>
      </trkpt>
      <trkpt lat="50.51908" lon="3.48722">
        <ele>31</ele>
        <time>2022-04-18T15:12:09.000Z</time>
      </trkpt>
      <trkpt lat="50.51902" lon="3.48716">
        <ele>31</ele>
        <time>2022-04-18T15:12:11.066Z</time>
      </trkpt>
      <trkpt lat="50.51897" lon="3.48709">
        <ele>31</ele>
        <time>2022-04-18T15:12:13.000Z</time>
      </trkpt>
      <trkpt lat="50.51887" lon="3.48698">
        <ele>31</ele>
        <time>2022-04-18T15:12:15.862Z</time>
      </trkpt>
      <trkpt lat="50.51883" lon="3.48691">
        <ele>31</ele>
        <time>2022-04-18T15:12:16.886Z</time>
      </trkpt>
      <trkpt lat="50.51876" lon="3.48687">
        <ele>31</ele>
        <time>2022-04-18T15:12:18.927Z</time>
      </trkpt>
      <trkpt lat="50.51872" lon="3.48682">
        <ele>31</ele>
        <time>2022-04-18T15:12:20.126Z</time>
      </trkpt>
      <trkpt lat="50.51867" lon="3.48675">
        <ele>31</ele>
        <time>2022-04-18T15:12:21.605Z</time>
      </trkpt>
      <trkpt lat="50.51859" lon="3.48666">
        <ele>31</ele>
        <time>2022-04-18T15:12:23.722Z</time>
      </trkpt>
      <trkpt lat="50.51854" lon="3.4866">
        <ele>31</ele>
        <time>2022-04-18T15:12:25.062Z</time>
      </trkpt>
      <trkpt lat="50.5185" lon="3.48656">
        <ele>31</ele>
        <time>2022-04-18T15:12:26.000Z</time>
      </trkpt>
      <trkpt lat="50.51846" lon="3.48653">
        <ele>31</ele>
        <time>2022-04-18T15:12:27.124Z</time>
      </trkpt>
      <trkpt lat="50.51839" lon="3.48647">
        <ele>31</ele>
        <time>2022-04-18T15:12:28.923Z</time>
      </trkpt>
      <trkpt lat="50.51834" lon="3.48639">
        <ele>31</ele>
        <time>2022-04-18T15:12:31.000Z</time>
      </trkpt>
      <trkpt lat="50.51829" lon="3.48632">
        <ele>31</ele>
        <time>2022-04-18T15:12:32.000Z</time>
      </trkpt>
      <trkpt lat="50.51825" lon="3.48624">
        <ele>31</ele>
        <time>2022-04-18T15:12:32.904Z</time>
      </trkpt>
      <trkpt lat="50.51823" lon="3.48616">
        <ele>31</ele>
        <time>2022-04-18T15:12:34.000Z</time>
      </trkpt>
      <trkpt lat="50.5182" lon="3.48608">
        <ele>31</ele>
        <time>2022-04-18T15:12:35.723Z</time>
      </trkpt>
      <trkpt lat="50.51819" lon="3.48598">
        <ele>31</ele>
        <time>2022-04-18T15:12:36.905Z</time>
      </trkpt>
      <trkpt lat="50.51818" lon="3.48587">
        <ele>31</ele>
        <time>2022-04-18T15:12:39.048Z</time>
      </trkpt>
      <trkpt lat="50.51816" lon="3.48578">
        <ele>31</ele>
        <time>2022-04-18T15:12:41.044Z</time>
      </trkpt>
      <trkpt lat="50.51815" lon="3.48569">
        <ele>31</ele>
        <time>2022-04-18T15:12:42.000Z</time>
      </trkpt>
      <trkpt lat="50.51814" lon="3.48557">
        <ele>31</ele>
        <time>2022-04-18T15:12:44.000Z</time>
      </trkpt>
      <trkpt lat="50.51813" lon="3.48548">
        <ele>31</ele>
        <time>2022-04-18T15:12:45.000Z</time>
      </trkpt>
      <trkpt lat="50.51812" lon="3.48541">
        <ele>31</ele>
        <time>2022-04-18T15:12:46.286Z</time>
      </trkpt>
      <trkpt lat="50.51811" lon="3.48533">
        <ele>31</ele>
        <time>2022-04-18T15:12:47.425Z</time>
      </trkpt>
      <trkpt lat="50.51809" lon="3.48522">
        <ele>31</ele>
        <time>2022-04-18T15:12:49.826Z</time>
      </trkpt>
      <trkpt lat="50.51808" lon="3.48514">
        <ele>31</ele>
        <time>2022-04-18T15:12:51.170Z</time>
      </trkpt>
      <trkpt lat="50.51806" lon="3.48506">
        <ele>31</ele>
        <time>2022-04-18T15:12:52.865Z</time>
      </trkpt>
      <trkpt lat="50.51805" lon="3.48497">
        <ele>31</ele>
        <time>2022-04-18T15:12:54.103Z</time>
      </trkpt>
      <trkpt lat="50.51804" lon="3.48482">
        <ele>31.1</ele>
        <time>2022-04-18T15:12:56.922Z</time>
      </trkpt>
      <trkpt lat="50.51803" lon="3.48473">
        <ele>31.1</ele>
        <time>2022-04-18T15:12:58.625Z</time>
      </trkpt>
      <trkpt lat="50.51801" lon="3.48461">
        <ele>31.2</ele>
        <time>2022-04-18T15:13:00.947Z</time>
      </trkpt>
      <trkpt lat="50.51801" lon="3.48453">
        <ele>31.2</ele>
        <time>2022-04-18T15:13:03.103Z</time>
      </trkpt>
      <trkpt lat="50.51799" lon="3.48442">
        <ele>31.2</ele>
        <time>2022-04-18T15:13:05.000Z</time>
      </trkpt>
      <trkpt lat="50.51798" lon="3.48432">
        <ele>31.3</ele>
        <time>2022-04-18T15:13:07.146Z</time>
      </trkpt>
      <trkpt lat="50.51795" lon="3.48422">
        <ele>31.4</ele>
        <time>2022-04-18T15:13:09.000Z</time>
      </trkpt>
      <trkpt lat="50.51793" lon="3.48411">
        <ele>31.5</ele>
        <time>2022-04-18T15:13:10.962Z</time>
      </trkpt>
      <trkpt lat="50.5179" lon="3.48399">
        <ele>31.6</ele>
        <time>2022-04-18T15:13:13.000Z</time>
      </trkpt>
      <trkpt lat="50.51787" lon="3.48388">
        <ele>31.6</ele>
        <time>2022-04-18T15:13:14.944Z</time>
      </trkpt>
      <trkpt lat="50.51785" lon="3.48376">
        <ele>31.4</ele>
        <time>2022-04-18T15:13:17.000Z</time>
      </trkpt>
      <trkpt lat="50.51783" lon="3.48364">
        <ele>31.1</ele>
        <time>2022-04-18T15:13:19.000Z</time>
      </trkpt>
      <trkpt lat="50.5178" lon="3.48351">
        <ele>31</ele>
        <time>2022-04-18T15:13:21.000Z</time>
      </trkpt>
      <trkpt lat="50.51777" lon="3.48339">
        <ele>31</ele>
        <time>2022-04-18T15:13:23.000Z</time>
      </trkpt>
      <trkpt lat="50.51774" lon="3.48329">
        <ele>31.1</ele>
        <time>2022-04-18T15:13:24.125Z</time>
      </trkpt>
      <trkpt lat="50.51772" lon="3.48318">
        <ele>31.1</ele>
        <time>2022-04-18T15:13:26.083Z</time>
      </trkpt>
      <trkpt lat="50.5177" lon="3.48311">
        <ele>31.1</ele>
        <time>2022-04-18T15:13:28.000Z</time>
      </trkpt>
      <trkpt lat="50.51769" lon="3.48302">
        <ele>31</ele>
        <time>2022-04-18T15:13:29.066Z</time>
      </trkpt>
      <trkpt lat="50.51769" lon="3.48293">
        <ele>31</ele>
        <time>2022-04-18T15:13:30.543Z</time>
      </trkpt>
      <trkpt lat="50.51767" lon="3.48284">
        <ele>31</ele>
        <time>2022-04-18T15:13:31.884Z</time>
      </trkpt>
      <trkpt lat="50.51765" lon="3.48275">
        <ele>30.9</ele>
        <time>2022-04-18T15:13:33.047Z</time>
      </trkpt>
      <trkpt lat="50.51764" lon="3.48266">
        <ele>30.8</ele>
        <time>2022-04-18T15:13:34.626Z</time>
      </trkpt>
      <trkpt lat="50.51759" lon="3.48252">
        <ele>30.7</ele>
        <time>2022-04-18T15:13:37.000Z</time>
      </trkpt>
      <trkpt lat="50.51755" lon="3.48239">
        <ele>30.5</ele>
        <time>2022-04-18T15:13:39.000Z</time>
      </trkpt>
      <trkpt lat="50.51751" lon="3.48232">
        <ele>30.3</ele>
        <time>2022-04-18T15:13:40.963Z</time>
      </trkpt>
      <trkpt lat="50.51747" lon="3.48227">
        <ele>30.3</ele>
        <time>2022-04-18T15:13:42.000Z</time>
      </trkpt>
      <trkpt lat="50.51743" lon="3.48224">
        <ele>30.3</ele>
        <time>2022-04-18T15:13:43.000Z</time>
      </trkpt>
      <trkpt lat="50.5174" lon="3.48218">
        <ele>30.4</ele>
        <time>2022-04-18T15:13:45.000Z</time>
      </trkpt>
      <trkpt lat="50.51733" lon="3.48206">
        <ele>30.6</ele>
        <time>2022-04-18T15:13:47.543Z</time>
      </trkpt>
      <trkpt lat="50.51728" lon="3.482">
        <ele>30.8</ele>
        <time>2022-04-18T15:13:50.000Z</time>
      </trkpt>
      <trkpt lat="50.51725" lon="3.48195">
        <ele>30.9</ele>
        <time>2022-04-18T15:13:51.000Z</time>
      </trkpt>
      <trkpt lat="50.51721" lon="3.48189">
        <ele>31</ele>
        <time>2022-04-18T15:13:53.000Z</time>
      </trkpt>
      <trkpt lat="50.51716" lon="3.48179">
        <ele>31.1</ele>
        <time>2022-04-18T15:13:55.000Z</time>
      </trkpt>
      <trkpt lat="50.51712" lon="3.48172">
        <ele>31.1</ele>
        <time>2022-04-18T15:13:57.000Z</time>
      </trkpt>
      <trkpt lat="50.51707" lon="3.48165">
        <ele>31</ele>
        <time>2022-04-18T15:13:59.000Z</time>
      </trkpt>
      <trkpt lat="50.51703" lon="3.48157">
        <ele>31</ele>
        <time>2022-04-18T15:14:01.303Z</time>
      </trkpt>
      <trkpt lat="50.51696" lon="3.48148">
        <ele>31</ele>
        <time>2022-04-18T15:14:04.002Z</time>
      </trkpt>
      <trkpt lat="50.5169" lon="3.48137">
        <ele>31</ele>
        <time>2022-04-18T15:14:06.984Z</time>
      </trkpt>
      <trkpt lat="50.51686" lon="3.48126">
        <ele>31</ele>
        <time>2022-04-18T15:14:09.000Z</time>
      </trkpt>
      <trkpt lat="50.5168" lon="3.48114">
        <ele>31</ele>
        <time>2022-04-18T15:14:12.000Z</time>
      </trkpt>
      <trkpt lat="50.51676" lon="3.48105">
        <ele>31</ele>
        <time>2022-04-18T15:14:14.000Z</time>
      </trkpt>
      <trkpt lat="50.51672" lon="3.48097">
        <ele>31</ele>
        <time>2022-04-18T15:14:16.000Z</time>
      </trkpt>
      <trkpt lat="50.51667" lon="3.48087">
        <ele>31</ele>
        <time>2022-04-18T15:14:18.000Z</time>
      </trkpt>
      <trkpt lat="50.51663" lon="3.48076">
        <ele>31.1</ele>
        <time>2022-04-18T15:14:20.000Z</time>
      </trkpt>
      <trkpt lat="50.5166" lon="3.48069">
        <ele>31.2</ele>
        <time>2022-04-18T15:14:22.326Z</time>
      </trkpt>
      <trkpt lat="50.51655" lon="3.4806">
        <ele>31.4</ele>
        <time>2022-04-18T15:14:24.000Z</time>
      </trkpt>
      <trkpt lat="50.51651" lon="3.48054">
        <ele>31.5</ele>
        <time>2022-04-18T15:14:26.000Z</time>
      </trkpt>
      <trkpt lat="50.51647" lon="3.48047">
        <ele>31.5</ele>
        <time>2022-04-18T15:14:27.000Z</time>
      </trkpt>
      <trkpt lat="50.51644" lon="3.4804">
        <ele>31.4</ele>
        <time>2022-04-18T15:14:28.000Z</time>
      </trkpt>
      <trkpt lat="50.51639" lon="3.48033">
        <ele>31.2</ele>
        <time>2022-04-18T15:14:30.427Z</time>
      </trkpt>
      <trkpt lat="50.51636" lon="3.48027">
        <ele>31.1</ele>
        <time>2022-04-18T15:14:32.000Z</time>
      </trkpt>
      <trkpt lat="50.51631" lon="3.4802">
        <ele>31.2</ele>
        <time>2022-04-18T15:14:33.000Z</time>
      </trkpt>
      <trkpt lat="50.51628" lon="3.48015">
        <ele>31.2</ele>
        <time>2022-04-18T15:14:34.022Z</time>
      </trkpt>
      <trkpt lat="50.51622" lon="3.48005">
        <ele>31.1</ele>
        <time>2022-04-18T15:14:36.000Z</time>
      </trkpt>
      <trkpt lat="50.51617" lon="3.48">
        <ele>31</ele>
        <time>2022-04-18T15:14:38.000Z</time>
      </trkpt>
      <trkpt lat="50.51613" lon="3.47994">
        <ele>31</ele>
        <time>2022-04-18T15:14:39.104Z</time>
      </trkpt>
      <trkpt lat="50.51605" lon="3.47984">
        <ele>31</ele>
        <time>2022-04-18T15:14:41.123Z</time>
      </trkpt>
      <trkpt lat="50.51599" lon="3.47977">
        <ele>31</ele>
        <time>2022-04-18T15:14:43.000Z</time>
      </trkpt>
      <trkpt lat="50.51594" lon="3.4797">
        <ele>31</ele>
        <time>2022-04-18T15:14:44.966Z</time>
      </trkpt>
      <trkpt lat="50.51588" lon="3.47963">
        <ele>30.9</ele>
        <time>2022-04-18T15:14:46.000Z</time>
      </trkpt>
      <trkpt lat="50.51581" lon="3.47956">
        <ele>31</ele>
        <time>2022-04-18T15:14:48.000Z</time>
      </trkpt>
      <trkpt lat="50.51577" lon="3.47951">
        <ele>31</ele>
        <time>2022-04-18T15:14:49.262Z</time>
      </trkpt>
      <trkpt lat="50.51572" lon="3.47946">
        <ele>31</ele>
        <time>2022-04-18T15:14:50.766Z</time>
      </trkpt>
      <trkpt lat="50.51564" lon="3.47937">
        <ele>30.7</ele>
        <time>2022-04-18T15:14:53.000Z</time>
      </trkpt>
      <trkpt lat="50.51558" lon="3.4793">
        <ele>30.5</ele>
        <time>2022-04-18T15:14:55.000Z</time>
      </trkpt>
      <trkpt lat="50.51552" lon="3.47925">
        <ele>30.4</ele>
        <time>2022-04-18T15:14:56.000Z</time>
      </trkpt>
      <trkpt lat="50.51546" lon="3.47918">
        <ele>30.4</ele>
        <time>2022-04-18T15:14:58.000Z</time>
      </trkpt>
      <trkpt lat="50.51541" lon="3.47913">
        <ele>30.5</ele>
        <time>2022-04-18T15:14:59.000Z</time>
      </trkpt>
      <trkpt lat="50.51535" lon="3.47907">
        <ele>30.5</ele>
        <time>2022-04-18T15:15:00.000Z</time>
      </trkpt>
      <trkpt lat="50.5153" lon="3.479">
        <ele>30.4</ele>
        <time>2022-04-18T15:15:02.000Z</time>
      </trkpt>
      <trkpt lat="50.51522" lon="3.47887">
        <ele>30.2</ele>
        <time>2022-04-18T15:15:04.000Z</time>
      </trkpt>
      <trkpt lat="50.51516" lon="3.47879">
        <ele>30.3</ele>
        <time>2022-04-18T15:15:06.000Z</time>
      </trkpt>
      <trkpt lat="50.51514" lon="3.47869">
        <ele>30.1</ele>
        <time>2022-04-18T15:15:08.000Z</time>
      </trkpt>
      <trkpt lat="50.51507" lon="3.47862">
        <ele>30</ele>
        <time>2022-04-18T15:15:09.735Z</time>
      </trkpt>
      <trkpt lat="50.51502" lon="3.47853">
        <ele>30</ele>
        <time>2022-04-18T15:15:10.876Z</time>
      </trkpt>
      <trkpt lat="50.51497" lon="3.47837">
        <ele>30</ele>
        <time>2022-04-18T15:15:13.717Z</time>
      </trkpt>
      <trkpt lat="50.51495" lon="3.4783">
        <ele>29.9</ele>
        <time>2022-04-18T15:15:15.000Z</time>
      </trkpt>
      <trkpt lat="50.51492" lon="3.47819">
        <ele>29.6</ele>
        <time>2022-04-18T15:15:17.000Z</time>
      </trkpt>
      <trkpt lat="50.5149" lon="3.47812">
        <ele>29.5</ele>
        <time>2022-04-18T15:15:18.275Z</time>
      </trkpt>
      <trkpt lat="50.51487" lon="3.47802">
        <ele>29.4</ele>
        <time>2022-04-18T15:15:19.913Z</time>
      </trkpt>
      <trkpt lat="50.51485" lon="3.47795">
        <ele>29.3</ele>
        <time>2022-04-18T15:15:21.000Z</time>
      </trkpt>
      <trkpt lat="50.51482" lon="3.47788">
        <ele>29.2</ele>
        <time>2022-04-18T15:15:22.182Z</time>
      </trkpt>
      <trkpt lat="50.51479" lon="3.47779">
        <ele>29</ele>
        <time>2022-04-18T15:15:23.717Z</time>
      </trkpt>
      <trkpt lat="50.51475" lon="3.47772">
        <ele>29</ele>
        <time>2022-04-18T15:15:25.114Z</time>
      </trkpt>
      <trkpt lat="50.5147" lon="3.47763">
        <ele>29</ele>
        <time>2022-04-18T15:15:26.933Z</time>
      </trkpt>
      <trkpt lat="50.51465" lon="3.47755">
        <ele>29</ele>
        <time>2022-04-18T15:15:29.000Z</time>
      </trkpt>
      <trkpt lat="50.5146" lon="3.47745">
        <ele>29</ele>
        <time>2022-04-18T15:15:31.134Z</time>
      </trkpt>
      <trkpt lat="50.51456" lon="3.47739">
        <ele>29</ele>
        <time>2022-04-18T15:15:32.695Z</time>
      </trkpt>
      <trkpt lat="50.51449" lon="3.47732">
        <ele>29</ele>
        <time>2022-04-18T15:15:35.000Z</time>
      </trkpt>
      <trkpt lat="50.51445" lon="3.47722">
        <ele>29</ele>
        <time>2022-04-18T15:15:37.137Z</time>
      </trkpt>
      <trkpt lat="50.51441" lon="3.47715">
        <ele>28.8</ele>
        <time>2022-04-18T15:15:39.000Z</time>
      </trkpt>
      <trkpt lat="50.51437" lon="3.47706">
        <ele>28.6</ele>
        <time>2022-04-18T15:15:41.000Z</time>
      </trkpt>
      <trkpt lat="50.51432" lon="3.47697">
        <ele>28.5</ele>
        <time>2022-04-18T15:15:43.000Z</time>
      </trkpt>
      <trkpt lat="50.51428" lon="3.47689">
        <ele>28.5</ele>
        <time>2022-04-18T15:15:44.993Z</time>
      </trkpt>
      <trkpt lat="50.51422" lon="3.4768">
        <ele>28.4</ele>
        <time>2022-04-18T15:15:47.000Z</time>
      </trkpt>
      <trkpt lat="50.51416" lon="3.47671">
        <ele>28.2</ele>
        <time>2022-04-18T15:15:49.000Z</time>
      </trkpt>
      <trkpt lat="50.51412" lon="3.47663">
        <ele>28.1</ele>
        <time>2022-04-18T15:15:49.977Z</time>
      </trkpt>
      <trkpt lat="50.51407" lon="3.47655">
        <ele>28.2</ele>
        <time>2022-04-18T15:15:51.134Z</time>
      </trkpt>
      <trkpt lat="50.51403" lon="3.47649">
        <ele>28.2</ele>
        <time>2022-04-18T15:15:52.497Z</time>
      </trkpt>
      <trkpt lat="50.51399" lon="3.47642">
        <ele>28.1</ele>
        <time>2022-04-18T15:15:54.015Z</time>
      </trkpt>
      <trkpt lat="50.51395" lon="3.47634">
        <ele>28</ele>
        <time>2022-04-18T15:15:56.000Z</time>
      </trkpt>
      <trkpt lat="50.51391" lon="3.47626">
        <ele>28</ele>
        <time>2022-04-18T15:15:57.000Z</time>
      </trkpt>
      <trkpt lat="50.51387" lon="3.47619">
        <ele>28</ele>
        <time>2022-04-18T15:15:59.000Z</time>
      </trkpt>
      <trkpt lat="50.51382" lon="3.4761">
        <ele>28</ele>
        <time>2022-04-18T15:16:01.036Z</time>
      </trkpt>
      <trkpt lat="50.51376" lon="3.47601">
        <ele>28</ele>
        <time>2022-04-18T15:16:03.000Z</time>
      </trkpt>
      <trkpt lat="50.5137" lon="3.4759">
        <ele>28</ele>
        <time>2022-04-18T15:16:05.000Z</time>
      </trkpt>
      <trkpt lat="50.51364" lon="3.4758">
        <ele>28</ele>
        <time>2022-04-18T15:16:07.000Z</time>
      </trkpt>
      <trkpt lat="50.51361" lon="3.47573">
        <ele>28</ele>
        <time>2022-04-18T15:16:08.050Z</time>
      </trkpt>
      <trkpt lat="50.51356" lon="3.47565">
        <ele>27.8</ele>
        <time>2022-04-18T15:16:10.000Z</time>
      </trkpt>
      <trkpt lat="50.51352" lon="3.4756">
        <ele>27.7</ele>
        <time>2022-04-18T15:16:11.000Z</time>
      </trkpt>
      <trkpt lat="50.51348" lon="3.4755">
        <ele>27.3</ele>
        <time>2022-04-18T15:16:13.000Z</time>
      </trkpt>
      <trkpt lat="50.51343" lon="3.47546">
        <ele>27</ele>
        <time>2022-04-18T15:16:15.000Z</time>
      </trkpt>
      <trkpt lat="50.51339" lon="3.47541">
        <ele>26.7</ele>
        <time>2022-04-18T15:16:19.000Z</time>
      </trkpt>
      <trkpt lat="50.51337" lon="3.47533">
        <ele>26.3</ele>
        <time>2022-04-18T15:16:24.000Z</time>
      </trkpt>
      <trkpt lat="50.51336" lon="3.4754">
        <ele>26.5</ele>
        <time>2022-04-18T15:16:27.000Z</time>
      </trkpt>
      <trkpt lat="50.51341" lon="3.47542">
        <ele>26.8</ele>
        <time>2022-04-18T15:16:29.000Z</time>
      </trkpt>
      <trkpt lat="50.51344" lon="3.47549">
        <ele>27.1</ele>
        <time>2022-04-18T15:16:31.000Z</time>
      </trkpt>
      <trkpt lat="50.51342" lon="3.47557">
        <ele>27.3</ele>
        <time>2022-04-18T15:16:32.068Z</time>
      </trkpt>
      <trkpt lat="50.51336" lon="3.47567">
        <ele>27.1</ele>
        <time>2022-04-18T15:16:33.446Z</time>
      </trkpt>
      <trkpt lat="50.51333" lon="3.47577">
        <ele>27</ele>
        <time>2022-04-18T15:16:35.780Z</time>
      </trkpt>
      <trkpt lat="50.5133" lon="3.47582">
        <ele>27</ele>
        <time>2022-04-18T15:16:37.000Z</time>
      </trkpt>
      <trkpt lat="50.51325" lon="3.47592">
        <ele>27.2</ele>
        <time>2022-04-18T15:16:39.068Z</time>
      </trkpt>
      <trkpt lat="50.51322" lon="3.47597">
        <ele>27.3</ele>
        <time>2022-04-18T15:16:40.000Z</time>
      </trkpt>
      <trkpt lat="50.51319" lon="3.47604">
        <ele>27.4</ele>
        <time>2022-04-18T15:16:42.069Z</time>
      </trkpt>
      <trkpt lat="50.51316" lon="3.47611">
        <ele>27.4</ele>
        <time>2022-04-18T15:16:43.107Z</time>
      </trkpt>
      <trkpt lat="50.51312" lon="3.47621">
        <ele>27.2</ele>
        <time>2022-04-18T15:16:45.609Z</time>
      </trkpt>
      <trkpt lat="50.51308" lon="3.47628">
        <ele>27.1</ele>
        <time>2022-04-18T15:16:46.589Z</time>
      </trkpt>
      <trkpt lat="50.51304" lon="3.47639">
        <ele>27</ele>
        <time>2022-04-18T15:16:49.286Z</time>
      </trkpt>
      <trkpt lat="50.51301" lon="3.47644">
        <ele>27</ele>
        <time>2022-04-18T15:16:54.000Z</time>
      </trkpt>
      <trkpt lat="50.51306" lon="3.47635">
        <ele>27</ele>
        <time>2022-04-18T15:17:10.000Z</time>
      </trkpt>
      <trkpt lat="50.51309" lon="3.47628">
        <ele>27.1</ele>
        <time>2022-04-18T15:17:12.000Z</time>
      </trkpt>
      <trkpt lat="50.51313" lon="3.4762">
        <ele>27.3</ele>
        <time>2022-04-18T15:17:14.000Z</time>
      </trkpt>
      <trkpt lat="50.51318" lon="3.4761">
        <ele>27.4</ele>
        <time>2022-04-18T15:17:16.369Z</time>
      </trkpt>
      <trkpt lat="50.51323" lon="3.47602">
        <ele>27.4</ele>
        <time>2022-04-18T15:17:18.088Z</time>
      </trkpt>
      <trkpt lat="50.51326" lon="3.47597">
        <ele>27.4</ele>
        <time>2022-04-18T15:17:19.086Z</time>
      </trkpt>
      <trkpt lat="50.5133" lon="3.47589">
        <ele>27.2</ele>
        <time>2022-04-18T15:17:20.351Z</time>
      </trkpt>
      <trkpt lat="50.51333" lon="3.47582">
        <ele>27</ele>
        <time>2022-04-18T15:17:21.550Z</time>
      </trkpt>
      <trkpt lat="50.51336" lon="3.47576">
        <ele>27.1</ele>
        <time>2022-04-18T15:17:22.847Z</time>
      </trkpt>
      <trkpt lat="50.51339" lon="3.4757">
        <ele>27.2</ele>
        <time>2022-04-18T15:17:24.000Z</time>
      </trkpt>
      <trkpt lat="50.51343" lon="3.47562">
        <ele>27.3</ele>
        <time>2022-04-18T15:17:25.000Z</time>
      </trkpt>
      <trkpt lat="50.51345" lon="3.47556">
        <ele>27.4</ele>
        <time>2022-04-18T15:17:26.000Z</time>
      </trkpt>
      <trkpt lat="50.51345" lon="3.47543">
        <ele>27</ele>
        <time>2022-04-18T15:17:28.000Z</time>
      </trkpt>
      <trkpt lat="50.51339" lon="3.47533">
        <ele>26.4</ele>
        <time>2022-04-18T15:17:30.000Z</time>
      </trkpt>
      <trkpt lat="50.51332" lon="3.47524">
        <ele>26</ele>
        <time>2022-04-18T15:17:32.000Z</time>
      </trkpt>
      <trkpt lat="50.51327" lon="3.47517">
        <ele>26.1</ele>
        <time>2022-04-18T15:17:34.000Z</time>
      </trkpt>
      <trkpt lat="50.5132" lon="3.47509">
        <ele>26.2</ele>
        <time>2022-04-18T15:17:36.000Z</time>
      </trkpt>
      <trkpt lat="50.51317" lon="3.47502">
        <ele>26</ele>
        <time>2022-04-18T15:17:37.000Z</time>
      </trkpt>
      <trkpt lat="50.51311" lon="3.4749">
        <ele>26</ele>
        <time>2022-04-18T15:17:39.000Z</time>
      </trkpt>
      <trkpt lat="50.51306" lon="3.47479">
        <ele>26</ele>
        <time>2022-04-18T15:17:41.000Z</time>
      </trkpt>
      <trkpt lat="50.51303" lon="3.47474">
        <ele>26.1</ele>
        <time>2022-04-18T15:17:42.029Z</time>
      </trkpt>
      <trkpt lat="50.51299" lon="3.47469">
        <ele>26.2</ele>
        <time>2022-04-18T15:17:43.000Z</time>
      </trkpt>
      <trkpt lat="50.51294" lon="3.47463">
        <ele>26.3</ele>
        <time>2022-04-18T15:17:44.406Z</time>
      </trkpt>
      <trkpt lat="50.5129" lon="3.47456">
        <ele>26.2</ele>
        <time>2022-04-18T15:17:46.025Z</time>
      </trkpt>
      <trkpt lat="50.51287" lon="3.4745">
        <ele>26.1</ele>
        <time>2022-04-18T15:17:47.000Z</time>
      </trkpt>
      <trkpt lat="50.51284" lon="3.47444">
        <ele>26</ele>
        <time>2022-04-18T15:17:48.000Z</time>
      </trkpt>
      <trkpt lat="50.51281" lon="3.47439">
        <ele>26</ele>
        <time>2022-04-18T15:17:49.000Z</time>
      </trkpt>
      <trkpt lat="50.51274" lon="3.47427">
        <ele>26.1</ele>
        <time>2022-04-18T15:17:51.000Z</time>
      </trkpt>
      <trkpt lat="50.51271" lon="3.47422">
        <ele>26</ele>
        <time>2022-04-18T15:17:52.000Z</time>
      </trkpt>
      <trkpt lat="50.51268" lon="3.47417">
        <ele>26</ele>
        <time>2022-04-18T15:17:53.000Z</time>
      </trkpt>
      <trkpt lat="50.51261" lon="3.47406">
        <ele>25.6</ele>
        <time>2022-04-18T15:17:55.000Z</time>
      </trkpt>
      <trkpt lat="50.51258" lon="3.47401">
        <ele>25.4</ele>
        <time>2022-04-18T15:17:56.000Z</time>
      </trkpt>
      <trkpt lat="50.51254" lon="3.47395">
        <ele>25.2</ele>
        <time>2022-04-18T15:17:57.000Z</time>
      </trkpt>
      <trkpt lat="50.51251" lon="3.47389">
        <ele>25</ele>
        <time>2022-04-18T15:17:58.000Z</time>
      </trkpt>
      <trkpt lat="50.51247" lon="3.47384">
        <ele>25.1</ele>
        <time>2022-04-18T15:17:59.000Z</time>
      </trkpt>
      <trkpt lat="50.51244" lon="3.47379">
        <ele>25.1</ele>
        <time>2022-04-18T15:18:00.000Z</time>
      </trkpt>
      <trkpt lat="50.5124" lon="3.47373">
        <ele>25.2</ele>
        <time>2022-04-18T15:18:01.000Z</time>
      </trkpt>
      <trkpt lat="50.51234" lon="3.47362">
        <ele>25</ele>
        <time>2022-04-18T15:18:03.000Z</time>
      </trkpt>
      <trkpt lat="50.5123" lon="3.47357">
        <ele>25</ele>
        <time>2022-04-18T15:18:04.000Z</time>
      </trkpt>
      <trkpt lat="50.51226" lon="3.47352">
        <ele>25</ele>
        <time>2022-04-18T15:18:05.000Z</time>
      </trkpt>
      <trkpt lat="50.51223" lon="3.47347">
        <ele>25</ele>
        <time>2022-04-18T15:18:06.000Z</time>
      </trkpt>
      <trkpt lat="50.51219" lon="3.47342">
        <ele>25</ele>
        <time>2022-04-18T15:18:07.000Z</time>
      </trkpt>
      <trkpt lat="50.51215" lon="3.47337">
        <ele>25</ele>
        <time>2022-04-18T15:18:08.000Z</time>
      </trkpt>
      <trkpt lat="50.51208" lon="3.47326">
        <ele>24.9</ele>
        <time>2022-04-18T15:18:10.000Z</time>
      </trkpt>
      <trkpt lat="50.51205" lon="3.47322">
        <ele>24.8</ele>
        <time>2022-04-18T15:18:11.000Z</time>
      </trkpt>
      <trkpt lat="50.512" lon="3.47317">
        <ele>24.9</ele>
        <time>2022-04-18T15:18:13.016Z</time>
      </trkpt>
      <trkpt lat="50.51195" lon="3.47311">
        <ele>25</ele>
        <time>2022-04-18T15:18:14.000Z</time>
      </trkpt>
      <trkpt lat="50.51187" lon="3.47305">
        <ele>25</ele>
        <time>2022-04-18T15:18:16.000Z</time>
      </trkpt>
      <trkpt lat="50.51183" lon="3.47302">
        <ele>24.9</ele>
        <time>2022-04-18T15:18:17.000Z</time>
      </trkpt>
      <trkpt lat="50.51174" lon="3.47295">
        <ele>24.9</ele>
        <time>2022-04-18T15:18:19.000Z</time>
      </trkpt>
      <trkpt lat="50.51167" lon="3.47289">
        <ele>25</ele>
        <time>2022-04-18T15:18:22.149Z</time>
      </trkpt>
      <trkpt lat="50.51155" lon="3.47284">
        <ele>25</ele>
        <time>2022-04-18T15:18:23.708Z</time>
      </trkpt>
      <trkpt lat="50.5115" lon="3.47282">
        <ele>25</ele>
        <time>2022-04-18T15:18:25.049Z</time>
      </trkpt>
      <trkpt lat="50.51144" lon="3.47282">
        <ele>25</ele>
        <time>2022-04-18T15:18:26.439Z</time>
      </trkpt>
      <trkpt lat="50.51138" lon="3.47279">
        <ele>25</ele>
        <time>2022-04-18T15:18:27.729Z</time>
      </trkpt>
      <trkpt lat="50.51131" lon="3.47276">
        <ele>25</ele>
        <time>2022-04-18T15:18:30.000Z</time>
      </trkpt>
      <trkpt lat="50.51124" lon="3.47273">
        <ele>25</ele>
        <time>2022-04-18T15:18:32.000Z</time>
      </trkpt>
      <trkpt lat="50.51115" lon="3.47271">
        <ele>25</ele>
        <time>2022-04-18T15:18:34.250Z</time>
      </trkpt>
      <trkpt lat="50.5111" lon="3.47271">
        <ele>25</ele>
        <time>2022-04-18T15:18:35.671Z</time>
      </trkpt>
      <trkpt lat="50.51104" lon="3.47269">
        <ele>25</ele>
        <time>2022-04-18T15:18:37.000Z</time>
      </trkpt>
      <trkpt lat="50.51094" lon="3.47265">
        <ele>25</ele>
        <time>2022-04-18T15:18:39.929Z</time>
      </trkpt>
      <trkpt lat="50.51089" lon="3.47264">
        <ele>25</ele>
        <time>2022-04-18T15:18:41.129Z</time>
      </trkpt>
      <trkpt lat="50.51084" lon="3.47263">
        <ele>25</ele>
        <time>2022-04-18T15:18:42.672Z</time>
      </trkpt>
      <trkpt lat="50.51077" lon="3.47261">
        <ele>25</ele>
        <time>2022-04-18T15:18:43.829Z</time>
      </trkpt>
      <trkpt lat="50.5107" lon="3.47269">
        <ele>25</ele>
        <time>2022-04-18T15:18:45.970Z</time>
      </trkpt>
      <trkpt lat="50.51068" lon="3.47275">
        <ele>25</ele>
        <time>2022-04-18T15:18:47.000Z</time>
      </trkpt>
      <trkpt lat="50.51066" lon="3.47281">
        <ele>25</ele>
        <time>2022-04-18T15:18:48.000Z</time>
      </trkpt>
      <trkpt lat="50.51061" lon="3.47297">
        <ele>25</ele>
        <time>2022-04-18T15:18:50.000Z</time>
      </trkpt>
      <trkpt lat="50.51056" lon="3.47307">
        <ele>25</ele>
        <time>2022-04-18T15:18:52.599Z</time>
      </trkpt>
      <trkpt lat="50.51051" lon="3.47322">
        <ele>25.1</ele>
        <time>2022-04-18T15:18:55.000Z</time>
      </trkpt>
      <trkpt lat="50.51045" lon="3.47326">
        <ele>25.1</ele>
        <time>2022-04-18T15:18:57.000Z</time>
      </trkpt>
      <trkpt lat="50.51042" lon="3.47338">
        <ele>25</ele>
        <time>2022-04-18T15:18:58.000Z</time>
      </trkpt>
      <trkpt lat="50.5104" lon="3.47347">
        <ele>25</ele>
        <time>2022-04-18T15:18:59.000Z</time>
      </trkpt>
      <trkpt lat="50.51037" lon="3.47355">
        <ele>25</ele>
        <time>2022-04-18T15:19:00.000Z</time>
      </trkpt>
      <trkpt lat="50.51031" lon="3.47372">
        <ele>25</ele>
        <time>2022-04-18T15:19:03.000Z</time>
      </trkpt>
      <trkpt lat="50.51028" lon="3.47381">
        <ele>25</ele>
        <time>2022-04-18T15:19:04.000Z</time>
      </trkpt>
      <trkpt lat="50.51024" lon="3.47391">
        <ele>25.1</ele>
        <time>2022-04-18T15:19:06.000Z</time>
      </trkpt>
      <trkpt lat="50.51022" lon="3.47398">
        <ele>25.2</ele>
        <time>2022-04-18T15:19:07.000Z</time>
      </trkpt>
      <trkpt lat="50.51018" lon="3.47407">
        <ele>25.4</ele>
        <time>2022-04-18T15:19:09.000Z</time>
      </trkpt>
      <trkpt lat="50.51014" lon="3.47414">
        <ele>25.5</ele>
        <time>2022-04-18T15:19:10.000Z</time>
      </trkpt>
      <trkpt lat="50.51011" lon="3.47421">
        <ele>25.6</ele>
        <time>2022-04-18T15:19:11.000Z</time>
      </trkpt>
      <trkpt lat="50.5101" lon="3.47429">
        <ele>25.6</ele>
        <time>2022-04-18T15:19:12.000Z</time>
      </trkpt>
      <trkpt lat="50.51009" lon="3.47436">
        <ele>25.7</ele>
        <time>2022-04-18T15:19:13.000Z</time>
      </trkpt>
      <trkpt lat="50.51008" lon="3.47446">
        <ele>25.7</ele>
        <time>2022-04-18T15:19:14.946Z</time>
      </trkpt>
      <trkpt lat="50.5101" lon="3.47457">
        <ele>25.6</ele>
        <time>2022-04-18T15:19:17.000Z</time>
      </trkpt>
      <trkpt lat="50.51018" lon="3.47475">
        <ele>25.3</ele>
        <time>2022-04-18T15:19:20.000Z</time>
      </trkpt>
      <trkpt lat="50.51022" lon="3.4748">
        <ele>25.1</ele>
        <time>2022-04-18T15:19:21.000Z</time>
      </trkpt>
      <trkpt lat="50.5103" lon="3.47488">
        <ele>25</ele>
        <time>2022-04-18T15:19:23.000Z</time>
      </trkpt>
      <trkpt lat="50.51034" lon="3.47492">
        <ele>25</ele>
        <time>2022-04-18T15:19:24.000Z</time>
      </trkpt>
      <trkpt lat="50.51038" lon="3.47497">
        <ele>25</ele>
        <time>2022-04-18T15:19:25.000Z</time>
      </trkpt>
      <trkpt lat="50.51047" lon="3.47506">
        <ele>25</ele>
        <time>2022-04-18T15:19:27.000Z</time>
      </trkpt>
      <trkpt lat="50.51051" lon="3.47511">
        <ele>25</ele>
        <time>2022-04-18T15:19:28.000Z</time>
      </trkpt>
      <trkpt lat="50.51055" lon="3.47516">
        <ele>25</ele>
        <time>2022-04-18T15:19:29.000Z</time>
      </trkpt>
      <trkpt lat="50.5106" lon="3.47521">
        <ele>24.9</ele>
        <time>2022-04-18T15:19:30.000Z</time>
      </trkpt>
      <trkpt lat="50.51064" lon="3.47526">
        <ele>24.7</ele>
        <time>2022-04-18T15:19:31.000Z</time>
      </trkpt>
      <trkpt lat="50.51069" lon="3.47531">
        <ele>24.5</ele>
        <time>2022-04-18T15:19:32.000Z</time>
      </trkpt>
      <trkpt lat="50.51073" lon="3.47536">
        <ele>24.3</ele>
        <time>2022-04-18T15:19:33.000Z</time>
      </trkpt>
      <trkpt lat="50.51077" lon="3.47541">
        <ele>24.1</ele>
        <time>2022-04-18T15:19:34.000Z</time>
      </trkpt>
      <trkpt lat="50.51081" lon="3.47547">
        <ele>24</ele>
        <time>2022-04-18T15:19:35.000Z</time>
      </trkpt>
      <trkpt lat="50.51084" lon="3.47551">
        <ele>24</ele>
        <time>2022-04-18T15:19:35.989Z</time>
      </trkpt>
      <trkpt lat="50.51089" lon="3.4756">
        <ele>24</ele>
        <time>2022-04-18T15:19:37.000Z</time>
      </trkpt>
      <trkpt lat="50.51093" lon="3.47567">
        <ele>24</ele>
        <time>2022-04-18T15:19:38.000Z</time>
      </trkpt>
      <trkpt lat="50.51097" lon="3.47574">
        <ele>24</ele>
        <time>2022-04-18T15:19:39.000Z</time>
      </trkpt>
      <trkpt lat="50.511" lon="3.47581">
        <ele>24</ele>
        <time>2022-04-18T15:19:40.000Z</time>
      </trkpt>
      <trkpt lat="50.51103" lon="3.47589">
        <ele>24</ele>
        <time>2022-04-18T15:19:41.000Z</time>
      </trkpt>
      <trkpt lat="50.51105" lon="3.47596">
        <ele>24</ele>
        <time>2022-04-18T15:19:42.000Z</time>
      </trkpt>
      <trkpt lat="50.51107" lon="3.47604">
        <ele>24</ele>
        <time>2022-04-18T15:19:43.000Z</time>
      </trkpt>
      <trkpt lat="50.51109" lon="3.47612">
        <ele>24</ele>
        <time>2022-04-18T15:19:44.000Z</time>
      </trkpt>
      <trkpt lat="50.5111" lon="3.47621">
        <ele>23.7</ele>
        <time>2022-04-18T15:19:45.000Z</time>
      </trkpt>
      <trkpt lat="50.51111" lon="3.4763">
        <ele>23.3</ele>
        <time>2022-04-18T15:19:46.000Z</time>
      </trkpt>
      <trkpt lat="50.51111" lon="3.47639">
        <ele>23</ele>
        <time>2022-04-18T15:19:47.000Z</time>
      </trkpt>
      <trkpt lat="50.51111" lon="3.47648">
        <ele>23</ele>
        <time>2022-04-18T15:19:48.000Z</time>
      </trkpt>
      <trkpt lat="50.5111" lon="3.47656">
        <ele>23</ele>
        <time>2022-04-18T15:19:49.000Z</time>
      </trkpt>
      <trkpt lat="50.51109" lon="3.47666">
        <ele>23.1</ele>
        <time>2022-04-18T15:19:50.000Z</time>
      </trkpt>
      <trkpt lat="50.51107" lon="3.47675">
        <ele>23.1</ele>
        <time>2022-04-18T15:19:51.000Z</time>
      </trkpt>
      <trkpt lat="50.51106" lon="3.47683">
        <ele>23.1</ele>
        <time>2022-04-18T15:19:52.000Z</time>
      </trkpt>
      <trkpt lat="50.51104" lon="3.47692">
        <ele>23</ele>
        <time>2022-04-18T15:19:53.000Z</time>
      </trkpt>
      <trkpt lat="50.51102" lon="3.47701">
        <ele>23</ele>
        <time>2022-04-18T15:19:54.000Z</time>
      </trkpt>
      <trkpt lat="50.511" lon="3.47709">
        <ele>23</ele>
        <time>2022-04-18T15:19:55.000Z</time>
      </trkpt>
      <trkpt lat="50.51095" lon="3.47726">
        <ele>22.9</ele>
        <time>2022-04-18T15:19:57.000Z</time>
      </trkpt>
      <trkpt lat="50.51093" lon="3.47735">
        <ele>22.7</ele>
        <time>2022-04-18T15:19:58.000Z</time>
      </trkpt>
      <trkpt lat="50.5109" lon="3.47744">
        <ele>22.4</ele>
        <time>2022-04-18T15:19:59.000Z</time>
      </trkpt>
      <trkpt lat="50.51087" lon="3.47751">
        <ele>22.1</ele>
        <time>2022-04-18T15:20:00.000Z</time>
      </trkpt>
      <trkpt lat="50.51085" lon="3.47759">
        <ele>22.1</ele>
        <time>2022-04-18T15:20:01.000Z</time>
      </trkpt>
      <trkpt lat="50.51084" lon="3.47768">
        <ele>22</ele>
        <time>2022-04-18T15:20:02.000Z</time>
      </trkpt>
      <trkpt lat="50.51084" lon="3.47778">
        <ele>22</ele>
        <time>2022-04-18T15:20:03.000Z</time>
      </trkpt>
      <trkpt lat="50.51086" lon="3.47788">
        <ele>22.1</ele>
        <time>2022-04-18T15:20:04.000Z</time>
      </trkpt>
      <trkpt lat="50.51089" lon="3.47794">
        <ele>22.1</ele>
        <time>2022-04-18T15:20:05.000Z</time>
      </trkpt>
      <trkpt lat="50.51093" lon="3.478">
        <ele>22.1</ele>
        <time>2022-04-18T15:20:06.000Z</time>
      </trkpt>
      <trkpt lat="50.51097" lon="3.47805">
        <ele>22</ele>
        <time>2022-04-18T15:20:07.000Z</time>
      </trkpt>
      <trkpt lat="50.51101" lon="3.4781">
        <ele>22</ele>
        <time>2022-04-18T15:20:08.000Z</time>
      </trkpt>
      <trkpt lat="50.51105" lon="3.47816">
        <ele>22</ele>
        <time>2022-04-18T15:20:09.000Z</time>
      </trkpt>
      <trkpt lat="50.51109" lon="3.47822">
        <ele>22</ele>
        <time>2022-04-18T15:20:10.000Z</time>
      </trkpt>
      <trkpt lat="50.51112" lon="3.47828">
        <ele>22</ele>
        <time>2022-04-18T15:20:11.000Z</time>
      </trkpt>
      <trkpt lat="50.51116" lon="3.47835">
        <ele>22.2</ele>
        <time>2022-04-18T15:20:12.000Z</time>
      </trkpt>
      <trkpt lat="50.51119" lon="3.47841">
        <ele>22.3</ele>
        <time>2022-04-18T15:20:13.000Z</time>
      </trkpt>
      <trkpt lat="50.51121" lon="3.47848">
        <ele>22.4</ele>
        <time>2022-04-18T15:20:14.000Z</time>
      </trkpt>
      <trkpt lat="50.51123" lon="3.47857">
        <ele>22.4</ele>
        <time>2022-04-18T15:20:15.000Z</time>
      </trkpt>
      <trkpt lat="50.51125" lon="3.47865">
        <ele>22.4</ele>
        <time>2022-04-18T15:20:16.000Z</time>
      </trkpt>
      <trkpt lat="50.51126" lon="3.47873">
        <ele>22.3</ele>
        <time>2022-04-18T15:20:17.000Z</time>
      </trkpt>
      <trkpt lat="50.51127" lon="3.47881">
        <ele>22.2</ele>
        <time>2022-04-18T15:20:18.000Z</time>
      </trkpt>
      <trkpt lat="50.51127" lon="3.47888">
        <ele>22</ele>
        <time>2022-04-18T15:20:19.000Z</time>
      </trkpt>
      <trkpt lat="50.51127" lon="3.47895">
        <ele>21.9</ele>
        <time>2022-04-18T15:20:20.000Z</time>
      </trkpt>
      <trkpt lat="50.51127" lon="3.47903">
        <ele>21.8</ele>
        <time>2022-04-18T15:20:21.000Z</time>
      </trkpt>
      <trkpt lat="50.51127" lon="3.4791">
        <ele>21.7</ele>
        <time>2022-04-18T15:20:22.000Z</time>
      </trkpt>
      <trkpt lat="50.51127" lon="3.47919">
        <ele>21.6</ele>
        <time>2022-04-18T15:20:23.000Z</time>
      </trkpt>
      <trkpt lat="50.51127" lon="3.47927">
        <ele>21.6</ele>
        <time>2022-04-18T15:20:24.000Z</time>
      </trkpt>
      <trkpt lat="50.51126" lon="3.47935">
        <ele>21.5</ele>
        <time>2022-04-18T15:20:25.000Z</time>
      </trkpt>
      <trkpt lat="50.51125" lon="3.47951">
        <ele>21.6</ele>
        <time>2022-04-18T15:20:27.000Z</time>
      </trkpt>
      <trkpt lat="50.51125" lon="3.47959">
        <ele>21.8</ele>
        <time>2022-04-18T15:20:28.000Z</time>
      </trkpt>
      <trkpt lat="50.51126" lon="3.47968">
        <ele>21.9</ele>
        <time>2022-04-18T15:20:29.000Z</time>
      </trkpt>
      <trkpt lat="50.51127" lon="3.47976">
        <ele>22</ele>
        <time>2022-04-18T15:20:30.000Z</time>
      </trkpt>
      <trkpt lat="50.51128" lon="3.47984">
        <ele>22</ele>
        <time>2022-04-18T15:20:31.000Z</time>
      </trkpt>
      <trkpt lat="50.5113" lon="3.48">
        <ele>22</ele>
        <time>2022-04-18T15:20:33.000Z</time>
      </trkpt>
      <trkpt lat="50.51131" lon="3.48009">
        <ele>22</ele>
        <time>2022-04-18T15:20:34.000Z</time>
      </trkpt>
      <trkpt lat="50.51133" lon="3.48017">
        <ele>22</ele>
        <time>2022-04-18T15:20:35.000Z</time>
      </trkpt>
      <trkpt lat="50.51133" lon="3.48025">
        <ele>22</ele>
        <time>2022-04-18T15:20:36.000Z</time>
      </trkpt>
      <trkpt lat="50.51134" lon="3.48037">
        <ele>22</ele>
        <time>2022-04-18T15:20:38.029Z</time>
      </trkpt>
      <trkpt lat="50.51135" lon="3.48047">
        <ele>22</ele>
        <time>2022-04-18T15:20:39.000Z</time>
      </trkpt>
      <trkpt lat="50.51135" lon="3.48055">
        <ele>22</ele>
        <time>2022-04-18T15:20:40.000Z</time>
      </trkpt>
      <trkpt lat="50.51136" lon="3.48063">
        <ele>22</ele>
        <time>2022-04-18T15:20:41.000Z</time>
      </trkpt>
      <trkpt lat="50.51136" lon="3.48071">
        <ele>21.9</ele>
        <time>2022-04-18T15:20:42.000Z</time>
      </trkpt>
      <trkpt lat="50.51137" lon="3.48087">
        <ele>21.9</ele>
        <time>2022-04-18T15:20:44.000Z</time>
      </trkpt>
      <trkpt lat="50.51138" lon="3.48094">
        <ele>22</ele>
        <time>2022-04-18T15:20:45.000Z</time>
      </trkpt>
      <trkpt lat="50.51138" lon="3.48103">
        <ele>22</ele>
        <time>2022-04-18T15:20:46.000Z</time>
      </trkpt>
      <trkpt lat="50.51139" lon="3.48111">
        <ele>22</ele>
        <time>2022-04-18T15:20:47.000Z</time>
      </trkpt>
      <trkpt lat="50.51141" lon="3.48126">
        <ele>22.1</ele>
        <time>2022-04-18T15:20:49.000Z</time>
      </trkpt>
      <trkpt lat="50.51142" lon="3.48133">
        <ele>22.1</ele>
        <time>2022-04-18T15:20:50.000Z</time>
      </trkpt>
      <trkpt lat="50.51143" lon="3.4814">
        <ele>22.1</ele>
        <time>2022-04-18T15:20:51.000Z</time>
      </trkpt>
      <trkpt lat="50.51144" lon="3.48148">
        <ele>22.2</ele>
        <time>2022-04-18T15:20:52.000Z</time>
      </trkpt>
      <trkpt lat="50.51146" lon="3.48162">
        <ele>22.3</ele>
        <time>2022-04-18T15:20:54.000Z</time>
      </trkpt>
      <trkpt lat="50.51145" lon="3.4817">
        <ele>22.2</ele>
        <time>2022-04-18T15:20:55.000Z</time>
      </trkpt>
      <trkpt lat="50.51145" lon="3.48178">
        <ele>22.2</ele>
        <time>2022-04-18T15:20:56.000Z</time>
      </trkpt>
      <trkpt lat="50.51144" lon="3.48185">
        <ele>22.2</ele>
        <time>2022-04-18T15:20:57.000Z</time>
      </trkpt>
      <trkpt lat="50.51143" lon="3.48195">
        <ele>22.1</ele>
        <time>2022-04-18T15:20:58.000Z</time>
      </trkpt>
      <trkpt lat="50.51142" lon="3.48203">
        <ele>22.1</ele>
        <time>2022-04-18T15:20:59.000Z</time>
      </trkpt>
      <trkpt lat="50.51141" lon="3.48212">
        <ele>22.1</ele>
        <time>2022-04-18T15:21:00.000Z</time>
      </trkpt>
      <trkpt lat="50.51141" lon="3.48221">
        <ele>22.1</ele>
        <time>2022-04-18T15:21:01.000Z</time>
      </trkpt>
      <trkpt lat="50.51139" lon="3.48231">
        <ele>22</ele>
        <time>2022-04-18T15:21:02.000Z</time>
      </trkpt>
      <trkpt lat="50.51137" lon="3.48238">
        <ele>22</ele>
        <time>2022-04-18T15:21:03.000Z</time>
      </trkpt>
      <trkpt lat="50.51134" lon="3.48245">
        <ele>22</ele>
        <time>2022-04-18T15:21:04.000Z</time>
      </trkpt>
      <trkpt lat="50.51131" lon="3.48253">
        <ele>22</ele>
        <time>2022-04-18T15:21:05.000Z</time>
      </trkpt>
      <trkpt lat="50.51128" lon="3.4826">
        <ele>22</ele>
        <time>2022-04-18T15:21:06.000Z</time>
      </trkpt>
      <trkpt lat="50.51125" lon="3.48266">
        <ele>22</ele>
        <time>2022-04-18T15:21:07.000Z</time>
      </trkpt>
      <trkpt lat="50.51123" lon="3.48272">
        <ele>22</ele>
        <time>2022-04-18T15:21:08.000Z</time>
      </trkpt>
      <trkpt lat="50.51119" lon="3.4828">
        <ele>22</ele>
        <time>2022-04-18T15:21:09.000Z</time>
      </trkpt>
      <trkpt lat="50.51117" lon="3.48287">
        <ele>22.1</ele>
        <time>2022-04-18T15:21:10.000Z</time>
      </trkpt>
      <trkpt lat="50.51115" lon="3.48294">
        <ele>22.1</ele>
        <time>2022-04-18T15:21:11.000Z</time>
      </trkpt>
      <trkpt lat="50.51112" lon="3.48301">
        <ele>22</ele>
        <time>2022-04-18T15:21:12.000Z</time>
      </trkpt>
      <trkpt lat="50.5111" lon="3.48309">
        <ele>22</ele>
        <time>2022-04-18T15:21:13.000Z</time>
      </trkpt>
      <trkpt lat="50.51108" lon="3.48316">
        <ele>21.9</ele>
        <time>2022-04-18T15:21:14.000Z</time>
      </trkpt>
      <trkpt lat="50.51105" lon="3.48323">
        <ele>21.8</ele>
        <time>2022-04-18T15:21:15.000Z</time>
      </trkpt>
      <trkpt lat="50.51103" lon="3.4833">
        <ele>21.7</ele>
        <time>2022-04-18T15:21:16.000Z</time>
      </trkpt>
      <trkpt lat="50.51099" lon="3.48337">
        <ele>21.6</ele>
        <time>2022-04-18T15:21:17.000Z</time>
      </trkpt>
      <trkpt lat="50.51096" lon="3.48344">
        <ele>21.7</ele>
        <time>2022-04-18T15:21:18.000Z</time>
      </trkpt>
      <trkpt lat="50.51095" lon="3.48351">
        <ele>21.8</ele>
        <time>2022-04-18T15:21:19.000Z</time>
      </trkpt>
      <trkpt lat="50.51092" lon="3.48358">
        <ele>21.9</ele>
        <time>2022-04-18T15:21:20.000Z</time>
      </trkpt>
      <trkpt lat="50.51091" lon="3.48365">
        <ele>21.9</ele>
        <time>2022-04-18T15:21:21.000Z</time>
      </trkpt>
      <trkpt lat="50.51088" lon="3.48379">
        <ele>21.6</ele>
        <time>2022-04-18T15:21:23.000Z</time>
      </trkpt>
      <trkpt lat="50.51088" lon="3.48388">
        <ele>21.4</ele>
        <time>2022-04-18T15:21:25.000Z</time>
      </trkpt>
      <trkpt lat="50.5109" lon="3.48382">
        <ele>21.6</ele>
        <time>2022-04-18T15:21:29.000Z</time>
      </trkpt>
      <trkpt lat="50.51091" lon="3.48371">
        <ele>21.8</ele>
        <time>2022-04-18T15:21:31.000Z</time>
      </trkpt>
      <trkpt lat="50.51093" lon="3.48363">
        <ele>22</ele>
        <time>2022-04-18T15:21:32.058Z</time>
      </trkpt>
      <trkpt lat="50.51095" lon="3.48356">
        <ele>21.9</ele>
        <time>2022-04-18T15:21:33.000Z</time>
      </trkpt>
      <trkpt lat="50.51098" lon="3.4835">
        <ele>21.8</ele>
        <time>2022-04-18T15:21:34.000Z</time>
      </trkpt>
      <trkpt lat="50.51101" lon="3.4834">
        <ele>21.7</ele>
        <time>2022-04-18T15:21:35.897Z</time>
      </trkpt>
      <trkpt lat="50.511" lon="3.48324">
        <ele>21.6</ele>
        <time>2022-04-18T15:21:38.571Z</time>
      </trkpt>
      <trkpt lat="50.51094" lon="3.48319">
        <ele>21.4</ele>
        <time>2022-04-18T15:21:40.000Z</time>
      </trkpt>
      <trkpt lat="50.51089" lon="3.48308">
        <ele>21.2</ele>
        <time>2022-04-18T15:21:42.000Z</time>
      </trkpt>
      <trkpt lat="50.51086" lon="3.483">
        <ele>21.3</ele>
        <time>2022-04-18T15:21:43.000Z</time>
      </trkpt>
      <trkpt lat="50.51084" lon="3.48292">
        <ele>21.5</ele>
        <time>2022-04-18T15:21:44.000Z</time>
      </trkpt>
      <trkpt lat="50.51082" lon="3.48285">
        <ele>21.7</ele>
        <time>2022-04-18T15:21:45.000Z</time>
      </trkpt>
      <trkpt lat="50.5108" lon="3.48278">
        <ele>21.9</ele>
        <time>2022-04-18T15:21:46.000Z</time>
      </trkpt>
      <trkpt lat="50.51077" lon="3.4827">
        <ele>21.6</ele>
        <time>2022-04-18T15:21:47.000Z</time>
      </trkpt>
      <trkpt lat="50.51075" lon="3.48262">
        <ele>21.3</ele>
        <time>2022-04-18T15:21:48.000Z</time>
      </trkpt>
      <trkpt lat="50.51069" lon="3.4825">
        <ele>21</ele>
        <time>2022-04-18T15:21:50.000Z</time>
      </trkpt>
      <trkpt lat="50.51064" lon="3.48243">
        <ele>20.8</ele>
        <time>2022-04-18T15:21:51.000Z</time>
      </trkpt>
      <trkpt lat="50.51059" lon="3.4824">
        <ele>20.7</ele>
        <time>2022-04-18T15:21:52.000Z</time>
      </trkpt>
      <trkpt lat="50.51054" lon="3.48237">
        <ele>20.5</ele>
        <time>2022-04-18T15:21:53.000Z</time>
      </trkpt>
      <trkpt lat="50.51048" lon="3.48235">
        <ele>20.3</ele>
        <time>2022-04-18T15:21:54.000Z</time>
      </trkpt>
      <trkpt lat="50.51042" lon="3.48232">
        <ele>20.2</ele>
        <time>2022-04-18T15:21:55.000Z</time>
      </trkpt>
      <trkpt lat="50.51036" lon="3.4823">
        <ele>20.1</ele>
        <time>2022-04-18T15:21:56.000Z</time>
      </trkpt>
      <trkpt lat="50.51028" lon="3.48228">
        <ele>20</ele>
        <time>2022-04-18T15:21:57.000Z</time>
      </trkpt>
      <trkpt lat="50.51016" lon="3.48224">
        <ele>19.6</ele>
        <time>2022-04-18T15:21:59.000Z</time>
      </trkpt>
      <trkpt lat="50.51009" lon="3.48221">
        <ele>19.3</ele>
        <time>2022-04-18T15:22:00.000Z</time>
      </trkpt>
      <trkpt lat="50.51003" lon="3.48219">
        <ele>19.1</ele>
        <time>2022-04-18T15:22:01.000Z</time>
      </trkpt>
      <trkpt lat="50.50996" lon="3.48218">
        <ele>19</ele>
        <time>2022-04-18T15:22:02.000Z</time>
      </trkpt>
      <trkpt lat="50.50991" lon="3.4822">
        <ele>19</ele>
        <time>2022-04-18T15:22:03.000Z</time>
      </trkpt>
      <trkpt lat="50.50985" lon="3.48223">
        <ele>19</ele>
        <time>2022-04-18T15:22:04.000Z</time>
      </trkpt>
      <trkpt lat="50.50979" lon="3.48225">
        <ele>19</ele>
        <time>2022-04-18T15:22:05.000Z</time>
      </trkpt>
      <trkpt lat="50.50966" lon="3.48228">
        <ele>19</ele>
        <time>2022-04-18T15:22:07.000Z</time>
      </trkpt>
      <trkpt lat="50.5096" lon="3.48224">
        <ele>19</ele>
        <time>2022-04-18T15:22:08.000Z</time>
      </trkpt>
      <trkpt lat="50.50955" lon="3.48219">
        <ele>19</ele>
        <time>2022-04-18T15:22:09.000Z</time>
      </trkpt>
      <trkpt lat="50.5095" lon="3.48213">
        <ele>19</ele>
        <time>2022-04-18T15:22:10.000Z</time>
      </trkpt>
      <trkpt lat="50.50946" lon="3.48206">
        <ele>19</ele>
        <time>2022-04-18T15:22:11.000Z</time>
      </trkpt>
      <trkpt lat="50.50942" lon="3.482">
        <ele>19</ele>
        <time>2022-04-18T15:22:12.000Z</time>
      </trkpt>
      <trkpt lat="50.50937" lon="3.48193">
        <ele>19</ele>
        <time>2022-04-18T15:22:13.000Z</time>
      </trkpt>
      <trkpt lat="50.50932" lon="3.48187">
        <ele>19</ele>
        <time>2022-04-18T15:22:14.000Z</time>
      </trkpt>
      <trkpt lat="50.50927" lon="3.48182">
        <ele>19</ele>
        <time>2022-04-18T15:22:15.000Z</time>
      </trkpt>
      <trkpt lat="50.50922" lon="3.48176">
        <ele>19</ele>
        <time>2022-04-18T15:22:16.000Z</time>
      </trkpt>
      <trkpt lat="50.50917" lon="3.4817">
        <ele>19</ele>
        <time>2022-04-18T15:22:17.000Z</time>
      </trkpt>
      <trkpt lat="50.50912" lon="3.48165">
        <ele>19</ele>
        <time>2022-04-18T15:22:18.000Z</time>
      </trkpt>
      <trkpt lat="50.50907" lon="3.4816">
        <ele>19</ele>
        <time>2022-04-18T15:22:19.000Z</time>
      </trkpt>
      <trkpt lat="50.50904" lon="3.48155">
        <ele>19</ele>
        <time>2022-04-18T15:22:20.000Z</time>
      </trkpt>
      <trkpt lat="50.50898" lon="3.48151">
        <ele>19</ele>
        <time>2022-04-18T15:22:21.000Z</time>
      </trkpt>
      <trkpt lat="50.50892" lon="3.4815">
        <ele>19</ele>
        <time>2022-04-18T15:22:22.000Z</time>
      </trkpt>
      <trkpt lat="50.50887" lon="3.48151">
        <ele>19</ele>
        <time>2022-04-18T15:22:23.000Z</time>
      </trkpt>
      <trkpt lat="50.50881" lon="3.48152">
        <ele>19</ele>
        <time>2022-04-18T15:22:24.000Z</time>
      </trkpt>
      <trkpt lat="50.50876" lon="3.48154">
        <ele>19</ele>
        <time>2022-04-18T15:22:25.000Z</time>
      </trkpt>
      <trkpt lat="50.50872" lon="3.48157">
        <ele>19</ele>
        <time>2022-04-18T15:22:26.000Z</time>
      </trkpt>
      <trkpt lat="50.50866" lon="3.48159">
        <ele>19</ele>
        <time>2022-04-18T15:22:27.000Z</time>
      </trkpt>
      <trkpt lat="50.5086" lon="3.48161">
        <ele>19</ele>
        <time>2022-04-18T15:22:28.000Z</time>
      </trkpt>
      <trkpt lat="50.50856" lon="3.48163">
        <ele>19</ele>
        <time>2022-04-18T15:22:29.000Z</time>
      </trkpt>
      <trkpt lat="50.50851" lon="3.48166">
        <ele>19</ele>
        <time>2022-04-18T15:22:30.000Z</time>
      </trkpt>
      <trkpt lat="50.50846" lon="3.48169">
        <ele>19</ele>
        <time>2022-04-18T15:22:31.000Z</time>
      </trkpt>
      <trkpt lat="50.50837" lon="3.48174">
        <ele>19</ele>
        <time>2022-04-18T15:22:33.000Z</time>
      </trkpt>
      <trkpt lat="50.50832" lon="3.48177">
        <ele>19</ele>
        <time>2022-04-18T15:22:34.000Z</time>
      </trkpt>
      <trkpt lat="50.50827" lon="3.48181">
        <ele>19</ele>
        <time>2022-04-18T15:22:35.000Z</time>
      </trkpt>
      <trkpt lat="50.50822" lon="3.48183">
        <ele>19</ele>
        <time>2022-04-18T15:22:36.000Z</time>
      </trkpt>
      <trkpt lat="50.50817" lon="3.48183">
        <ele>19</ele>
        <time>2022-04-18T15:22:37.000Z</time>
      </trkpt>
      <trkpt lat="50.50813" lon="3.48183">
        <ele>19</ele>
        <time>2022-04-18T15:22:38.000Z</time>
      </trkpt>
      <trkpt lat="50.50807" lon="3.48183">
        <ele>19</ele>
        <time>2022-04-18T15:22:39.000Z</time>
      </trkpt>
      <trkpt lat="50.50798" lon="3.48183">
        <ele>19</ele>
        <time>2022-04-18T15:22:41.000Z</time>
      </trkpt>
      <trkpt lat="50.50793" lon="3.48182">
        <ele>19</ele>
        <time>2022-04-18T15:22:42.000Z</time>
      </trkpt>
      <trkpt lat="50.50786" lon="3.48181">
        <ele>19</ele>
        <time>2022-04-18T15:22:43.000Z</time>
      </trkpt>
      <trkpt lat="50.50781" lon="3.4818">
        <ele>19</ele>
        <time>2022-04-18T15:22:44.000Z</time>
      </trkpt>
      <trkpt lat="50.50774" lon="3.48176">
        <ele>19</ele>
        <time>2022-04-18T15:22:46.000Z</time>
      </trkpt>
      <trkpt lat="50.50768" lon="3.48172">
        <ele>19</ele>
        <time>2022-04-18T15:22:48.000Z</time>
      </trkpt>
      <trkpt lat="50.5076" lon="3.48168">
        <ele>19</ele>
        <time>2022-04-18T15:22:50.000Z</time>
      </trkpt>
      <trkpt lat="50.50751" lon="3.48166">
        <ele>19</ele>
        <time>2022-04-18T15:22:52.000Z</time>
      </trkpt>
      <trkpt lat="50.50746" lon="3.48164">
        <ele>19</ele>
        <time>2022-04-18T15:22:53.000Z</time>
      </trkpt>
      <trkpt lat="50.50738" lon="3.48166">
        <ele>19</ele>
        <time>2022-04-18T15:22:55.000Z</time>
      </trkpt>
      <trkpt lat="50.50732" lon="3.4817">
        <ele>19</ele>
        <time>2022-04-18T15:22:56.071Z</time>
      </trkpt>
      <trkpt lat="50.50727" lon="3.48174">
        <ele>19</ele>
        <time>2022-04-18T15:22:57.000Z</time>
      </trkpt>
      <trkpt lat="50.50721" lon="3.48178">
        <ele>19</ele>
        <time>2022-04-18T15:22:59.067Z</time>
      </trkpt>
      <trkpt lat="50.50716" lon="3.48181">
        <ele>19</ele>
        <time>2022-04-18T15:23:00.000Z</time>
      </trkpt>
      <trkpt lat="50.50707" lon="3.48183">
        <ele>19</ele>
        <time>2022-04-18T15:23:02.000Z</time>
      </trkpt>
      <trkpt lat="50.507" lon="3.48184">
        <ele>19</ele>
        <time>2022-04-18T15:23:02.992Z</time>
      </trkpt>
      <trkpt lat="50.50695" lon="3.48183">
        <ele>19</ele>
        <time>2022-04-18T15:23:04.000Z</time>
      </trkpt>
      <trkpt lat="50.50689" lon="3.4818">
        <ele>19</ele>
        <time>2022-04-18T15:23:05.672Z</time>
      </trkpt>
      <trkpt lat="50.50677" lon="3.48177">
        <ele>19</ele>
        <time>2022-04-18T15:23:08.950Z</time>
      </trkpt>
      <trkpt lat="50.50669" lon="3.48176">
        <ele>19</ele>
        <time>2022-04-18T15:23:11.352Z</time>
      </trkpt>
      <trkpt lat="50.50664" lon="3.48175">
        <ele>18.9</ele>
        <time>2022-04-18T15:23:12.450Z</time>
      </trkpt>
      <trkpt lat="50.50659" lon="3.48176">
        <ele>18.8</ele>
        <time>2022-04-18T15:23:13.569Z</time>
      </trkpt>
      <trkpt lat="50.50653" lon="3.48175">
        <ele>18.7</ele>
        <time>2022-04-18T15:23:15.000Z</time>
      </trkpt>
      <trkpt lat="50.50648" lon="3.48174">
        <ele>18.5</ele>
        <time>2022-04-18T15:23:16.000Z</time>
      </trkpt>
      <trkpt lat="50.50639" lon="3.48172">
        <ele>18.2</ele>
        <time>2022-04-18T15:23:18.966Z</time>
      </trkpt>
      <trkpt lat="50.50633" lon="3.48171">
        <ele>18.1</ele>
        <time>2022-04-18T15:23:21.000Z</time>
      </trkpt>
      <trkpt lat="50.50627" lon="3.4817">
        <ele>18.1</ele>
        <time>2022-04-18T15:23:22.030Z</time>
      </trkpt>
      <trkpt lat="50.50622" lon="3.48169">
        <ele>18</ele>
        <time>2022-04-18T15:23:24.071Z</time>
      </trkpt>
      <trkpt lat="50.50611" lon="3.48166">
        <ele>18</ele>
        <time>2022-04-18T15:23:27.067Z</time>
      </trkpt>
      <trkpt lat="50.50603" lon="3.48166">
        <ele>18</ele>
        <time>2022-04-18T15:23:29.936Z</time>
      </trkpt>
      <trkpt lat="50.50598" lon="3.48164">
        <ele>18</ele>
        <time>2022-04-18T15:23:31.050Z</time>
      </trkpt>
      <trkpt lat="50.50591" lon="3.48162">
        <ele>18</ele>
        <time>2022-04-18T15:23:32.950Z</time>
      </trkpt>
      <trkpt lat="50.50585" lon="3.4816">
        <ele>18</ele>
        <time>2022-04-18T15:23:34.908Z</time>
      </trkpt>
      <trkpt lat="50.50577" lon="3.48161">
        <ele>18</ele>
        <time>2022-04-18T15:23:37.607Z</time>
      </trkpt>
      <trkpt lat="50.5057" lon="3.4816">
        <ele>18</ele>
        <time>2022-04-18T15:23:39.929Z</time>
      </trkpt>
      <trkpt lat="50.50561" lon="3.48156">
        <ele>18</ele>
        <time>2022-04-18T15:23:42.000Z</time>
      </trkpt>
      <trkpt lat="50.50555" lon="3.48154">
        <ele>18</ele>
        <time>2022-04-18T15:23:44.000Z</time>
      </trkpt>
      <trkpt lat="50.50549" lon="3.48151">
        <ele>18</ele>
        <time>2022-04-18T15:23:46.570Z</time>
      </trkpt>
      <trkpt lat="50.5054" lon="3.48149">
        <ele>18</ele>
        <time>2022-04-18T15:23:49.000Z</time>
      </trkpt>
      <trkpt lat="50.50535" lon="3.48148">
        <ele>18</ele>
        <time>2022-04-18T15:23:50.991Z</time>
      </trkpt>
      <trkpt lat="50.50528" lon="3.48146">
        <ele>18</ele>
        <time>2022-04-18T15:23:53.000Z</time>
      </trkpt>
      <trkpt lat="50.50524" lon="3.48145">
        <ele>18.1</ele>
        <time>2022-04-18T15:23:54.108Z</time>
      </trkpt>
      <trkpt lat="50.50517" lon="3.48144">
        <ele>18.4</ele>
        <time>2022-04-18T15:23:57.000Z</time>
      </trkpt>
      <trkpt lat="50.50511" lon="3.48142">
        <ele>18.6</ele>
        <time>2022-04-18T15:23:59.610Z</time>
      </trkpt>
      <trkpt lat="50.50506" lon="3.4814">
        <ele>18.8</ele>
        <time>2022-04-18T15:24:02.000Z</time>
      </trkpt>
      <trkpt lat="50.505" lon="3.48138">
        <ele>19</ele>
        <time>2022-04-18T15:24:04.010Z</time>
      </trkpt>
      <trkpt lat="50.50494" lon="3.48137">
        <ele>19</ele>
        <time>2022-04-18T15:24:06.347Z</time>
      </trkpt>
      <trkpt lat="50.50489" lon="3.48135">
        <ele>19</ele>
        <time>2022-04-18T15:24:09.000Z</time>
      </trkpt>
      <trkpt lat="50.50484" lon="3.48134">
        <ele>19</ele>
        <time>2022-04-18T15:24:11.000Z</time>
      </trkpt>
      <trkpt lat="50.50478" lon="3.48132">
        <ele>19</ele>
        <time>2022-04-18T15:24:13.000Z</time>
      </trkpt>
      <trkpt lat="50.50471" lon="3.4813">
        <ele>19</ele>
        <time>2022-04-18T15:24:15.990Z</time>
      </trkpt>
      <trkpt lat="50.50462" lon="3.48128">
        <ele>19.1</ele>
        <time>2022-04-18T15:24:18.650Z</time>
      </trkpt>
      <trkpt lat="50.50456" lon="3.48126">
        <ele>19.3</ele>
        <time>2022-04-18T15:24:21.069Z</time>
      </trkpt>
      <trkpt lat="50.50449" lon="3.48123">
        <ele>19.5</ele>
        <time>2022-04-18T15:24:24.591Z</time>
      </trkpt>
      <trkpt lat="50.50443" lon="3.48121">
        <ele>19.7</ele>
        <time>2022-04-18T15:24:27.000Z</time>
      </trkpt>
      <trkpt lat="50.50435" lon="3.48119">
        <ele>19.8</ele>
        <time>2022-04-18T15:24:30.000Z</time>
      </trkpt>
      <trkpt lat="50.50427" lon="3.48116">
        <ele>19.9</ele>
        <time>2022-04-18T15:24:32.886Z</time>
      </trkpt>
      <trkpt lat="50.50422" lon="3.48114">
        <ele>20</ele>
        <time>2022-04-18T15:24:35.111Z</time>
      </trkpt>
      <trkpt lat="50.50413" lon="3.4811">
        <ele>20</ele>
        <time>2022-04-18T15:24:38.106Z</time>
      </trkpt>
      <trkpt lat="50.50408" lon="3.48109">
        <ele>20</ele>
        <time>2022-04-18T15:24:39.591Z</time>
      </trkpt>
      <trkpt lat="50.50401" lon="3.48107">
        <ele>20</ele>
        <time>2022-04-18T15:24:42.669Z</time>
      </trkpt>
      <trkpt lat="50.50395" lon="3.48103">
        <ele>20</ele>
        <time>2022-04-18T15:24:44.949Z</time>
      </trkpt>
      <trkpt lat="50.50387" lon="3.48101">
        <ele>20</ele>
        <time>2022-04-18T15:24:47.989Z</time>
      </trkpt>
      <trkpt lat="50.50383" lon="3.48098">
        <ele>20</ele>
        <time>2022-04-18T15:24:49.912Z</time>
      </trkpt>
      <trkpt lat="50.50375" lon="3.48097">
        <ele>20</ele>
        <time>2022-04-18T15:24:52.592Z</time>
      </trkpt>
      <trkpt lat="50.5037" lon="3.48096">
        <ele>20</ele>
        <time>2022-04-18T15:24:54.000Z</time>
      </trkpt>
      <trkpt lat="50.50363" lon="3.48094">
        <ele>20</ele>
        <time>2022-04-18T15:24:56.490Z</time>
      </trkpt>
      <trkpt lat="50.50358" lon="3.48092">
        <ele>20</ele>
        <time>2022-04-18T15:24:57.928Z</time>
      </trkpt>
      <trkpt lat="50.50349" lon="3.4809">
        <ele>20</ele>
        <time>2022-04-18T15:25:00.886Z</time>
      </trkpt>
      <trkpt lat="50.5034" lon="3.4809">
        <ele>20</ele>
        <time>2022-04-18T15:25:03.932Z</time>
      </trkpt>
      <trkpt lat="50.50333" lon="3.48089">
        <ele>20</ele>
        <time>2022-04-18T15:25:06.510Z</time>
      </trkpt>
      <trkpt lat="50.50327" lon="3.48089">
        <ele>20</ele>
        <time>2022-04-18T15:25:09.000Z</time>
      </trkpt>
      <trkpt lat="50.50323" lon="3.4809">
        <ele>19.9</ele>
        <time>2022-04-18T15:25:11.430Z</time>
      </trkpt>
      <trkpt lat="50.50317" lon="3.48092">
        <ele>19.8</ele>
        <time>2022-04-18T15:25:13.487Z</time>
      </trkpt>
      <trkpt lat="50.5031" lon="3.48096">
        <ele>19.6</ele>
        <time>2022-04-18T15:25:15.849Z</time>
      </trkpt>
      <trkpt lat="50.50303" lon="3.481">
        <ele>19.4</ele>
        <time>2022-04-18T15:25:18.909Z</time>
      </trkpt>
      <trkpt lat="50.50295" lon="3.48104">
        <ele>19.2</ele>
        <time>2022-04-18T15:25:22.548Z</time>
      </trkpt>
      <trkpt lat="50.5029" lon="3.48106">
        <ele>19.1</ele>
        <time>2022-04-18T15:25:23.990Z</time>
      </trkpt>
      <trkpt lat="50.50285" lon="3.48107">
        <ele>19</ele>
        <time>2022-04-18T15:25:26.768Z</time>
      </trkpt>
      <trkpt lat="50.50279" lon="3.48107">
        <ele>19</ele>
        <time>2022-04-18T15:25:27.813Z</time>
      </trkpt>
      <trkpt lat="50.5027" lon="3.48108">
        <ele>19</ele>
        <time>2022-04-18T15:25:31.109Z</time>
      </trkpt>
      <trkpt lat="50.50266" lon="3.48108">
        <ele>19</ele>
        <time>2022-04-18T15:25:32.147Z</time>
      </trkpt>
      <trkpt lat="50.50261" lon="3.48107">
        <ele>19</ele>
        <time>2022-04-18T15:25:33.669Z</time>
      </trkpt>
      <trkpt lat="50.50254" lon="3.48106">
        <ele>19</ele>
        <time>2022-04-18T15:25:35.000Z</time>
      </trkpt>
      <trkpt lat="50.50246" lon="3.48106">
        <ele>19</ele>
        <time>2022-04-18T15:25:37.150Z</time>
      </trkpt>
      <trkpt lat="50.50239" lon="3.48107">
        <ele>19.1</ele>
        <time>2022-04-18T15:25:38.611Z</time>
      </trkpt>
      <trkpt lat="50.50235" lon="3.48108">
        <ele>19.1</ele>
        <time>2022-04-18T15:25:40.000Z</time>
      </trkpt>
      <trkpt lat="50.5023" lon="3.48108">
        <ele>19.1</ele>
        <time>2022-04-18T15:25:41.490Z</time>
      </trkpt>
      <trkpt lat="50.50225" lon="3.48109">
        <ele>19.1</ele>
        <time>2022-04-18T15:25:43.648Z</time>
      </trkpt>
      <trkpt lat="50.5022" lon="3.4811">
        <ele>19</ele>
        <time>2022-04-18T15:25:44.829Z</time>
      </trkpt>
      <trkpt lat="50.50215" lon="3.48113">
        <ele>19</ele>
        <time>2022-04-18T15:25:46.000Z</time>
      </trkpt>
      <trkpt lat="50.50208" lon="3.48119">
        <ele>19</ele>
        <time>2022-04-18T15:25:48.348Z</time>
      </trkpt>
      <trkpt lat="50.50204" lon="3.48122">
        <ele>19</ele>
        <time>2022-04-18T15:25:49.270Z</time>
      </trkpt>
      <trkpt lat="50.50196" lon="3.48129">
        <ele>19</ele>
        <time>2022-04-18T15:25:51.931Z</time>
      </trkpt>
      <trkpt lat="50.50189" lon="3.48137">
        <ele>18.8</ele>
        <time>2022-04-18T15:25:54.000Z</time>
      </trkpt>
      <trkpt lat="50.50183" lon="3.48141">
        <ele>18.5</ele>
        <time>2022-04-18T15:25:56.000Z</time>
      </trkpt>
      <trkpt lat="50.50178" lon="3.48144">
        <ele>18.3</ele>
        <time>2022-04-18T15:25:58.230Z</time>
      </trkpt>
      <trkpt lat="50.50174" lon="3.4815">
        <ele>18.2</ele>
        <time>2022-04-18T15:26:00.000Z</time>
      </trkpt>
      <trkpt lat="50.50167" lon="3.48155">
        <ele>18</ele>
        <time>2022-04-18T15:26:02.068Z</time>
      </trkpt>
      <trkpt lat="50.50162" lon="3.48158">
        <ele>18</ele>
        <time>2022-04-18T15:26:04.000Z</time>
      </trkpt>
      <trkpt lat="50.50158" lon="3.48163">
        <ele>18</ele>
        <time>2022-04-18T15:26:06.000Z</time>
      </trkpt>
      <trkpt lat="50.50151" lon="3.48171">
        <ele>18</ele>
        <time>2022-04-18T15:26:08.000Z</time>
      </trkpt>
      <trkpt lat="50.50147" lon="3.48175">
        <ele>18</ele>
        <time>2022-04-18T15:26:09.000Z</time>
      </trkpt>
      <trkpt lat="50.50139" lon="3.48184">
        <ele>18</ele>
        <time>2022-04-18T15:26:11.792Z</time>
      </trkpt>
      <trkpt lat="50.50135" lon="3.48188">
        <ele>18</ele>
        <time>2022-04-18T15:26:13.069Z</time>
      </trkpt>
      <trkpt lat="50.5013" lon="3.48193">
        <ele>18</ele>
        <time>2022-04-18T15:26:14.028Z</time>
      </trkpt>
      <trkpt lat="50.50122" lon="3.48207">
        <ele>17.8</ele>
        <time>2022-04-18T15:26:16.426Z</time>
      </trkpt>
      <trkpt lat="50.50117" lon="3.48214">
        <ele>17.9</ele>
        <time>2022-04-18T15:26:17.732Z</time>
      </trkpt>
      <trkpt lat="50.50111" lon="3.48224">
        <ele>17.9</ele>
        <time>2022-04-18T15:26:20.069Z</time>
      </trkpt>
      <trkpt lat="50.50106" lon="3.48232">
        <ele>17.5</ele>
        <time>2022-04-18T15:26:21.111Z</time>
      </trkpt>
      <trkpt lat="50.50101" lon="3.48242">
        <ele>17.2</ele>
        <time>2022-04-18T15:26:23.110Z</time>
      </trkpt>
      <trkpt lat="50.50096" lon="3.48259">
        <ele>17</ele>
        <time>2022-04-18T15:26:25.000Z</time>
      </trkpt>
      <trkpt lat="50.50091" lon="3.48269">
        <ele>17</ele>
        <time>2022-04-18T15:26:26.488Z</time>
      </trkpt>
      <trkpt lat="50.50088" lon="3.48279">
        <ele>17</ele>
        <time>2022-04-18T15:26:27.950Z</time>
      </trkpt>
      <trkpt lat="50.50086" lon="3.48285">
        <ele>17</ele>
        <time>2022-04-18T15:26:30.008Z</time>
      </trkpt>
      <trkpt lat="50.50085" lon="3.48292">
        <ele>17</ele>
        <time>2022-04-18T15:26:30.911Z</time>
      </trkpt>
      <trkpt lat="50.50084" lon="3.483">
        <ele>17</ele>
        <time>2022-04-18T15:26:33.000Z</time>
      </trkpt>
      <trkpt lat="50.50083" lon="3.48308">
        <ele>16.9</ele>
        <time>2022-04-18T15:26:34.192Z</time>
      </trkpt>
      <trkpt lat="50.50081" lon="3.48315">
        <ele>16.7</ele>
        <time>2022-04-18T15:26:35.228Z</time>
      </trkpt>
      <trkpt lat="50.5008" lon="3.48323">
        <ele>16.4</ele>
        <time>2022-04-18T15:26:36.549Z</time>
      </trkpt>
      <trkpt lat="50.50077" lon="3.48331">
        <ele>16.3</ele>
        <time>2022-04-18T15:26:37.710Z</time>
      </trkpt>
      <trkpt lat="50.50074" lon="3.4834">
        <ele>16.3</ele>
        <time>2022-04-18T15:26:40.089Z</time>
      </trkpt>
      <trkpt lat="50.50071" lon="3.48349">
        <ele>16.2</ele>
        <time>2022-04-18T15:26:41.028Z</time>
      </trkpt>
      <trkpt lat="50.50066" lon="3.48359">
        <ele>16</ele>
        <time>2022-04-18T15:26:42.970Z</time>
      </trkpt>
      <trkpt lat="50.50063" lon="3.48365">
        <ele>16</ele>
        <time>2022-04-18T15:26:44.288Z</time>
      </trkpt>
      <trkpt lat="50.50059" lon="3.48375">
        <ele>16</ele>
        <time>2022-04-18T15:26:46.000Z</time>
      </trkpt>
      <trkpt lat="50.50057" lon="3.48383">
        <ele>16</ele>
        <time>2022-04-18T15:26:48.000Z</time>
      </trkpt>
      <trkpt lat="50.50055" lon="3.4839">
        <ele>16</ele>
        <time>2022-04-18T15:26:49.000Z</time>
      </trkpt>
      <trkpt lat="50.50053" lon="3.48396">
        <ele>16</ele>
        <time>2022-04-18T15:26:50.027Z</time>
      </trkpt>
      <trkpt lat="50.5005" lon="3.48405">
        <ele>16</ele>
        <time>2022-04-18T15:26:51.991Z</time>
      </trkpt>
      <trkpt lat="50.50048" lon="3.48413">
        <ele>16</ele>
        <time>2022-04-18T15:26:54.551Z</time>
      </trkpt>
      <trkpt lat="50.50045" lon="3.48421">
        <ele>16</ele>
        <time>2022-04-18T15:26:56.000Z</time>
      </trkpt>
      <trkpt lat="50.50043" lon="3.48427">
        <ele>16</ele>
        <time>2022-04-18T15:26:57.931Z</time>
      </trkpt>
      <trkpt lat="50.50041" lon="3.48437">
        <ele>16</ele>
        <time>2022-04-18T15:27:00.029Z</time>
      </trkpt>
      <trkpt lat="50.50038" lon="3.48444">
        <ele>16</ele>
        <time>2022-04-18T15:27:02.000Z</time>
      </trkpt>
      <trkpt lat="50.50031" lon="3.48459">
        <ele>16</ele>
        <time>2022-04-18T15:27:05.000Z</time>
      </trkpt>
      <trkpt lat="50.50028" lon="3.48467">
        <ele>16</ele>
        <time>2022-04-18T15:27:05.991Z</time>
      </trkpt>
      <trkpt lat="50.50027" lon="3.48476">
        <ele>16</ele>
        <time>2022-04-18T15:27:07.889Z</time>
      </trkpt>
      <trkpt lat="50.50025" lon="3.48483">
        <ele>16.1</ele>
        <time>2022-04-18T15:27:09.912Z</time>
      </trkpt>
      <trkpt lat="50.50021" lon="3.48493">
        <ele>16.2</ele>
        <time>2022-04-18T15:27:12.428Z</time>
      </trkpt>
      <trkpt lat="50.50017" lon="3.48503">
        <ele>16.3</ele>
        <time>2022-04-18T15:27:14.631Z</time>
      </trkpt>
      <trkpt lat="50.50014" lon="3.48512">
        <ele>16.3</ele>
        <time>2022-04-18T15:27:17.071Z</time>
      </trkpt>
      <trkpt lat="50.50011" lon="3.48517">
        <ele>16.2</ele>
        <time>2022-04-18T15:27:18.000Z</time>
      </trkpt>
      <trkpt lat="50.50008" lon="3.48525">
        <ele>16.1</ele>
        <time>2022-04-18T15:27:20.408Z</time>
      </trkpt>
      <trkpt lat="50.50004" lon="3.48535">
        <ele>16</ele>
        <time>2022-04-18T15:27:22.000Z</time>
      </trkpt>
      <trkpt lat="50.5" lon="3.48544">
        <ele>16</ele>
        <time>2022-04-18T15:27:24.000Z</time>
      </trkpt>
      <trkpt lat="50.49993" lon="3.48551">
        <ele>16</ele>
        <time>2022-04-18T15:27:26.000Z</time>
      </trkpt>
      <trkpt lat="50.49988" lon="3.48554">
        <ele>16</ele>
        <time>2022-04-18T15:27:27.149Z</time>
      </trkpt>
      <trkpt lat="50.49983" lon="3.48555">
        <ele>16</ele>
        <time>2022-04-18T15:27:28.307Z</time>
      </trkpt>
      <trkpt lat="50.49977" lon="3.48554">
        <ele>16</ele>
        <time>2022-04-18T15:27:29.950Z</time>
      </trkpt>
      <trkpt lat="50.49967" lon="3.4855">
        <ele>16</ele>
        <time>2022-04-18T15:27:32.509Z</time>
      </trkpt>
      <trkpt lat="50.49962" lon="3.48549">
        <ele>16</ele>
        <time>2022-04-18T15:27:33.969Z</time>
      </trkpt>
      <trkpt lat="50.49951" lon="3.48547">
        <ele>16</ele>
        <time>2022-04-18T15:27:36.907Z</time>
      </trkpt>
      <trkpt lat="50.49944" lon="3.48549">
        <ele>16</ele>
        <time>2022-04-18T15:27:39.130Z</time>
      </trkpt>
      <trkpt lat="50.49937" lon="3.4855">
        <ele>16</ele>
        <time>2022-04-18T15:27:41.607Z</time>
      </trkpt>
      <trkpt lat="50.4993" lon="3.48556">
        <ele>16</ele>
        <time>2022-04-18T15:27:44.000Z</time>
      </trkpt>
      <trkpt lat="50.49926" lon="3.48562">
        <ele>16</ele>
        <time>2022-04-18T15:27:46.000Z</time>
      </trkpt>
      <trkpt lat="50.49922" lon="3.4857">
        <ele>16</ele>
        <time>2022-04-18T15:27:48.672Z</time>
      </trkpt>
      <trkpt lat="50.49917" lon="3.48577">
        <ele>16</ele>
        <time>2022-04-18T15:27:51.068Z</time>
      </trkpt>
      <trkpt lat="50.4991" lon="3.48584">
        <ele>16</ele>
        <time>2022-04-18T15:27:53.000Z</time>
      </trkpt>
      <trkpt lat="50.49905" lon="3.48581">
        <ele>16</ele>
        <time>2022-04-18T15:27:55.000Z</time>
      </trkpt>
      <trkpt lat="50.49902" lon="3.4857">
        <ele>16.3</ele>
        <time>2022-04-18T15:27:57.468Z</time>
      </trkpt>
      <trkpt lat="50.49896" lon="3.4856">
        <ele>16.6</ele>
        <time>2022-04-18T15:27:59.849Z</time>
      </trkpt>
      <trkpt lat="50.4989" lon="3.48552">
        <ele>17</ele>
        <time>2022-04-18T15:28:02.000Z</time>
      </trkpt>
      <trkpt lat="50.49885" lon="3.48544">
        <ele>16.9</ele>
        <time>2022-04-18T15:28:04.000Z</time>
      </trkpt>
      <trkpt lat="50.4988" lon="3.48535">
        <ele>16.7</ele>
        <time>2022-04-18T15:28:06.179Z</time>
      </trkpt>
      <trkpt lat="50.49877" lon="3.48529">
        <ele>16.6</ele>
        <time>2022-04-18T15:28:07.830Z</time>
      </trkpt>
      <trkpt lat="50.49871" lon="3.48518">
        <ele>16.4</ele>
        <time>2022-04-18T15:28:10.371Z</time>
      </trkpt>
      <trkpt lat="50.49867" lon="3.48513">
        <ele>16.2</ele>
        <time>2022-04-18T15:28:11.812Z</time>
      </trkpt>
      <trkpt lat="50.4986" lon="3.48504">
        <ele>16</ele>
        <time>2022-04-18T15:28:13.947Z</time>
      </trkpt>
      <trkpt lat="50.49853" lon="3.48493">
        <ele>16</ele>
        <time>2022-04-18T15:28:16.412Z</time>
      </trkpt>
      <trkpt lat="50.49847" lon="3.48484">
        <ele>16</ele>
        <time>2022-04-18T15:28:18.669Z</time>
      </trkpt>
      <trkpt lat="50.4984" lon="3.48472">
        <ele>16</ele>
        <time>2022-04-18T15:28:21.069Z</time>
      </trkpt>
      <trkpt lat="50.49835" lon="3.48463">
        <ele>16</ele>
        <time>2022-04-18T15:28:23.000Z</time>
      </trkpt>
      <trkpt lat="50.49831" lon="3.48453">
        <ele>16</ele>
        <time>2022-04-18T15:28:24.986Z</time>
      </trkpt>
      <trkpt lat="50.49828" lon="3.48446">
        <ele>16</ele>
        <time>2022-04-18T15:28:26.351Z</time>
      </trkpt>
      <trkpt lat="50.49823" lon="3.48437">
        <ele>16</ele>
        <time>2022-04-18T15:28:27.832Z</time>
      </trkpt>
      <trkpt lat="50.4982" lon="3.4843">
        <ele>16</ele>
        <time>2022-04-18T15:28:29.000Z</time>
      </trkpt>
      <trkpt lat="50.49819" lon="3.4842">
        <ele>16</ele>
        <time>2022-04-18T15:28:31.000Z</time>
      </trkpt>
      <trkpt lat="50.49817" lon="3.48408">
        <ele>16.1</ele>
        <time>2022-04-18T15:28:33.087Z</time>
      </trkpt>
      <trkpt lat="50.49814" lon="3.48393">
        <ele>16.3</ele>
        <time>2022-04-18T15:28:35.427Z</time>
      </trkpt>
      <trkpt lat="50.49813" lon="3.48381">
        <ele>16.5</ele>
        <time>2022-04-18T15:28:37.730Z</time>
      </trkpt>
      <trkpt lat="50.49812" lon="3.48373">
        <ele>16.7</ele>
        <time>2022-04-18T15:28:39.028Z</time>
      </trkpt>
      <trkpt lat="50.49811" lon="3.48365">
        <ele>16.9</ele>
        <time>2022-04-18T15:28:40.000Z</time>
      </trkpt>
      <trkpt lat="50.49811" lon="3.48356">
        <ele>16.9</ele>
        <time>2022-04-18T15:28:42.148Z</time>
      </trkpt>
      <trkpt lat="50.4981" lon="3.48344">
        <ele>16.5</ele>
        <time>2022-04-18T15:28:44.463Z</time>
      </trkpt>
      <trkpt lat="50.49809" lon="3.48332">
        <ele>16.1</ele>
        <time>2022-04-18T15:28:46.768Z</time>
      </trkpt>
      <trkpt lat="50.49808" lon="3.48317">
        <ele>16.1</ele>
        <time>2022-04-18T15:28:48.979Z</time>
      </trkpt>
      <trkpt lat="50.49806" lon="3.48304">
        <ele>16</ele>
        <time>2022-04-18T15:28:51.291Z</time>
      </trkpt>
      <trkpt lat="50.49803" lon="3.48291">
        <ele>16</ele>
        <time>2022-04-18T15:28:53.686Z</time>
      </trkpt>
      <trkpt lat="50.49802" lon="3.48282">
        <ele>16</ele>
        <time>2022-04-18T15:28:55.128Z</time>
      </trkpt>
      <trkpt lat="50.49801" lon="3.48268">
        <ele>16</ele>
        <time>2022-04-18T15:28:57.610Z</time>
      </trkpt>
      <trkpt lat="50.498" lon="3.48255">
        <ele>16</ele>
        <time>2022-04-18T15:28:59.671Z</time>
      </trkpt>
      <trkpt lat="50.49799" lon="3.48245">
        <ele>16</ele>
        <time>2022-04-18T15:29:00.750Z</time>
      </trkpt>
      <trkpt lat="50.49799" lon="3.48234">
        <ele>16</ele>
        <time>2022-04-18T15:29:03.007Z</time>
      </trkpt>
      <trkpt lat="50.49799" lon="3.48226">
        <ele>16</ele>
        <time>2022-04-18T15:29:04.000Z</time>
      </trkpt>
      <trkpt lat="50.49798" lon="3.48217">
        <ele>16</ele>
        <time>2022-04-18T15:29:05.130Z</time>
      </trkpt>
      <trkpt lat="50.49797" lon="3.48208">
        <ele>16</ele>
        <time>2022-04-18T15:29:06.868Z</time>
      </trkpt>
      <trkpt lat="50.498" lon="3.48192">
        <ele>16</ele>
        <time>2022-04-18T15:29:09.000Z</time>
      </trkpt>
      <trkpt lat="50.49801" lon="3.4818">
        <ele>16</ele>
        <time>2022-04-18T15:29:11.209Z</time>
      </trkpt>
      <trkpt lat="50.49801" lon="3.48166">
        <ele>16</ele>
        <time>2022-04-18T15:29:13.000Z</time>
      </trkpt>
      <trkpt lat="50.49802" lon="3.48153">
        <ele>16</ele>
        <time>2022-04-18T15:29:15.070Z</time>
      </trkpt>
      <trkpt lat="50.49803" lon="3.48144">
        <ele>16</ele>
        <time>2022-04-18T15:29:15.993Z</time>
      </trkpt>
      <trkpt lat="50.49806" lon="3.48135">
        <ele>16</ele>
        <time>2022-04-18T15:29:18.000Z</time>
      </trkpt>
      <trkpt lat="50.49808" lon="3.48125">
        <ele>16.1</ele>
        <time>2022-04-18T15:29:20.011Z</time>
      </trkpt>
      <trkpt lat="50.49809" lon="3.48115">
        <ele>16.1</ele>
        <time>2022-04-18T15:29:21.813Z</time>
      </trkpt>
      <trkpt lat="50.49811" lon="3.48102">
        <ele>16.2</ele>
        <time>2022-04-18T15:29:24.000Z</time>
      </trkpt>
      <trkpt lat="50.49815" lon="3.4809">
        <ele>16.3</ele>
        <time>2022-04-18T15:29:26.027Z</time>
      </trkpt>
      <trkpt lat="50.49818" lon="3.48077">
        <ele>16.4</ele>
        <time>2022-04-18T15:29:28.000Z</time>
      </trkpt>
      <trkpt lat="50.4982" lon="3.48066">
        <ele>16.5</ele>
        <time>2022-04-18T15:29:30.000Z</time>
      </trkpt>
      <trkpt lat="50.49822" lon="3.48055">
        <ele>16.6</ele>
        <time>2022-04-18T15:29:32.000Z</time>
      </trkpt>
      <trkpt lat="50.49824" lon="3.48042">
        <ele>16.7</ele>
        <time>2022-04-18T15:29:34.605Z</time>
      </trkpt>
      <trkpt lat="50.49825" lon="3.48029">
        <ele>16.7</ele>
        <time>2022-04-18T15:29:37.009Z</time>
      </trkpt>
      <trkpt lat="50.49826" lon="3.48019">
        <ele>16.7</ele>
        <time>2022-04-18T15:29:39.000Z</time>
      </trkpt>
      <trkpt lat="50.49826" lon="3.48011">
        <ele>16.7</ele>
        <time>2022-04-18T15:29:40.548Z</time>
      </trkpt>
      <trkpt lat="50.49828" lon="3.47999">
        <ele>16.8</ele>
        <time>2022-04-18T15:29:42.751Z</time>
      </trkpt>
      <trkpt lat="50.49828" lon="3.4799">
        <ele>16.8</ele>
        <time>2022-04-18T15:29:44.029Z</time>
      </trkpt>
      <trkpt lat="50.49829" lon="3.47978">
        <ele>16.8</ele>
        <time>2022-04-18T15:29:46.000Z</time>
      </trkpt>
      <trkpt lat="50.4983" lon="3.47965">
        <ele>16.9</ele>
        <time>2022-04-18T15:29:48.420Z</time>
      </trkpt>
      <trkpt lat="50.49831" lon="3.47954">
        <ele>16.9</ele>
        <time>2022-04-18T15:29:50.127Z</time>
      </trkpt>
      <trkpt lat="50.49832" lon="3.47944">
        <ele>17</ele>
        <time>2022-04-18T15:29:51.509Z</time>
      </trkpt>
      <trkpt lat="50.49832" lon="3.47937">
        <ele>17</ele>
        <time>2022-04-18T15:29:52.649Z</time>
      </trkpt>
      <trkpt lat="50.49833" lon="3.47929">
        <ele>17</ele>
        <time>2022-04-18T15:29:53.930Z</time>
      </trkpt>
      <trkpt lat="50.49833" lon="3.47916">
        <ele>17</ele>
        <time>2022-04-18T15:29:56.091Z</time>
      </trkpt>
      <trkpt lat="50.49834" lon="3.479">
        <ele>17</ele>
        <time>2022-04-18T15:29:58.948Z</time>
      </trkpt>
      <trkpt lat="50.49834" lon="3.47893">
        <ele>17</ele>
        <time>2022-04-18T15:30:00.000Z</time>
      </trkpt>
      <trkpt lat="50.49834" lon="3.47882">
        <ele>17</ele>
        <time>2022-04-18T15:30:02.000Z</time>
      </trkpt>
      <trkpt lat="50.49827" lon="3.47877">
        <ele>16.8</ele>
        <time>2022-04-18T15:30:04.000Z</time>
      </trkpt>
      <trkpt lat="50.4982" lon="3.47878">
        <ele>16.5</ele>
        <time>2022-04-18T15:30:06.000Z</time>
      </trkpt>
      <trkpt lat="50.49812" lon="3.47878">
        <ele>16.2</ele>
        <time>2022-04-18T15:30:08.048Z</time>
      </trkpt>
      <trkpt lat="50.49805" lon="3.47877">
        <ele>16</ele>
        <time>2022-04-18T15:30:10.000Z</time>
      </trkpt>
      <trkpt lat="50.49797" lon="3.47877">
        <ele>16</ele>
        <time>2022-04-18T15:30:12.000Z</time>
      </trkpt>
      <trkpt lat="50.49789" lon="3.47875">
        <ele>16</ele>
        <time>2022-04-18T15:30:13.968Z</time>
      </trkpt>
      <trkpt lat="50.49783" lon="3.47875">
        <ele>16</ele>
        <time>2022-04-18T15:30:15.000Z</time>
      </trkpt>
      <trkpt lat="50.49775" lon="3.47873">
        <ele>16</ele>
        <time>2022-04-18T15:30:17.000Z</time>
      </trkpt>
      <trkpt lat="50.4977" lon="3.4787">
        <ele>16</ele>
        <time>2022-04-18T15:30:19.226Z</time>
      </trkpt>
      <trkpt lat="50.49763" lon="3.47869">
        <ele>16</ele>
        <time>2022-04-18T15:30:20.425Z</time>
      </trkpt>
      <trkpt lat="50.49755" lon="3.47868">
        <ele>16</ele>
        <time>2022-04-18T15:30:21.969Z</time>
      </trkpt>
      <trkpt lat="50.4975" lon="3.47866">
        <ele>16</ele>
        <time>2022-04-18T15:30:23.086Z</time>
      </trkpt>
      <trkpt lat="50.49743" lon="3.4786">
        <ele>16</ele>
        <time>2022-04-18T15:30:25.000Z</time>
      </trkpt>
      <trkpt lat="50.49737" lon="3.47854">
        <ele>16</ele>
        <time>2022-04-18T15:30:26.000Z</time>
      </trkpt>
      <trkpt lat="50.49732" lon="3.47848">
        <ele>16</ele>
        <time>2022-04-18T15:30:28.000Z</time>
      </trkpt>
      <trkpt lat="50.49727" lon="3.47841">
        <ele>16</ele>
        <time>2022-04-18T15:30:29.588Z</time>
      </trkpt>
      <trkpt lat="50.49724" lon="3.47835">
        <ele>16</ele>
        <time>2022-04-18T15:30:31.030Z</time>
      </trkpt>
      <trkpt lat="50.49719" lon="3.47826">
        <ele>16</ele>
        <time>2022-04-18T15:30:33.000Z</time>
      </trkpt>
      <trkpt lat="50.49713" lon="3.47817">
        <ele>16.2</ele>
        <time>2022-04-18T15:30:34.031Z</time>
      </trkpt>
      <trkpt lat="50.4971" lon="3.4781">
        <ele>16.4</ele>
        <time>2022-04-18T15:30:36.000Z</time>
      </trkpt>
      <trkpt lat="50.49705" lon="3.47807">
        <ele>16.6</ele>
        <time>2022-04-18T15:30:37.000Z</time>
      </trkpt>
      <trkpt lat="50.497" lon="3.4781">
        <ele>16.7</ele>
        <time>2022-04-18T15:30:38.049Z</time>
      </trkpt>
      <trkpt lat="50.497" lon="3.47818">
        <ele>16.4</ele>
        <time>2022-04-18T15:30:39.707Z</time>
      </trkpt>
      <trkpt lat="50.497" lon="3.47827">
        <ele>16.2</ele>
        <time>2022-04-18T15:30:40.949Z</time>
      </trkpt>
      <trkpt lat="50.49696" lon="3.47835">
        <ele>16</ele>
        <time>2022-04-18T15:30:43.000Z</time>
      </trkpt>
      <trkpt lat="50.49691" lon="3.47828">
        <ele>16.3</ele>
        <time>2022-04-18T15:30:45.000Z</time>
      </trkpt>
      <trkpt lat="50.49685" lon="3.47826">
        <ele>16.5</ele>
        <time>2022-04-18T15:30:47.408Z</time>
      </trkpt>
      <trkpt lat="50.4968" lon="3.47824">
        <ele>16.7</ele>
        <time>2022-04-18T15:30:49.908Z</time>
      </trkpt>
      <trkpt lat="50.49674" lon="3.47819">
        <ele>16.9</ele>
        <time>2022-04-18T15:30:52.000Z</time>
      </trkpt>
      <trkpt lat="50.49669" lon="3.47814">
        <ele>17</ele>
        <time>2022-04-18T15:30:54.000Z</time>
      </trkpt>
      <trkpt lat="50.49664" lon="3.47809">
        <ele>17</ele>
        <time>2022-04-18T15:30:56.066Z</time>
      </trkpt>
      <trkpt lat="50.49661" lon="3.47803">
        <ele>17</ele>
        <time>2022-04-18T15:30:58.860Z</time>
      </trkpt>
      <trkpt lat="50.49657" lon="3.47795">
        <ele>17</ele>
        <time>2022-04-18T15:31:12.000Z</time>
      </trkpt>
      <trkpt lat="50.49653" lon="3.47785">
        <ele>17</ele>
        <time>2022-04-18T15:31:16.000Z</time>
      </trkpt>
      <trkpt lat="50.4965" lon="3.47777">
        <ele>17</ele>
        <time>2022-04-18T15:31:19.000Z</time>
      </trkpt>
      <trkpt lat="50.49647" lon="3.47771">
        <ele>17</ele>
        <time>2022-04-18T15:31:24.689Z</time>
      </trkpt>
      <trkpt lat="50.49644" lon="3.47765">
        <ele>17</ele>
        <time>2022-04-18T15:31:26.749Z</time>
      </trkpt>
      <trkpt lat="50.49642" lon="3.47754">
        <ele>17</ele>
        <time>2022-04-18T15:31:29.000Z</time>
      </trkpt>
      <trkpt lat="50.49636" lon="3.47743">
        <ele>17</ele>
        <time>2022-04-18T15:31:31.091Z</time>
      </trkpt>
      <trkpt lat="50.49633" lon="3.47735">
        <ele>17</ele>
        <time>2022-04-18T15:31:33.000Z</time>
      </trkpt>
      <trkpt lat="50.4963" lon="3.4773">
        <ele>17</ele>
        <time>2022-04-18T15:31:34.369Z</time>
      </trkpt>
      <trkpt lat="50.49621" lon="3.47721">
        <ele>17</ele>
        <time>2022-04-18T15:31:36.966Z</time>
      </trkpt>
      <trkpt lat="50.49616" lon="3.47717">
        <ele>16.8</ele>
        <time>2022-04-18T15:31:39.146Z</time>
      </trkpt>
      <trkpt lat="50.49611" lon="3.47713">
        <ele>16.7</ele>
        <time>2022-04-18T15:31:40.948Z</time>
      </trkpt>
      <trkpt lat="50.49604" lon="3.47704">
        <ele>16.3</ele>
        <time>2022-04-18T15:31:43.408Z</time>
      </trkpt>
      <trkpt lat="50.496" lon="3.47695">
        <ele>16</ele>
        <time>2022-04-18T15:31:45.946Z</time>
      </trkpt>
      <trkpt lat="50.49595" lon="3.47689">
        <ele>16</ele>
        <time>2022-04-18T15:31:48.106Z</time>
      </trkpt>
      <trkpt lat="50.49589" lon="3.47693">
        <ele>16</ele>
        <time>2022-04-18T15:31:50.026Z</time>
      </trkpt>
      <trkpt lat="50.49583" lon="3.47702">
        <ele>16</ele>
        <time>2022-04-18T15:31:52.049Z</time>
      </trkpt>
      <trkpt lat="50.49577" lon="3.4771">
        <ele>16</ele>
        <time>2022-04-18T15:31:54.027Z</time>
      </trkpt>
      <trkpt lat="50.49572" lon="3.47716">
        <ele>16</ele>
        <time>2022-04-18T15:31:56.000Z</time>
      </trkpt>
      <trkpt lat="50.49568" lon="3.47721">
        <ele>16</ele>
        <time>2022-04-18T15:31:57.130Z</time>
      </trkpt>
      <trkpt lat="50.49564" lon="3.47725">
        <ele>16</ele>
        <time>2022-04-18T15:31:58.085Z</time>
      </trkpt>
      <trkpt lat="50.49559" lon="3.47727">
        <ele>16</ele>
        <time>2022-04-18T15:31:59.127Z</time>
      </trkpt>
      <trkpt lat="50.49552" lon="3.47731">
        <ele>16</ele>
        <time>2022-04-18T15:32:01.000Z</time>
      </trkpt>
      <trkpt lat="50.49544" lon="3.47737">
        <ele>16</ele>
        <time>2022-04-18T15:32:03.709Z</time>
      </trkpt>
      <trkpt lat="50.49539" lon="3.47743">
        <ele>16</ele>
        <time>2022-04-18T15:32:04.846Z</time>
      </trkpt>
      <trkpt lat="50.49536" lon="3.47748">
        <ele>16</ele>
        <time>2022-04-18T15:32:06.000Z</time>
      </trkpt>
      <trkpt lat="50.49527" lon="3.47759">
        <ele>16</ele>
        <time>2022-04-18T15:32:09.000Z</time>
      </trkpt>
      <trkpt lat="50.49521" lon="3.47768">
        <ele>16</ele>
        <time>2022-04-18T15:32:10.628Z</time>
      </trkpt>
      <trkpt lat="50.49514" lon="3.47779">
        <ele>16</ele>
        <time>2022-04-18T15:32:12.827Z</time>
      </trkpt>
      <trkpt lat="50.49509" lon="3.47786">
        <ele>16</ele>
        <time>2022-04-18T15:32:13.906Z</time>
      </trkpt>
      <trkpt lat="50.49505" lon="3.4779">
        <ele>16</ele>
        <time>2022-04-18T15:32:15.000Z</time>
      </trkpt>
      <trkpt lat="50.495" lon="3.47794">
        <ele>16</ele>
        <time>2022-04-18T15:32:17.000Z</time>
      </trkpt>
      <trkpt lat="50.49495" lon="3.47801">
        <ele>16</ele>
        <time>2022-04-18T15:32:18.000Z</time>
      </trkpt>
      <trkpt lat="50.49492" lon="3.47806">
        <ele>16</ele>
        <time>2022-04-18T15:32:19.000Z</time>
      </trkpt>
      <trkpt lat="50.49487" lon="3.47816">
        <ele>16</ele>
        <time>2022-04-18T15:32:21.571Z</time>
      </trkpt>
      <trkpt lat="50.4948" lon="3.47829">
        <ele>16</ele>
        <time>2022-04-18T15:32:24.004Z</time>
      </trkpt>
      <trkpt lat="50.49474" lon="3.47839">
        <ele>16</ele>
        <time>2022-04-18T15:32:27.068Z</time>
      </trkpt>
      <trkpt lat="50.4947" lon="3.47845">
        <ele>16</ele>
        <time>2022-04-18T15:32:30.747Z</time>
      </trkpt>
      <trkpt lat="50.49467" lon="3.47852">
        <ele>16</ele>
        <time>2022-04-18T15:32:35.025Z</time>
      </trkpt>
      <trkpt lat="50.49461" lon="3.47858">
        <ele>16</ele>
        <time>2022-04-18T15:32:37.000Z</time>
      </trkpt>
      <trkpt lat="50.49457" lon="3.47865">
        <ele>16</ele>
        <time>2022-04-18T15:32:39.000Z</time>
      </trkpt>
      <trkpt lat="50.49453" lon="3.47872">
        <ele>16</ele>
        <time>2022-04-18T15:32:40.629Z</time>
      </trkpt>
      <trkpt lat="50.49448" lon="3.47881">
        <ele>16</ele>
        <time>2022-04-18T15:32:43.145Z</time>
      </trkpt>
      <trkpt lat="50.49444" lon="3.47886">
        <ele>16</ele>
        <time>2022-04-18T15:32:44.428Z</time>
      </trkpt>
      <trkpt lat="50.49439" lon="3.47896">
        <ele>16.1</ele>
        <time>2022-04-18T15:32:46.987Z</time>
      </trkpt>
      <trkpt lat="50.49436" lon="3.47906">
        <ele>16.1</ele>
        <time>2022-04-18T15:32:49.407Z</time>
      </trkpt>
      <trkpt lat="50.49431" lon="3.47916">
        <ele>16</ele>
        <time>2022-04-18T15:32:52.086Z</time>
      </trkpt>
      <trkpt lat="50.49427" lon="3.47924">
        <ele>16</ele>
        <time>2022-04-18T15:32:54.000Z</time>
      </trkpt>
      <trkpt lat="50.49422" lon="3.47933">
        <ele>16</ele>
        <time>2022-04-18T15:32:56.000Z</time>
      </trkpt>
      <trkpt lat="50.49417" lon="3.47941">
        <ele>16</ele>
        <time>2022-04-18T15:32:58.026Z</time>
      </trkpt>
      <trkpt lat="50.49412" lon="3.47949">
        <ele>16.1</ele>
        <time>2022-04-18T15:33:00.029Z</time>
      </trkpt>
      <trkpt lat="50.49407" lon="3.47957">
        <ele>16.2</ele>
        <time>2022-04-18T15:33:02.000Z</time>
      </trkpt>
      <trkpt lat="50.49401" lon="3.47967">
        <ele>16.1</ele>
        <time>2022-04-18T15:33:04.106Z</time>
      </trkpt>
      <trkpt lat="50.49396" lon="3.47975">
        <ele>16</ele>
        <time>2022-04-18T15:33:06.000Z</time>
      </trkpt>
      <trkpt lat="50.49391" lon="3.47983">
        <ele>16</ele>
        <time>2022-04-18T15:33:08.000Z</time>
      </trkpt>
      <trkpt lat="50.49386" lon="3.47992">
        <ele>16</ele>
        <time>2022-04-18T15:33:10.000Z</time>
      </trkpt>
      <trkpt lat="50.49381" lon="3.48001">
        <ele>16</ele>
        <time>2022-04-18T15:33:12.000Z</time>
      </trkpt>
      <trkpt lat="50.49377" lon="3.48006">
        <ele>16.1</ele>
        <time>2022-04-18T15:33:13.000Z</time>
      </trkpt>
      <trkpt lat="50.49373" lon="3.48012">
        <ele>16.2</ele>
        <time>2022-04-18T15:33:14.000Z</time>
      </trkpt>
      <trkpt lat="50.4937" lon="3.48017">
        <ele>16.4</ele>
        <time>2022-04-18T15:33:15.000Z</time>
      </trkpt>
      <trkpt lat="50.49364" lon="3.48028">
        <ele>16.9</ele>
        <time>2022-04-18T15:33:18.000Z</time>
      </trkpt>
      <trkpt lat="50.49359" lon="3.48038">
        <ele>16.6</ele>
        <time>2022-04-18T15:33:19.362Z</time>
      </trkpt>
      <trkpt lat="50.49354" lon="3.48046">
        <ele>16.3</ele>
        <time>2022-04-18T15:33:20.364Z</time>
      </trkpt>
      <trkpt lat="50.49351" lon="3.48053">
        <ele>16.1</ele>
        <time>2022-04-18T15:33:21.863Z</time>
      </trkpt>
      <trkpt lat="50.49345" lon="3.48061">
        <ele>15.9</ele>
        <time>2022-04-18T15:33:23.000Z</time>
      </trkpt>
      <trkpt lat="50.49341" lon="3.48069">
        <ele>15.9</ele>
        <time>2022-04-18T15:33:24.023Z</time>
      </trkpt>
      <trkpt lat="50.49336" lon="3.48075">
        <ele>15.9</ele>
        <time>2022-04-18T15:33:26.000Z</time>
      </trkpt>
      <trkpt lat="50.49332" lon="3.48082">
        <ele>16</ele>
        <time>2022-04-18T15:33:27.000Z</time>
      </trkpt>
      <trkpt lat="50.49326" lon="3.48092">
        <ele>15.8</ele>
        <time>2022-04-18T15:33:29.000Z</time>
      </trkpt>
      <trkpt lat="50.49322" lon="3.48098">
        <ele>15.7</ele>
        <time>2022-04-18T15:33:30.000Z</time>
      </trkpt>
      <trkpt lat="50.49317" lon="3.48108">
        <ele>15.6</ele>
        <time>2022-04-18T15:33:32.000Z</time>
      </trkpt>
      <trkpt lat="50.49314" lon="3.48113">
        <ele>15.7</ele>
        <time>2022-04-18T15:33:33.000Z</time>
      </trkpt>
      <trkpt lat="50.49311" lon="3.48118">
        <ele>15.8</ele>
        <time>2022-04-18T15:33:34.000Z</time>
      </trkpt>
      <trkpt lat="50.49307" lon="3.48124">
        <ele>15.9</ele>
        <time>2022-04-18T15:33:35.000Z</time>
      </trkpt>
      <trkpt lat="50.49304" lon="3.48129">
        <ele>16</ele>
        <time>2022-04-18T15:33:36.000Z</time>
      </trkpt>
      <trkpt lat="50.49299" lon="3.48136">
        <ele>16</ele>
        <time>2022-04-18T15:33:37.000Z</time>
      </trkpt>
      <trkpt lat="50.49295" lon="3.48142">
        <ele>15.9</ele>
        <time>2022-04-18T15:33:38.000Z</time>
      </trkpt>
      <trkpt lat="50.49291" lon="3.48147">
        <ele>15.9</ele>
        <time>2022-04-18T15:33:39.000Z</time>
      </trkpt>
      <trkpt lat="50.49288" lon="3.48152">
        <ele>15.8</ele>
        <time>2022-04-18T15:33:40.000Z</time>
      </trkpt>
      <trkpt lat="50.49284" lon="3.48158">
        <ele>15.8</ele>
        <time>2022-04-18T15:33:41.000Z</time>
      </trkpt>
      <trkpt lat="50.49279" lon="3.48168">
        <ele>16</ele>
        <time>2022-04-18T15:33:43.000Z</time>
      </trkpt>
      <trkpt lat="50.49275" lon="3.48173">
        <ele>16</ele>
        <time>2022-04-18T15:33:44.000Z</time>
      </trkpt>
      <trkpt lat="50.4927" lon="3.48184">
        <ele>16</ele>
        <time>2022-04-18T15:33:46.000Z</time>
      </trkpt>
      <trkpt lat="50.49265" lon="3.48191">
        <ele>16</ele>
        <time>2022-04-18T15:33:48.000Z</time>
      </trkpt>
      <trkpt lat="50.4926" lon="3.48199">
        <ele>15.9</ele>
        <time>2022-04-18T15:33:50.000Z</time>
      </trkpt>
      <trkpt lat="50.49256" lon="3.48203">
        <ele>15.9</ele>
        <time>2022-04-18T15:33:51.000Z</time>
      </trkpt>
      <trkpt lat="50.49251" lon="3.48209">
        <ele>16</ele>
        <time>2022-04-18T15:33:51.961Z</time>
      </trkpt>
      <trkpt lat="50.49246" lon="3.48218">
        <ele>16</ele>
        <time>2022-04-18T15:33:53.000Z</time>
      </trkpt>
      <trkpt lat="50.49239" lon="3.48228">
        <ele>16.1</ele>
        <time>2022-04-18T15:33:55.019Z</time>
      </trkpt>
      <trkpt lat="50.49237" lon="3.48235">
        <ele>16.2</ele>
        <time>2022-04-18T15:33:56.322Z</time>
      </trkpt>
      <trkpt lat="50.49233" lon="3.48241">
        <ele>16.4</ele>
        <time>2022-04-18T15:33:57.522Z</time>
      </trkpt>
      <trkpt lat="50.49227" lon="3.4825">
        <ele>16.8</ele>
        <time>2022-04-18T15:34:00.000Z</time>
      </trkpt>
      <trkpt lat="50.49223" lon="3.48258">
        <ele>16.7</ele>
        <time>2022-04-18T15:34:02.199Z</time>
      </trkpt>
      <trkpt lat="50.49219" lon="3.48266">
        <ele>16.4</ele>
        <time>2022-04-18T15:34:04.121Z</time>
      </trkpt>
      <trkpt lat="50.49212" lon="3.48275">
        <ele>16.4</ele>
        <time>2022-04-18T15:34:06.600Z</time>
      </trkpt>
      <trkpt lat="50.49206" lon="3.48283">
        <ele>16.6</ele>
        <time>2022-04-18T15:34:09.000Z</time>
      </trkpt>
      <trkpt lat="50.49202" lon="3.48289">
        <ele>16.7</ele>
        <time>2022-04-18T15:34:11.000Z</time>
      </trkpt>
      <trkpt lat="50.49197" lon="3.48298">
        <ele>16.9</ele>
        <time>2022-04-18T15:34:13.799Z</time>
      </trkpt>
      <trkpt lat="50.49192" lon="3.48306">
        <ele>17</ele>
        <time>2022-04-18T15:34:16.204Z</time>
      </trkpt>
      <trkpt lat="50.49185" lon="3.48316">
        <ele>16.8</ele>
        <time>2022-04-18T15:34:19.000Z</time>
      </trkpt>
      <trkpt lat="50.4918" lon="3.48324">
        <ele>16.7</ele>
        <time>2022-04-18T15:34:21.000Z</time>
      </trkpt>
      <trkpt lat="50.49177" lon="3.48329">
        <ele>16.7</ele>
        <time>2022-04-18T15:34:23.000Z</time>
      </trkpt>
      <trkpt lat="50.4917" lon="3.48337">
        <ele>16.9</ele>
        <time>2022-04-18T15:34:24.921Z</time>
      </trkpt>
      <trkpt lat="50.49167" lon="3.48343">
        <ele>17</ele>
        <time>2022-04-18T15:34:26.800Z</time>
      </trkpt>
      <trkpt lat="50.49163" lon="3.48349">
        <ele>16.9</ele>
        <time>2022-04-18T15:34:28.000Z</time>
      </trkpt>
      <trkpt lat="50.49156" lon="3.48358">
        <ele>17</ele>
        <time>2022-04-18T15:34:30.000Z</time>
      </trkpt>
      <trkpt lat="50.49153" lon="3.48363">
        <ele>17</ele>
        <time>2022-04-18T15:34:32.000Z</time>
      </trkpt>
      <trkpt lat="50.49149" lon="3.48372">
        <ele>16.9</ele>
        <time>2022-04-18T15:34:33.000Z</time>
      </trkpt>
      <trkpt lat="50.49143" lon="3.48381">
        <ele>16.9</ele>
        <time>2022-04-18T15:34:35.879Z</time>
      </trkpt>
      <trkpt lat="50.49137" lon="3.48392">
        <ele>16.9</ele>
        <time>2022-04-18T15:34:38.122Z</time>
      </trkpt>
      <trkpt lat="50.49135" lon="3.48398">
        <ele>16.7</ele>
        <time>2022-04-18T15:34:39.177Z</time>
      </trkpt>
      <trkpt lat="50.49131" lon="3.48407">
        <ele>16.5</ele>
        <time>2022-04-18T15:34:40.858Z</time>
      </trkpt>
      <trkpt lat="50.49126" lon="3.48415">
        <ele>16.5</ele>
        <time>2022-04-18T15:34:43.000Z</time>
      </trkpt>
      <trkpt lat="50.49121" lon="3.48425">
        <ele>16.6</ele>
        <time>2022-04-18T15:34:45.165Z</time>
      </trkpt>
      <trkpt lat="50.49117" lon="3.48433">
        <ele>16.8</ele>
        <time>2022-04-18T15:34:46.779Z</time>
      </trkpt>
      <trkpt lat="50.4911" lon="3.48444">
        <ele>17</ele>
        <time>2022-04-18T15:34:49.420Z</time>
      </trkpt>
      <trkpt lat="50.49105" lon="3.48451">
        <ele>16.8</ele>
        <time>2022-04-18T15:34:50.918Z</time>
      </trkpt>
      <trkpt lat="50.49102" lon="3.48456">
        <ele>16.7</ele>
        <time>2022-04-18T15:34:52.000Z</time>
      </trkpt>
      <trkpt lat="50.49096" lon="3.48466">
        <ele>16.6</ele>
        <time>2022-04-18T15:34:54.002Z</time>
      </trkpt>
      <trkpt lat="50.49093" lon="3.48472">
        <ele>16.7</ele>
        <time>2022-04-18T15:34:55.041Z</time>
      </trkpt>
      <trkpt lat="50.49088" lon="3.48479">
        <ele>16.8</ele>
        <time>2022-04-18T15:34:56.580Z</time>
      </trkpt>
      <trkpt lat="50.49084" lon="3.48485">
        <ele>17</ele>
        <time>2022-04-18T15:34:57.559Z</time>
      </trkpt>
      <trkpt lat="50.4908" lon="3.48493">
        <ele>17.1</ele>
        <time>2022-04-18T15:34:59.000Z</time>
      </trkpt>
      <trkpt lat="50.49076" lon="3.48498">
        <ele>17.2</ele>
        <time>2022-04-18T15:35:00.000Z</time>
      </trkpt>
      <trkpt lat="50.49071" lon="3.48507">
        <ele>17.3</ele>
        <time>2022-04-18T15:35:01.939Z</time>
      </trkpt>
      <trkpt lat="50.49067" lon="3.48514">
        <ele>17.4</ele>
        <time>2022-04-18T15:35:04.100Z</time>
      </trkpt>
      <trkpt lat="50.49063" lon="3.48522">
        <ele>17.5</ele>
        <time>2022-04-18T15:35:06.057Z</time>
      </trkpt>
      <trkpt lat="50.49058" lon="3.4853">
        <ele>17.8</ele>
        <time>2022-04-18T15:35:08.099Z</time>
      </trkpt>
      <trkpt lat="50.49052" lon="3.48538">
        <ele>17.7</ele>
        <time>2022-04-18T15:35:10.879Z</time>
      </trkpt>
      <trkpt lat="50.49047" lon="3.48548">
        <ele>17.5</ele>
        <time>2022-04-18T15:35:13.000Z</time>
      </trkpt>
      <trkpt lat="50.49041" lon="3.48557">
        <ele>17.5</ele>
        <time>2022-04-18T15:35:15.038Z</time>
      </trkpt>
      <trkpt lat="50.49034" lon="3.48568">
        <ele>17.3</ele>
        <time>2022-04-18T15:35:18.078Z</time>
      </trkpt>
      <trkpt lat="50.4903" lon="3.48576">
        <ele>17.2</ele>
        <time>2022-04-18T15:35:19.604Z</time>
      </trkpt>
      <trkpt lat="50.49027" lon="3.48581">
        <ele>17.1</ele>
        <time>2022-04-18T15:35:21.080Z</time>
      </trkpt>
      <trkpt lat="50.49024" lon="3.48588">
        <ele>17</ele>
        <time>2022-04-18T15:35:22.000Z</time>
      </trkpt>
      <trkpt lat="50.49019" lon="3.48594">
        <ele>17</ele>
        <time>2022-04-18T15:35:24.000Z</time>
      </trkpt>
      <trkpt lat="50.49016" lon="3.48598">
        <ele>17</ele>
        <time>2022-04-18T15:35:25.000Z</time>
      </trkpt>
      <trkpt lat="50.49011" lon="3.48605">
        <ele>17</ele>
        <time>2022-04-18T15:35:26.595Z</time>
      </trkpt>
      <trkpt lat="50.49008" lon="3.48611">
        <ele>17</ele>
        <time>2022-04-18T15:35:27.841Z</time>
      </trkpt>
      <trkpt lat="50.49004" lon="3.48618">
        <ele>17</ele>
        <time>2022-04-18T15:35:29.059Z</time>
      </trkpt>
      <trkpt lat="50.48999" lon="3.48626">
        <ele>17</ele>
        <time>2022-04-18T15:35:31.138Z</time>
      </trkpt>
      <trkpt lat="50.48996" lon="3.48633">
        <ele>17.1</ele>
        <time>2022-04-18T15:35:33.000Z</time>
      </trkpt>
      <trkpt lat="50.48991" lon="3.4864">
        <ele>17.4</ele>
        <time>2022-04-18T15:35:35.000Z</time>
      </trkpt>
      <trkpt lat="50.48984" lon="3.4865">
        <ele>17.7</ele>
        <time>2022-04-18T15:35:38.000Z</time>
      </trkpt>
      <trkpt lat="50.4898" lon="3.4866">
        <ele>17.9</ele>
        <time>2022-04-18T15:35:41.000Z</time>
      </trkpt>
      <trkpt lat="50.48974" lon="3.48669">
        <ele>17.9</ele>
        <time>2022-04-18T15:35:44.000Z</time>
      </trkpt>
      <trkpt lat="50.4897" lon="3.48674">
        <ele>17.7</ele>
        <time>2022-04-18T15:35:46.058Z</time>
      </trkpt>
      <trkpt lat="50.48965" lon="3.48682">
        <ele>17.5</ele>
        <time>2022-04-18T15:35:48.000Z</time>
      </trkpt>
      <trkpt lat="50.48959" lon="3.48689">
        <ele>17.5</ele>
        <time>2022-04-18T15:35:50.000Z</time>
      </trkpt>
      <trkpt lat="50.48954" lon="3.48698">
        <ele>17.7</ele>
        <time>2022-04-18T15:35:52.101Z</time>
      </trkpt>
      <trkpt lat="50.48949" lon="3.48704">
        <ele>17.8</ele>
        <time>2022-04-18T15:35:54.000Z</time>
      </trkpt>
      <trkpt lat="50.48945" lon="3.48711">
        <ele>18</ele>
        <time>2022-04-18T15:35:56.000Z</time>
      </trkpt>
      <trkpt lat="50.48936" lon="3.48723">
        <ele>17.7</ele>
        <time>2022-04-18T15:35:58.139Z</time>
      </trkpt>
      <trkpt lat="50.48932" lon="3.4873">
        <ele>17.5</ele>
        <time>2022-04-18T15:35:59.778Z</time>
      </trkpt>
      <trkpt lat="50.48927" lon="3.4874">
        <ele>17.5</ele>
        <time>2022-04-18T15:36:02.000Z</time>
      </trkpt>
      <trkpt lat="50.48921" lon="3.48747">
        <ele>17.8</ele>
        <time>2022-04-18T15:36:04.000Z</time>
      </trkpt>
      <trkpt lat="50.48917" lon="3.48759">
        <ele>18</ele>
        <time>2022-04-18T15:36:06.039Z</time>
      </trkpt>
      <trkpt lat="50.48913" lon="3.48764">
        <ele>17.9</ele>
        <time>2022-04-18T15:36:07.739Z</time>
      </trkpt>
      <trkpt lat="50.4891" lon="3.48769">
        <ele>17.9</ele>
        <time>2022-04-18T15:36:08.919Z</time>
      </trkpt>
      <trkpt lat="50.48906" lon="3.48775">
        <ele>18</ele>
        <time>2022-04-18T15:36:11.120Z</time>
      </trkpt>
      <trkpt lat="50.489" lon="3.48786">
        <ele>17.9</ele>
        <time>2022-04-18T15:36:13.000Z</time>
      </trkpt>
      <trkpt lat="50.48896" lon="3.48791">
        <ele>17.9</ele>
        <time>2022-04-18T15:36:14.139Z</time>
      </trkpt>
      <trkpt lat="50.48889" lon="3.48802">
        <ele>18</ele>
        <time>2022-04-18T15:36:17.000Z</time>
      </trkpt>
      <trkpt lat="50.48885" lon="3.48808">
        <ele>17.8</ele>
        <time>2022-04-18T15:36:18.000Z</time>
      </trkpt>
      <trkpt lat="50.4888" lon="3.48816">
        <ele>17.5</ele>
        <time>2022-04-18T15:36:20.339Z</time>
      </trkpt>
      <trkpt lat="50.48876" lon="3.48824">
        <ele>17.5</ele>
        <time>2022-04-18T15:36:21.661Z</time>
      </trkpt>
      <trkpt lat="50.48872" lon="3.48831">
        <ele>17.6</ele>
        <time>2022-04-18T15:36:23.000Z</time>
      </trkpt>
      <trkpt lat="50.48868" lon="3.48836">
        <ele>17.8</ele>
        <time>2022-04-18T15:36:24.061Z</time>
      </trkpt>
      <trkpt lat="50.48864" lon="3.48843">
        <ele>17.9</ele>
        <time>2022-04-18T15:36:26.000Z</time>
      </trkpt>
      <trkpt lat="50.48861" lon="3.48848">
        <ele>18</ele>
        <time>2022-04-18T15:36:27.000Z</time>
      </trkpt>
      <trkpt lat="50.48856" lon="3.48858">
        <ele>17.8</ele>
        <time>2022-04-18T15:36:29.079Z</time>
      </trkpt>
      <trkpt lat="50.48852" lon="3.48864">
        <ele>17.6</ele>
        <time>2022-04-18T15:36:31.000Z</time>
      </trkpt>
      <trkpt lat="50.48848" lon="3.4887">
        <ele>17.5</ele>
        <time>2022-04-18T15:36:32.420Z</time>
      </trkpt>
      <trkpt lat="50.48844" lon="3.48875">
        <ele>17.5</ele>
        <time>2022-04-18T15:36:33.621Z</time>
      </trkpt>
      <trkpt lat="50.48839" lon="3.48883">
        <ele>17.7</ele>
        <time>2022-04-18T15:36:36.000Z</time>
      </trkpt>
      <trkpt lat="50.48835" lon="3.48889">
        <ele>17.9</ele>
        <time>2022-04-18T15:36:37.000Z</time>
      </trkpt>
      <trkpt lat="50.4883" lon="3.48897">
        <ele>17.6</ele>
        <time>2022-04-18T15:36:39.219Z</time>
      </trkpt>
      <trkpt lat="50.48825" lon="3.48904">
        <ele>17.3</ele>
        <time>2022-04-18T15:36:40.600Z</time>
      </trkpt>
      <trkpt lat="50.48822" lon="3.4891">
        <ele>17.1</ele>
        <time>2022-04-18T15:36:41.741Z</time>
      </trkpt>
      <trkpt lat="50.48815" lon="3.48921">
        <ele>17.1</ele>
        <time>2022-04-18T15:36:44.081Z</time>
      </trkpt>
      <trkpt lat="50.48811" lon="3.48929">
        <ele>17.4</ele>
        <time>2022-04-18T15:36:46.000Z</time>
      </trkpt>
      <trkpt lat="50.48805" lon="3.4894">
        <ele>17.8</ele>
        <time>2022-04-18T15:36:48.300Z</time>
      </trkpt>
      <trkpt lat="50.48801" lon="3.48945">
        <ele>17.8</ele>
        <time>2022-04-18T15:36:49.400Z</time>
      </trkpt>
      <trkpt lat="50.48794" lon="3.48956">
        <ele>17.8</ele>
        <time>2022-04-18T15:36:52.098Z</time>
      </trkpt>
      <trkpt lat="50.48791" lon="3.48963">
        <ele>17.8</ele>
        <time>2022-04-18T15:36:54.000Z</time>
      </trkpt>
      <trkpt lat="50.48786" lon="3.48971">
        <ele>18</ele>
        <time>2022-04-18T15:36:56.000Z</time>
      </trkpt>
      <trkpt lat="50.48778" lon="3.48982">
        <ele>18</ele>
        <time>2022-04-18T15:36:59.158Z</time>
      </trkpt>
      <trkpt lat="50.4877" lon="3.4899">
        <ele>17.9</ele>
        <time>2022-04-18T15:37:01.760Z</time>
      </trkpt>
      <trkpt lat="50.48766" lon="3.48997">
        <ele>18</ele>
        <time>2022-04-18T15:37:04.000Z</time>
      </trkpt>
      <trkpt lat="50.48762" lon="3.49004">
        <ele>18</ele>
        <time>2022-04-18T15:37:05.260Z</time>
      </trkpt>
      <trkpt lat="50.48758" lon="3.4901">
        <ele>18</ele>
        <time>2022-04-18T15:37:06.788Z</time>
      </trkpt>
      <trkpt lat="50.48754" lon="3.49016">
        <ele>18</ele>
        <time>2022-04-18T15:37:08.000Z</time>
      </trkpt>
      <trkpt lat="50.4875" lon="3.49023">
        <ele>18</ele>
        <time>2022-04-18T15:37:09.120Z</time>
      </trkpt>
      <trkpt lat="50.48748" lon="3.49029">
        <ele>18</ele>
        <time>2022-04-18T15:37:10.479Z</time>
      </trkpt>
      <trkpt lat="50.48743" lon="3.49035">
        <ele>18.2</ele>
        <time>2022-04-18T15:37:12.040Z</time>
      </trkpt>
      <trkpt lat="50.48739" lon="3.49041">
        <ele>18.3</ele>
        <time>2022-04-18T15:37:13.019Z</time>
      </trkpt>
      <trkpt lat="50.48736" lon="3.49048">
        <ele>18.4</ele>
        <time>2022-04-18T15:37:15.000Z</time>
      </trkpt>
      <trkpt lat="50.48733" lon="3.49054">
        <ele>18.4</ele>
        <time>2022-04-18T15:37:17.001Z</time>
      </trkpt>
      <trkpt lat="50.48729" lon="3.49059">
        <ele>18.3</ele>
        <time>2022-04-18T15:37:18.000Z</time>
      </trkpt>
      <trkpt lat="50.48721" lon="3.49074">
        <ele>18.7</ele>
        <time>2022-04-18T15:37:21.098Z</time>
      </trkpt>
      <trkpt lat="50.48718" lon="3.49079">
        <ele>18.8</ele>
        <time>2022-04-18T15:37:22.018Z</time>
      </trkpt>
      <trkpt lat="50.48714" lon="3.49085">
        <ele>19</ele>
        <time>2022-04-18T15:37:24.000Z</time>
      </trkpt>
      <trkpt lat="50.48709" lon="3.49091">
        <ele>19</ele>
        <time>2022-04-18T15:37:25.002Z</time>
      </trkpt>
      <trkpt lat="50.48703" lon="3.491">
        <ele>19</ele>
        <time>2022-04-18T15:37:27.000Z</time>
      </trkpt>
      <trkpt lat="50.48696" lon="3.49112">
        <ele>19</ele>
        <time>2022-04-18T15:37:29.842Z</time>
      </trkpt>
      <trkpt lat="50.48691" lon="3.49116">
        <ele>18.9</ele>
        <time>2022-04-18T15:37:30.960Z</time>
      </trkpt>
      <trkpt lat="50.48687" lon="3.49124">
        <ele>18.7</ele>
        <time>2022-04-18T15:37:32.919Z</time>
      </trkpt>
      <trkpt lat="50.48684" lon="3.49131">
        <ele>18.6</ele>
        <time>2022-04-18T15:37:34.360Z</time>
      </trkpt>
      <trkpt lat="50.48681" lon="3.49136">
        <ele>18.5</ele>
        <time>2022-04-18T15:37:35.609Z</time>
      </trkpt>
      <trkpt lat="50.48678" lon="3.49143">
        <ele>18.4</ele>
        <time>2022-04-18T15:37:36.780Z</time>
      </trkpt>
      <trkpt lat="50.48674" lon="3.4915">
        <ele>18.3</ele>
        <time>2022-04-18T15:37:39.137Z</time>
      </trkpt>
      <trkpt lat="50.4867" lon="3.49157">
        <ele>18.1</ele>
        <time>2022-04-18T15:37:40.574Z</time>
      </trkpt>
      <trkpt lat="50.48665" lon="3.49163">
        <ele>17.9</ele>
        <time>2022-04-18T15:37:42.000Z</time>
      </trkpt>
      <trkpt lat="50.48659" lon="3.49176">
        <ele>18.1</ele>
        <time>2022-04-18T15:37:44.982Z</time>
      </trkpt>
      <trkpt lat="50.48655" lon="3.49183">
        <ele>18.2</ele>
        <time>2022-04-18T15:37:47.000Z</time>
      </trkpt>
      <trkpt lat="50.48651" lon="3.49189">
        <ele>18.2</ele>
        <time>2022-04-18T15:37:48.000Z</time>
      </trkpt>
      <trkpt lat="50.48648" lon="3.49196">
        <ele>18.3</ele>
        <time>2022-04-18T15:37:49.000Z</time>
      </trkpt>
      <trkpt lat="50.48643" lon="3.49203">
        <ele>18.1</ele>
        <time>2022-04-18T15:37:51.099Z</time>
      </trkpt>
      <trkpt lat="50.48639" lon="3.49212">
        <ele>18</ele>
        <time>2022-04-18T15:37:53.000Z</time>
      </trkpt>
      <trkpt lat="50.48633" lon="3.49221">
        <ele>18</ele>
        <time>2022-04-18T15:37:55.060Z</time>
      </trkpt>
      <trkpt lat="50.48628" lon="3.49228">
        <ele>18</ele>
        <time>2022-04-18T15:37:58.000Z</time>
      </trkpt>
      <trkpt lat="50.48624" lon="3.49233">
        <ele>18</ele>
        <time>2022-04-18T15:37:59.000Z</time>
      </trkpt>
      <trkpt lat="50.48618" lon="3.49242">
        <ele>18</ele>
        <time>2022-04-18T15:38:01.000Z</time>
      </trkpt>
      <trkpt lat="50.48609" lon="3.49257">
        <ele>17.7</ele>
        <time>2022-04-18T15:38:03.978Z</time>
      </trkpt>
      <trkpt lat="50.48605" lon="3.49263">
        <ele>17.4</ele>
        <time>2022-04-18T15:38:05.000Z</time>
      </trkpt>
      <trkpt lat="50.48597" lon="3.49277">
        <ele>17</ele>
        <time>2022-04-18T15:38:07.000Z</time>
      </trkpt>
      <trkpt lat="50.48593" lon="3.49281">
        <ele>17</ele>
        <time>2022-04-18T15:38:09.000Z</time>
      </trkpt>
      <trkpt lat="50.48588" lon="3.49293">
        <ele>17</ele>
        <time>2022-04-18T15:38:10.507Z</time>
      </trkpt>
      <trkpt lat="50.48583" lon="3.49301">
        <ele>17</ele>
        <time>2022-04-18T15:38:11.789Z</time>
      </trkpt>
      <trkpt lat="50.48576" lon="3.49312">
        <ele>16.8</ele>
        <time>2022-04-18T15:38:14.000Z</time>
      </trkpt>
      <trkpt lat="50.48573" lon="3.49319">
        <ele>16.8</ele>
        <time>2022-04-18T15:38:15.132Z</time>
      </trkpt>
      <trkpt lat="50.4857" lon="3.49324">
        <ele>16.8</ele>
        <time>2022-04-18T15:38:16.213Z</time>
      </trkpt>
      <trkpt lat="50.48565" lon="3.49329">
        <ele>16.9</ele>
        <time>2022-04-18T15:38:17.274Z</time>
      </trkpt>
      <trkpt lat="50.48562" lon="3.49335">
        <ele>17</ele>
        <time>2022-04-18T15:38:18.625Z</time>
      </trkpt>
      <trkpt lat="50.48555" lon="3.49346">
        <ele>17.4</ele>
        <time>2022-04-18T15:38:21.000Z</time>
      </trkpt>
      <trkpt lat="50.4855" lon="3.49352">
        <ele>17.3</ele>
        <time>2022-04-18T15:38:22.910Z</time>
      </trkpt>
      <trkpt lat="50.48547" lon="3.49361">
        <ele>17.4</ele>
        <time>2022-04-18T15:38:24.000Z</time>
      </trkpt>
      <trkpt lat="50.48541" lon="3.49367">
        <ele>17.2</ele>
        <time>2022-04-18T15:38:26.335Z</time>
      </trkpt>
      <trkpt lat="50.48537" lon="3.49373">
        <ele>17.2</ele>
        <time>2022-04-18T15:38:27.795Z</time>
      </trkpt>
      <trkpt lat="50.48533" lon="3.49378">
        <ele>17.4</ele>
        <time>2022-04-18T15:38:29.000Z</time>
      </trkpt>
      <trkpt lat="50.48529" lon="3.49386">
        <ele>17.8</ele>
        <time>2022-04-18T15:38:31.000Z</time>
      </trkpt>
      <trkpt lat="50.48523" lon="3.49395">
        <ele>18</ele>
        <time>2022-04-18T15:38:33.000Z</time>
      </trkpt>
      <trkpt lat="50.4852" lon="3.49402">
        <ele>18.1</ele>
        <time>2022-04-18T15:38:35.000Z</time>
      </trkpt>
      <trkpt lat="50.48513" lon="3.49413">
        <ele>17.9</ele>
        <time>2022-04-18T15:38:37.000Z</time>
      </trkpt>
      <trkpt lat="50.48508" lon="3.49424">
        <ele>18</ele>
        <time>2022-04-18T15:38:39.641Z</time>
      </trkpt>
      <trkpt lat="50.48504" lon="3.4943">
        <ele>18.1</ele>
        <time>2022-04-18T15:38:40.653Z</time>
      </trkpt>
      <trkpt lat="50.48497" lon="3.49437">
        <ele>18.3</ele>
        <time>2022-04-18T15:38:42.854Z</time>
      </trkpt>
      <trkpt lat="50.48495" lon="3.49443">
        <ele>18.5</ele>
        <time>2022-04-18T15:38:44.994Z</time>
      </trkpt>
      <trkpt lat="50.48491" lon="3.4945">
        <ele>18.4</ele>
        <time>2022-04-18T15:38:46.475Z</time>
      </trkpt>
      <trkpt lat="50.48485" lon="3.49459">
        <ele>18.2</ele>
        <time>2022-04-18T15:38:48.673Z</time>
      </trkpt>
      <trkpt lat="50.48482" lon="3.49466">
        <ele>18.2</ele>
        <time>2022-04-18T15:38:50.000Z</time>
      </trkpt>
      <trkpt lat="50.48478" lon="3.49471">
        <ele>18.2</ele>
        <time>2022-04-18T15:38:51.000Z</time>
      </trkpt>
      <trkpt lat="50.48472" lon="3.49479">
        <ele>18.2</ele>
        <time>2022-04-18T15:38:53.632Z</time>
      </trkpt>
      <trkpt lat="50.48467" lon="3.49488">
        <ele>18.3</ele>
        <time>2022-04-18T15:38:55.714Z</time>
      </trkpt>
      <trkpt lat="50.48463" lon="3.49495">
        <ele>18.2</ele>
        <time>2022-04-18T15:38:56.931Z</time>
      </trkpt>
      <trkpt lat="50.48456" lon="3.49506">
        <ele>18.3</ele>
        <time>2022-04-18T15:38:59.093Z</time>
      </trkpt>
      <trkpt lat="50.48451" lon="3.49512">
        <ele>18.6</ele>
        <time>2022-04-18T15:39:01.000Z</time>
      </trkpt>
      <trkpt lat="50.48447" lon="3.49518">
        <ele>19</ele>
        <time>2022-04-18T15:39:02.094Z</time>
      </trkpt>
      <trkpt lat="50.48444" lon="3.49524">
        <ele>19.5</ele>
        <time>2022-04-18T15:39:03.422Z</time>
      </trkpt>
      <trkpt lat="50.48439" lon="3.49532">
        <ele>19.4</ele>
        <time>2022-04-18T15:39:05.119Z</time>
      </trkpt>
      <trkpt lat="50.48434" lon="3.49539">
        <ele>19.2</ele>
        <time>2022-04-18T15:39:06.555Z</time>
      </trkpt>
      <trkpt lat="50.4843" lon="3.49545">
        <ele>19.2</ele>
        <time>2022-04-18T15:39:08.000Z</time>
      </trkpt>
      <trkpt lat="50.48425" lon="3.49551">
        <ele>19.2</ele>
        <time>2022-04-18T15:39:09.095Z</time>
      </trkpt>
      <trkpt lat="50.48422" lon="3.49556">
        <ele>19.4</ele>
        <time>2022-04-18T15:39:10.000Z</time>
      </trkpt>
      <trkpt lat="50.48417" lon="3.49562">
        <ele>19.5</ele>
        <time>2022-04-18T15:39:11.000Z</time>
      </trkpt>
      <trkpt lat="50.48413" lon="3.49568">
        <ele>19.4</ele>
        <time>2022-04-18T15:39:13.000Z</time>
      </trkpt>
      <trkpt lat="50.48409" lon="3.49576">
        <ele>19.4</ele>
        <time>2022-04-18T15:39:15.000Z</time>
      </trkpt>
      <trkpt lat="50.48405" lon="3.49581">
        <ele>19.2</ele>
        <time>2022-04-18T15:39:16.000Z</time>
      </trkpt>
      <trkpt lat="50.48401" lon="3.4959">
        <ele>19</ele>
        <time>2022-04-18T15:39:18.000Z</time>
      </trkpt>
      <trkpt lat="50.48397" lon="3.49596">
        <ele>18.8</ele>
        <time>2022-04-18T15:39:19.000Z</time>
      </trkpt>
      <trkpt lat="50.48387" lon="3.49613">
        <ele>18.9</ele>
        <time>2022-04-18T15:39:23.008Z</time>
      </trkpt>
      <trkpt lat="50.48381" lon="3.49622">
        <ele>18.9</ele>
        <time>2022-04-18T15:39:24.717Z</time>
      </trkpt>
      <trkpt lat="50.48378" lon="3.49631">
        <ele>19.3</ele>
        <time>2022-04-18T15:39:27.000Z</time>
      </trkpt>
      <trkpt lat="50.48374" lon="3.49639">
        <ele>19.4</ele>
        <time>2022-04-18T15:39:28.000Z</time>
      </trkpt>
      <trkpt lat="50.48371" lon="3.49645">
        <ele>19.2</ele>
        <time>2022-04-18T15:39:30.000Z</time>
      </trkpt>
      <trkpt lat="50.48367" lon="3.4965">
        <ele>19</ele>
        <time>2022-04-18T15:39:30.916Z</time>
      </trkpt>
      <trkpt lat="50.48358" lon="3.49665">
        <ele>18.6</ele>
        <time>2022-04-18T15:39:33.374Z</time>
      </trkpt>
      <trkpt lat="50.48355" lon="3.49672">
        <ele>18.5</ele>
        <time>2022-04-18T15:39:35.053Z</time>
      </trkpt>
      <trkpt lat="50.48351" lon="3.49678">
        <ele>18.4</ele>
        <time>2022-04-18T15:39:36.000Z</time>
      </trkpt>
      <trkpt lat="50.48346" lon="3.49687">
        <ele>18.6</ele>
        <time>2022-04-18T15:39:37.992Z</time>
      </trkpt>
      <trkpt lat="50.48341" lon="3.49695">
        <ele>19</ele>
        <time>2022-04-18T15:39:39.000Z</time>
      </trkpt>
      <trkpt lat="50.48336" lon="3.49705">
        <ele>19</ele>
        <time>2022-04-18T15:39:41.495Z</time>
      </trkpt>
      <trkpt lat="50.48334" lon="3.49712">
        <ele>19</ele>
        <time>2022-04-18T15:39:42.990Z</time>
      </trkpt>
      <trkpt lat="50.48332" lon="3.49718">
        <ele>18.9</ele>
        <time>2022-04-18T15:39:44.000Z</time>
      </trkpt>
      <trkpt lat="50.4833" lon="3.49727">
        <ele>18.8</ele>
        <time>2022-04-18T15:39:45.000Z</time>
      </trkpt>
      <trkpt lat="50.48326" lon="3.4974">
        <ele>18.8</ele>
        <time>2022-04-18T15:39:47.094Z</time>
      </trkpt>
      <trkpt lat="50.48321" lon="3.49751">
        <ele>19</ele>
        <time>2022-04-18T15:39:49.151Z</time>
      </trkpt>
      <trkpt lat="50.48312" lon="3.49754">
        <ele>19</ele>
        <time>2022-04-18T15:39:51.773Z</time>
      </trkpt>
      <trkpt lat="50.48306" lon="3.49762">
        <ele>19</ele>
        <time>2022-04-18T15:39:54.000Z</time>
      </trkpt>
      <trkpt lat="50.48299" lon="3.49768">
        <ele>18.6</ele>
        <time>2022-04-18T15:39:56.000Z</time>
      </trkpt>
      <trkpt lat="50.48294" lon="3.49773">
        <ele>18.4</ele>
        <time>2022-04-18T15:39:59.000Z</time>
      </trkpt>
      <trkpt lat="50.48289" lon="3.49778">
        <ele>18.4</ele>
        <time>2022-04-18T15:40:02.000Z</time>
      </trkpt>
      <trkpt lat="50.48286" lon="3.49785">
        <ele>18.7</ele>
        <time>2022-04-18T15:40:03.975Z</time>
      </trkpt>
      <trkpt lat="50.48282" lon="3.49793">
        <ele>19.1</ele>
        <time>2022-04-18T15:40:07.832Z</time>
      </trkpt>
      <trkpt lat="50.48277" lon="3.49802">
        <ele>19.6</ele>
        <time>2022-04-18T15:40:22.951Z</time>
      </trkpt>
      <trkpt lat="50.48271" lon="3.49813">
        <ele>19</ele>
        <time>2022-04-18T15:40:25.253Z</time>
      </trkpt>
      <trkpt lat="50.48266" lon="3.49823">
        <ele>18.7</ele>
        <time>2022-04-18T15:40:26.794Z</time>
      </trkpt>
      <trkpt lat="50.48262" lon="3.49829">
        <ele>18.8</ele>
        <time>2022-04-18T15:40:28.791Z</time>
      </trkpt>
      <trkpt lat="50.48259" lon="3.49835">
        <ele>19</ele>
        <time>2022-04-18T15:40:29.972Z</time>
      </trkpt>
      <trkpt lat="50.48254" lon="3.49843">
        <ele>19.2</ele>
        <time>2022-04-18T15:40:32.000Z</time>
      </trkpt>
      <trkpt lat="50.48247" lon="3.49852">
        <ele>19.3</ele>
        <time>2022-04-18T15:40:34.352Z</time>
      </trkpt>
      <trkpt lat="50.48242" lon="3.49858">
        <ele>19</ele>
        <time>2022-04-18T15:40:35.835Z</time>
      </trkpt>
      <trkpt lat="50.48238" lon="3.49862">
        <ele>18.7</ele>
        <time>2022-04-18T15:40:38.054Z</time>
      </trkpt>
      <trkpt lat="50.48234" lon="3.49869">
        <ele>18.4</ele>
        <time>2022-04-18T15:40:39.000Z</time>
      </trkpt>
      <trkpt lat="50.4823" lon="3.49877">
        <ele>18.3</ele>
        <time>2022-04-18T15:40:41.000Z</time>
      </trkpt>
      <trkpt lat="50.48226" lon="3.49884">
        <ele>18.6</ele>
        <time>2022-04-18T15:40:43.096Z</time>
      </trkpt>
      <trkpt lat="50.48222" lon="3.49889">
        <ele>19</ele>
        <time>2022-04-18T15:40:44.435Z</time>
      </trkpt>
      <trkpt lat="50.48216" lon="3.49894">
        <ele>18.4</ele>
        <time>2022-04-18T15:40:45.871Z</time>
      </trkpt>
      <trkpt lat="50.48213" lon="3.499">
        <ele>18.3</ele>
        <time>2022-04-18T15:40:47.000Z</time>
      </trkpt>
      <trkpt lat="50.4821" lon="3.49905">
        <ele>18.2</ele>
        <time>2022-04-18T15:40:47.974Z</time>
      </trkpt>
      <trkpt lat="50.48204" lon="3.49916">
        <ele>18.3</ele>
        <time>2022-04-18T15:40:50.072Z</time>
      </trkpt>
      <trkpt lat="50.48199" lon="3.49926">
        <ele>18.7</ele>
        <time>2022-04-18T15:40:51.975Z</time>
      </trkpt>
      <trkpt lat="50.48196" lon="3.49932">
        <ele>19.1</ele>
        <time>2022-04-18T15:40:53.074Z</time>
      </trkpt>
      <trkpt lat="50.4819" lon="3.49942">
        <ele>19.4</ele>
        <time>2022-04-18T15:40:55.116Z</time>
      </trkpt>
      <trkpt lat="50.48186" lon="3.49949">
        <ele>18.9</ele>
        <time>2022-04-18T15:40:56.411Z</time>
      </trkpt>
      <trkpt lat="50.48179" lon="3.4996">
        <ele>18.1</ele>
        <time>2022-04-18T15:40:58.977Z</time>
      </trkpt>
      <trkpt lat="50.48175" lon="3.49968">
        <ele>18</ele>
        <time>2022-04-18T15:41:01.000Z</time>
      </trkpt>
      <trkpt lat="50.48168" lon="3.49978">
        <ele>18.2</ele>
        <time>2022-04-18T15:41:03.000Z</time>
      </trkpt>
      <trkpt lat="50.48164" lon="3.49982">
        <ele>18.2</ele>
        <time>2022-04-18T15:41:04.000Z</time>
      </trkpt>
      <trkpt lat="50.48158" lon="3.49993">
        <ele>18.4</ele>
        <time>2022-04-18T15:41:06.000Z</time>
      </trkpt>
      <trkpt lat="50.48153" lon="3.50001">
        <ele>18.5</ele>
        <time>2022-04-18T15:41:08.000Z</time>
      </trkpt>
      <trkpt lat="50.48148" lon="3.50009">
        <ele>18.4</ele>
        <time>2022-04-18T15:41:10.000Z</time>
      </trkpt>
      <trkpt lat="50.48145" lon="3.50015">
        <ele>18.5</ele>
        <time>2022-04-18T15:41:11.000Z</time>
      </trkpt>
      <trkpt lat="50.48142" lon="3.5002">
        <ele>18.7</ele>
        <time>2022-04-18T15:41:12.000Z</time>
      </trkpt>
      <trkpt lat="50.48136" lon="3.5003">
        <ele>18.7</ele>
        <time>2022-04-18T15:41:14.000Z</time>
      </trkpt>
      <trkpt lat="50.48131" lon="3.50037">
        <ele>18.3</ele>
        <time>2022-04-18T15:41:16.000Z</time>
      </trkpt>
      <trkpt lat="50.48127" lon="3.50042">
        <ele>18.2</ele>
        <time>2022-04-18T15:41:17.000Z</time>
      </trkpt>
      <trkpt lat="50.48121" lon="3.50049">
        <ele>18.1</ele>
        <time>2022-04-18T15:41:19.000Z</time>
      </trkpt>
      <trkpt lat="50.48115" lon="3.50056">
        <ele>18.2</ele>
        <time>2022-04-18T15:41:21.000Z</time>
      </trkpt>
      <trkpt lat="50.48109" lon="3.50066">
        <ele>18.6</ele>
        <time>2022-04-18T15:41:23.000Z</time>
      </trkpt>
      <trkpt lat="50.48106" lon="3.50072">
        <ele>18.7</ele>
        <time>2022-04-18T15:41:24.000Z</time>
      </trkpt>
      <trkpt lat="50.481" lon="3.50083">
        <ele>18.8</ele>
        <time>2022-04-18T15:41:27.000Z</time>
      </trkpt>
      <trkpt lat="50.48094" lon="3.50092">
        <ele>18.6</ele>
        <time>2022-04-18T15:41:29.000Z</time>
      </trkpt>
      <trkpt lat="50.48088" lon="3.50102">
        <ele>19.1</ele>
        <time>2022-04-18T15:41:30.873Z</time>
      </trkpt>
      <trkpt lat="50.48081" lon="3.5011">
        <ele>19.6</ele>
        <time>2022-04-18T15:41:33.000Z</time>
      </trkpt>
      <trkpt lat="50.48076" lon="3.50119">
        <ele>19.1</ele>
        <time>2022-04-18T15:41:35.000Z</time>
      </trkpt>
      <trkpt lat="50.48071" lon="3.50128">
        <ele>18.8</ele>
        <time>2022-04-18T15:41:37.000Z</time>
      </trkpt>
      <trkpt lat="50.48065" lon="3.50137">
        <ele>18.6</ele>
        <time>2022-04-18T15:41:39.000Z</time>
      </trkpt>
      <trkpt lat="50.48061" lon="3.50145">
        <ele>18.7</ele>
        <time>2022-04-18T15:41:41.014Z</time>
      </trkpt>
      <trkpt lat="50.48057" lon="3.50151">
        <ele>18.9</ele>
        <time>2022-04-18T15:41:43.000Z</time>
      </trkpt>
      <trkpt lat="50.48051" lon="3.50164">
        <ele>19.2</ele>
        <time>2022-04-18T15:41:45.000Z</time>
      </trkpt>
      <trkpt lat="50.48048" lon="3.50169">
        <ele>19</ele>
        <time>2022-04-18T15:41:46.071Z</time>
      </trkpt>
      <trkpt lat="50.48044" lon="3.50178">
        <ele>18.8</ele>
        <time>2022-04-18T15:41:48.000Z</time>
      </trkpt>
      <trkpt lat="50.4804" lon="3.50184">
        <ele>18.8</ele>
        <time>2022-04-18T15:41:50.000Z</time>
      </trkpt>
      <trkpt lat="50.48035" lon="3.50193">
        <ele>19.1</ele>
        <time>2022-04-18T15:41:51.000Z</time>
      </trkpt>
      <trkpt lat="50.48032" lon="3.50198">
        <ele>19.2</ele>
        <time>2022-04-18T15:41:51.974Z</time>
      </trkpt>
      <trkpt lat="50.48029" lon="3.50205">
        <ele>19.4</ele>
        <time>2022-04-18T15:41:53.471Z</time>
      </trkpt>
      <trkpt lat="50.48025" lon="3.50214">
        <ele>19.4</ele>
        <time>2022-04-18T15:41:55.794Z</time>
      </trkpt>
      <trkpt lat="50.48018" lon="3.50223">
        <ele>18.9</ele>
        <time>2022-04-18T15:41:58.290Z</time>
      </trkpt>
      <trkpt lat="50.48013" lon="3.5023">
        <ele>18.6</ele>
        <time>2022-04-18T15:42:00.611Z</time>
      </trkpt>
      <trkpt lat="50.48009" lon="3.50237">
        <ele>18.7</ele>
        <time>2022-04-18T15:42:02.000Z</time>
      </trkpt>
      <trkpt lat="50.48005" lon="3.50242">
        <ele>19</ele>
        <time>2022-04-18T15:42:03.000Z</time>
      </trkpt>
      <trkpt lat="50.48001" lon="3.5025">
        <ele>19.9</ele>
        <time>2022-04-18T15:42:05.114Z</time>
      </trkpt>
      <trkpt lat="50.47992" lon="3.50261">
        <ele>18.9</ele>
        <time>2022-04-18T15:42:07.795Z</time>
      </trkpt>
      <trkpt lat="50.47988" lon="3.50266">
        <ele>18.7</ele>
        <time>2022-04-18T15:42:08.853Z</time>
      </trkpt>
      <trkpt lat="50.47984" lon="3.50273">
        <ele>18.8</ele>
        <time>2022-04-18T15:42:11.054Z</time>
      </trkpt>
      <trkpt lat="50.47978" lon="3.50288">
        <ele>19.2</ele>
        <time>2022-04-18T15:42:14.000Z</time>
      </trkpt>
      <trkpt lat="50.47973" lon="3.50295">
        <ele>19.6</ele>
        <time>2022-04-18T15:42:16.000Z</time>
      </trkpt>
      <trkpt lat="50.47967" lon="3.50301">
        <ele>19.1</ele>
        <time>2022-04-18T15:42:18.000Z</time>
      </trkpt>
      <trkpt lat="50.4796" lon="3.50308">
        <ele>18.3</ele>
        <time>2022-04-18T15:42:20.000Z</time>
      </trkpt>
      <trkpt lat="50.47954" lon="3.50317">
        <ele>17.9</ele>
        <time>2022-04-18T15:42:22.000Z</time>
      </trkpt>
      <trkpt lat="50.4795" lon="3.50322">
        <ele>18</ele>
        <time>2022-04-18T15:42:23.095Z</time>
      </trkpt>
      <trkpt lat="50.47946" lon="3.5033">
        <ele>18.6</ele>
        <time>2022-04-18T15:42:24.000Z</time>
      </trkpt>
      <trkpt lat="50.4794" lon="3.50339">
        <ele>18.6</ele>
        <time>2022-04-18T15:42:26.355Z</time>
      </trkpt>
      <trkpt lat="50.47936" lon="3.50347">
        <ele>18.6</ele>
        <time>2022-04-18T15:42:27.394Z</time>
      </trkpt>
      <trkpt lat="50.47932" lon="3.50352">
        <ele>18.5</ele>
        <time>2022-04-18T15:42:29.000Z</time>
      </trkpt>
      <trkpt lat="50.47928" lon="3.50359">
        <ele>18.7</ele>
        <time>2022-04-18T15:42:30.000Z</time>
      </trkpt>
      <trkpt lat="50.47924" lon="3.50367">
        <ele>18.6</ele>
        <time>2022-04-18T15:42:32.000Z</time>
      </trkpt>
      <trkpt lat="50.47918" lon="3.50375">
        <ele>18.5</ele>
        <time>2022-04-18T15:42:34.000Z</time>
      </trkpt>
      <trkpt lat="50.47913" lon="3.50386">
        <ele>18.5</ele>
        <time>2022-04-18T15:42:36.000Z</time>
      </trkpt>
      <trkpt lat="50.47908" lon="3.50395">
        <ele>18.3</ele>
        <time>2022-04-18T15:42:38.000Z</time>
      </trkpt>
      <trkpt lat="50.47902" lon="3.50404">
        <ele>18.3</ele>
        <time>2022-04-18T15:42:40.000Z</time>
      </trkpt>
      <trkpt lat="50.47895" lon="3.50415">
        <ele>18.9</ele>
        <time>2022-04-18T15:42:42.000Z</time>
      </trkpt>
      <trkpt lat="50.4789" lon="3.50424">
        <ele>19.2</ele>
        <time>2022-04-18T15:42:44.000Z</time>
      </trkpt>
      <trkpt lat="50.47886" lon="3.5043">
        <ele>19.1</ele>
        <time>2022-04-18T15:42:45.000Z</time>
      </trkpt>
      <trkpt lat="50.4788" lon="3.50441">
        <ele>18.9</ele>
        <time>2022-04-18T15:42:47.000Z</time>
      </trkpt>
      <trkpt lat="50.47876" lon="3.50448">
        <ele>18.6</ele>
        <time>2022-04-18T15:42:49.000Z</time>
      </trkpt>
      <trkpt lat="50.47872" lon="3.50456">
        <ele>18.4</ele>
        <time>2022-04-18T15:42:51.000Z</time>
      </trkpt>
      <trkpt lat="50.47867" lon="3.50462">
        <ele>18.4</ele>
        <time>2022-04-18T15:42:52.000Z</time>
      </trkpt>
      <trkpt lat="50.47863" lon="3.50468">
        <ele>18.7</ele>
        <time>2022-04-18T15:42:54.000Z</time>
      </trkpt>
      <trkpt lat="50.47859" lon="3.50473">
        <ele>18.7</ele>
        <time>2022-04-18T15:42:55.000Z</time>
      </trkpt>
      <trkpt lat="50.47854" lon="3.5048">
        <ele>18.4</ele>
        <time>2022-04-18T15:42:57.000Z</time>
      </trkpt>
      <trkpt lat="50.47848" lon="3.50489">
        <ele>18.3</ele>
        <time>2022-04-18T15:42:59.000Z</time>
      </trkpt>
      <trkpt lat="50.47844" lon="3.50499">
        <ele>18.7</ele>
        <time>2022-04-18T15:43:01.000Z</time>
      </trkpt>
      <trkpt lat="50.4784" lon="3.50506">
        <ele>18.7</ele>
        <time>2022-04-18T15:43:03.000Z</time>
      </trkpt>
      <trkpt lat="50.47833" lon="3.50517">
        <ele>19.2</ele>
        <time>2022-04-18T15:43:05.000Z</time>
      </trkpt>
      <trkpt lat="50.47829" lon="3.50523">
        <ele>19.1</ele>
        <time>2022-04-18T15:43:07.000Z</time>
      </trkpt>
      <trkpt lat="50.47822" lon="3.50531">
        <ele>18.5</ele>
        <time>2022-04-18T15:43:09.000Z</time>
      </trkpt>
      <trkpt lat="50.47818" lon="3.50539">
        <ele>18.5</ele>
        <time>2022-04-18T15:43:09.994Z</time>
      </trkpt>
      <trkpt lat="50.47814" lon="3.50545">
        <ele>18.5</ele>
        <time>2022-04-18T15:43:11.000Z</time>
      </trkpt>
      <trkpt lat="50.47811" lon="3.50551">
        <ele>18.8</ele>
        <time>2022-04-18T15:43:12.754Z</time>
      </trkpt>
      <trkpt lat="50.47808" lon="3.50558">
        <ele>19.2</ele>
        <time>2022-04-18T15:43:15.015Z</time>
      </trkpt>
      <trkpt lat="50.47805" lon="3.50568">
        <ele>19.8</ele>
        <time>2022-04-18T15:43:17.000Z</time>
      </trkpt>
      <trkpt lat="50.47802" lon="3.50576">
        <ele>20</ele>
        <time>2022-04-18T15:43:20.000Z</time>
      </trkpt>
      <trkpt lat="50.47797" lon="3.50583">
        <ele>19.7</ele>
        <time>2022-04-18T15:43:22.000Z</time>
      </trkpt>
      <trkpt lat="50.47792" lon="3.5059">
        <ele>19</ele>
        <time>2022-04-18T15:43:24.000Z</time>
      </trkpt>
      <trkpt lat="50.47788" lon="3.50595">
        <ele>18.7</ele>
        <time>2022-04-18T15:43:25.000Z</time>
      </trkpt>
      <trkpt lat="50.47784" lon="3.50599">
        <ele>18.5</ele>
        <time>2022-04-18T15:43:26.075Z</time>
      </trkpt>
      <trkpt lat="50.47779" lon="3.50606">
        <ele>18.7</ele>
        <time>2022-04-18T15:43:27.000Z</time>
      </trkpt>
      <trkpt lat="50.47772" lon="3.50616">
        <ele>18.7</ele>
        <time>2022-04-18T15:43:29.000Z</time>
      </trkpt>
      <trkpt lat="50.47768" lon="3.50624">
        <ele>18.5</ele>
        <time>2022-04-18T15:43:31.919Z</time>
      </trkpt>
      <trkpt lat="50.47763" lon="3.50638">
        <ele>18.3</ele>
        <time>2022-04-18T15:43:32.936Z</time>
      </trkpt>
      <trkpt lat="50.4776" lon="3.50644">
        <ele>17.7</ele>
        <time>2022-04-18T15:43:34.137Z</time>
      </trkpt>
      <trkpt lat="50.47757" lon="3.50654">
        <ele>17</ele>
        <time>2022-04-18T15:43:35.699Z</time>
      </trkpt>
      <trkpt lat="50.47755" lon="3.50662">
        <ele>16.6</ele>
        <time>2022-04-18T15:43:36.638Z</time>
      </trkpt>
      <trkpt lat="50.47751" lon="3.50669">
        <ele>16.2</ele>
        <time>2022-04-18T15:43:38.899Z</time>
      </trkpt>
      <trkpt lat="50.47746" lon="3.50676">
        <ele>16.3</ele>
        <time>2022-04-18T15:43:41.000Z</time>
      </trkpt>
      <trkpt lat="50.47743" lon="3.50683">
        <ele>16.6</ele>
        <time>2022-04-18T15:43:42.000Z</time>
      </trkpt>
      <trkpt lat="50.47741" lon="3.50691">
        <ele>16.9</ele>
        <time>2022-04-18T15:43:44.000Z</time>
      </trkpt>
      <trkpt lat="50.47736" lon="3.507">
        <ele>17</ele>
        <time>2022-04-18T15:43:45.939Z</time>
      </trkpt>
      <trkpt lat="50.47733" lon="3.50708">
        <ele>17</ele>
        <time>2022-04-18T15:43:47.000Z</time>
      </trkpt>
      <trkpt lat="50.4773" lon="3.50716">
        <ele>17</ele>
        <time>2022-04-18T15:43:48.000Z</time>
      </trkpt>
      <trkpt lat="50.47726" lon="3.50724">
        <ele>17</ele>
        <time>2022-04-18T15:43:49.915Z</time>
      </trkpt>
      <trkpt lat="50.47723" lon="3.5073">
        <ele>17</ele>
        <time>2022-04-18T15:43:50.818Z</time>
      </trkpt>
      <trkpt lat="50.4772" lon="3.50737">
        <ele>17</ele>
        <time>2022-04-18T15:43:53.000Z</time>
      </trkpt>
      <trkpt lat="50.47712" lon="3.50747">
        <ele>17</ele>
        <time>2022-04-18T15:43:55.000Z</time>
      </trkpt>
      <trkpt lat="50.47706" lon="3.5076">
        <ele>17</ele>
        <time>2022-04-18T15:43:58.100Z</time>
      </trkpt>
      <trkpt lat="50.47701" lon="3.50767">
        <ele>17</ele>
        <time>2022-04-18T15:43:59.602Z</time>
      </trkpt>
      <trkpt lat="50.47697" lon="3.50774">
        <ele>17</ele>
        <time>2022-04-18T15:44:01.000Z</time>
      </trkpt>
      <trkpt lat="50.47692" lon="3.50785">
        <ele>17</ele>
        <time>2022-04-18T15:44:03.041Z</time>
      </trkpt>
      <trkpt lat="50.47686" lon="3.50795">
        <ele>17</ele>
        <time>2022-04-18T15:44:05.606Z</time>
      </trkpt>
      <trkpt lat="50.47682" lon="3.50801">
        <ele>17</ele>
        <time>2022-04-18T15:44:06.636Z</time>
      </trkpt>
      <trkpt lat="50.47679" lon="3.50808">
        <ele>17</ele>
        <time>2022-04-18T15:44:09.017Z</time>
      </trkpt>
      <trkpt lat="50.47673" lon="3.50819">
        <ele>17</ele>
        <time>2022-04-18T15:44:11.139Z</time>
      </trkpt>
      <trkpt lat="50.47669" lon="3.50825">
        <ele>17</ele>
        <time>2022-04-18T15:44:12.610Z</time>
      </trkpt>
      <trkpt lat="50.47666" lon="3.50831">
        <ele>17</ele>
        <time>2022-04-18T15:44:13.939Z</time>
      </trkpt>
      <trkpt lat="50.47661" lon="3.50843">
        <ele>17</ele>
        <time>2022-04-18T15:44:17.500Z</time>
      </trkpt>
      <trkpt lat="50.47655" lon="3.50853">
        <ele>17</ele>
        <time>2022-04-18T15:44:19.955Z</time>
      </trkpt>
      <trkpt lat="50.47651" lon="3.50864">
        <ele>17</ele>
        <time>2022-04-18T15:44:23.000Z</time>
      </trkpt>
      <trkpt lat="50.47647" lon="3.50875">
        <ele>17</ele>
        <time>2022-04-18T15:44:25.718Z</time>
      </trkpt>
      <trkpt lat="50.47644" lon="3.50882">
        <ele>17</ele>
        <time>2022-04-18T15:44:27.918Z</time>
      </trkpt>
      <trkpt lat="50.47641" lon="3.50887">
        <ele>17</ele>
        <time>2022-04-18T15:44:28.860Z</time>
      </trkpt>
      <trkpt lat="50.47637" lon="3.50894">
        <ele>17</ele>
        <time>2022-04-18T15:44:31.000Z</time>
      </trkpt>
      <trkpt lat="50.47634" lon="3.50899">
        <ele>17</ele>
        <time>2022-04-18T15:44:32.000Z</time>
      </trkpt>
      <trkpt lat="50.47628" lon="3.50907">
        <ele>17</ele>
        <time>2022-04-18T15:44:34.000Z</time>
      </trkpt>
      <trkpt lat="50.47625" lon="3.50916">
        <ele>17</ele>
        <time>2022-04-18T15:44:36.576Z</time>
      </trkpt>
      <trkpt lat="50.47621" lon="3.50924">
        <ele>17</ele>
        <time>2022-04-18T15:44:38.000Z</time>
      </trkpt>
      <trkpt lat="50.47617" lon="3.50934">
        <ele>17</ele>
        <time>2022-04-18T15:44:40.000Z</time>
      </trkpt>
      <trkpt lat="50.47613" lon="3.50941">
        <ele>17</ele>
        <time>2022-04-18T15:44:42.000Z</time>
      </trkpt>
      <trkpt lat="50.47608" lon="3.50948">
        <ele>17</ele>
        <time>2022-04-18T15:44:44.000Z</time>
      </trkpt>
      <trkpt lat="50.47603" lon="3.50957">
        <ele>17</ele>
        <time>2022-04-18T15:44:46.000Z</time>
      </trkpt>
      <trkpt lat="50.47599" lon="3.50967">
        <ele>17</ele>
        <time>2022-04-18T15:44:48.057Z</time>
      </trkpt>
      <trkpt lat="50.47595" lon="3.50977">
        <ele>17</ele>
        <time>2022-04-18T15:44:50.760Z</time>
      </trkpt>
      <trkpt lat="50.47591" lon="3.50987">
        <ele>17</ele>
        <time>2022-04-18T15:44:53.124Z</time>
      </trkpt>
      <trkpt lat="50.47587" lon="3.50993">
        <ele>17</ele>
        <time>2022-04-18T15:44:55.000Z</time>
      </trkpt>
      <trkpt lat="50.47581" lon="3.51004">
        <ele>17</ele>
        <time>2022-04-18T15:44:57.000Z</time>
      </trkpt>
      <trkpt lat="50.47576" lon="3.51015">
        <ele>17</ele>
        <time>2022-04-18T15:44:59.000Z</time>
      </trkpt>
      <trkpt lat="50.47573" lon="3.51021">
        <ele>17</ele>
        <time>2022-04-18T15:44:59.979Z</time>
      </trkpt>
      <trkpt lat="50.47569" lon="3.51029">
        <ele>17</ele>
        <time>2022-04-18T15:45:01.608Z</time>
      </trkpt>
      <trkpt lat="50.47566" lon="3.51036">
        <ele>17</ele>
        <time>2022-04-18T15:45:02.817Z</time>
      </trkpt>
      <trkpt lat="50.47559" lon="3.51048">
        <ele>17</ele>
        <time>2022-04-18T15:45:05.858Z</time>
      </trkpt>
      <trkpt lat="50.47553" lon="3.51061">
        <ele>17.2</ele>
        <time>2022-04-18T15:45:08.896Z</time>
      </trkpt>
      <trkpt lat="50.4755" lon="3.5107">
        <ele>17.4</ele>
        <time>2022-04-18T15:45:11.058Z</time>
      </trkpt>
      <trkpt lat="50.47547" lon="3.51076">
        <ele>17.5</ele>
        <time>2022-04-18T15:45:12.000Z</time>
      </trkpt>
      <trkpt lat="50.47542" lon="3.51086">
        <ele>17.6</ele>
        <time>2022-04-18T15:45:14.588Z</time>
      </trkpt>
      <trkpt lat="50.47537" lon="3.51096">
        <ele>17.6</ele>
        <time>2022-04-18T15:45:16.608Z</time>
      </trkpt>
      <trkpt lat="50.47533" lon="3.51104">
        <ele>17.8</ele>
        <time>2022-04-18T15:45:18.000Z</time>
      </trkpt>
      <trkpt lat="50.47529" lon="3.51113">
        <ele>17.9</ele>
        <time>2022-04-18T15:45:20.000Z</time>
      </trkpt>
      <trkpt lat="50.47524" lon="3.51122">
        <ele>17.5</ele>
        <time>2022-04-18T15:45:22.000Z</time>
      </trkpt>
      <trkpt lat="50.4752" lon="3.5113">
        <ele>17.2</ele>
        <time>2022-04-18T15:45:23.520Z</time>
      </trkpt>
      <trkpt lat="50.47516" lon="3.51138">
        <ele>17</ele>
        <time>2022-04-18T15:45:25.000Z</time>
      </trkpt>
      <trkpt lat="50.47508" lon="3.5115">
        <ele>17</ele>
        <time>2022-04-18T15:45:27.836Z</time>
      </trkpt>
      <trkpt lat="50.47504" lon="3.51157">
        <ele>17</ele>
        <time>2022-04-18T15:45:28.918Z</time>
      </trkpt>
      <trkpt lat="50.47502" lon="3.51164">
        <ele>17</ele>
        <time>2022-04-18T15:45:30.000Z</time>
      </trkpt>
      <trkpt lat="50.47498" lon="3.5117">
        <ele>16.8</ele>
        <time>2022-04-18T15:45:32.000Z</time>
      </trkpt>
      <trkpt lat="50.47495" lon="3.51178">
        <ele>16.5</ele>
        <time>2022-04-18T15:45:34.000Z</time>
      </trkpt>
      <trkpt lat="50.47491" lon="3.51188">
        <ele>16.2</ele>
        <time>2022-04-18T15:45:35.817Z</time>
      </trkpt>
      <trkpt lat="50.47483" lon="3.51198">
        <ele>16</ele>
        <time>2022-04-18T15:45:38.000Z</time>
      </trkpt>
      <trkpt lat="50.47476" lon="3.5121">
        <ele>16</ele>
        <time>2022-04-18T15:45:40.075Z</time>
      </trkpt>
      <trkpt lat="50.47474" lon="3.51217">
        <ele>16</ele>
        <time>2022-04-18T15:45:41.357Z</time>
      </trkpt>
      <trkpt lat="50.4747" lon="3.51225">
        <ele>16</ele>
        <time>2022-04-18T15:45:43.000Z</time>
      </trkpt>
      <trkpt lat="50.47467" lon="3.51232">
        <ele>16</ele>
        <time>2022-04-18T15:45:44.479Z</time>
      </trkpt>
      <trkpt lat="50.47463" lon="3.51237">
        <ele>16</ele>
        <time>2022-04-18T15:45:46.041Z</time>
      </trkpt>
      <trkpt lat="50.4746" lon="3.51244">
        <ele>16</ele>
        <time>2022-04-18T15:45:47.000Z</time>
      </trkpt>
      <trkpt lat="50.47457" lon="3.51252">
        <ele>16</ele>
        <time>2022-04-18T15:45:49.000Z</time>
      </trkpt>
      <trkpt lat="50.47454" lon="3.5126">
        <ele>16</ele>
        <time>2022-04-18T15:45:49.997Z</time>
      </trkpt>
      <trkpt lat="50.4745" lon="3.51267">
        <ele>16</ele>
        <time>2022-04-18T15:45:51.241Z</time>
      </trkpt>
      <trkpt lat="50.47447" lon="3.51273">
        <ele>16</ele>
        <time>2022-04-18T15:45:53.000Z</time>
      </trkpt>
      <trkpt lat="50.47442" lon="3.51282">
        <ele>16</ele>
        <time>2022-04-18T15:45:54.000Z</time>
      </trkpt>
      <trkpt lat="50.47438" lon="3.51289">
        <ele>16</ele>
        <time>2022-04-18T15:45:56.000Z</time>
      </trkpt>
      <trkpt lat="50.47434" lon="3.51297">
        <ele>16</ele>
        <time>2022-04-18T15:45:57.000Z</time>
      </trkpt>
      <trkpt lat="50.47428" lon="3.51309">
        <ele>16</ele>
        <time>2022-04-18T15:45:59.000Z</time>
      </trkpt>
      <trkpt lat="50.47425" lon="3.51317">
        <ele>16</ele>
        <time>2022-04-18T15:46:01.000Z</time>
      </trkpt>
      <trkpt lat="50.47417" lon="3.51331">
        <ele>16</ele>
        <time>2022-04-18T15:46:03.471Z</time>
      </trkpt>
      <trkpt lat="50.47413" lon="3.5134">
        <ele>16</ele>
        <time>2022-04-18T15:46:04.425Z</time>
      </trkpt>
      <trkpt lat="50.4741" lon="3.51347">
        <ele>16</ele>
        <time>2022-04-18T15:46:05.653Z</time>
      </trkpt>
      <trkpt lat="50.47406" lon="3.51356">
        <ele>16</ele>
        <time>2022-04-18T15:46:08.129Z</time>
      </trkpt>
      <trkpt lat="50.47402" lon="3.51364">
        <ele>16</ele>
        <time>2022-04-18T15:46:09.149Z</time>
      </trkpt>
      <trkpt lat="50.47399" lon="3.51371">
        <ele>16</ele>
        <time>2022-04-18T15:46:11.000Z</time>
      </trkpt>
      <trkpt lat="50.47396" lon="3.51377">
        <ele>16</ele>
        <time>2022-04-18T15:46:12.000Z</time>
      </trkpt>
      <trkpt lat="50.47392" lon="3.51385">
        <ele>16</ele>
        <time>2022-04-18T15:46:13.450Z</time>
      </trkpt>
      <trkpt lat="50.47389" lon="3.51391">
        <ele>16</ele>
        <time>2022-04-18T15:46:14.688Z</time>
      </trkpt>
      <trkpt lat="50.47384" lon="3.51398">
        <ele>16</ele>
        <time>2022-04-18T15:46:17.000Z</time>
      </trkpt>
      <trkpt lat="50.4738" lon="3.51403">
        <ele>16</ele>
        <time>2022-04-18T15:46:18.307Z</time>
      </trkpt>
      <trkpt lat="50.47375" lon="3.51409">
        <ele>16</ele>
        <time>2022-04-18T15:46:19.970Z</time>
      </trkpt>
      <trkpt lat="50.47372" lon="3.51416">
        <ele>16</ele>
        <time>2022-04-18T15:46:21.000Z</time>
      </trkpt>
      <trkpt lat="50.47368" lon="3.51423">
        <ele>16</ele>
        <time>2022-04-18T15:46:23.000Z</time>
      </trkpt>
      <trkpt lat="50.47365" lon="3.51429">
        <ele>16</ele>
        <time>2022-04-18T15:46:24.000Z</time>
      </trkpt>
      <trkpt lat="50.47362" lon="3.51436">
        <ele>16</ele>
        <time>2022-04-18T15:46:25.000Z</time>
      </trkpt>
      <trkpt lat="50.47358" lon="3.51444">
        <ele>16</ele>
        <time>2022-04-18T15:46:27.000Z</time>
      </trkpt>
      <trkpt lat="50.47353" lon="3.51454">
        <ele>16.1</ele>
        <time>2022-04-18T15:46:29.000Z</time>
      </trkpt>
      <trkpt lat="50.47351" lon="3.5146">
        <ele>16.2</ele>
        <time>2022-04-18T15:46:30.000Z</time>
      </trkpt>
      <trkpt lat="50.47348" lon="3.51467">
        <ele>16.4</ele>
        <time>2022-04-18T15:46:31.000Z</time>
      </trkpt>
      <trkpt lat="50.47345" lon="3.51473">
        <ele>16.6</ele>
        <time>2022-04-18T15:46:33.000Z</time>
      </trkpt>
      <trkpt lat="50.4734" lon="3.51482">
        <ele>16.8</ele>
        <time>2022-04-18T15:46:35.000Z</time>
      </trkpt>
      <trkpt lat="50.47338" lon="3.51493">
        <ele>16.8</ele>
        <time>2022-04-18T15:46:37.000Z</time>
      </trkpt>
      <trkpt lat="50.47333" lon="3.5151">
        <ele>17</ele>
        <time>2022-04-18T15:46:40.008Z</time>
      </trkpt>
      <trkpt lat="50.47327" lon="3.51519">
        <ele>17</ele>
        <time>2022-04-18T15:46:42.000Z</time>
      </trkpt>
      <trkpt lat="50.47323" lon="3.51525">
        <ele>17</ele>
        <time>2022-04-18T15:46:43.000Z</time>
      </trkpt>
      <trkpt lat="50.47321" lon="3.51532">
        <ele>16.9</ele>
        <time>2022-04-18T15:46:45.000Z</time>
      </trkpt>
      <trkpt lat="50.47315" lon="3.51544">
        <ele>16.8</ele>
        <time>2022-04-18T15:46:47.586Z</time>
      </trkpt>
      <trkpt lat="50.47311" lon="3.51551">
        <ele>16.8</ele>
        <time>2022-04-18T15:46:49.000Z</time>
      </trkpt>
      <trkpt lat="50.47305" lon="3.51562">
        <ele>16.8</ele>
        <time>2022-04-18T15:46:51.000Z</time>
      </trkpt>
      <trkpt lat="50.47302" lon="3.51568">
        <ele>16.6</ele>
        <time>2022-04-18T15:46:52.000Z</time>
      </trkpt>
      <trkpt lat="50.47299" lon="3.51574">
        <ele>16.5</ele>
        <time>2022-04-18T15:46:53.108Z</time>
      </trkpt>
      <trkpt lat="50.47295" lon="3.51583">
        <ele>16.4</ele>
        <time>2022-04-18T15:46:54.650Z</time>
      </trkpt>
      <trkpt lat="50.47291" lon="3.5159">
        <ele>16.5</ele>
        <time>2022-04-18T15:46:56.090Z</time>
      </trkpt>
      <trkpt lat="50.47285" lon="3.51599">
        <ele>16.7</ele>
        <time>2022-04-18T15:46:58.030Z</time>
      </trkpt>
      <trkpt lat="50.4728" lon="3.51609">
        <ele>16.9</ele>
        <time>2022-04-18T15:47:00.000Z</time>
      </trkpt>
      <trkpt lat="50.47274" lon="3.51618">
        <ele>17</ele>
        <time>2022-04-18T15:47:02.000Z</time>
      </trkpt>
      <trkpt lat="50.4727" lon="3.51628">
        <ele>17</ele>
        <time>2022-04-18T15:47:03.926Z</time>
      </trkpt>
      <trkpt lat="50.47267" lon="3.51635">
        <ele>17</ele>
        <time>2022-04-18T15:47:05.000Z</time>
      </trkpt>
      <trkpt lat="50.47262" lon="3.51645">
        <ele>16.9</ele>
        <time>2022-04-18T15:47:06.595Z</time>
      </trkpt>
      <trkpt lat="50.47259" lon="3.51651">
        <ele>16.9</ele>
        <time>2022-04-18T15:47:07.888Z</time>
      </trkpt>
      <trkpt lat="50.47254" lon="3.5166">
        <ele>16.9</ele>
        <time>2022-04-18T15:47:08.970Z</time>
      </trkpt>
      <trkpt lat="50.4725" lon="3.51668">
        <ele>17</ele>
        <time>2022-04-18T15:47:10.127Z</time>
      </trkpt>
      <trkpt lat="50.47247" lon="3.51674">
        <ele>17</ele>
        <time>2022-04-18T15:47:11.889Z</time>
      </trkpt>
      <trkpt lat="50.47243" lon="3.51681">
        <ele>17</ele>
        <time>2022-04-18T15:47:13.590Z</time>
      </trkpt>
      <trkpt lat="50.47239" lon="3.51689">
        <ele>17</ele>
        <time>2022-04-18T15:47:15.000Z</time>
      </trkpt>
      <trkpt lat="50.47234" lon="3.51696">
        <ele>17</ele>
        <time>2022-04-18T15:47:16.011Z</time>
      </trkpt>
      <trkpt lat="50.47231" lon="3.51702">
        <ele>17</ele>
        <time>2022-04-18T15:47:17.396Z</time>
      </trkpt>
      <trkpt lat="50.47228" lon="3.5171">
        <ele>17</ele>
        <time>2022-04-18T15:47:18.669Z</time>
      </trkpt>
      <trkpt lat="50.47225" lon="3.51718">
        <ele>17</ele>
        <time>2022-04-18T15:47:21.000Z</time>
      </trkpt>
      <trkpt lat="50.47222" lon="3.51723">
        <ele>17</ele>
        <time>2022-04-18T15:47:22.189Z</time>
      </trkpt>
      <trkpt lat="50.47219" lon="3.51731">
        <ele>17</ele>
        <time>2022-04-18T15:47:24.000Z</time>
      </trkpt>
      <trkpt lat="50.47215" lon="3.51738">
        <ele>17</ele>
        <time>2022-04-18T15:47:25.000Z</time>
      </trkpt>
      <trkpt lat="50.47209" lon="3.51751">
        <ele>17</ele>
        <time>2022-04-18T15:47:27.590Z</time>
      </trkpt>
      <trkpt lat="50.47205" lon="3.51759">
        <ele>16.9</ele>
        <time>2022-04-18T15:47:29.000Z</time>
      </trkpt>
      <trkpt lat="50.47199" lon="3.51774">
        <ele>16.9</ele>
        <time>2022-04-18T15:47:32.373Z</time>
      </trkpt>
      <trkpt lat="50.47196" lon="3.51781">
        <ele>16.9</ele>
        <time>2022-04-18T15:47:33.829Z</time>
      </trkpt>
      <trkpt lat="50.47193" lon="3.51786">
        <ele>17</ele>
        <time>2022-04-18T15:47:35.000Z</time>
      </trkpt>
      <trkpt lat="50.47189" lon="3.51796">
        <ele>17</ele>
        <time>2022-04-18T15:47:36.950Z</time>
      </trkpt>
      <trkpt lat="50.47184" lon="3.51807">
        <ele>17</ele>
        <time>2022-04-18T15:47:39.049Z</time>
      </trkpt>
      <trkpt lat="50.47177" lon="3.51818">
        <ele>17</ele>
        <time>2022-04-18T15:47:40.906Z</time>
      </trkpt>
      <trkpt lat="50.47169" lon="3.5183">
        <ele>17</ele>
        <time>2022-04-18T15:47:44.000Z</time>
      </trkpt>
      <trkpt lat="50.47166" lon="3.51837">
        <ele>17</ele>
        <time>2022-04-18T15:47:45.000Z</time>
      </trkpt>
      <trkpt lat="50.47164" lon="3.51845">
        <ele>17</ele>
        <time>2022-04-18T15:47:47.000Z</time>
      </trkpt>
      <trkpt lat="50.47162" lon="3.51852">
        <ele>17</ele>
        <time>2022-04-18T15:47:49.216Z</time>
      </trkpt>
      <trkpt lat="50.47157" lon="3.51861">
        <ele>17</ele>
        <time>2022-04-18T15:47:51.327Z</time>
      </trkpt>
      <trkpt lat="50.47154" lon="3.51871">
        <ele>17</ele>
        <time>2022-04-18T15:47:53.868Z</time>
      </trkpt>
      <trkpt lat="50.47149" lon="3.51879">
        <ele>17</ele>
        <time>2022-04-18T15:47:56.000Z</time>
      </trkpt>
      <trkpt lat="50.47143" lon="3.51884">
        <ele>17</ele>
        <time>2022-04-18T15:47:58.000Z</time>
      </trkpt>
      <trkpt lat="50.47139" lon="3.51891">
        <ele>17</ele>
        <time>2022-04-18T15:47:59.927Z</time>
      </trkpt>
      <trkpt lat="50.47134" lon="3.51898">
        <ele>17</ele>
        <time>2022-04-18T15:48:01.766Z</time>
      </trkpt>
      <trkpt lat="50.47131" lon="3.51905">
        <ele>17</ele>
        <time>2022-04-18T15:48:02.930Z</time>
      </trkpt>
      <trkpt lat="50.47129" lon="3.51913">
        <ele>17</ele>
        <time>2022-04-18T15:48:05.000Z</time>
      </trkpt>
      <trkpt lat="50.47124" lon="3.51923">
        <ele>17</ele>
        <time>2022-04-18T15:48:07.273Z</time>
      </trkpt>
      <trkpt lat="50.47116" lon="3.51938">
        <ele>17</ele>
        <time>2022-04-18T15:48:10.410Z</time>
      </trkpt>
      <trkpt lat="50.47113" lon="3.51943">
        <ele>17</ele>
        <time>2022-04-18T15:48:11.606Z</time>
      </trkpt>
      <trkpt lat="50.47111" lon="3.51951">
        <ele>17</ele>
        <time>2022-04-18T15:48:13.810Z</time>
      </trkpt>
      <trkpt lat="50.47108" lon="3.5196">
        <ele>17</ele>
        <time>2022-04-18T15:48:15.000Z</time>
      </trkpt>
      <trkpt lat="50.47105" lon="3.51967">
        <ele>17</ele>
        <time>2022-04-18T15:48:16.129Z</time>
      </trkpt>
      <trkpt lat="50.47102" lon="3.51975">
        <ele>17</ele>
        <time>2022-04-18T15:48:18.689Z</time>
      </trkpt>
      <trkpt lat="50.47095" lon="3.5199">
        <ele>17.4</ele>
        <time>2022-04-18T15:48:21.710Z</time>
      </trkpt>
      <trkpt lat="50.47092" lon="3.51998">
        <ele>17.6</ele>
        <time>2022-04-18T15:48:24.000Z</time>
      </trkpt>
      <trkpt lat="50.47089" lon="3.52004">
        <ele>17.8</ele>
        <time>2022-04-18T15:48:25.000Z</time>
      </trkpt>
      <trkpt lat="50.47087" lon="3.52011">
        <ele>17.9</ele>
        <time>2022-04-18T15:48:26.588Z</time>
      </trkpt>
      <trkpt lat="50.47084" lon="3.52018">
        <ele>18</ele>
        <time>2022-04-18T15:48:28.560Z</time>
      </trkpt>
      <trkpt lat="50.47082" lon="3.52024">
        <ele>18</ele>
        <time>2022-04-18T15:48:29.848Z</time>
      </trkpt>
      <trkpt lat="50.47077" lon="3.52038">
        <ele>17.9</ele>
        <time>2022-04-18T15:48:32.149Z</time>
      </trkpt>
      <trkpt lat="50.47072" lon="3.52048">
        <ele>17.9</ele>
        <time>2022-04-18T15:48:34.000Z</time>
      </trkpt>
      <trkpt lat="50.4707" lon="3.52056">
        <ele>18</ele>
        <time>2022-04-18T15:48:36.000Z</time>
      </trkpt>
      <trkpt lat="50.47065" lon="3.52064">
        <ele>18</ele>
        <time>2022-04-18T15:48:38.000Z</time>
      </trkpt>
      <trkpt lat="50.47059" lon="3.52076">
        <ele>18</ele>
        <time>2022-04-18T15:48:40.752Z</time>
      </trkpt>
      <trkpt lat="50.47052" lon="3.52086">
        <ele>17.9</ele>
        <time>2022-04-18T15:48:43.125Z</time>
      </trkpt>
      <trkpt lat="50.47048" lon="3.52095">
        <ele>17.8</ele>
        <time>2022-04-18T15:48:45.009Z</time>
      </trkpt>
      <trkpt lat="50.4704" lon="3.52105">
        <ele>17.9</ele>
        <time>2022-04-18T15:48:46.949Z</time>
      </trkpt>
      <trkpt lat="50.47035" lon="3.5211">
        <ele>18</ele>
        <time>2022-04-18T15:48:49.000Z</time>
      </trkpt>
      <trkpt lat="50.47023" lon="3.52123">
        <ele>17.9</ele>
        <time>2022-04-18T15:48:52.000Z</time>
      </trkpt>
      <trkpt lat="50.47019" lon="3.52129">
        <ele>17.9</ele>
        <time>2022-04-18T15:48:53.089Z</time>
      </trkpt>
      <trkpt lat="50.47014" lon="3.52139">
        <ele>18</ele>
        <time>2022-04-18T15:48:55.000Z</time>
      </trkpt>
      <trkpt lat="50.4701" lon="3.52148">
        <ele>17.7</ele>
        <time>2022-04-18T15:48:57.000Z</time>
      </trkpt>
      <trkpt lat="50.47005" lon="3.52157">
        <ele>17.3</ele>
        <time>2022-04-18T15:48:59.000Z</time>
      </trkpt>
      <trkpt lat="50.47001" lon="3.52164">
        <ele>17.1</ele>
        <time>2022-04-18T15:48:59.909Z</time>
      </trkpt>
      <trkpt lat="50.46993" lon="3.52176">
        <ele>17</ele>
        <time>2022-04-18T15:49:02.000Z</time>
      </trkpt>
      <trkpt lat="50.46989" lon="3.52182">
        <ele>16.9</ele>
        <time>2022-04-18T15:49:03.000Z</time>
      </trkpt>
      <trkpt lat="50.46985" lon="3.52187">
        <ele>16.8</ele>
        <time>2022-04-18T15:49:04.000Z</time>
      </trkpt>
      <trkpt lat="50.4698" lon="3.52193">
        <ele>16.5</ele>
        <time>2022-04-18T15:49:05.000Z</time>
      </trkpt>
      <trkpt lat="50.46977" lon="3.52198">
        <ele>16.6</ele>
        <time>2022-04-18T15:49:06.000Z</time>
      </trkpt>
      <trkpt lat="50.46974" lon="3.52203">
        <ele>16.7</ele>
        <time>2022-04-18T15:49:07.000Z</time>
      </trkpt>
      <trkpt lat="50.4697" lon="3.52208">
        <ele>16.9</ele>
        <time>2022-04-18T15:49:08.000Z</time>
      </trkpt>
      <trkpt lat="50.46966" lon="3.52216">
        <ele>17.4</ele>
        <time>2022-04-18T15:49:09.000Z</time>
      </trkpt>
      <trkpt lat="50.46963" lon="3.52231">
        <ele>18.3</ele>
        <time>2022-04-18T15:49:12.330Z</time>
      </trkpt>
      <trkpt lat="50.46957" lon="3.52244">
        <ele>18.5</ele>
        <time>2022-04-18T15:49:14.492Z</time>
      </trkpt>
      <trkpt lat="50.46954" lon="3.52252">
        <ele>18.4</ele>
        <time>2022-04-18T15:49:15.762Z</time>
      </trkpt>
      <trkpt lat="50.46953" lon="3.5226">
        <ele>18.3</ele>
        <time>2022-04-18T15:49:18.000Z</time>
      </trkpt>
      <trkpt lat="50.46955" lon="3.5227">
        <ele>18.4</ele>
        <time>2022-04-18T15:49:19.000Z</time>
      </trkpt>
      <trkpt lat="50.46957" lon="3.52276">
        <ele>18.5</ele>
        <time>2022-04-18T15:49:20.000Z</time>
      </trkpt>
      <trkpt lat="50.46962" lon="3.52285">
        <ele>18.5</ele>
        <time>2022-04-18T15:49:21.000Z</time>
      </trkpt>
      <trkpt lat="50.46968" lon="3.52285">
        <ele>18.6</ele>
        <time>2022-04-18T15:49:23.087Z</time>
      </trkpt>
      <trkpt lat="50.46974" lon="3.52285">
        <ele>18.7</ele>
        <time>2022-04-18T15:49:24.000Z</time>
      </trkpt>
      <trkpt lat="50.4698" lon="3.52283">
        <ele>18.6</ele>
        <time>2022-04-18T15:49:26.000Z</time>
      </trkpt>
      <trkpt lat="50.46983" lon="3.52277">
        <ele>18.7</ele>
        <time>2022-04-18T15:49:47.000Z</time>
      </trkpt>
      <trkpt lat="50.46979" lon="3.52263">
        <ele>19.7</ele>
        <time>2022-04-18T15:49:50.000Z</time>
      </trkpt>
      <trkpt lat="50.46976" lon="3.52258">
        <ele>20.2</ele>
        <time>2022-04-18T15:49:53.000Z</time>
      </trkpt>
      <trkpt lat="50.46972" lon="3.52254">
        <ele>20.7</ele>
        <time>2022-04-18T15:49:55.000Z</time>
      </trkpt>
      <trkpt lat="50.46967" lon="3.52248">
        <ele>20.1</ele>
        <time>2022-04-18T15:49:57.000Z</time>
      </trkpt>
      <trkpt lat="50.46961" lon="3.52243">
        <ele>18.9</ele>
        <time>2022-04-18T15:49:59.000Z</time>
      </trkpt>
      <trkpt lat="50.46957" lon="3.52238">
        <ele>18.2</ele>
        <time>2022-04-18T15:50:01.000Z</time>
      </trkpt>
      <trkpt lat="50.4695" lon="3.5223">
        <ele>17.4</ele>
        <time>2022-04-18T15:50:04.000Z</time>
      </trkpt>
      <trkpt lat="50.46944" lon="3.52223">
        <ele>17</ele>
        <time>2022-04-18T15:50:07.000Z</time>
      </trkpt>
      <trkpt lat="50.46939" lon="3.52218">
        <ele>16.9</ele>
        <time>2022-04-18T15:50:10.000Z</time>
      </trkpt>
      <trkpt lat="50.46935" lon="3.52213">
        <ele>16.8</ele>
        <time>2022-04-18T15:50:12.000Z</time>
      </trkpt>
      <trkpt lat="50.46931" lon="3.52209">
        <ele>16.8</ele>
        <time>2022-04-18T15:50:14.000Z</time>
      </trkpt>
      <trkpt lat="50.46926" lon="3.52205">
        <ele>16.8</ele>
        <time>2022-04-18T15:50:16.000Z</time>
      </trkpt>
      <trkpt lat="50.46922" lon="3.522">
        <ele>16.8</ele>
        <time>2022-04-18T15:50:18.000Z</time>
      </trkpt>
      <trkpt lat="50.46917" lon="3.52194">
        <ele>17</ele>
        <time>2022-04-18T15:50:20.000Z</time>
      </trkpt>
      <trkpt lat="50.46911" lon="3.52189">
        <ele>17.4</ele>
        <time>2022-04-18T15:50:22.000Z</time>
      </trkpt>
      <trkpt lat="50.46906" lon="3.52182">
        <ele>17.9</ele>
        <time>2022-04-18T15:50:24.000Z</time>
      </trkpt>
      <trkpt lat="50.46901" lon="3.52174">
        <ele>18.5</ele>
        <time>2022-04-18T15:50:26.000Z</time>
      </trkpt>
      <trkpt lat="50.46894" lon="3.52167">
        <ele>19.4</ele>
        <time>2022-04-18T15:50:28.000Z</time>
      </trkpt>
      <trkpt lat="50.46891" lon="3.52163">
        <ele>19.7</ele>
        <time>2022-04-18T15:50:29.000Z</time>
      </trkpt>
      <trkpt lat="50.46886" lon="3.52158">
        <ele>19.8</ele>
        <time>2022-04-18T15:50:30.000Z</time>
      </trkpt>
      <trkpt lat="50.46878" lon="3.52149">
        <ele>19.8</ele>
        <time>2022-04-18T15:50:32.000Z</time>
      </trkpt>
      <trkpt lat="50.46875" lon="3.52145">
        <ele>19.7</ele>
        <time>2022-04-18T15:50:33.000Z</time>
      </trkpt>
      <trkpt lat="50.46871" lon="3.5214">
        <ele>19.7</ele>
        <time>2022-04-18T15:50:34.000Z</time>
      </trkpt>
      <trkpt lat="50.46866" lon="3.52136">
        <ele>19.6</ele>
        <time>2022-04-18T15:50:35.000Z</time>
      </trkpt>
      <trkpt lat="50.4686" lon="3.5213">
        <ele>19.3</ele>
        <time>2022-04-18T15:50:36.000Z</time>
      </trkpt>
      <trkpt lat="50.46856" lon="3.52125">
        <ele>19</ele>
        <time>2022-04-18T15:50:37.000Z</time>
      </trkpt>
      <trkpt lat="50.46849" lon="3.52119">
        <ele>18.8</ele>
        <time>2022-04-18T15:50:38.000Z</time>
      </trkpt>
      <trkpt lat="50.46843" lon="3.52114">
        <ele>18.7</ele>
        <time>2022-04-18T15:50:39.000Z</time>
      </trkpt>
      <trkpt lat="50.46838" lon="3.5211">
        <ele>18.8</ele>
        <time>2022-04-18T15:50:40.000Z</time>
      </trkpt>
      <trkpt lat="50.46831" lon="3.52105">
        <ele>18.5</ele>
        <time>2022-04-18T15:50:41.000Z</time>
      </trkpt>
      <trkpt lat="50.46823" lon="3.52098">
        <ele>17.9</ele>
        <time>2022-04-18T15:50:42.000Z</time>
      </trkpt>
      <trkpt lat="50.46818" lon="3.52093">
        <ele>17.5</ele>
        <time>2022-04-18T15:50:43.000Z</time>
      </trkpt>
      <trkpt lat="50.46812" lon="3.52088">
        <ele>17.2</ele>
        <time>2022-04-18T15:50:44.000Z</time>
      </trkpt>
      <trkpt lat="50.46804" lon="3.52082">
        <ele>17</ele>
        <time>2022-04-18T15:50:45.000Z</time>
      </trkpt>
      <trkpt lat="50.46798" lon="3.52077">
        <ele>17</ele>
        <time>2022-04-18T15:50:46.000Z</time>
      </trkpt>
      <trkpt lat="50.46791" lon="3.52071">
        <ele>17</ele>
        <time>2022-04-18T15:50:47.000Z</time>
      </trkpt>
      <trkpt lat="50.46784" lon="3.52066">
        <ele>17</ele>
        <time>2022-04-18T15:50:48.000Z</time>
      </trkpt>
      <trkpt lat="50.46779" lon="3.52062">
        <ele>17</ele>
        <time>2022-04-18T15:50:49.000Z</time>
      </trkpt>
      <trkpt lat="50.46772" lon="3.52056">
        <ele>17</ele>
        <time>2022-04-18T15:50:50.000Z</time>
      </trkpt>
      <trkpt lat="50.46767" lon="3.52053">
        <ele>16.9</ele>
        <time>2022-04-18T15:50:51.000Z</time>
      </trkpt>
      <trkpt lat="50.46761" lon="3.52048">
        <ele>16.9</ele>
        <time>2022-04-18T15:50:52.000Z</time>
      </trkpt>
      <trkpt lat="50.46756" lon="3.52044">
        <ele>16.9</ele>
        <time>2022-04-18T15:50:53.000Z</time>
      </trkpt>
      <trkpt lat="50.46751" lon="3.52039">
        <ele>17</ele>
        <time>2022-04-18T15:50:54.000Z</time>
      </trkpt>
      <trkpt lat="50.46745" lon="3.52033">
        <ele>17</ele>
        <time>2022-04-18T15:50:55.000Z</time>
      </trkpt>
      <trkpt lat="50.4674" lon="3.52028">
        <ele>17</ele>
        <time>2022-04-18T15:50:56.000Z</time>
      </trkpt>
      <trkpt lat="50.46735" lon="3.52024">
        <ele>17</ele>
        <time>2022-04-18T15:50:57.000Z</time>
      </trkpt>
      <trkpt lat="50.4673" lon="3.5202">
        <ele>17</ele>
        <time>2022-04-18T15:50:58.000Z</time>
      </trkpt>
      <trkpt lat="50.46725" lon="3.52017">
        <ele>17</ele>
        <time>2022-04-18T15:50:59.000Z</time>
      </trkpt>
      <trkpt lat="50.4672" lon="3.52014">
        <ele>17</ele>
        <time>2022-04-18T15:51:00.000Z</time>
      </trkpt>
      <trkpt lat="50.46714" lon="3.5201">
        <ele>17</ele>
        <time>2022-04-18T15:51:01.000Z</time>
      </trkpt>
      <trkpt lat="50.4671" lon="3.52007">
        <ele>17</ele>
        <time>2022-04-18T15:51:02.000Z</time>
      </trkpt>
      <trkpt lat="50.46706" lon="3.52004">
        <ele>17</ele>
        <time>2022-04-18T15:51:03.000Z</time>
      </trkpt>
      <trkpt lat="50.467" lon="3.52001">
        <ele>17</ele>
        <time>2022-04-18T15:51:04.000Z</time>
      </trkpt>
      <trkpt lat="50.46696" lon="3.51998">
        <ele>17</ele>
        <time>2022-04-18T15:51:05.000Z</time>
      </trkpt>
      <trkpt lat="50.46691" lon="3.51995">
        <ele>17</ele>
        <time>2022-04-18T15:51:06.000Z</time>
      </trkpt>
      <trkpt lat="50.46686" lon="3.51991">
        <ele>17</ele>
        <time>2022-04-18T15:51:07.000Z</time>
      </trkpt>
      <trkpt lat="50.46681" lon="3.51989">
        <ele>17</ele>
        <time>2022-04-18T15:51:08.000Z</time>
      </trkpt>
      <trkpt lat="50.46677" lon="3.51987">
        <ele>17</ele>
        <time>2022-04-18T15:51:09.000Z</time>
      </trkpt>
      <trkpt lat="50.46668" lon="3.51981">
        <ele>17</ele>
        <time>2022-04-18T15:51:11.000Z</time>
      </trkpt>
      <trkpt lat="50.4666" lon="3.51975">
        <ele>17</ele>
        <time>2022-04-18T15:51:13.000Z</time>
      </trkpt>
      <trkpt lat="50.46655" lon="3.51971">
        <ele>17</ele>
        <time>2022-04-18T15:51:14.000Z</time>
      </trkpt>
      <trkpt lat="50.46648" lon="3.51966">
        <ele>17</ele>
        <time>2022-04-18T15:51:16.000Z</time>
      </trkpt>
      <trkpt lat="50.46643" lon="3.51964">
        <ele>17</ele>
        <time>2022-04-18T15:51:17.000Z</time>
      </trkpt>
      <trkpt lat="50.46637" lon="3.5196">
        <ele>17</ele>
        <time>2022-04-18T15:51:19.000Z</time>
      </trkpt>
      <trkpt lat="50.46632" lon="3.51956">
        <ele>16.9</ele>
        <time>2022-04-18T15:51:20.000Z</time>
      </trkpt>
      <trkpt lat="50.46624" lon="3.51951">
        <ele>16.9</ele>
        <time>2022-04-18T15:51:22.000Z</time>
      </trkpt>
      <trkpt lat="50.46618" lon="3.51947">
        <ele>16.9</ele>
        <time>2022-04-18T15:51:24.000Z</time>
      </trkpt>
      <trkpt lat="50.46612" lon="3.51939">
        <ele>17</ele>
        <time>2022-04-18T15:51:27.000Z</time>
      </trkpt>
      <trkpt lat="50.46606" lon="3.51936">
        <ele>17</ele>
        <time>2022-04-18T15:51:28.024Z</time>
      </trkpt>
      <trkpt lat="50.46597" lon="3.5193">
        <ele>17</ele>
        <time>2022-04-18T15:51:29.000Z</time>
      </trkpt>
      <trkpt lat="50.46587" lon="3.51923">
        <ele>17</ele>
        <time>2022-04-18T15:51:31.126Z</time>
      </trkpt>
      <trkpt lat="50.46579" lon="3.51914">
        <ele>17</ele>
        <time>2022-04-18T15:51:33.000Z</time>
      </trkpt>
      <trkpt lat="50.46575" lon="3.51909">
        <ele>17</ele>
        <time>2022-04-18T15:51:34.000Z</time>
      </trkpt>
      <trkpt lat="50.46571" lon="3.51905">
        <ele>17</ele>
        <time>2022-04-18T15:51:35.000Z</time>
      </trkpt>
      <trkpt lat="50.46566" lon="3.51897">
        <ele>17</ele>
        <time>2022-04-18T15:51:37.000Z</time>
      </trkpt>
      <trkpt lat="50.4656" lon="3.51889">
        <ele>17</ele>
        <time>2022-04-18T15:51:39.000Z</time>
      </trkpt>
      <trkpt lat="50.46552" lon="3.51878">
        <ele>16.9</ele>
        <time>2022-04-18T15:51:41.000Z</time>
      </trkpt>
      <trkpt lat="50.46546" lon="3.51871">
        <ele>16.9</ele>
        <time>2022-04-18T15:51:43.000Z</time>
      </trkpt>
      <trkpt lat="50.4654" lon="3.51863">
        <ele>17</ele>
        <time>2022-04-18T15:51:45.305Z</time>
      </trkpt>
      <trkpt lat="50.46535" lon="3.51857">
        <ele>17</ele>
        <time>2022-04-18T15:51:46.826Z</time>
      </trkpt>
      <trkpt lat="50.4653" lon="3.51851">
        <ele>17</ele>
        <time>2022-04-18T15:51:48.084Z</time>
      </trkpt>
      <trkpt lat="50.46525" lon="3.51843">
        <ele>16.9</ele>
        <time>2022-04-18T15:51:50.000Z</time>
      </trkpt>
      <trkpt lat="50.46519" lon="3.51836">
        <ele>16.7</ele>
        <time>2022-04-18T15:51:52.000Z</time>
      </trkpt>
      <trkpt lat="50.46513" lon="3.51829">
        <ele>16.7</ele>
        <time>2022-04-18T15:51:54.000Z</time>
      </trkpt>
      <trkpt lat="50.4651" lon="3.51824">
        <ele>16.9</ele>
        <time>2022-04-18T15:51:55.000Z</time>
      </trkpt>
      <trkpt lat="50.46503" lon="3.51815">
        <ele>17.4</ele>
        <time>2022-04-18T15:51:57.046Z</time>
      </trkpt>
      <trkpt lat="50.46499" lon="3.51808">
        <ele>17.8</ele>
        <time>2022-04-18T15:51:58.765Z</time>
      </trkpt>
      <trkpt lat="50.46492" lon="3.51799">
        <ele>17.5</ele>
        <time>2022-04-18T15:52:01.000Z</time>
      </trkpt>
      <trkpt lat="50.46484" lon="3.51789">
        <ele>17.2</ele>
        <time>2022-04-18T15:52:03.468Z</time>
      </trkpt>
      <trkpt lat="50.46477" lon="3.51778">
        <ele>17.2</ele>
        <time>2022-04-18T15:52:05.981Z</time>
      </trkpt>
      <trkpt lat="50.46472" lon="3.51771">
        <ele>17</ele>
        <time>2022-04-18T15:52:08.000Z</time>
      </trkpt>
      <trkpt lat="50.46466" lon="3.51762">
        <ele>16.8</ele>
        <time>2022-04-18T15:52:10.045Z</time>
      </trkpt>
      <trkpt lat="50.4646" lon="3.51755">
        <ele>16.6</ele>
        <time>2022-04-18T15:52:12.000Z</time>
      </trkpt>
      <trkpt lat="50.46454" lon="3.51748">
        <ele>16.4</ele>
        <time>2022-04-18T15:52:13.966Z</time>
      </trkpt>
      <trkpt lat="50.46446" lon="3.51735">
        <ele>16.6</ele>
        <time>2022-04-18T15:52:17.000Z</time>
      </trkpt>
      <trkpt lat="50.4644" lon="3.51728">
        <ele>16.7</ele>
        <time>2022-04-18T15:52:19.000Z</time>
      </trkpt>
      <trkpt lat="50.46434" lon="3.5172">
        <ele>16.7</ele>
        <time>2022-04-18T15:52:21.000Z</time>
      </trkpt>
      <trkpt lat="50.46428" lon="3.51714">
        <ele>16.8</ele>
        <time>2022-04-18T15:52:23.000Z</time>
      </trkpt>
      <trkpt lat="50.46422" lon="3.51706">
        <ele>17.1</ele>
        <time>2022-04-18T15:52:25.000Z</time>
      </trkpt>
      <trkpt lat="50.46416" lon="3.51699">
        <ele>17.7</ele>
        <time>2022-04-18T15:52:27.000Z</time>
      </trkpt>
      <trkpt lat="50.46409" lon="3.51691">
        <ele>17.7</ele>
        <time>2022-04-18T15:52:29.000Z</time>
      </trkpt>
      <trkpt lat="50.46401" lon="3.51681">
        <ele>17.5</ele>
        <time>2022-04-18T15:52:32.022Z</time>
      </trkpt>
      <trkpt lat="50.46393" lon="3.51673">
        <ele>17.7</ele>
        <time>2022-04-18T15:52:34.000Z</time>
      </trkpt>
      <trkpt lat="50.46388" lon="3.51668">
        <ele>18</ele>
        <time>2022-04-18T15:52:36.144Z</time>
      </trkpt>
      <trkpt lat="50.46382" lon="3.51662">
        <ele>18</ele>
        <time>2022-04-18T15:52:38.000Z</time>
      </trkpt>
      <trkpt lat="50.46377" lon="3.51656">
        <ele>18</ele>
        <time>2022-04-18T15:52:40.000Z</time>
      </trkpt>
      <trkpt lat="50.46372" lon="3.51649">
        <ele>18</ele>
        <time>2022-04-18T15:52:42.000Z</time>
      </trkpt>
      <trkpt lat="50.46364" lon="3.51644">
        <ele>18</ele>
        <time>2022-04-18T15:52:43.965Z</time>
      </trkpt>
      <trkpt lat="50.46358" lon="3.51638">
        <ele>18.1</ele>
        <time>2022-04-18T15:52:46.000Z</time>
      </trkpt>
      <trkpt lat="50.46353" lon="3.51638">
        <ele>18.3</ele>
        <time>2022-04-18T15:52:47.948Z</time>
      </trkpt>
      <trkpt lat="50.46348" lon="3.51652">
        <ele>18.2</ele>
        <time>2022-04-18T15:52:51.000Z</time>
      </trkpt>
      <trkpt lat="50.46347" lon="3.51662">
        <ele>18.1</ele>
        <time>2022-04-18T15:52:53.000Z</time>
      </trkpt>
      <trkpt lat="50.46343" lon="3.51674">
        <ele>17.9</ele>
        <time>2022-04-18T15:52:55.000Z</time>
      </trkpt>
      <trkpt lat="50.46339" lon="3.51679">
        <ele>17.9</ele>
        <time>2022-04-18T15:52:56.000Z</time>
      </trkpt>
      <trkpt lat="50.46336" lon="3.51685">
        <ele>17.9</ele>
        <time>2022-04-18T15:52:57.000Z</time>
      </trkpt>
      <trkpt lat="50.4633" lon="3.51699">
        <ele>18.1</ele>
        <time>2022-04-18T15:52:59.000Z</time>
      </trkpt>
      <trkpt lat="50.46327" lon="3.51704">
        <ele>18.2</ele>
        <time>2022-04-18T15:53:00.000Z</time>
      </trkpt>
      <trkpt lat="50.46324" lon="3.5171">
        <ele>18.3</ele>
        <time>2022-04-18T15:53:01.000Z</time>
      </trkpt>
      <trkpt lat="50.4632" lon="3.5172">
        <ele>18.5</ele>
        <time>2022-04-18T15:53:02.933Z</time>
      </trkpt>
      <trkpt lat="50.46317" lon="3.5173">
        <ele>18.3</ele>
        <time>2022-04-18T15:53:04.000Z</time>
      </trkpt>
      <trkpt lat="50.46314" lon="3.51736">
        <ele>18.2</ele>
        <time>2022-04-18T15:53:05.000Z</time>
      </trkpt>
      <trkpt lat="50.46311" lon="3.51742">
        <ele>18.1</ele>
        <time>2022-04-18T15:53:06.000Z</time>
      </trkpt>
      <trkpt lat="50.46309" lon="3.51748">
        <ele>17.9</ele>
        <time>2022-04-18T15:53:07.000Z</time>
      </trkpt>
      <trkpt lat="50.46305" lon="3.51755">
        <ele>18</ele>
        <time>2022-04-18T15:53:08.000Z</time>
      </trkpt>
      <trkpt lat="50.46302" lon="3.51761">
        <ele>18.1</ele>
        <time>2022-04-18T15:53:09.000Z</time>
      </trkpt>
      <trkpt lat="50.46299" lon="3.51766">
        <ele>18.2</ele>
        <time>2022-04-18T15:53:10.000Z</time>
      </trkpt>
      <trkpt lat="50.46297" lon="3.51773">
        <ele>18.3</ele>
        <time>2022-04-18T15:53:11.000Z</time>
      </trkpt>
      <trkpt lat="50.46294" lon="3.51779">
        <ele>18.4</ele>
        <time>2022-04-18T15:53:12.000Z</time>
      </trkpt>
      <trkpt lat="50.46292" lon="3.51786">
        <ele>18.2</ele>
        <time>2022-04-18T15:53:13.000Z</time>
      </trkpt>
      <trkpt lat="50.46288" lon="3.51798">
        <ele>17.9</ele>
        <time>2022-04-18T15:53:15.000Z</time>
      </trkpt>
      <trkpt lat="50.46284" lon="3.51808">
        <ele>17.8</ele>
        <time>2022-04-18T15:53:17.000Z</time>
      </trkpt>
      <trkpt lat="50.46281" lon="3.51821">
        <ele>17.9</ele>
        <time>2022-04-18T15:53:19.000Z</time>
      </trkpt>
      <trkpt lat="50.46277" lon="3.51831">
        <ele>18</ele>
        <time>2022-04-18T15:53:21.000Z</time>
      </trkpt>
      <trkpt lat="50.46272" lon="3.51847">
        <ele>18</ele>
        <time>2022-04-18T15:53:22.985Z</time>
      </trkpt>
      <trkpt lat="50.46268" lon="3.51858">
        <ele>18</ele>
        <time>2022-04-18T15:53:25.000Z</time>
      </trkpt>
      <trkpt lat="50.46266" lon="3.51865">
        <ele>18</ele>
        <time>2022-04-18T15:53:26.000Z</time>
      </trkpt>
      <trkpt lat="50.46266" lon="3.51874">
        <ele>18</ele>
        <time>2022-04-18T15:53:28.000Z</time>
      </trkpt>
      <trkpt lat="50.46263" lon="3.51885">
        <ele>18</ele>
        <time>2022-04-18T15:53:29.346Z</time>
      </trkpt>
      <trkpt lat="50.46259" lon="3.51897">
        <ele>17.9</ele>
        <time>2022-04-18T15:53:31.000Z</time>
      </trkpt>
      <trkpt lat="50.46257" lon="3.51904">
        <ele>17.9</ele>
        <time>2022-04-18T15:53:32.000Z</time>
      </trkpt>
      <trkpt lat="50.46255" lon="3.51912">
        <ele>17.9</ele>
        <time>2022-04-18T15:53:33.966Z</time>
      </trkpt>
      <trkpt lat="50.46251" lon="3.51923">
        <ele>18</ele>
        <time>2022-04-18T15:53:35.000Z</time>
      </trkpt>
      <trkpt lat="50.46248" lon="3.51935">
        <ele>18</ele>
        <time>2022-04-18T15:53:37.000Z</time>
      </trkpt>
      <trkpt lat="50.46246" lon="3.51942">
        <ele>18</ele>
        <time>2022-04-18T15:53:38.000Z</time>
      </trkpt>
      <trkpt lat="50.46241" lon="3.51959">
        <ele>17.6</ele>
        <time>2022-04-18T15:53:41.000Z</time>
      </trkpt>
      <trkpt lat="50.46237" lon="3.51967">
        <ele>17.6</ele>
        <time>2022-04-18T15:53:42.424Z</time>
      </trkpt>
      <trkpt lat="50.46233" lon="3.51977">
        <ele>17.6</ele>
        <time>2022-04-18T15:53:43.834Z</time>
      </trkpt>
      <trkpt lat="50.46228" lon="3.5199">
        <ele>17.8</ele>
        <time>2022-04-18T15:53:46.000Z</time>
      </trkpt>
      <trkpt lat="50.46224" lon="3.52001">
        <ele>17.9</ele>
        <time>2022-04-18T15:53:48.000Z</time>
      </trkpt>
      <trkpt lat="50.46221" lon="3.52016">
        <ele>18</ele>
        <time>2022-04-18T15:53:50.000Z</time>
      </trkpt>
      <trkpt lat="50.46217" lon="3.52028">
        <ele>18</ele>
        <time>2022-04-18T15:53:52.000Z</time>
      </trkpt>
      <trkpt lat="50.4621" lon="3.5204">
        <ele>17.8</ele>
        <time>2022-04-18T15:53:55.000Z</time>
      </trkpt>
      <trkpt lat="50.46208" lon="3.52047">
        <ele>17.7</ele>
        <time>2022-04-18T15:53:56.000Z</time>
      </trkpt>
      <trkpt lat="50.46204" lon="3.52056">
        <ele>17.7</ele>
        <time>2022-04-18T15:53:57.000Z</time>
      </trkpt>
      <trkpt lat="50.462" lon="3.52063">
        <ele>17.9</ele>
        <time>2022-04-18T15:53:59.000Z</time>
      </trkpt>
      <trkpt lat="50.46194" lon="3.52072">
        <ele>18</ele>
        <time>2022-04-18T15:54:01.000Z</time>
      </trkpt>
      <trkpt lat="50.46188" lon="3.52082">
        <ele>18.2</ele>
        <time>2022-04-18T15:54:03.000Z</time>
      </trkpt>
      <trkpt lat="50.46183" lon="3.52092">
        <ele>18.4</ele>
        <time>2022-04-18T15:54:05.000Z</time>
      </trkpt>
      <trkpt lat="50.46176" lon="3.52103">
        <ele>18.7</ele>
        <time>2022-04-18T15:54:07.074Z</time>
      </trkpt>
      <trkpt lat="50.46171" lon="3.52113">
        <ele>18.8</ele>
        <time>2022-04-18T15:54:09.000Z</time>
      </trkpt>
      <trkpt lat="50.46166" lon="3.52123">
        <ele>18.6</ele>
        <time>2022-04-18T15:54:11.000Z</time>
      </trkpt>
      <trkpt lat="50.46163" lon="3.52131">
        <ele>18.4</ele>
        <time>2022-04-18T15:54:13.000Z</time>
      </trkpt>
      <trkpt lat="50.4616" lon="3.52137">
        <ele>18.3</ele>
        <time>2022-04-18T15:54:14.000Z</time>
      </trkpt>
      <trkpt lat="50.46155" lon="3.52149">
        <ele>18.4</ele>
        <time>2022-04-18T15:54:16.000Z</time>
      </trkpt>
      <trkpt lat="50.46151" lon="3.52157">
        <ele>18.6</ele>
        <time>2022-04-18T15:54:18.000Z</time>
      </trkpt>
      <trkpt lat="50.46148" lon="3.52163">
        <ele>18.7</ele>
        <time>2022-04-18T15:54:19.000Z</time>
      </trkpt>
      <trkpt lat="50.46144" lon="3.52171">
        <ele>18.7</ele>
        <time>2022-04-18T15:54:20.634Z</time>
      </trkpt>
      <trkpt lat="50.46139" lon="3.52181">
        <ele>18.5</ele>
        <time>2022-04-18T15:54:22.000Z</time>
      </trkpt>
      <trkpt lat="50.46135" lon="3.52186">
        <ele>18.4</ele>
        <time>2022-04-18T15:54:23.000Z</time>
      </trkpt>
      <trkpt lat="50.4613" lon="3.52199">
        <ele>18.3</ele>
        <time>2022-04-18T15:54:25.072Z</time>
      </trkpt>
      <trkpt lat="50.46126" lon="3.52208">
        <ele>18.2</ele>
        <time>2022-04-18T15:54:27.000Z</time>
      </trkpt>
      <trkpt lat="50.46121" lon="3.52219">
        <ele>18.1</ele>
        <time>2022-04-18T15:54:29.000Z</time>
      </trkpt>
      <trkpt lat="50.46117" lon="3.52226">
        <ele>18</ele>
        <time>2022-04-18T15:54:30.000Z</time>
      </trkpt>
      <trkpt lat="50.46111" lon="3.52238">
        <ele>18</ele>
        <time>2022-04-18T15:54:32.000Z</time>
      </trkpt>
      <trkpt lat="50.46107" lon="3.52249">
        <ele>18.1</ele>
        <time>2022-04-18T15:54:34.000Z</time>
      </trkpt>
      <trkpt lat="50.46104" lon="3.52257">
        <ele>18.2</ele>
        <time>2022-04-18T15:54:35.000Z</time>
      </trkpt>
      <trkpt lat="50.46099" lon="3.5227">
        <ele>18.1</ele>
        <time>2022-04-18T15:54:37.000Z</time>
      </trkpt>
      <trkpt lat="50.46096" lon="3.52282">
        <ele>17.9</ele>
        <time>2022-04-18T15:54:39.000Z</time>
      </trkpt>
      <trkpt lat="50.46094" lon="3.5229">
        <ele>17.8</ele>
        <time>2022-04-18T15:54:40.000Z</time>
      </trkpt>
      <trkpt lat="50.46092" lon="3.52297">
        <ele>17.8</ele>
        <time>2022-04-18T15:54:41.000Z</time>
      </trkpt>
      <trkpt lat="50.46091" lon="3.52305">
        <ele>17.7</ele>
        <time>2022-04-18T15:54:42.000Z</time>
      </trkpt>
      <trkpt lat="50.46089" lon="3.52318">
        <ele>17.8</ele>
        <time>2022-04-18T15:54:44.000Z</time>
      </trkpt>
      <trkpt lat="50.46087" lon="3.52326">
        <ele>17.9</ele>
        <time>2022-04-18T15:54:45.000Z</time>
      </trkpt>
      <trkpt lat="50.46084" lon="3.52342">
        <ele>18</ele>
        <time>2022-04-18T15:54:47.000Z</time>
      </trkpt>
      <trkpt lat="50.46082" lon="3.52355">
        <ele>18</ele>
        <time>2022-04-18T15:54:49.000Z</time>
      </trkpt>
      <trkpt lat="50.46079" lon="3.52371">
        <ele>17.7</ele>
        <time>2022-04-18T15:54:51.000Z</time>
      </trkpt>
      <trkpt lat="50.46077" lon="3.52386">
        <ele>17.3</ele>
        <time>2022-04-18T15:54:53.000Z</time>
      </trkpt>
      <trkpt lat="50.46076" lon="3.52397">
        <ele>17.3</ele>
        <time>2022-04-18T15:54:54.000Z</time>
      </trkpt>
      <trkpt lat="50.46075" lon="3.52404">
        <ele>17.3</ele>
        <time>2022-04-18T15:54:55.000Z</time>
      </trkpt>
      <trkpt lat="50.46073" lon="3.52415">
        <ele>17.4</ele>
        <time>2022-04-18T15:54:56.000Z</time>
      </trkpt>
      <trkpt lat="50.46072" lon="3.52423">
        <ele>17.4</ele>
        <time>2022-04-18T15:54:57.000Z</time>
      </trkpt>
      <trkpt lat="50.46071" lon="3.52433">
        <ele>17.4</ele>
        <time>2022-04-18T15:54:58.000Z</time>
      </trkpt>
      <trkpt lat="50.46069" lon="3.52441">
        <ele>17.5</ele>
        <time>2022-04-18T15:54:59.000Z</time>
      </trkpt>
      <trkpt lat="50.46068" lon="3.52452">
        <ele>17.6</ele>
        <time>2022-04-18T15:55:00.000Z</time>
      </trkpt>
      <trkpt lat="50.46067" lon="3.5246">
        <ele>17.6</ele>
        <time>2022-04-18T15:55:01.000Z</time>
      </trkpt>
      <trkpt lat="50.46065" lon="3.5247">
        <ele>17.7</ele>
        <time>2022-04-18T15:55:02.000Z</time>
      </trkpt>
      <trkpt lat="50.46064" lon="3.52477">
        <ele>17.7</ele>
        <time>2022-04-18T15:55:03.000Z</time>
      </trkpt>
      <trkpt lat="50.46063" lon="3.52485">
        <ele>17.7</ele>
        <time>2022-04-18T15:55:04.000Z</time>
      </trkpt>
      <trkpt lat="50.46062" lon="3.52495">
        <ele>17.8</ele>
        <time>2022-04-18T15:55:05.000Z</time>
      </trkpt>
      <trkpt lat="50.46061" lon="3.52502">
        <ele>17.8</ele>
        <time>2022-04-18T15:55:06.000Z</time>
      </trkpt>
      <trkpt lat="50.46059" lon="3.52511">
        <ele>17.9</ele>
        <time>2022-04-18T15:55:07.000Z</time>
      </trkpt>
      <trkpt lat="50.46058" lon="3.52519">
        <ele>17.9</ele>
        <time>2022-04-18T15:55:08.000Z</time>
      </trkpt>
      <trkpt lat="50.46057" lon="3.52529">
        <ele>17.9</ele>
        <time>2022-04-18T15:55:09.000Z</time>
      </trkpt>
      <trkpt lat="50.46055" lon="3.52536">
        <ele>17.7</ele>
        <time>2022-04-18T15:55:10.000Z</time>
      </trkpt>
      <trkpt lat="50.46054" lon="3.52545">
        <ele>17.5</ele>
        <time>2022-04-18T15:55:11.000Z</time>
      </trkpt>
      <trkpt lat="50.46053" lon="3.52553">
        <ele>17.3</ele>
        <time>2022-04-18T15:55:12.000Z</time>
      </trkpt>
      <trkpt lat="50.46052" lon="3.52564">
        <ele>17.2</ele>
        <time>2022-04-18T15:55:13.000Z</time>
      </trkpt>
      <trkpt lat="50.46051" lon="3.52572">
        <ele>17.2</ele>
        <time>2022-04-18T15:55:14.000Z</time>
      </trkpt>
      <trkpt lat="50.46049" lon="3.5258">
        <ele>17.3</ele>
        <time>2022-04-18T15:55:15.000Z</time>
      </trkpt>
      <trkpt lat="50.46047" lon="3.52589">
        <ele>17.3</ele>
        <time>2022-04-18T15:55:16.000Z</time>
      </trkpt>
      <trkpt lat="50.46045" lon="3.52604">
        <ele>17.4</ele>
        <time>2022-04-18T15:55:18.000Z</time>
      </trkpt>
      <trkpt lat="50.46044" lon="3.52613">
        <ele>17.4</ele>
        <time>2022-04-18T15:55:19.000Z</time>
      </trkpt>
      <trkpt lat="50.46041" lon="3.5262">
        <ele>17.5</ele>
        <time>2022-04-18T15:55:20.000Z</time>
      </trkpt>
      <trkpt lat="50.46039" lon="3.52628">
        <ele>17.6</ele>
        <time>2022-04-18T15:55:21.000Z</time>
      </trkpt>
      <trkpt lat="50.46037" lon="3.52636">
        <ele>17.7</ele>
        <time>2022-04-18T15:55:22.000Z</time>
      </trkpt>
      <trkpt lat="50.46035" lon="3.52646">
        <ele>17.7</ele>
        <time>2022-04-18T15:55:23.000Z</time>
      </trkpt>
      <trkpt lat="50.46033" lon="3.52653">
        <ele>17.8</ele>
        <time>2022-04-18T15:55:24.000Z</time>
      </trkpt>
      <trkpt lat="50.4603" lon="3.52663">
        <ele>17.9</ele>
        <time>2022-04-18T15:55:25.000Z</time>
      </trkpt>
      <trkpt lat="50.46029" lon="3.5267">
        <ele>18</ele>
        <time>2022-04-18T15:55:26.000Z</time>
      </trkpt>
      <trkpt lat="50.46027" lon="3.52677">
        <ele>18</ele>
        <time>2022-04-18T15:55:27.000Z</time>
      </trkpt>
      <trkpt lat="50.46024" lon="3.52687">
        <ele>18</ele>
        <time>2022-04-18T15:55:28.000Z</time>
      </trkpt>
      <trkpt lat="50.46022" lon="3.52694">
        <ele>18</ele>
        <time>2022-04-18T15:55:29.000Z</time>
      </trkpt>
      <trkpt lat="50.46019" lon="3.52703">
        <ele>17.8</ele>
        <time>2022-04-18T15:55:30.000Z</time>
      </trkpt>
      <trkpt lat="50.46017" lon="3.5271">
        <ele>17.7</ele>
        <time>2022-04-18T15:55:31.000Z</time>
      </trkpt>
      <trkpt lat="50.46014" lon="3.52717">
        <ele>17.6</ele>
        <time>2022-04-18T15:55:32.000Z</time>
      </trkpt>
      <trkpt lat="50.46011" lon="3.52725">
        <ele>17.6</ele>
        <time>2022-04-18T15:55:33.000Z</time>
      </trkpt>
      <trkpt lat="50.46008" lon="3.52732">
        <ele>17.7</ele>
        <time>2022-04-18T15:55:34.000Z</time>
      </trkpt>
      <trkpt lat="50.46005" lon="3.52741">
        <ele>17.8</ele>
        <time>2022-04-18T15:55:35.000Z</time>
      </trkpt>
      <trkpt lat="50.46003" lon="3.52748">
        <ele>17.9</ele>
        <time>2022-04-18T15:55:36.000Z</time>
      </trkpt>
      <trkpt lat="50.46" lon="3.52755">
        <ele>17.8</ele>
        <time>2022-04-18T15:55:37.000Z</time>
      </trkpt>
      <trkpt lat="50.45995" lon="3.52761">
        <ele>17.7</ele>
        <time>2022-04-18T15:55:38.000Z</time>
      </trkpt>
      <trkpt lat="50.45985" lon="3.52763">
        <ele>17.8</ele>
        <time>2022-04-18T15:55:40.000Z</time>
      </trkpt>
      <trkpt lat="50.4598" lon="3.52759">
        <ele>17.9</ele>
        <time>2022-04-18T15:55:41.000Z</time>
      </trkpt>
      <trkpt lat="50.45974" lon="3.52754">
        <ele>18</ele>
        <time>2022-04-18T15:55:42.000Z</time>
      </trkpt>
      <trkpt lat="50.4597" lon="3.52748">
        <ele>18</ele>
        <time>2022-04-18T15:55:43.000Z</time>
      </trkpt>
      <trkpt lat="50.45965" lon="3.52745">
        <ele>18</ele>
        <time>2022-04-18T15:55:44.000Z</time>
      </trkpt>
      <trkpt lat="50.45957" lon="3.52738">
        <ele>18.2</ele>
        <time>2022-04-18T15:55:46.000Z</time>
      </trkpt>
      <trkpt lat="50.45953" lon="3.52735">
        <ele>18.4</ele>
        <time>2022-04-18T15:55:47.000Z</time>
      </trkpt>
      <trkpt lat="50.45948" lon="3.5273">
        <ele>18.6</ele>
        <time>2022-04-18T15:55:48.000Z</time>
      </trkpt>
      <trkpt lat="50.45942" lon="3.52725">
        <ele>18.9</ele>
        <time>2022-04-18T15:55:50.000Z</time>
      </trkpt>
      <trkpt lat="50.45934" lon="3.52718">
        <ele>19</ele>
        <time>2022-04-18T15:55:52.000Z</time>
      </trkpt>
      <trkpt lat="50.45926" lon="3.52713">
        <ele>19</ele>
        <time>2022-04-18T15:55:54.000Z</time>
      </trkpt>
      <trkpt lat="50.45919" lon="3.52709">
        <ele>19</ele>
        <time>2022-04-18T15:55:56.000Z</time>
      </trkpt>
      <trkpt lat="50.45915" lon="3.52705">
        <ele>19.1</ele>
        <time>2022-04-18T15:55:57.000Z</time>
      </trkpt>
      <trkpt lat="50.45909" lon="3.527">
        <ele>19.3</ele>
        <time>2022-04-18T15:55:59.000Z</time>
      </trkpt>
      <trkpt lat="50.45903" lon="3.52694">
        <ele>19.5</ele>
        <time>2022-04-18T15:56:01.000Z</time>
      </trkpt>
      <trkpt lat="50.45896" lon="3.52688">
        <ele>19.8</ele>
        <time>2022-04-18T15:56:03.000Z</time>
      </trkpt>
      <trkpt lat="50.45889" lon="3.52683">
        <ele>20</ele>
        <time>2022-04-18T15:56:05.000Z</time>
      </trkpt>
      <trkpt lat="50.45882" lon="3.52677">
        <ele>20.2</ele>
        <time>2022-04-18T15:56:07.000Z</time>
      </trkpt>
      <trkpt lat="50.45877" lon="3.52673">
        <ele>20.4</ele>
        <time>2022-04-18T15:56:09.000Z</time>
      </trkpt>
      <trkpt lat="50.45871" lon="3.52666">
        <ele>20.7</ele>
        <time>2022-04-18T15:56:11.000Z</time>
      </trkpt>
      <trkpt lat="50.45864" lon="3.5266">
        <ele>20.9</ele>
        <time>2022-04-18T15:56:13.000Z</time>
      </trkpt>
      <trkpt lat="50.45859" lon="3.52656">
        <ele>21</ele>
        <time>2022-04-18T15:56:15.000Z</time>
      </trkpt>
      <trkpt lat="50.45853" lon="3.52652">
        <ele>21</ele>
        <time>2022-04-18T15:56:17.000Z</time>
      </trkpt>
      <trkpt lat="50.45848" lon="3.52646">
        <ele>21</ele>
        <time>2022-04-18T15:56:19.000Z</time>
      </trkpt>
      <trkpt lat="50.45843" lon="3.52642">
        <ele>21</ele>
        <time>2022-04-18T15:56:21.000Z</time>
      </trkpt>
      <trkpt lat="50.45835" lon="3.52634">
        <ele>21.2</ele>
        <time>2022-04-18T15:56:23.698Z</time>
      </trkpt>
      <trkpt lat="50.45829" lon="3.5263">
        <ele>21.4</ele>
        <time>2022-04-18T15:56:26.000Z</time>
      </trkpt>
      <trkpt lat="50.45822" lon="3.52624">
        <ele>21.7</ele>
        <time>2022-04-18T15:56:29.000Z</time>
      </trkpt>
      <trkpt lat="50.45816" lon="3.5262">
        <ele>21.9</ele>
        <time>2022-04-18T15:56:32.000Z</time>
      </trkpt>
      <trkpt lat="50.45811" lon="3.52614">
        <ele>22</ele>
        <time>2022-04-18T15:56:33.935Z</time>
      </trkpt>
      <trkpt lat="50.45807" lon="3.52611">
        <ele>22</ele>
        <time>2022-04-18T15:56:35.000Z</time>
      </trkpt>
      <trkpt lat="50.45801" lon="3.52605">
        <ele>22.3</ele>
        <time>2022-04-18T15:56:37.000Z</time>
      </trkpt>
      <trkpt lat="50.45797" lon="3.52599">
        <ele>22.6</ele>
        <time>2022-04-18T15:56:39.000Z</time>
      </trkpt>
      <trkpt lat="50.4579" lon="3.52594">
        <ele>22.8</ele>
        <time>2022-04-18T15:56:41.846Z</time>
      </trkpt>
      <trkpt lat="50.45785" lon="3.52588">
        <ele>23</ele>
        <time>2022-04-18T15:56:44.000Z</time>
      </trkpt>
      <trkpt lat="50.45779" lon="3.52583">
        <ele>23</ele>
        <time>2022-04-18T15:56:46.000Z</time>
      </trkpt>
      <trkpt lat="50.45772" lon="3.52578">
        <ele>23</ele>
        <time>2022-04-18T15:56:48.000Z</time>
      </trkpt>
      <trkpt lat="50.45764" lon="3.52571">
        <ele>23</ele>
        <time>2022-04-18T15:56:50.857Z</time>
      </trkpt>
      <trkpt lat="50.45758" lon="3.52563">
        <ele>23</ele>
        <time>2022-04-18T15:56:53.000Z</time>
      </trkpt>
      <trkpt lat="50.45753" lon="3.52558">
        <ele>23</ele>
        <time>2022-04-18T15:56:55.000Z</time>
      </trkpt>
      <trkpt lat="50.45748" lon="3.52553">
        <ele>23.1</ele>
        <time>2022-04-18T15:56:57.000Z</time>
      </trkpt>
      <trkpt lat="50.45742" lon="3.52546">
        <ele>23.2</ele>
        <time>2022-04-18T15:56:59.000Z</time>
      </trkpt>
      <trkpt lat="50.45737" lon="3.52541">
        <ele>23.3</ele>
        <time>2022-04-18T15:57:01.000Z</time>
      </trkpt>
      <trkpt lat="50.45731" lon="3.52535">
        <ele>23.2</ele>
        <time>2022-04-18T15:57:03.000Z</time>
      </trkpt>
      <trkpt lat="50.45726" lon="3.52529">
        <ele>23.1</ele>
        <time>2022-04-18T15:57:05.000Z</time>
      </trkpt>
      <trkpt lat="50.4572" lon="3.52522">
        <ele>23.2</ele>
        <time>2022-04-18T15:57:07.000Z</time>
      </trkpt>
      <trkpt lat="50.45715" lon="3.52516">
        <ele>23.4</ele>
        <time>2022-04-18T15:57:09.000Z</time>
      </trkpt>
      <trkpt lat="50.45709" lon="3.52507">
        <ele>23.7</ele>
        <time>2022-04-18T15:57:12.000Z</time>
      </trkpt>
      <trkpt lat="50.45705" lon="3.52498">
        <ele>24</ele>
        <time>2022-04-18T15:57:14.000Z</time>
      </trkpt>
      <trkpt lat="50.45701" lon="3.52493">
        <ele>24.1</ele>
        <time>2022-04-18T15:57:15.916Z</time>
      </trkpt>
      <trkpt lat="50.45697" lon="3.52486">
        <ele>24</ele>
        <time>2022-04-18T15:57:18.000Z</time>
      </trkpt>
      <trkpt lat="50.45691" lon="3.52477">
        <ele>24</ele>
        <time>2022-04-18T15:57:20.898Z</time>
      </trkpt>
      <trkpt lat="50.45686" lon="3.5247">
        <ele>24.1</ele>
        <time>2022-04-18T15:57:23.000Z</time>
      </trkpt>
      <trkpt lat="50.45682" lon="3.52462">
        <ele>24.2</ele>
        <time>2022-04-18T15:57:25.000Z</time>
      </trkpt>
      <trkpt lat="50.45677" lon="3.52455">
        <ele>24.2</ele>
        <time>2022-04-18T15:57:27.000Z</time>
      </trkpt>
      <trkpt lat="50.45673" lon="3.52448">
        <ele>24.2</ele>
        <time>2022-04-18T15:57:28.996Z</time>
      </trkpt>
      <trkpt lat="50.45669" lon="3.52442">
        <ele>24.2</ele>
        <time>2022-04-18T15:57:31.000Z</time>
      </trkpt>
      <trkpt lat="50.45663" lon="3.52438">
        <ele>24.2</ele>
        <time>2022-04-18T15:57:33.000Z</time>
      </trkpt>
      <trkpt lat="50.45658" lon="3.52434">
        <ele>24.3</ele>
        <time>2022-04-18T15:57:35.000Z</time>
      </trkpt>
      <trkpt lat="50.45655" lon="3.52428">
        <ele>24.3</ele>
        <time>2022-04-18T15:57:37.000Z</time>
      </trkpt>
      <trkpt lat="50.45651" lon="3.52442">
        <ele>24</ele>
        <time>2022-04-18T15:57:40.997Z</time>
      </trkpt>
      <trkpt lat="50.45652" lon="3.52449">
        <ele>23.9</ele>
        <time>2022-04-18T15:57:42.000Z</time>
      </trkpt>
      <trkpt lat="50.45652" lon="3.5246">
        <ele>23.7</ele>
        <time>2022-04-18T15:57:43.000Z</time>
      </trkpt>
      <trkpt lat="50.45652" lon="3.52475">
        <ele>23.4</ele>
        <time>2022-04-18T15:57:45.000Z</time>
      </trkpt>
      <trkpt lat="50.45651" lon="3.52483">
        <ele>23.3</ele>
        <time>2022-04-18T15:57:46.000Z</time>
      </trkpt>
      <trkpt lat="50.45651" lon="3.52491">
        <ele>23.1</ele>
        <time>2022-04-18T15:57:47.000Z</time>
      </trkpt>
      <trkpt lat="50.45651" lon="3.525">
        <ele>23</ele>
        <time>2022-04-18T15:57:48.000Z</time>
      </trkpt>
      <trkpt lat="50.45651" lon="3.52517">
        <ele>23</ele>
        <time>2022-04-18T15:57:50.000Z</time>
      </trkpt>
      <trkpt lat="50.45651" lon="3.52525">
        <ele>23</ele>
        <time>2022-04-18T15:57:51.000Z</time>
      </trkpt>
      <trkpt lat="50.45651" lon="3.52535">
        <ele>22.7</ele>
        <time>2022-04-18T15:57:52.000Z</time>
      </trkpt>
      <trkpt lat="50.4565" lon="3.52544">
        <ele>22.4</ele>
        <time>2022-04-18T15:57:53.000Z</time>
      </trkpt>
      <trkpt lat="50.4565" lon="3.52554">
        <ele>22.1</ele>
        <time>2022-04-18T15:57:54.000Z</time>
      </trkpt>
      <trkpt lat="50.45649" lon="3.52564">
        <ele>21.7</ele>
        <time>2022-04-18T15:57:55.000Z</time>
      </trkpt>
      <trkpt lat="50.45649" lon="3.52575">
        <ele>21.3</ele>
        <time>2022-04-18T15:57:56.000Z</time>
      </trkpt>
      <trkpt lat="50.45649" lon="3.52585">
        <ele>21</ele>
        <time>2022-04-18T15:57:57.000Z</time>
      </trkpt>
      <trkpt lat="50.45649" lon="3.52596">
        <ele>21</ele>
        <time>2022-04-18T15:57:58.000Z</time>
      </trkpt>
      <trkpt lat="50.45649" lon="3.52607">
        <ele>21</ele>
        <time>2022-04-18T15:57:59.000Z</time>
      </trkpt>
      <trkpt lat="50.45648" lon="3.52618">
        <ele>20.8</ele>
        <time>2022-04-18T15:58:00.000Z</time>
      </trkpt>
      <trkpt lat="50.45648" lon="3.52628">
        <ele>20.4</ele>
        <time>2022-04-18T15:58:01.000Z</time>
      </trkpt>
      <trkpt lat="50.45648" lon="3.5264">
        <ele>20</ele>
        <time>2022-04-18T15:58:02.000Z</time>
      </trkpt>
      <trkpt lat="50.45648" lon="3.52651">
        <ele>20</ele>
        <time>2022-04-18T15:58:03.000Z</time>
      </trkpt>
      <trkpt lat="50.45648" lon="3.52663">
        <ele>20</ele>
        <time>2022-04-18T15:58:04.000Z</time>
      </trkpt>
      <trkpt lat="50.45648" lon="3.52674">
        <ele>19.7</ele>
        <time>2022-04-18T15:58:05.000Z</time>
      </trkpt>
      <trkpt lat="50.45647" lon="3.52686">
        <ele>19.3</ele>
        <time>2022-04-18T15:58:06.000Z</time>
      </trkpt>
      <trkpt lat="50.45647" lon="3.52698">
        <ele>19</ele>
        <time>2022-04-18T15:58:07.000Z</time>
      </trkpt>
      <trkpt lat="50.45647" lon="3.52709">
        <ele>19</ele>
        <time>2022-04-18T15:58:08.000Z</time>
      </trkpt>
      <trkpt lat="50.45646" lon="3.52721">
        <ele>19</ele>
        <time>2022-04-18T15:58:09.000Z</time>
      </trkpt>
      <trkpt lat="50.45646" lon="3.52733">
        <ele>19</ele>
        <time>2022-04-18T15:58:10.000Z</time>
      </trkpt>
      <trkpt lat="50.45646" lon="3.52743">
        <ele>19</ele>
        <time>2022-04-18T15:58:11.000Z</time>
      </trkpt>
      <trkpt lat="50.45646" lon="3.52755">
        <ele>19</ele>
        <time>2022-04-18T15:58:12.000Z</time>
      </trkpt>
      <trkpt lat="50.45646" lon="3.52767">
        <ele>18.8</ele>
        <time>2022-04-18T15:58:13.000Z</time>
      </trkpt>
      <trkpt lat="50.45646" lon="3.52778">
        <ele>18.7</ele>
        <time>2022-04-18T15:58:14.000Z</time>
      </trkpt>
      <trkpt lat="50.45646" lon="3.52789">
        <ele>18.7</ele>
        <time>2022-04-18T15:58:15.000Z</time>
      </trkpt>
      <trkpt lat="50.45646" lon="3.52801">
        <ele>18.7</ele>
        <time>2022-04-18T15:58:16.000Z</time>
      </trkpt>
      <trkpt lat="50.45645" lon="3.52812">
        <ele>18.6</ele>
        <time>2022-04-18T15:58:17.000Z</time>
      </trkpt>
      <trkpt lat="50.45644" lon="3.52823">
        <ele>18.3</ele>
        <time>2022-04-18T15:58:18.000Z</time>
      </trkpt>
      <trkpt lat="50.45644" lon="3.52835">
        <ele>18</ele>
        <time>2022-04-18T15:58:19.000Z</time>
      </trkpt>
      <trkpt lat="50.45644" lon="3.52845">
        <ele>18</ele>
        <time>2022-04-18T15:58:20.000Z</time>
      </trkpt>
      <trkpt lat="50.45643" lon="3.52857">
        <ele>18</ele>
        <time>2022-04-18T15:58:21.000Z</time>
      </trkpt>
      <trkpt lat="50.45643" lon="3.52868">
        <ele>18</ele>
        <time>2022-04-18T15:58:22.000Z</time>
      </trkpt>
      <trkpt lat="50.45644" lon="3.52877">
        <ele>18</ele>
        <time>2022-04-18T15:58:23.000Z</time>
      </trkpt>
      <trkpt lat="50.45643" lon="3.52888">
        <ele>18</ele>
        <time>2022-04-18T15:58:24.000Z</time>
      </trkpt>
      <trkpt lat="50.45642" lon="3.52898">
        <ele>18.3</ele>
        <time>2022-04-18T15:58:25.000Z</time>
      </trkpt>
      <trkpt lat="50.45641" lon="3.52908">
        <ele>18.6</ele>
        <time>2022-04-18T15:58:26.000Z</time>
      </trkpt>
      <trkpt lat="50.4564" lon="3.52917">
        <ele>18.9</ele>
        <time>2022-04-18T15:58:27.000Z</time>
      </trkpt>
      <trkpt lat="50.45639" lon="3.52925">
        <ele>19</ele>
        <time>2022-04-18T15:58:28.000Z</time>
      </trkpt>
      <trkpt lat="50.45639" lon="3.52933">
        <ele>19</ele>
        <time>2022-04-18T15:58:29.000Z</time>
      </trkpt>
      <trkpt lat="50.45639" lon="3.52943">
        <ele>19</ele>
        <time>2022-04-18T15:58:30.000Z</time>
      </trkpt>
      <trkpt lat="50.45639" lon="3.52951">
        <ele>19</ele>
        <time>2022-04-18T15:58:31.000Z</time>
      </trkpt>
      <trkpt lat="50.45638" lon="3.5296">
        <ele>19</ele>
        <time>2022-04-18T15:58:32.000Z</time>
      </trkpt>
      <trkpt lat="50.45638" lon="3.52968">
        <ele>19</ele>
        <time>2022-04-18T15:58:33.000Z</time>
      </trkpt>
      <trkpt lat="50.45638" lon="3.52986">
        <ele>19</ele>
        <time>2022-04-18T15:58:35.000Z</time>
      </trkpt>
      <trkpt lat="50.45637" lon="3.52994">
        <ele>19</ele>
        <time>2022-04-18T15:58:36.000Z</time>
      </trkpt>
      <trkpt lat="50.45637" lon="3.53003">
        <ele>19</ele>
        <time>2022-04-18T15:58:37.000Z</time>
      </trkpt>
      <trkpt lat="50.45637" lon="3.5301">
        <ele>19</ele>
        <time>2022-04-18T15:58:38.000Z</time>
      </trkpt>
      <trkpt lat="50.45637" lon="3.53017">
        <ele>19</ele>
        <time>2022-04-18T15:58:39.000Z</time>
      </trkpt>
      <trkpt lat="50.45636" lon="3.53026">
        <ele>19</ele>
        <time>2022-04-18T15:58:40.000Z</time>
      </trkpt>
      <trkpt lat="50.45636" lon="3.53034">
        <ele>19</ele>
        <time>2022-04-18T15:58:41.000Z</time>
      </trkpt>
      <trkpt lat="50.45636" lon="3.53042">
        <ele>19</ele>
        <time>2022-04-18T15:58:42.000Z</time>
      </trkpt>
      <trkpt lat="50.45636" lon="3.5305">
        <ele>19</ele>
        <time>2022-04-18T15:58:43.000Z</time>
      </trkpt>
      <trkpt lat="50.45636" lon="3.53057">
        <ele>19</ele>
        <time>2022-04-18T15:58:44.000Z</time>
      </trkpt>
      <trkpt lat="50.45635" lon="3.53064">
        <ele>19</ele>
        <time>2022-04-18T15:58:45.000Z</time>
      </trkpt>
      <trkpt lat="50.45635" lon="3.53072">
        <ele>19</ele>
        <time>2022-04-18T15:58:46.000Z</time>
      </trkpt>
      <trkpt lat="50.45635" lon="3.53083">
        <ele>19</ele>
        <time>2022-04-18T15:58:48.000Z</time>
      </trkpt>
      <trkpt lat="50.45634" lon="3.53091">
        <ele>19</ele>
        <time>2022-04-18T15:58:49.000Z</time>
      </trkpt>
      <trkpt lat="50.45634" lon="3.53098">
        <ele>19</ele>
        <time>2022-04-18T15:58:50.000Z</time>
      </trkpt>
      <trkpt lat="50.45633" lon="3.53105">
        <ele>19</ele>
        <time>2022-04-18T15:58:51.000Z</time>
      </trkpt>
      <trkpt lat="50.45632" lon="3.53118">
        <ele>19.2</ele>
        <time>2022-04-18T15:58:53.000Z</time>
      </trkpt>
      <trkpt lat="50.45632" lon="3.53136">
        <ele>19.9</ele>
        <time>2022-04-18T15:58:56.840Z</time>
      </trkpt>
      <trkpt lat="50.45631" lon="3.53146">
        <ele>20.1</ele>
        <time>2022-04-18T15:58:58.014Z</time>
      </trkpt>
      <trkpt lat="50.45631" lon="3.53154">
        <ele>20.2</ele>
        <time>2022-04-18T15:58:59.000Z</time>
      </trkpt>
      <trkpt lat="50.45631" lon="3.53161">
        <ele>20.2</ele>
        <time>2022-04-18T15:59:00.000Z</time>
      </trkpt>
      <trkpt lat="50.45631" lon="3.53175">
        <ele>20.3</ele>
        <time>2022-04-18T15:59:02.000Z</time>
      </trkpt>
      <trkpt lat="50.45631" lon="3.53189">
        <ele>20.3</ele>
        <time>2022-04-18T15:59:04.000Z</time>
      </trkpt>
      <trkpt lat="50.45631" lon="3.532">
        <ele>20.3</ele>
        <time>2022-04-18T15:59:06.000Z</time>
      </trkpt>
      <trkpt lat="50.45631" lon="3.53212">
        <ele>20.3</ele>
        <time>2022-04-18T15:59:08.000Z</time>
      </trkpt>
      <trkpt lat="50.45631" lon="3.53223">
        <ele>20.3</ele>
        <time>2022-04-18T15:59:10.000Z</time>
      </trkpt>
      <trkpt lat="50.4563" lon="3.53236">
        <ele>20.5</ele>
        <time>2022-04-18T15:59:12.000Z</time>
      </trkpt>
      <trkpt lat="50.45629" lon="3.53246">
        <ele>20.7</ele>
        <time>2022-04-18T15:59:14.000Z</time>
      </trkpt>
      <trkpt lat="50.45629" lon="3.53257">
        <ele>20.7</ele>
        <time>2022-04-18T15:59:16.000Z</time>
      </trkpt>
      <trkpt lat="50.45629" lon="3.53268">
        <ele>20.7</ele>
        <time>2022-04-18T15:59:18.000Z</time>
      </trkpt>
      <trkpt lat="50.45628" lon="3.5328">
        <ele>20.8</ele>
        <time>2022-04-18T15:59:20.000Z</time>
      </trkpt>
      <trkpt lat="50.45628" lon="3.53291">
        <ele>21.1</ele>
        <time>2022-04-18T15:59:22.000Z</time>
      </trkpt>
      <trkpt lat="50.45628" lon="3.53304">
        <ele>21.4</ele>
        <time>2022-04-18T15:59:24.000Z</time>
      </trkpt>
      <trkpt lat="50.45628" lon="3.53315">
        <ele>21.4</ele>
        <time>2022-04-18T15:59:26.000Z</time>
      </trkpt>
      <trkpt lat="50.45627" lon="3.53326">
        <ele>21.4</ele>
        <time>2022-04-18T15:59:28.000Z</time>
      </trkpt>
      <trkpt lat="50.45627" lon="3.53337">
        <ele>21.4</ele>
        <time>2022-04-18T15:59:30.000Z</time>
      </trkpt>
      <trkpt lat="50.45627" lon="3.53349">
        <ele>21.4</ele>
        <time>2022-04-18T15:59:32.000Z</time>
      </trkpt>
      <trkpt lat="50.45627" lon="3.53361">
        <ele>21.4</ele>
        <time>2022-04-18T15:59:34.000Z</time>
      </trkpt>
      <trkpt lat="50.45626" lon="3.53374">
        <ele>21.5</ele>
        <time>2022-04-18T15:59:36.000Z</time>
      </trkpt>
      <trkpt lat="50.45626" lon="3.53387">
        <ele>21.5</ele>
        <time>2022-04-18T15:59:38.000Z</time>
      </trkpt>
      <trkpt lat="50.45625" lon="3.53399">
        <ele>21.5</ele>
        <time>2022-04-18T15:59:40.000Z</time>
      </trkpt>
      <trkpt lat="50.45625" lon="3.53411">
        <ele>21.5</ele>
        <time>2022-04-18T15:59:42.000Z</time>
      </trkpt>
      <trkpt lat="50.45624" lon="3.53424">
        <ele>21.5</ele>
        <time>2022-04-18T15:59:44.000Z</time>
      </trkpt>
      <trkpt lat="50.45624" lon="3.53432">
        <ele>21.5</ele>
        <time>2022-04-18T15:59:46.005Z</time>
      </trkpt>
      <trkpt lat="50.45623" lon="3.53441">
        <ele>21.6</ele>
        <time>2022-04-18T15:59:47.000Z</time>
      </trkpt>
      <trkpt lat="50.45621" lon="3.53455">
        <ele>21.6</ele>
        <time>2022-04-18T15:59:49.000Z</time>
      </trkpt>
      <trkpt lat="50.4562" lon="3.53462">
        <ele>21.7</ele>
        <time>2022-04-18T15:59:50.000Z</time>
      </trkpt>
      <trkpt lat="50.45617" lon="3.53475">
        <ele>21.8</ele>
        <time>2022-04-18T15:59:52.000Z</time>
      </trkpt>
      <trkpt lat="50.45613" lon="3.53479">
        <ele>21.9</ele>
        <time>2022-04-18T15:59:53.000Z</time>
      </trkpt>
      <trkpt lat="50.45603" lon="3.53483">
        <ele>22</ele>
        <time>2022-04-18T15:59:56.000Z</time>
      </trkpt>
      <trkpt lat="50.456" lon="3.53475">
        <ele>22</ele>
        <time>2022-04-18T15:59:56.927Z</time>
      </trkpt>
      <trkpt lat="50.45594" lon="3.53463">
        <ele>22</ele>
        <time>2022-04-18T15:59:58.000Z</time>
      </trkpt>
      <trkpt lat="50.45587" lon="3.53453">
        <ele>22</ele>
        <time>2022-04-18T16:00:00.000Z</time>
      </trkpt>
      <trkpt lat="50.45581" lon="3.53445">
        <ele>22.1</ele>
        <time>2022-04-18T16:00:02.000Z</time>
      </trkpt>
      <trkpt lat="50.45575" lon="3.53438">
        <ele>22.3</ele>
        <time>2022-04-18T16:00:04.000Z</time>
      </trkpt>
      <trkpt lat="50.45568" lon="3.53431">
        <ele>22.6</ele>
        <time>2022-04-18T16:00:06.000Z</time>
      </trkpt>
      <trkpt lat="50.45563" lon="3.53424">
        <ele>22.7</ele>
        <time>2022-04-18T16:00:07.000Z</time>
      </trkpt>
      <trkpt lat="50.45559" lon="3.53419">
        <ele>22.9</ele>
        <time>2022-04-18T16:00:09.000Z</time>
      </trkpt>
      <trkpt lat="50.45554" lon="3.53411">
        <ele>23.1</ele>
        <time>2022-04-18T16:00:11.000Z</time>
      </trkpt>
      <trkpt lat="50.45548" lon="3.53403">
        <ele>23.3</ele>
        <time>2022-04-18T16:00:13.000Z</time>
      </trkpt>
      <trkpt lat="50.45542" lon="3.53395">
        <ele>23.5</ele>
        <time>2022-04-18T16:00:15.000Z</time>
      </trkpt>
      <trkpt lat="50.45537" lon="3.53389">
        <ele>23.7</ele>
        <time>2022-04-18T16:00:17.000Z</time>
      </trkpt>
      <trkpt lat="50.45531" lon="3.53382">
        <ele>23.9</ele>
        <time>2022-04-18T16:00:19.000Z</time>
      </trkpt>
      <trkpt lat="50.45527" lon="3.53377">
        <ele>24</ele>
        <time>2022-04-18T16:00:21.000Z</time>
      </trkpt>
      <trkpt lat="50.45522" lon="3.53375">
        <ele>24</ele>
        <time>2022-04-18T16:00:22.000Z</time>
      </trkpt>
      <trkpt lat="50.45515" lon="3.53373">
        <ele>24</ele>
        <time>2022-04-18T16:00:24.000Z</time>
      </trkpt>
      <trkpt lat="50.45511" lon="3.5337">
        <ele>24</ele>
        <time>2022-04-18T16:00:26.000Z</time>
      </trkpt>
      <trkpt lat="50.45508" lon="3.53364">
        <ele>24</ele>
        <time>2022-04-18T16:00:28.000Z</time>
      </trkpt>
      <trkpt lat="50.45506" lon="3.53357">
        <ele>24</ele>
        <time>2022-04-18T16:00:30.000Z</time>
      </trkpt>
      <trkpt lat="50.45504" lon="3.5335">
        <ele>24</ele>
        <time>2022-04-18T16:00:32.000Z</time>
      </trkpt>
      <trkpt lat="50.45499" lon="3.53343">
        <ele>24</ele>
        <time>2022-04-18T16:00:34.000Z</time>
      </trkpt>
      <trkpt lat="50.45493" lon="3.53335">
        <ele>24.3</ele>
        <time>2022-04-18T16:00:36.000Z</time>
      </trkpt>
      <trkpt lat="50.45487" lon="3.53328">
        <ele>24.5</ele>
        <time>2022-04-18T16:00:38.000Z</time>
      </trkpt>
      <trkpt lat="50.45482" lon="3.53321">
        <ele>24.6</ele>
        <time>2022-04-18T16:00:40.000Z</time>
      </trkpt>
      <trkpt lat="50.45477" lon="3.53315">
        <ele>24.8</ele>
        <time>2022-04-18T16:00:41.832Z</time>
      </trkpt>
      <trkpt lat="50.45471" lon="3.53306">
        <ele>25</ele>
        <time>2022-04-18T16:00:43.981Z</time>
      </trkpt>
      <trkpt lat="50.45465" lon="3.53299">
        <ele>25.1</ele>
        <time>2022-04-18T16:00:46.000Z</time>
      </trkpt>
      <trkpt lat="50.4546" lon="3.53289">
        <ele>25.3</ele>
        <time>2022-04-18T16:00:48.000Z</time>
      </trkpt>
      <trkpt lat="50.45455" lon="3.5328">
        <ele>25.6</ele>
        <time>2022-04-18T16:00:50.000Z</time>
      </trkpt>
      <trkpt lat="50.4545" lon="3.53273">
        <ele>25.8</ele>
        <time>2022-04-18T16:00:52.000Z</time>
      </trkpt>
      <trkpt lat="50.45444" lon="3.53265">
        <ele>26</ele>
        <time>2022-04-18T16:00:54.000Z</time>
      </trkpt>
      <trkpt lat="50.45441" lon="3.53261">
        <ele>26.1</ele>
        <time>2022-04-18T16:00:55.000Z</time>
      </trkpt>
      <trkpt lat="50.45435" lon="3.53255">
        <ele>26.3</ele>
        <time>2022-04-18T16:00:57.000Z</time>
      </trkpt>
      <trkpt lat="50.45429" lon="3.53248">
        <ele>26.6</ele>
        <time>2022-04-18T16:00:59.000Z</time>
      </trkpt>
      <trkpt lat="50.45424" lon="3.53241">
        <ele>26.7</ele>
        <time>2022-04-18T16:01:01.000Z</time>
      </trkpt>
      <trkpt lat="50.45418" lon="3.53232">
        <ele>27</ele>
        <time>2022-04-18T16:01:03.000Z</time>
      </trkpt>
      <trkpt lat="50.45412" lon="3.53224">
        <ele>27.2</ele>
        <time>2022-04-18T16:01:05.000Z</time>
      </trkpt>
      <trkpt lat="50.45408" lon="3.53219">
        <ele>27.3</ele>
        <time>2022-04-18T16:01:06.000Z</time>
      </trkpt>
      <trkpt lat="50.45403" lon="3.53213">
        <ele>27.5</ele>
        <time>2022-04-18T16:01:08.000Z</time>
      </trkpt>
      <trkpt lat="50.45399" lon="3.53207">
        <ele>27.6</ele>
        <time>2022-04-18T16:01:09.986Z</time>
      </trkpt>
      <trkpt lat="50.45395" lon="3.53203">
        <ele>27.8</ele>
        <time>2022-04-18T16:01:11.000Z</time>
      </trkpt>
      <trkpt lat="50.45391" lon="3.53195">
        <ele>27.9</ele>
        <time>2022-04-18T16:01:13.000Z</time>
      </trkpt>
      <trkpt lat="50.45386" lon="3.5319">
        <ele>28.1</ele>
        <time>2022-04-18T16:01:15.000Z</time>
      </trkpt>
      <trkpt lat="50.45382" lon="3.53185">
        <ele>28.2</ele>
        <time>2022-04-18T16:01:17.000Z</time>
      </trkpt>
      <trkpt lat="50.45378" lon="3.53179">
        <ele>28.4</ele>
        <time>2022-04-18T16:01:19.000Z</time>
      </trkpt>
      <trkpt lat="50.45373" lon="3.53173">
        <ele>28.6</ele>
        <time>2022-04-18T16:01:21.000Z</time>
      </trkpt>
      <trkpt lat="50.45369" lon="3.53167">
        <ele>28.7</ele>
        <time>2022-04-18T16:01:23.000Z</time>
      </trkpt>
      <trkpt lat="50.45364" lon="3.53161">
        <ele>28.9</ele>
        <time>2022-04-18T16:01:25.000Z</time>
      </trkpt>
      <trkpt lat="50.45359" lon="3.53153">
        <ele>29</ele>
        <time>2022-04-18T16:01:27.000Z</time>
      </trkpt>
      <trkpt lat="50.45353" lon="3.53146">
        <ele>29</ele>
        <time>2022-04-18T16:01:29.000Z</time>
      </trkpt>
      <trkpt lat="50.45348" lon="3.53137">
        <ele>29</ele>
        <time>2022-04-18T16:01:31.000Z</time>
      </trkpt>
      <trkpt lat="50.45342" lon="3.53128">
        <ele>29</ele>
        <time>2022-04-18T16:01:33.000Z</time>
      </trkpt>
      <trkpt lat="50.45339" lon="3.53123">
        <ele>29</ele>
        <time>2022-04-18T16:01:34.000Z</time>
      </trkpt>
      <trkpt lat="50.45334" lon="3.53117">
        <ele>29</ele>
        <time>2022-04-18T16:01:35.000Z</time>
      </trkpt>
      <trkpt lat="50.45329" lon="3.53111">
        <ele>29.2</ele>
        <time>2022-04-18T16:01:37.000Z</time>
      </trkpt>
      <trkpt lat="50.45325" lon="3.53107">
        <ele>29.3</ele>
        <time>2022-04-18T16:01:38.000Z</time>
      </trkpt>
      <trkpt lat="50.45321" lon="3.53102">
        <ele>29.4</ele>
        <time>2022-04-18T16:01:39.000Z</time>
      </trkpt>
      <trkpt lat="50.45317" lon="3.53097">
        <ele>29.6</ele>
        <time>2022-04-18T16:01:40.000Z</time>
      </trkpt>
      <trkpt lat="50.45313" lon="3.53092">
        <ele>29.7</ele>
        <time>2022-04-18T16:01:41.000Z</time>
      </trkpt>
      <trkpt lat="50.45309" lon="3.53087">
        <ele>29.9</ele>
        <time>2022-04-18T16:01:42.000Z</time>
      </trkpt>
      <trkpt lat="50.45305" lon="3.53082">
        <ele>30</ele>
        <time>2022-04-18T16:01:43.000Z</time>
      </trkpt>
      <trkpt lat="50.453" lon="3.53076">
        <ele>30</ele>
        <time>2022-04-18T16:01:44.000Z</time>
      </trkpt>
      <trkpt lat="50.45296" lon="3.5307">
        <ele>30</ele>
        <time>2022-04-18T16:01:45.000Z</time>
      </trkpt>
      <trkpt lat="50.45292" lon="3.53064">
        <ele>30</ele>
        <time>2022-04-18T16:01:46.000Z</time>
      </trkpt>
      <trkpt lat="50.45289" lon="3.53058">
        <ele>30</ele>
        <time>2022-04-18T16:01:47.000Z</time>
      </trkpt>
      <trkpt lat="50.45285" lon="3.53053">
        <ele>30</ele>
        <time>2022-04-18T16:01:48.000Z</time>
      </trkpt>
      <trkpt lat="50.45281" lon="3.53046">
        <ele>30</ele>
        <time>2022-04-18T16:01:49.000Z</time>
      </trkpt>
      <trkpt lat="50.45276" lon="3.5304">
        <ele>30</ele>
        <time>2022-04-18T16:01:50.000Z</time>
      </trkpt>
      <trkpt lat="50.45272" lon="3.53033">
        <ele>30</ele>
        <time>2022-04-18T16:01:51.000Z</time>
      </trkpt>
      <trkpt lat="50.45268" lon="3.53027">
        <ele>30</ele>
        <time>2022-04-18T16:01:52.000Z</time>
      </trkpt>
      <trkpt lat="50.45264" lon="3.53022">
        <ele>30</ele>
        <time>2022-04-18T16:01:53.000Z</time>
      </trkpt>
      <trkpt lat="50.45261" lon="3.53016">
        <ele>30</ele>
        <time>2022-04-18T16:01:54.000Z</time>
      </trkpt>
      <trkpt lat="50.45257" lon="3.5301">
        <ele>30</ele>
        <time>2022-04-18T16:01:55.000Z</time>
      </trkpt>
      <trkpt lat="50.45253" lon="3.53003">
        <ele>30</ele>
        <time>2022-04-18T16:01:56.000Z</time>
      </trkpt>
      <trkpt lat="50.45249" lon="3.52997">
        <ele>30</ele>
        <time>2022-04-18T16:01:57.000Z</time>
      </trkpt>
      <trkpt lat="50.45245" lon="3.5299">
        <ele>30</ele>
        <time>2022-04-18T16:01:58.000Z</time>
      </trkpt>
      <trkpt lat="50.45241" lon="3.52984">
        <ele>30</ele>
        <time>2022-04-18T16:01:59.000Z</time>
      </trkpt>
      <trkpt lat="50.45237" lon="3.52978">
        <ele>30</ele>
        <time>2022-04-18T16:02:00.000Z</time>
      </trkpt>
      <trkpt lat="50.45233" lon="3.52972">
        <ele>30</ele>
        <time>2022-04-18T16:02:01.000Z</time>
      </trkpt>
      <trkpt lat="50.45228" lon="3.52966">
        <ele>29.8</ele>
        <time>2022-04-18T16:02:02.000Z</time>
      </trkpt>
      <trkpt lat="50.45224" lon="3.52959">
        <ele>29.5</ele>
        <time>2022-04-18T16:02:03.000Z</time>
      </trkpt>
      <trkpt lat="50.4522" lon="3.52954">
        <ele>29.4</ele>
        <time>2022-04-18T16:02:04.000Z</time>
      </trkpt>
      <trkpt lat="50.45215" lon="3.52947">
        <ele>29.3</ele>
        <time>2022-04-18T16:02:05.000Z</time>
      </trkpt>
      <trkpt lat="50.45212" lon="3.52942">
        <ele>29.3</ele>
        <time>2022-04-18T16:02:06.000Z</time>
      </trkpt>
      <trkpt lat="50.45208" lon="3.52936">
        <ele>29.4</ele>
        <time>2022-04-18T16:02:07.000Z</time>
      </trkpt>
      <trkpt lat="50.45205" lon="3.52931">
        <ele>29.3</ele>
        <time>2022-04-18T16:02:08.000Z</time>
      </trkpt>
      <trkpt lat="50.452" lon="3.52925">
        <ele>29.2</ele>
        <time>2022-04-18T16:02:09.000Z</time>
      </trkpt>
      <trkpt lat="50.45196" lon="3.52919">
        <ele>29.1</ele>
        <time>2022-04-18T16:02:10.000Z</time>
      </trkpt>
      <trkpt lat="50.45191" lon="3.52913">
        <ele>28.9</ele>
        <time>2022-04-18T16:02:11.000Z</time>
      </trkpt>
      <trkpt lat="50.45188" lon="3.52907">
        <ele>28.7</ele>
        <time>2022-04-18T16:02:12.000Z</time>
      </trkpt>
      <trkpt lat="50.45184" lon="3.52901">
        <ele>28.6</ele>
        <time>2022-04-18T16:02:13.000Z</time>
      </trkpt>
      <trkpt lat="50.45178" lon="3.52894">
        <ele>28.7</ele>
        <time>2022-04-18T16:02:14.000Z</time>
      </trkpt>
      <trkpt lat="50.45174" lon="3.52889">
        <ele>28.7</ele>
        <time>2022-04-18T16:02:15.000Z</time>
      </trkpt>
      <trkpt lat="50.45169" lon="3.52883">
        <ele>28.7</ele>
        <time>2022-04-18T16:02:16.000Z</time>
      </trkpt>
      <trkpt lat="50.45165" lon="3.52877">
        <ele>28.6</ele>
        <time>2022-04-18T16:02:17.000Z</time>
      </trkpt>
      <trkpt lat="50.4516" lon="3.52871">
        <ele>28.5</ele>
        <time>2022-04-18T16:02:18.000Z</time>
      </trkpt>
      <trkpt lat="50.45156" lon="3.52865">
        <ele>28.5</ele>
        <time>2022-04-18T16:02:19.000Z</time>
      </trkpt>
      <trkpt lat="50.45151" lon="3.52858">
        <ele>28.5</ele>
        <time>2022-04-18T16:02:20.000Z</time>
      </trkpt>
      <trkpt lat="50.45146" lon="3.52852">
        <ele>28.4</ele>
        <time>2022-04-18T16:02:21.000Z</time>
      </trkpt>
      <trkpt lat="50.45141" lon="3.52846">
        <ele>28.4</ele>
        <time>2022-04-18T16:02:22.000Z</time>
      </trkpt>
      <trkpt lat="50.45137" lon="3.5284">
        <ele>28.3</ele>
        <time>2022-04-18T16:02:23.000Z</time>
      </trkpt>
      <trkpt lat="50.45133" lon="3.52834">
        <ele>28.2</ele>
        <time>2022-04-18T16:02:24.000Z</time>
      </trkpt>
      <trkpt lat="50.45129" lon="3.52828">
        <ele>28.4</ele>
        <time>2022-04-18T16:02:25.000Z</time>
      </trkpt>
      <trkpt lat="50.45125" lon="3.52823">
        <ele>28.5</ele>
        <time>2022-04-18T16:02:26.000Z</time>
      </trkpt>
      <trkpt lat="50.45121" lon="3.52817">
        <ele>28.6</ele>
        <time>2022-04-18T16:02:27.000Z</time>
      </trkpt>
      <trkpt lat="50.45117" lon="3.52812">
        <ele>28.8</ele>
        <time>2022-04-18T16:02:28.000Z</time>
      </trkpt>
      <trkpt lat="50.45113" lon="3.52807">
        <ele>28.9</ele>
        <time>2022-04-18T16:02:29.000Z</time>
      </trkpt>
      <trkpt lat="50.45109" lon="3.52802">
        <ele>29</ele>
        <time>2022-04-18T16:02:30.000Z</time>
      </trkpt>
      <trkpt lat="50.45105" lon="3.52796">
        <ele>29.1</ele>
        <time>2022-04-18T16:02:31.000Z</time>
      </trkpt>
      <trkpt lat="50.45102" lon="3.52792">
        <ele>29.2</ele>
        <time>2022-04-18T16:02:32.000Z</time>
      </trkpt>
      <trkpt lat="50.45098" lon="3.52787">
        <ele>29.3</ele>
        <time>2022-04-18T16:02:33.000Z</time>
      </trkpt>
      <trkpt lat="50.45092" lon="3.52779">
        <ele>29.7</ele>
        <time>2022-04-18T16:02:35.000Z</time>
      </trkpt>
      <trkpt lat="50.45085" lon="3.52769">
        <ele>29.9</ele>
        <time>2022-04-18T16:02:37.000Z</time>
      </trkpt>
      <trkpt lat="50.45079" lon="3.52762">
        <ele>30</ele>
        <time>2022-04-18T16:02:39.000Z</time>
      </trkpt>
      <trkpt lat="50.45073" lon="3.52753">
        <ele>30</ele>
        <time>2022-04-18T16:02:41.000Z</time>
      </trkpt>
      <trkpt lat="50.45067" lon="3.52745">
        <ele>30</ele>
        <time>2022-04-18T16:02:43.000Z</time>
      </trkpt>
      <trkpt lat="50.4506" lon="3.52738">
        <ele>30</ele>
        <time>2022-04-18T16:02:45.000Z</time>
      </trkpt>
      <trkpt lat="50.45054" lon="3.5273">
        <ele>30.1</ele>
        <time>2022-04-18T16:02:47.000Z</time>
      </trkpt>
      <trkpt lat="50.45049" lon="3.52721">
        <ele>30.2</ele>
        <time>2022-04-18T16:02:49.000Z</time>
      </trkpt>
      <trkpt lat="50.45043" lon="3.52713">
        <ele>30.5</ele>
        <time>2022-04-18T16:02:51.000Z</time>
      </trkpt>
      <trkpt lat="50.45036" lon="3.52705">
        <ele>30.7</ele>
        <time>2022-04-18T16:02:53.369Z</time>
      </trkpt>
      <trkpt lat="50.45029" lon="3.52695">
        <ele>31</ele>
        <time>2022-04-18T16:02:55.689Z</time>
      </trkpt>
      <trkpt lat="50.45024" lon="3.52688">
        <ele>30.8</ele>
        <time>2022-04-18T16:02:57.000Z</time>
      </trkpt>
      <trkpt lat="50.4502" lon="3.52682">
        <ele>30.6</ele>
        <time>2022-04-18T16:02:58.000Z</time>
      </trkpt>
      <trkpt lat="50.45016" lon="3.52677">
        <ele>30.4</ele>
        <time>2022-04-18T16:02:59.000Z</time>
      </trkpt>
      <trkpt lat="50.45011" lon="3.52672">
        <ele>30.2</ele>
        <time>2022-04-18T16:03:00.000Z</time>
      </trkpt>
      <trkpt lat="50.45007" lon="3.52666">
        <ele>30</ele>
        <time>2022-04-18T16:03:01.000Z</time>
      </trkpt>
      <trkpt lat="50.45002" lon="3.5266">
        <ele>29.8</ele>
        <time>2022-04-18T16:03:02.000Z</time>
      </trkpt>
      <trkpt lat="50.44997" lon="3.52653">
        <ele>29.5</ele>
        <time>2022-04-18T16:03:03.000Z</time>
      </trkpt>
    </trkseg>
  </trk>
</gpx>